<?xml version="1.0" encoding="UTF-8" standalone="no" ?>
<gpx xmlns="http://www.topografix.com/GPX/1/1" xmlns:xsi="http://www.w3.org/2001/XMLSchema-instance" xsi:schemaLocation="http://www.topografix.com/GPX/1/1 http://www.topografix.com/GPX/1/1/gpx.xsd" version="1.1" creator="VisuGPX - https://www.visugpx.com">
  <metadata>
    <name>Boucle Aspres / La Faurie</name>
    <desc><![CDATA[Proposée par Espaces Buech Rando]]></desc>
  </metadata>
  <trk>
    <name><![CDATA[Track-split-split-split-split-split]]></name>
    <trkseg>
      <trkpt lat="44.4483" lon="5.68287">
        <ele>936</ele>
        <time>2010-08-02T08:29:02Z</time>
      </trkpt>
      <trkpt lat="44.44813" lon="5.68401">
        <ele>930</ele>
        <time>2010-08-02T08:27:52Z</time>
      </trkpt>
      <trkpt lat="44.4482" lon="5.68417">
        <ele>928</ele>
        <time>2010-04-30T12:12:31Z</time>
      </trkpt>
      <trkpt lat="44.44805" lon="5.68414">
        <ele>929</ele>
        <time>2010-04-30T12:12:45Z</time>
      </trkpt>
      <trkpt lat="44.44791" lon="5.68411">
        <ele>924</ele>
        <time>2010-04-30T12:12:59Z</time>
      </trkpt>
      <trkpt lat="44.44776" lon="5.68416">
        <ele>932</ele>
        <time>2010-04-30T12:13:13Z</time>
      </trkpt>
      <trkpt lat="44.44765" lon="5.68433">
        <ele>930</ele>
        <time>2010-04-30T12:13:27Z</time>
      </trkpt>
      <trkpt lat="44.44758" lon="5.68454">
        <ele>936</ele>
        <time>2010-04-30T12:13:41Z</time>
      </trkpt>
      <trkpt lat="44.44747" lon="5.6847">
        <ele>941</ele>
        <time>2010-04-30T12:13:55Z</time>
      </trkpt>
      <trkpt lat="44.44735" lon="5.68486">
        <ele>939</ele>
        <time>2010-04-30T12:14:09Z</time>
      </trkpt>
      <trkpt lat="44.44721" lon="5.68501">
        <ele>940</ele>
        <time>2010-04-30T12:14:23Z</time>
      </trkpt>
      <trkpt lat="44.44706" lon="5.68511">
        <ele>943</ele>
        <time>2010-04-30T12:14:37Z</time>
      </trkpt>
      <trkpt lat="44.44691" lon="5.68517">
        <ele>949</ele>
        <time>2010-04-30T12:14:51Z</time>
      </trkpt>
      <trkpt lat="44.44674" lon="5.68526">
        <ele>948</ele>
        <time>2010-04-30T12:15:05Z</time>
      </trkpt>
      <trkpt lat="44.44661" lon="5.68539">
        <ele>947</ele>
        <time>2010-04-30T12:15:19Z</time>
      </trkpt>
      <trkpt lat="44.44644" lon="5.68549">
        <ele>949</ele>
        <time>2010-04-30T12:15:33Z</time>
      </trkpt>
      <trkpt lat="44.44626" lon="5.68556">
        <ele>948</ele>
        <time>2010-04-30T12:15:47Z</time>
      </trkpt>
      <trkpt lat="44.44606" lon="5.68558">
        <ele>947</ele>
        <time>2010-04-30T12:16:01Z</time>
      </trkpt>
      <trkpt lat="44.44575" lon="5.68557">
        <ele>955</ele>
        <time>2010-04-30T12:16:15Z</time>
      </trkpt>
      <trkpt lat="44.44543" lon="5.68573">
        <ele>961</ele>
        <time>2010-04-30T12:16:29Z</time>
      </trkpt>
      <trkpt lat="44.44532" lon="5.68615">
        <ele>962</ele>
        <time>2010-04-30T12:16:43Z</time>
      </trkpt>
      <trkpt lat="44.44536" lon="5.68631">
        <ele>968</ele>
        <time>2010-04-30T12:16:57Z</time>
      </trkpt>
      <trkpt lat="44.44534" lon="5.68655">
        <ele>969</ele>
        <time>2010-04-30T12:17:11Z</time>
      </trkpt>
      <trkpt lat="44.44531" lon="5.68675">
        <ele>969</ele>
        <time>2010-04-30T12:17:25Z</time>
      </trkpt>
      <trkpt lat="44.44528" lon="5.68698">
        <ele>976</ele>
        <time>2010-04-30T12:17:39Z</time>
      </trkpt>
      <trkpt lat="44.44527" lon="5.68722">
        <ele>977</ele>
        <time>2010-04-30T12:17:53Z</time>
      </trkpt>
      <trkpt lat="44.44525" lon="5.68745">
        <ele>977</ele>
        <time>2010-04-30T12:18:07Z</time>
      </trkpt>
      <trkpt lat="44.44518" lon="5.68765">
        <ele>981</ele>
        <time>2010-04-30T12:18:21Z</time>
      </trkpt>
      <trkpt lat="44.44508" lon="5.68784">
        <ele>979</ele>
        <time>2010-04-30T12:18:35Z</time>
      </trkpt>
      <trkpt lat="44.44496" lon="5.68803">
        <ele>981</ele>
        <time>2010-04-30T12:18:49Z</time>
      </trkpt>
      <trkpt lat="44.44486" lon="5.68826">
        <ele>977</ele>
        <time>2010-04-30T12:19:03Z</time>
      </trkpt>
      <trkpt lat="44.44474" lon="5.68848">
        <ele>978</ele>
        <time>2010-04-30T12:19:17Z</time>
      </trkpt>
      <trkpt lat="44.4446" lon="5.68869">
        <ele>979</ele>
        <time>2010-04-30T12:19:31Z</time>
      </trkpt>
      <trkpt lat="44.44444" lon="5.68888">
        <ele>980</ele>
        <time>2010-04-30T12:19:45Z</time>
      </trkpt>
      <trkpt lat="44.4443" lon="5.68911">
        <ele>983</ele>
        <time>2010-04-30T12:19:59Z</time>
      </trkpt>
      <trkpt lat="44.44418" lon="5.68932">
        <ele>980</ele>
        <time>2010-04-30T12:20:13Z</time>
      </trkpt>
      <trkpt lat="44.44405" lon="5.68951">
        <ele>982</ele>
        <time>2010-04-30T12:20:27Z</time>
      </trkpt>
      <trkpt lat="44.44385" lon="5.68977">
        <ele>987</ele>
        <time>2010-04-30T12:20:41Z</time>
      </trkpt>
      <trkpt lat="44.44356" lon="5.69001">
        <ele>990</ele>
        <time>2010-04-30T12:20:55Z</time>
      </trkpt>
      <trkpt lat="44.44328" lon="5.69019">
        <ele>991</ele>
        <time>2010-04-30T12:21:09Z</time>
      </trkpt>
      <trkpt lat="44.44305" lon="5.69038">
        <ele>994</ele>
        <time>2010-04-30T12:21:23Z</time>
      </trkpt>
      <trkpt lat="44.44297" lon="5.69063">
        <ele>993</ele>
        <time>2010-04-30T12:21:37Z</time>
      </trkpt>
      <trkpt lat="44.44295" lon="5.69068">
        <ele>994</ele>
        <time>2010-04-30T12:21:51Z</time>
      </trkpt>
      <trkpt lat="44.44295" lon="5.69071">
        <ele>991</ele>
        <time>2010-04-30T12:22:05Z</time>
      </trkpt>
      <trkpt lat="44.44295" lon="5.69071">
        <ele>989</ele>
        <time>2010-04-30T12:22:19Z</time>
      </trkpt>
      <trkpt lat="44.44298" lon="5.69072">
        <ele>997</ele>
        <time>2010-04-30T12:22:33Z</time>
      </trkpt>
      <trkpt lat="44.44293" lon="5.69077">
        <ele>996</ele>
        <time>2010-04-30T12:22:47Z</time>
      </trkpt>
      <trkpt lat="44.4428" lon="5.69087">
        <ele>999</ele>
        <time>2010-04-30T12:23:01Z</time>
      </trkpt>
      <trkpt lat="44.44268" lon="5.69102">
        <ele>998</ele>
        <time>2010-04-30T12:23:15Z</time>
      </trkpt>
      <trkpt lat="44.4426" lon="5.69124">
        <ele>999</ele>
        <time>2010-04-30T12:23:29Z</time>
      </trkpt>
      <trkpt lat="44.44251" lon="5.6914">
        <ele>1002</ele>
        <time>2010-04-30T12:23:43Z</time>
      </trkpt>
      <trkpt lat="44.44237" lon="5.69157">
        <ele>1002</ele>
        <time>2010-04-30T12:23:57Z</time>
      </trkpt>
      <trkpt lat="44.44225" lon="5.69168">
        <ele>1004</ele>
        <time>2010-04-30T12:24:11Z</time>
      </trkpt>
      <trkpt lat="44.44214" lon="5.69178">
        <ele>1005</ele>
        <time>2010-04-30T12:24:25Z</time>
      </trkpt>
      <trkpt lat="44.44199" lon="5.69195">
        <ele>1008</ele>
        <time>2010-04-30T12:24:39Z</time>
      </trkpt>
      <trkpt lat="44.44191" lon="5.69207">
        <ele>1009</ele>
        <time>2010-04-30T12:24:53Z</time>
      </trkpt>
      <trkpt lat="44.44177" lon="5.69217">
        <ele>1008</ele>
        <time>2010-04-30T12:25:07Z</time>
      </trkpt>
      <trkpt lat="44.4416" lon="5.6922">
        <ele>1010</ele>
        <time>2010-04-30T12:25:21Z</time>
      </trkpt>
      <trkpt lat="44.44146" lon="5.69219">
        <ele>1014</ele>
        <time>2010-04-30T12:25:35Z</time>
      </trkpt>
      <trkpt lat="44.44138" lon="5.69237">
        <ele>1015</ele>
        <time>2010-04-30T12:25:49Z</time>
      </trkpt>
      <trkpt lat="44.44125" lon="5.69251">
        <ele>1017</ele>
        <time>2010-04-30T12:26:03Z</time>
      </trkpt>
      <trkpt lat="44.4411" lon="5.69263">
        <ele>1015</ele>
        <time>2010-04-30T12:26:17Z</time>
      </trkpt>
      <trkpt lat="44.44095" lon="5.69275">
        <ele>1017</ele>
        <time>2010-04-30T12:26:31Z</time>
      </trkpt>
      <trkpt lat="44.44079" lon="5.69288">
        <ele>1016</ele>
        <time>2010-04-30T12:26:45Z</time>
      </trkpt>
      <trkpt lat="44.4406" lon="5.69294">
        <ele>1020</ele>
        <time>2010-04-30T12:26:59Z</time>
      </trkpt>
      <trkpt lat="44.44043" lon="5.69299">
        <ele>1022</ele>
        <time>2010-04-30T12:27:13Z</time>
      </trkpt>
      <trkpt lat="44.44025" lon="5.69305">
        <ele>1020</ele>
        <time>2010-04-30T12:27:27Z</time>
      </trkpt>
      <trkpt lat="44.44008" lon="5.69313">
        <ele>1024</ele>
        <time>2010-04-30T12:27:41Z</time>
      </trkpt>
      <trkpt lat="44.43993" lon="5.6932">
        <ele>1023</ele>
        <time>2010-04-30T12:27:55Z</time>
      </trkpt>
      <trkpt lat="44.43977" lon="5.69326">
        <ele>1025</ele>
        <time>2010-04-30T12:28:09Z</time>
      </trkpt>
      <trkpt lat="44.43961" lon="5.69335">
        <ele>1024</ele>
        <time>2010-04-30T12:28:23Z</time>
      </trkpt>
      <trkpt lat="44.43944" lon="5.6934">
        <ele>1029</ele>
        <time>2010-04-30T12:28:37Z</time>
      </trkpt>
      <trkpt lat="44.43927" lon="5.69345">
        <ele>1028</ele>
        <time>2010-04-30T12:28:51Z</time>
      </trkpt>
      <trkpt lat="44.4391" lon="5.69352">
        <ele>1026</ele>
        <time>2010-04-30T12:29:05Z</time>
      </trkpt>
      <trkpt lat="44.43897" lon="5.69363">
        <ele>1028</ele>
        <time>2010-04-30T12:29:19Z</time>
      </trkpt>
      <trkpt lat="44.4388" lon="5.69368">
        <ele>1027</ele>
        <time>2010-04-30T12:29:33Z</time>
      </trkpt>
      <trkpt lat="44.43862" lon="5.69362">
        <ele>1032</ele>
        <time>2010-04-30T12:29:47Z</time>
      </trkpt>
      <trkpt lat="44.43844" lon="5.69363">
        <ele>1030</ele>
        <time>2010-04-30T12:30:01Z</time>
      </trkpt>
      <trkpt lat="44.43826" lon="5.69371">
        <ele>1032</ele>
        <time>2010-04-30T12:30:15Z</time>
      </trkpt>
      <trkpt lat="44.43825" lon="5.69375">
        <ele>1031</ele>
        <time>2010-04-30T12:30:29Z</time>
      </trkpt>
      <trkpt lat="44.43825" lon="5.69375">
        <ele>1029</ele>
        <time>2010-04-30T12:30:43Z</time>
      </trkpt>
      <trkpt lat="44.43823" lon="5.69377">
        <ele>1029</ele>
        <time>2010-04-30T12:30:57Z</time>
      </trkpt>
      <trkpt lat="44.43823" lon="5.69377">
        <ele>1030</ele>
        <time>2010-04-30T12:31:11Z</time>
      </trkpt>
      <trkpt lat="44.43824" lon="5.69377">
        <ele>1026</ele>
        <time>2010-04-30T12:31:25Z</time>
      </trkpt>
      <trkpt lat="44.43825" lon="5.69378">
        <ele>1029</ele>
        <time>2010-04-30T12:31:39Z</time>
      </trkpt>
      <trkpt lat="44.43822" lon="5.69372">
        <ele>1030</ele>
        <time>2010-04-30T12:31:53Z</time>
      </trkpt>
      <trkpt lat="44.43821" lon="5.69373">
        <ele>1028</ele>
        <time>2010-04-30T12:32:07Z</time>
      </trkpt>
      <trkpt lat="44.43816" lon="5.69376">
        <ele>1032</ele>
        <time>2010-04-30T12:32:21Z</time>
      </trkpt>
      <trkpt lat="44.43817" lon="5.69376">
        <ele>1031</ele>
        <time>2010-04-30T12:32:35Z</time>
      </trkpt>
      <trkpt lat="44.43817" lon="5.69376">
        <ele>1028</ele>
        <time>2010-04-30T12:32:49Z</time>
      </trkpt>
      <trkpt lat="44.43817" lon="5.69376">
        <ele>1027</ele>
        <time>2010-04-30T12:33:03Z</time>
      </trkpt>
      <trkpt lat="44.43812" lon="5.69384">
        <ele>1029</ele>
      </trkpt>
      <trkpt lat="44.43783" lon="5.6937">
        <ele>1028.3</ele>
      </trkpt>
      <trkpt lat="44.4379" lon="5.69295">
        <ele>1022.6</ele>
      </trkpt>
      <trkpt lat="44.43838" lon="5.69119">
        <ele>1019.7</ele>
      </trkpt>
      <trkpt lat="44.43828" lon="5.69121">
        <ele>966</ele>
        <time>2010-04-30T13:06:25Z</time>
      </trkpt>
      <trkpt lat="44.43842" lon="5.69116">
        <ele>961</ele>
        <time>2010-04-30T13:06:39Z</time>
      </trkpt>
      <trkpt lat="44.43843" lon="5.6909">
        <ele>961</ele>
        <time>2010-04-30T13:06:53Z</time>
      </trkpt>
      <trkpt lat="44.43841" lon="5.69066">
        <ele>963</ele>
        <time>2010-04-30T13:07:07Z</time>
      </trkpt>
      <trkpt lat="44.43845" lon="5.69042">
        <ele>961</ele>
        <time>2010-04-30T13:07:21Z</time>
      </trkpt>
      <trkpt lat="44.43832" lon="5.69025">
        <ele>959</ele>
        <time>2010-04-30T13:07:35Z</time>
      </trkpt>
      <trkpt lat="44.43821" lon="5.69045">
        <ele>954</ele>
        <time>2010-04-30T13:07:49Z</time>
      </trkpt>
      <trkpt lat="44.43819" lon="5.69071">
        <ele>954</ele>
        <time>2010-04-30T13:08:03Z</time>
      </trkpt>
      <trkpt lat="44.43807" lon="5.69093">
        <ele>950</ele>
        <time>2010-04-30T13:08:17Z</time>
      </trkpt>
      <trkpt lat="44.43793" lon="5.69115">
        <ele>952</ele>
        <time>2010-04-30T13:08:31Z</time>
      </trkpt>
      <trkpt lat="44.4378" lon="5.69138">
        <ele>947</ele>
        <time>2010-04-30T13:08:45Z</time>
      </trkpt>
      <trkpt lat="44.4377" lon="5.69162">
        <ele>946</ele>
        <time>2010-04-30T13:08:59Z</time>
      </trkpt>
      <trkpt lat="44.43758" lon="5.69185">
        <ele>943</ele>
        <time>2010-04-30T13:09:13Z</time>
      </trkpt>
      <trkpt lat="44.43742" lon="5.69191">
        <ele>940</ele>
        <time>2010-04-30T13:09:27Z</time>
      </trkpt>
      <trkpt lat="44.43738" lon="5.69161">
        <ele>940</ele>
        <time>2010-04-30T13:09:41Z</time>
      </trkpt>
      <trkpt lat="44.43736" lon="5.69134">
        <ele>937</ele>
        <time>2010-04-30T13:09:55Z</time>
      </trkpt>
      <trkpt lat="44.4373" lon="5.69108">
        <ele>934</ele>
        <time>2010-04-30T13:10:09Z</time>
      </trkpt>
      <trkpt lat="44.43723" lon="5.69083">
        <ele>934</ele>
        <time>2010-04-30T13:10:23Z</time>
      </trkpt>
      <trkpt lat="44.43708" lon="5.69064">
        <ele>932</ele>
        <time>2010-04-30T13:10:37Z</time>
      </trkpt>
      <trkpt lat="44.43707" lon="5.69086">
        <ele>931</ele>
        <time>2010-04-30T13:10:51Z</time>
      </trkpt>
      <trkpt lat="44.43714" lon="5.69111">
        <ele>927</ele>
        <time>2010-04-30T13:11:05Z</time>
      </trkpt>
      <trkpt lat="44.43706" lon="5.69138">
        <ele>926</ele>
        <time>2010-04-30T13:11:19Z</time>
      </trkpt>
      <trkpt lat="44.43696" lon="5.69161">
        <ele>927</ele>
        <time>2010-04-30T13:11:33Z</time>
      </trkpt>
      <trkpt lat="44.43685" lon="5.69182">
        <ele>922</ele>
        <time>2010-04-30T13:11:47Z</time>
      </trkpt>
      <trkpt lat="44.43676" lon="5.69208">
        <ele>919</ele>
        <time>2010-04-30T13:12:01Z</time>
      </trkpt>
      <trkpt lat="44.43668" lon="5.69234">
        <ele>920</ele>
        <time>2010-04-30T13:12:15Z</time>
      </trkpt>
      <trkpt lat="44.43658" lon="5.69263">
        <ele>913</ele>
        <time>2010-04-30T13:12:29Z</time>
      </trkpt>
      <trkpt lat="44.4365" lon="5.69287">
        <ele>913</ele>
        <time>2010-04-30T13:12:43Z</time>
      </trkpt>
      <trkpt lat="44.43638" lon="5.69307">
        <ele>912</ele>
        <time>2010-04-30T13:12:57Z</time>
      </trkpt>
      <trkpt lat="44.43625" lon="5.69328">
        <ele>908</ele>
        <time>2010-04-30T13:13:11Z</time>
      </trkpt>
      <trkpt lat="44.43614" lon="5.69351">
        <ele>908</ele>
        <time>2010-04-30T13:13:25Z</time>
      </trkpt>
      <trkpt lat="44.43614" lon="5.69376">
        <ele>904</ele>
        <time>2010-04-30T13:13:39Z</time>
      </trkpt>
      <trkpt lat="44.43606" lon="5.69401">
        <ele>902</ele>
        <time>2010-04-30T13:13:53Z</time>
      </trkpt>
      <trkpt lat="44.43587" lon="5.69409">
        <ele>903</ele>
        <time>2010-04-30T13:14:07Z</time>
      </trkpt>
      <trkpt lat="44.43577" lon="5.69387">
        <ele>901</ele>
        <time>2010-04-30T13:14:21Z</time>
      </trkpt>
      <trkpt lat="44.43581" lon="5.69361">
        <ele>896</ele>
        <time>2010-04-30T13:14:35Z</time>
      </trkpt>
      <trkpt lat="44.4358" lon="5.69331">
        <ele>895</ele>
        <time>2010-04-30T13:14:49Z</time>
      </trkpt>
      <trkpt lat="44.43583" lon="5.69303">
        <ele>899</ele>
        <time>2010-04-30T13:15:03Z</time>
      </trkpt>
      <trkpt lat="44.43588" lon="5.69277">
        <ele>896</ele>
        <time>2010-04-30T13:15:17Z</time>
      </trkpt>
      <trkpt lat="44.43586" lon="5.6925">
        <ele>892</ele>
        <time>2010-04-30T13:15:31Z</time>
      </trkpt>
      <trkpt lat="44.43577" lon="5.69228">
        <ele>891</ele>
        <time>2010-04-30T13:15:45Z</time>
      </trkpt>
      <trkpt lat="44.43568" lon="5.69203">
        <ele>890</ele>
        <time>2010-04-30T13:15:59Z</time>
      </trkpt>
      <trkpt lat="44.43562" lon="5.69222">
        <ele>888</ele>
        <time>2010-04-30T13:16:13Z</time>
      </trkpt>
      <trkpt lat="44.43562" lon="5.69247">
        <ele>884</ele>
        <time>2010-04-30T13:16:27Z</time>
      </trkpt>
      <trkpt lat="44.43561" lon="5.69272">
        <ele>885</ele>
        <time>2010-04-30T13:16:41Z</time>
      </trkpt>
      <trkpt lat="44.43548" lon="5.69296">
        <ele>879</ele>
        <time>2010-04-30T13:16:55Z</time>
      </trkpt>
      <trkpt lat="44.43537" lon="5.69319">
        <ele>877</ele>
        <time>2010-04-30T13:17:09Z</time>
      </trkpt>
      <trkpt lat="44.43521" lon="5.69336">
        <ele>874</ele>
        <time>2010-04-30T13:17:23Z</time>
      </trkpt>
      <trkpt lat="44.43511" lon="5.69357">
        <ele>874</ele>
        <time>2010-04-30T13:17:37Z</time>
      </trkpt>
      <trkpt lat="44.43504" lon="5.69382">
        <ele>869</ele>
        <time>2010-04-30T13:17:51Z</time>
      </trkpt>
      <trkpt lat="44.43496" lon="5.69405">
        <ele>868</ele>
        <time>2010-04-30T13:18:05Z</time>
      </trkpt>
      <trkpt lat="44.43482" lon="5.69427">
        <ele>866</ele>
        <time>2010-04-30T13:18:19Z</time>
      </trkpt>
      <trkpt lat="44.43465" lon="5.69442">
        <ele>865</ele>
        <time>2010-04-30T13:18:33Z</time>
      </trkpt>
      <trkpt lat="44.43444" lon="5.69451">
        <ele>860</ele>
        <time>2010-04-30T13:18:47Z</time>
      </trkpt>
      <trkpt lat="44.43426" lon="5.69462">
        <ele>861</ele>
        <time>2010-04-30T13:19:01Z</time>
      </trkpt>
      <trkpt lat="44.43407" lon="5.6947">
        <ele>861</ele>
        <time>2010-04-30T13:19:15Z</time>
      </trkpt>
      <trkpt lat="44.43387" lon="5.69472">
        <ele>855</ele>
        <time>2010-04-30T13:19:29Z</time>
      </trkpt>
      <trkpt lat="44.4337" lon="5.6948">
        <ele>854</ele>
        <time>2010-04-30T13:19:43Z</time>
      </trkpt>
      <trkpt lat="44.43351" lon="5.6949">
        <ele>855</ele>
        <time>2010-04-30T13:19:57Z</time>
      </trkpt>
      <trkpt lat="44.43333" lon="5.69501">
        <ele>851</ele>
        <time>2010-04-30T13:20:11Z</time>
      </trkpt>
      <trkpt lat="44.43317" lon="5.69512">
        <ele>848</ele>
        <time>2010-04-30T13:20:25Z</time>
      </trkpt>
      <trkpt lat="44.433" lon="5.69527">
        <ele>848</ele>
        <time>2010-04-30T13:20:39Z</time>
      </trkpt>
      <trkpt lat="44.43289" lon="5.6954">
        <ele>847</ele>
        <time>2010-04-30T13:20:53Z</time>
      </trkpt>
      <trkpt lat="44.4328" lon="5.69557">
        <ele>846</ele>
        <time>2010-04-30T13:21:07Z</time>
      </trkpt>
      <trkpt lat="44.43269" lon="5.69579">
        <ele>843</ele>
        <time>2010-04-30T13:21:21Z</time>
      </trkpt>
      <trkpt lat="44.43256" lon="5.69599">
        <ele>840</ele>
        <time>2010-04-30T13:21:35Z</time>
      </trkpt>
      <trkpt lat="44.43249" lon="5.69621">
        <ele>835</ele>
        <time>2010-04-30T13:21:49Z</time>
      </trkpt>
      <trkpt lat="44.43236" lon="5.69642">
        <ele>831</ele>
        <time>2010-04-30T13:22:03Z</time>
      </trkpt>
      <trkpt lat="44.43224" lon="5.69662">
        <ele>829</ele>
        <time>2010-04-30T13:22:17Z</time>
      </trkpt>
      <trkpt lat="44.43218" lon="5.69684">
        <ele>829</ele>
        <time>2010-04-30T13:22:31Z</time>
      </trkpt>
      <trkpt lat="44.43213" lon="5.69708">
        <ele>827</ele>
        <time>2010-04-30T13:22:45Z</time>
      </trkpt>
      <trkpt lat="44.43204" lon="5.6973">
        <ele>822</ele>
        <time>2010-04-30T13:22:59Z</time>
      </trkpt>
      <trkpt lat="44.43191" lon="5.69753">
        <ele>822</ele>
        <time>2010-04-30T13:23:13Z</time>
      </trkpt>
      <trkpt lat="44.43175" lon="5.69767">
        <ele>821</ele>
        <time>2010-04-30T13:23:27Z</time>
      </trkpt>
      <trkpt lat="44.4316" lon="5.69782">
        <ele>817</ele>
        <time>2010-04-30T13:23:41Z</time>
      </trkpt>
      <trkpt lat="44.43144" lon="5.69796">
        <ele>814</ele>
        <time>2010-04-30T13:23:55Z</time>
      </trkpt>
      <trkpt lat="44.43128" lon="5.69809">
        <ele>817</ele>
        <time>2010-04-30T13:24:09Z</time>
      </trkpt>
      <trkpt lat="44.43112" lon="5.69824">
        <ele>809</ele>
        <time>2010-04-30T13:24:23Z</time>
      </trkpt>
      <trkpt lat="44.43097" lon="5.69838">
        <ele>808</ele>
        <time>2010-04-30T13:24:37Z</time>
      </trkpt>
      <trkpt lat="44.43078" lon="5.69851">
        <ele>805</ele>
        <time>2010-04-30T13:24:51Z</time>
      </trkpt>
      <trkpt lat="44.43061" lon="5.69858">
        <ele>803</ele>
        <time>2010-04-30T13:25:05Z</time>
      </trkpt>
      <trkpt lat="44.43046" lon="5.69868">
        <ele>800</ele>
        <time>2010-04-30T13:25:19Z</time>
      </trkpt>
      <trkpt lat="44.43032" lon="5.69885">
        <ele>795</ele>
        <time>2010-04-30T13:25:33Z</time>
      </trkpt>
      <trkpt lat="44.43015" lon="5.69896">
        <ele>796</ele>
        <time>2010-04-30T13:25:47Z</time>
      </trkpt>
      <trkpt lat="44.43" lon="5.69906">
        <ele>791</ele>
        <time>2010-04-30T13:26:01Z</time>
      </trkpt>
      <trkpt lat="44.42986" lon="5.69926">
        <ele>788</ele>
        <time>2010-04-30T13:26:15Z</time>
      </trkpt>
      <trkpt lat="44.42976" lon="5.69947">
        <ele>785</ele>
        <time>2010-04-30T13:26:29Z</time>
      </trkpt>
      <trkpt lat="44.42964" lon="5.6997">
        <ele>783</ele>
        <time>2010-04-30T13:26:43Z</time>
      </trkpt>
      <trkpt lat="44.42953" lon="5.69995">
        <ele>783</ele>
        <time>2010-04-30T13:26:57Z</time>
      </trkpt>
      <trkpt lat="44.42943" lon="5.70018">
        <ele>779</ele>
        <time>2010-04-30T13:27:11Z</time>
      </trkpt>
      <trkpt lat="44.42931" lon="5.7004">
        <ele>775</ele>
        <time>2010-04-30T13:27:25Z</time>
      </trkpt>
      <trkpt lat="44.42919" lon="5.70061">
        <ele>775</ele>
        <time>2010-04-30T13:27:39Z</time>
      </trkpt>
      <trkpt lat="44.42906" lon="5.7008">
        <ele>775</ele>
        <time>2010-04-30T13:27:53Z</time>
      </trkpt>
      <trkpt lat="44.42892" lon="5.701">
        <ele>770</ele>
        <time>2010-04-30T13:28:07Z</time>
      </trkpt>
      <trkpt lat="44.42882" lon="5.70122">
        <ele>771</ele>
        <time>2010-04-30T13:28:21Z</time>
      </trkpt>
      <trkpt lat="44.42874" lon="5.70147">
        <ele>770</ele>
        <time>2010-04-30T13:28:35Z</time>
      </trkpt>
      <trkpt lat="44.42866" lon="5.70171">
        <ele>766</ele>
        <time>2010-04-30T13:28:49Z</time>
      </trkpt>
      <trkpt lat="44.42866" lon="5.70197">
        <ele>764</ele>
        <time>2010-04-30T13:29:03Z</time>
      </trkpt>
      <trkpt lat="44.42867" lon="5.70223">
        <ele>760</ele>
        <time>2010-04-30T13:29:17Z</time>
      </trkpt>
      <trkpt lat="44.42858" lon="5.70229">
        <ele>757</ele>
        <time>2010-04-30T13:29:31Z</time>
      </trkpt>
      <trkpt lat="44.42844" lon="5.70208">
        <ele>761</ele>
        <time>2010-04-30T13:29:45Z</time>
      </trkpt>
      <trkpt lat="44.42833" lon="5.70185">
        <ele>758</ele>
        <time>2010-04-30T13:29:59Z</time>
      </trkpt>
      <trkpt lat="44.42832" lon="5.7016">
        <ele>752</ele>
        <time>2010-04-30T13:30:13Z</time>
      </trkpt>
      <trkpt lat="44.42825" lon="5.70151">
        <ele>749</ele>
        <time>2010-04-30T13:30:27Z</time>
      </trkpt>
      <trkpt lat="44.42816" lon="5.70173">
        <ele>750</ele>
        <time>2010-04-30T13:30:41Z</time>
      </trkpt>
      <trkpt lat="44.42808" lon="5.70194">
        <ele>744</ele>
        <time>2010-04-30T13:30:55Z</time>
      </trkpt>
      <trkpt lat="44.42807" lon="5.70217">
        <ele>745</ele>
        <time>2010-04-30T13:31:09Z</time>
      </trkpt>
      <trkpt lat="44.42809" lon="5.70234">
        <ele>742</ele>
        <time>2010-04-30T13:31:23Z</time>
      </trkpt>
      <trkpt lat="44.42813" lon="5.70255">
        <ele>736</ele>
        <time>2010-04-30T13:31:37Z</time>
      </trkpt>
      <trkpt lat="44.42817" lon="5.70275">
        <ele>736</ele>
        <time>2010-04-30T13:31:51Z</time>
      </trkpt>
      <trkpt lat="44.4283" lon="5.70294">
        <ele>734</ele>
        <time>2010-04-30T13:32:05Z</time>
      </trkpt>
      <trkpt lat="44.42836" lon="5.7032">
        <ele>733</ele>
        <time>2010-04-30T13:32:19Z</time>
      </trkpt>
      <trkpt lat="44.42834" lon="5.70343">
        <ele>732</ele>
        <time>2010-04-30T13:32:33Z</time>
      </trkpt>
      <trkpt lat="44.4284" lon="5.70366">
        <ele>727</ele>
        <time>2010-04-30T13:32:47Z</time>
      </trkpt>
      <trkpt lat="44.42843" lon="5.70391">
        <ele>724</ele>
        <time>2010-04-30T13:33:01Z</time>
      </trkpt>
      <trkpt lat="44.42847" lon="5.70416">
        <ele>723</ele>
        <time>2010-04-30T13:33:15Z</time>
      </trkpt>
      <trkpt lat="44.42853" lon="5.7044">
        <ele>718</ele>
        <time>2010-04-30T13:33:29Z</time>
      </trkpt>
      <trkpt lat="44.42844" lon="5.70463">
        <ele>720</ele>
        <time>2010-04-30T13:33:43Z</time>
      </trkpt>
      <trkpt lat="44.42836" lon="5.70486">
        <ele>717</ele>
        <time>2010-04-30T13:33:57Z</time>
      </trkpt>
      <trkpt lat="44.42829" lon="5.70512">
        <ele>718</ele>
        <time>2010-04-30T13:34:11Z</time>
      </trkpt>
      <trkpt lat="44.42825" lon="5.70536">
        <ele>716</ele>
        <time>2010-04-30T13:34:25Z</time>
      </trkpt>
      <trkpt lat="44.42822" lon="5.70564">
        <ele>711</ele>
        <time>2010-04-30T13:34:39Z</time>
      </trkpt>
      <trkpt lat="44.4282" lon="5.7059">
        <ele>710</ele>
        <time>2010-04-30T13:34:53Z</time>
      </trkpt>
      <trkpt lat="44.42815" lon="5.70615">
        <ele>705</ele>
        <time>2010-04-30T13:35:07Z</time>
      </trkpt>
      <trkpt lat="44.42813" lon="5.70639">
        <ele>705</ele>
        <time>2010-04-30T13:35:21Z</time>
      </trkpt>
      <trkpt lat="44.42811" lon="5.70664">
        <ele>706</ele>
        <time>2010-04-30T13:35:35Z</time>
      </trkpt>
      <trkpt lat="44.4281" lon="5.7069">
        <ele>701</ele>
        <time>2010-04-30T13:35:49Z</time>
      </trkpt>
      <trkpt lat="44.42808" lon="5.70716">
        <ele>700</ele>
        <time>2010-04-30T13:36:03Z</time>
      </trkpt>
      <trkpt lat="44.42806" lon="5.70729">
        <ele>699</ele>
        <time>2010-04-30T13:36:17Z</time>
      </trkpt>
      <trkpt lat="44.42801" lon="5.70754">
        <ele>699</ele>
        <time>2010-04-30T13:36:31Z</time>
      </trkpt>
      <trkpt lat="44.42794" lon="5.70777">
        <ele>696</ele>
        <time>2010-04-30T13:36:45Z</time>
      </trkpt>
      <trkpt lat="44.4279" lon="5.70801">
        <ele>694</ele>
        <time>2010-04-30T13:36:59Z</time>
      </trkpt>
      <trkpt lat="44.42789" lon="5.70827">
        <ele>690</ele>
        <time>2010-04-30T13:37:13Z</time>
      </trkpt>
      <trkpt lat="44.42786" lon="5.70851">
        <ele>691</ele>
        <time>2010-04-30T13:37:27Z</time>
      </trkpt>
      <trkpt lat="44.42778" lon="5.70871">
        <ele>691</ele>
        <time>2010-04-30T13:37:41Z</time>
      </trkpt>
      <trkpt lat="44.42769" lon="5.70894">
        <ele>686</ele>
        <time>2010-04-30T13:37:55Z</time>
      </trkpt>
      <trkpt lat="44.42765" lon="5.70918">
        <ele>684</ele>
        <time>2010-04-30T13:38:09Z</time>
      </trkpt>
      <trkpt lat="44.42757" lon="5.70942">
        <ele>682</ele>
        <time>2010-04-30T13:38:23Z</time>
      </trkpt>
      <trkpt lat="44.42755" lon="5.70966">
        <ele>686</ele>
        <time>2010-04-30T13:38:37Z</time>
      </trkpt>
      <trkpt lat="44.42755" lon="5.70992">
        <ele>678</ele>
        <time>2010-04-30T13:38:51Z</time>
      </trkpt>
      <trkpt lat="44.42758" lon="5.71014">
        <ele>679</ele>
        <time>2010-04-30T13:39:05Z</time>
      </trkpt>
      <trkpt lat="44.42757" lon="5.71028">
        <ele>678</ele>
        <time>2010-04-30T13:39:19Z</time>
      </trkpt>
      <trkpt lat="44.42749" lon="5.71006">
        <ele>680</ele>
        <time>2010-04-30T13:39:33Z</time>
      </trkpt>
      <trkpt lat="44.42746" lon="5.7098">
        <ele>680</ele>
        <time>2010-04-30T13:39:47Z</time>
      </trkpt>
      <trkpt lat="44.42745" lon="5.70955">
        <ele>680</ele>
        <time>2010-04-30T13:40:01Z</time>
      </trkpt>
      <trkpt lat="44.42747" lon="5.70931">
        <ele>679</ele>
        <time>2010-04-30T13:40:15Z</time>
      </trkpt>
      <trkpt lat="44.42749" lon="5.70906">
        <ele>681</ele>
        <time>2010-04-30T13:40:29Z</time>
      </trkpt>
      <trkpt lat="44.42747" lon="5.7088">
        <ele>684</ele>
        <time>2010-04-30T13:40:43Z</time>
      </trkpt>
      <trkpt lat="44.42739" lon="5.70858">
        <ele>680</ele>
        <time>2010-04-30T13:40:57Z</time>
      </trkpt>
      <trkpt lat="44.42725" lon="5.70846">
        <ele>676</ele>
        <time>2010-04-30T13:41:11Z</time>
      </trkpt>
      <trkpt lat="44.42707" lon="5.70846">
        <ele>675</ele>
        <time>2010-04-30T13:41:25Z</time>
      </trkpt>
      <trkpt lat="44.42691" lon="5.70853">
        <ele>670</ele>
        <time>2010-04-30T13:41:39Z</time>
      </trkpt>
      <trkpt lat="44.42674" lon="5.70859">
        <ele>667</ele>
        <time>2010-04-30T13:41:53Z</time>
      </trkpt>
      <trkpt lat="44.42658" lon="5.70862">
        <ele>670</ele>
        <time>2010-04-30T13:42:07Z</time>
      </trkpt>
      <trkpt lat="44.42639" lon="5.70864">
        <ele>664</ele>
        <time>2010-04-30T13:42:21Z</time>
      </trkpt>
      <trkpt lat="44.42625" lon="5.70848">
        <ele>665</ele>
        <time>2010-04-30T13:42:35Z</time>
      </trkpt>
      <trkpt lat="44.42608" lon="5.70835">
        <ele>663</ele>
        <time>2010-04-30T13:42:49Z</time>
      </trkpt>
      <trkpt lat="44.42591" lon="5.70848">
        <ele>660</ele>
        <time>2010-04-30T13:43:03Z</time>
      </trkpt>
      <trkpt lat="44.42577" lon="5.70865">
        <ele>659</ele>
        <time>2010-04-30T13:43:17Z</time>
      </trkpt>
      <trkpt lat="44.42561" lon="5.70879">
        <ele>657</ele>
        <time>2010-04-30T13:43:31Z</time>
      </trkpt>
      <trkpt lat="44.42547" lon="5.70897">
        <ele>658</ele>
        <time>2010-04-30T13:43:45Z</time>
      </trkpt>
      <trkpt lat="44.42533" lon="5.70912">
        <ele>658</ele>
        <time>2010-04-30T13:43:59Z</time>
      </trkpt>
      <trkpt lat="44.42522" lon="5.70931">
        <ele>649</ele>
        <time>2010-04-30T13:44:13Z</time>
      </trkpt>
      <trkpt lat="44.42521" lon="5.7094">
        <ele>653</ele>
        <time>2010-04-30T13:44:27Z</time>
      </trkpt>
      <trkpt lat="44.42534" lon="5.70958">
        <ele>653</ele>
        <time>2010-04-30T13:44:41Z</time>
      </trkpt>
      <trkpt lat="44.42537" lon="5.7096">
        <ele>659</ele>
        <time>2010-04-30T13:44:55Z</time>
      </trkpt>
      <trkpt lat="44.42555" lon="5.70969">
        <ele>652</ele>
        <time>2010-04-30T13:45:09Z</time>
      </trkpt>
      <trkpt lat="44.42572" lon="5.70981">
        <ele>651</ele>
        <time>2010-04-30T13:45:23Z</time>
      </trkpt>
      <trkpt lat="44.42587" lon="5.70994">
        <ele>656</ele>
        <time>2010-04-30T13:45:37Z</time>
      </trkpt>
      <trkpt lat="44.42592" lon="5.71014">
        <ele>651</ele>
        <time>2010-04-30T13:45:51Z</time>
      </trkpt>
      <trkpt lat="44.42574" lon="5.71018">
        <ele>654</ele>
        <time>2010-04-30T13:46:05Z</time>
      </trkpt>
      <trkpt lat="44.42558" lon="5.71016">
        <ele>656</ele>
        <time>2010-04-30T13:46:19Z</time>
      </trkpt>
      <trkpt lat="44.42538" lon="5.71019">
        <ele>653</ele>
        <time>2010-04-30T13:46:33Z</time>
      </trkpt>
      <trkpt lat="44.42519" lon="5.71025">
        <ele>648</ele>
        <time>2010-04-30T13:46:47Z</time>
      </trkpt>
      <trkpt lat="44.42504" lon="5.71041">
        <ele>653</ele>
        <time>2010-04-30T13:47:01Z</time>
      </trkpt>
      <trkpt lat="44.42504" lon="5.7106">
        <ele>651</ele>
        <time>2010-04-30T13:47:15Z</time>
      </trkpt>
      <trkpt lat="44.42511" lon="5.71085">
        <ele>649</ele>
        <time>2010-04-30T13:47:29Z</time>
      </trkpt>
      <trkpt lat="44.42525" lon="5.71105">
        <ele>644</ele>
        <time>2010-04-30T13:47:43Z</time>
      </trkpt>
      <trkpt lat="44.4254" lon="5.71124">
        <ele>647</ele>
        <time>2010-04-30T13:47:57Z</time>
      </trkpt>
      <trkpt lat="44.42554" lon="5.71144">
        <ele>644</ele>
        <time>2010-04-30T13:48:11Z</time>
      </trkpt>
      <trkpt lat="44.42568" lon="5.71164">
        <ele>643</ele>
        <time>2010-04-30T13:48:25Z</time>
      </trkpt>
      <trkpt lat="44.42582" lon="5.71183">
        <ele>640</ele>
        <time>2010-04-30T13:48:39Z</time>
      </trkpt>
      <trkpt lat="44.42594" lon="5.71201">
        <ele>648</ele>
        <time>2010-04-30T13:48:53Z</time>
      </trkpt>
      <trkpt lat="44.42607" lon="5.71223">
        <ele>650</ele>
        <time>2010-04-30T13:49:07Z</time>
      </trkpt>
      <trkpt lat="44.4262" lon="5.71242">
        <ele>646</ele>
        <time>2010-04-30T13:49:21Z</time>
      </trkpt>
      <trkpt lat="44.42634" lon="5.71261">
        <ele>647</ele>
        <time>2010-04-30T13:49:35Z</time>
      </trkpt>
      <trkpt lat="44.42648" lon="5.71279">
        <ele>641</ele>
        <time>2010-04-30T13:49:49Z</time>
      </trkpt>
      <trkpt lat="44.42661" lon="5.71298">
        <ele>649</ele>
        <time>2010-04-30T13:50:03Z</time>
      </trkpt>
      <trkpt lat="44.42673" lon="5.71318">
        <ele>646</ele>
        <time>2010-04-30T13:50:17Z</time>
      </trkpt>
      <trkpt lat="44.42688" lon="5.71336">
        <ele>646</ele>
        <time>2010-04-30T13:50:31Z</time>
      </trkpt>
      <trkpt lat="44.42701" lon="5.71353">
        <ele>645</ele>
        <time>2010-04-30T13:50:45Z</time>
      </trkpt>
      <trkpt lat="44.42713" lon="5.71372">
        <ele>645</ele>
        <time>2010-04-30T13:50:59Z</time>
      </trkpt>
      <trkpt lat="44.42726" lon="5.7139">
        <ele>646</ele>
        <time>2010-04-30T13:51:13Z</time>
      </trkpt>
      <trkpt lat="44.42737" lon="5.71411">
        <ele>648</ele>
        <time>2010-04-30T13:51:27Z</time>
      </trkpt>
      <trkpt lat="44.4272" lon="5.71425">
        <ele>647</ele>
        <time>2010-04-30T13:51:41Z</time>
      </trkpt>
      <trkpt lat="44.42699" lon="5.71434">
        <ele>651</ele>
        <time>2010-04-30T13:51:55Z</time>
      </trkpt>
      <trkpt lat="44.42683" lon="5.71448">
        <ele>647</ele>
        <time>2010-04-30T13:52:09Z</time>
      </trkpt>
      <trkpt lat="44.42669" lon="5.71465">
        <ele>647</ele>
        <time>2010-04-30T13:52:23Z</time>
      </trkpt>
      <trkpt lat="44.42658" lon="5.71484">
        <ele>646</ele>
        <time>2010-04-30T13:52:37Z</time>
      </trkpt>
      <trkpt lat="44.42657" lon="5.71489">
        <ele>646</ele>
        <time>2010-04-30T13:52:51Z</time>
      </trkpt>
      <trkpt lat="44.42671" lon="5.71505">
        <ele>647</ele>
        <time>2010-04-30T13:53:05Z</time>
      </trkpt>
      <trkpt lat="44.42689" lon="5.71515">
        <ele>645</ele>
        <time>2010-04-30T13:53:19Z</time>
      </trkpt>
      <trkpt lat="44.42706" lon="5.71526">
        <ele>646</ele>
        <time>2010-04-30T13:53:33Z</time>
      </trkpt>
      <trkpt lat="44.42724" lon="5.71538">
        <ele>647</ele>
        <time>2010-04-30T13:53:47Z</time>
      </trkpt>
      <trkpt lat="44.42744" lon="5.71549">
        <ele>649</ele>
        <time>2010-04-30T13:54:01Z</time>
      </trkpt>
      <trkpt lat="44.42761" lon="5.71561">
        <ele>649</ele>
        <time>2010-04-30T13:54:15Z</time>
      </trkpt>
      <trkpt lat="44.4278" lon="5.71572">
        <ele>648</ele>
        <time>2010-04-30T13:54:29Z</time>
      </trkpt>
      <trkpt lat="44.42798" lon="5.71582">
        <ele>649</ele>
        <time>2010-04-30T13:54:43Z</time>
      </trkpt>
      <trkpt lat="44.42813" lon="5.71591">
        <ele>649</ele>
        <time>2010-04-30T13:54:57Z</time>
      </trkpt>
      <trkpt lat="44.4283" lon="5.71602">
        <ele>651</ele>
        <time>2010-04-30T13:55:11Z</time>
      </trkpt>
      <trkpt lat="44.42847" lon="5.71615">
        <ele>652</ele>
        <time>2010-04-30T13:55:25Z</time>
      </trkpt>
      <trkpt lat="44.42862" lon="5.71628">
        <ele>652</ele>
        <time>2010-04-30T13:55:39Z</time>
      </trkpt>
      <trkpt lat="44.42877" lon="5.71646">
        <ele>646</ele>
        <time>2010-04-30T13:55:53Z</time>
      </trkpt>
      <trkpt lat="44.42887" lon="5.7167">
        <ele>653</ele>
        <time>2010-04-30T13:56:07Z</time>
      </trkpt>
      <trkpt lat="44.42891" lon="5.71687">
        <ele>658</ele>
        <time>2010-04-30T13:56:21Z</time>
      </trkpt>
      <trkpt lat="44.42891" lon="5.71687">
        <ele>654</ele>
        <time>2010-04-30T13:56:35Z</time>
      </trkpt>
      <trkpt lat="44.42891" lon="5.71689">
        <ele>648</ele>
        <time>2010-04-30T13:56:49Z</time>
      </trkpt>
      <trkpt lat="44.42896" lon="5.71706">
        <ele>656</ele>
        <time>2010-04-30T13:57:03Z</time>
      </trkpt>
      <trkpt lat="44.42901" lon="5.71728">
        <ele>654</ele>
        <time>2010-04-30T13:57:17Z</time>
      </trkpt>
      <trkpt lat="44.42898" lon="5.71748">
        <ele>654</ele>
        <time>2010-04-30T13:57:31Z</time>
      </trkpt>
      <trkpt lat="44.42884" lon="5.71763">
        <ele>653</ele>
        <time>2010-04-30T13:57:45Z</time>
      </trkpt>
      <trkpt lat="44.4287" lon="5.71779">
        <ele>653</ele>
        <time>2010-04-30T13:57:59Z</time>
      </trkpt>
      <trkpt lat="44.42857" lon="5.71766">
        <ele>649</ele>
        <time>2010-04-30T13:58:13Z</time>
      </trkpt>
      <trkpt lat="44.42846" lon="5.71748">
        <ele>650</ele>
        <time>2010-04-30T13:58:27Z</time>
      </trkpt>
      <trkpt lat="44.42834" lon="5.7173">
        <ele>647</ele>
        <time>2010-04-30T13:58:41Z</time>
      </trkpt>
      <trkpt lat="44.42821" lon="5.71712">
        <ele>653</ele>
        <time>2010-04-30T13:58:55Z</time>
      </trkpt>
      <trkpt lat="44.42807" lon="5.71697">
        <ele>651</ele>
        <time>2010-04-30T13:59:09Z</time>
      </trkpt>
      <trkpt lat="44.42792" lon="5.71689">
        <ele>647</ele>
        <time>2010-04-30T13:59:23Z</time>
      </trkpt>
      <trkpt lat="44.42781" lon="5.71707">
        <ele>652</ele>
        <time>2010-04-30T13:59:37Z</time>
      </trkpt>
      <trkpt lat="44.42773" lon="5.71727">
        <ele>654</ele>
        <time>2010-04-30T13:59:51Z</time>
      </trkpt>
      <trkpt lat="44.42764" lon="5.71747">
        <ele>659</ele>
        <time>2010-04-30T14:00:05Z</time>
      </trkpt>
      <trkpt lat="44.42756" lon="5.71769">
        <ele>656</ele>
        <time>2010-04-30T14:00:19Z</time>
      </trkpt>
      <trkpt lat="44.42748" lon="5.71788">
        <ele>658</ele>
        <time>2010-04-30T14:00:33Z</time>
      </trkpt>
      <trkpt lat="44.4274" lon="5.71808">
        <ele>657</ele>
        <time>2010-04-30T14:00:47Z</time>
      </trkpt>
      <trkpt lat="44.42726" lon="5.71802">
        <ele>657</ele>
        <time>2010-04-30T14:01:01Z</time>
      </trkpt>
      <trkpt lat="44.42711" lon="5.71795">
        <ele>659</ele>
        <time>2010-04-30T14:01:15Z</time>
      </trkpt>
      <trkpt lat="44.42708" lon="5.71793">
        <ele>657</ele>
        <time>2010-04-30T14:01:29Z</time>
      </trkpt>
      <trkpt lat="44.42705" lon="5.71795">
        <ele>658</ele>
        <time>2010-04-30T14:01:43Z</time>
      </trkpt>
      <trkpt lat="44.42706" lon="5.71792">
        <ele>660</ele>
        <time>2010-04-30T14:01:57Z</time>
      </trkpt>
      <trkpt lat="44.4269" lon="5.71785">
        <ele>658</ele>
        <time>2010-04-30T14:02:11Z</time>
      </trkpt>
      <trkpt lat="44.42672" lon="5.71788">
        <ele>658</ele>
        <time>2010-04-30T14:02:25Z</time>
      </trkpt>
      <trkpt lat="44.42655" lon="5.71792">
        <ele>659</ele>
        <time>2010-04-30T14:02:39Z</time>
      </trkpt>
      <trkpt lat="44.42636" lon="5.71795">
        <ele>659</ele>
        <time>2010-04-30T14:02:53Z</time>
      </trkpt>
      <trkpt lat="44.42618" lon="5.71799">
        <ele>660</ele>
        <time>2010-04-30T14:03:07Z</time>
      </trkpt>
      <trkpt lat="44.42599" lon="5.71801">
        <ele>661</ele>
        <time>2010-04-30T14:03:21Z</time>
      </trkpt>
      <trkpt lat="44.42578" lon="5.71803">
        <ele>663</ele>
        <time>2010-04-30T14:03:35Z</time>
      </trkpt>
      <trkpt lat="44.42561" lon="5.71803">
        <ele>663</ele>
        <time>2010-04-30T14:03:49Z</time>
      </trkpt>
      <trkpt lat="44.4255" lon="5.71809">
        <ele>665</ele>
        <time>2010-04-30T14:04:03Z</time>
      </trkpt>
      <trkpt lat="44.42531" lon="5.71811">
        <ele>666</ele>
        <time>2010-04-30T14:04:17Z</time>
      </trkpt>
      <trkpt lat="44.42512" lon="5.71806">
        <ele>665</ele>
        <time>2010-04-30T14:04:31Z</time>
      </trkpt>
      <trkpt lat="44.42494" lon="5.71804">
        <ele>663</ele>
        <time>2010-04-30T14:04:45Z</time>
      </trkpt>
      <trkpt lat="44.42475" lon="5.71804">
        <ele>662</ele>
        <time>2010-04-30T14:04:59Z</time>
      </trkpt>
      <trkpt lat="44.42457" lon="5.71803">
        <ele>662</ele>
        <time>2010-04-30T14:05:13Z</time>
      </trkpt>
      <trkpt lat="44.42438" lon="5.71804">
        <ele>659</ele>
        <time>2010-04-30T14:05:27Z</time>
      </trkpt>
      <trkpt lat="44.42419" lon="5.7181">
        <ele>658</ele>
        <time>2010-04-30T14:05:41Z</time>
      </trkpt>
      <trkpt lat="44.42399" lon="5.71812">
        <ele>659</ele>
        <time>2010-04-30T14:05:55Z</time>
      </trkpt>
      <trkpt lat="44.4238" lon="5.71819">
        <ele>660</ele>
        <time>2010-04-30T14:06:09Z</time>
      </trkpt>
      <trkpt lat="44.42362" lon="5.71824">
        <ele>661</ele>
        <time>2010-04-30T14:06:23Z</time>
      </trkpt>
      <trkpt lat="44.42343" lon="5.71829">
        <ele>661</ele>
        <time>2010-04-30T14:06:37Z</time>
      </trkpt>
      <trkpt lat="44.42324" lon="5.71833">
        <ele>661</ele>
        <time>2010-04-30T14:06:51Z</time>
      </trkpt>
      <trkpt lat="44.42305" lon="5.71837">
        <ele>663</ele>
        <time>2010-04-30T14:07:05Z</time>
      </trkpt>
      <trkpt lat="44.42287" lon="5.71843">
        <ele>664</ele>
        <time>2010-04-30T14:07:19Z</time>
      </trkpt>
      <trkpt lat="44.42269" lon="5.71848">
        <ele>667</ele>
        <time>2010-04-30T14:07:33Z</time>
      </trkpt>
      <trkpt lat="44.4225" lon="5.71854">
        <ele>666</ele>
        <time>2010-04-30T14:07:47Z</time>
      </trkpt>
      <trkpt lat="44.42231" lon="5.71859">
        <ele>667</ele>
        <time>2010-04-30T14:08:01Z</time>
      </trkpt>
      <trkpt lat="44.42213" lon="5.7186">
        <ele>666</ele>
        <time>2010-04-30T14:08:15Z</time>
      </trkpt>
      <trkpt lat="44.42194" lon="5.71859">
        <ele>668</ele>
        <time>2010-04-30T14:08:29Z</time>
      </trkpt>
      <trkpt lat="44.42176" lon="5.71861">
        <ele>668</ele>
        <time>2010-04-30T14:08:43Z</time>
      </trkpt>
      <trkpt lat="44.42158" lon="5.71863">
        <ele>667</ele>
        <time>2010-04-30T14:08:57Z</time>
      </trkpt>
      <trkpt lat="44.4214" lon="5.71862">
        <ele>668</ele>
        <time>2010-04-30T14:09:11Z</time>
      </trkpt>
      <trkpt lat="44.42121" lon="5.71868">
        <ele>668</ele>
        <time>2010-04-30T14:09:25Z</time>
      </trkpt>
      <trkpt lat="44.42103" lon="5.71858">
        <ele>668</ele>
        <time>2010-04-30T14:09:39Z</time>
      </trkpt>
      <trkpt lat="44.42086" lon="5.71849">
        <ele>671</ele>
        <time>2010-04-30T14:09:53Z</time>
      </trkpt>
      <trkpt lat="44.42072" lon="5.71853">
        <ele>673</ele>
        <time>2010-04-30T14:10:07Z</time>
      </trkpt>
      <trkpt lat="44.42068" lon="5.71876">
        <ele>674</ele>
        <time>2010-04-30T14:10:21Z</time>
      </trkpt>
      <trkpt lat="44.42067" lon="5.71894">
        <ele>674</ele>
        <time>2010-04-30T14:10:35Z</time>
      </trkpt>
      <trkpt lat="44.42065" lon="5.71918">
        <ele>676</ele>
        <time>2010-04-30T14:10:49Z</time>
      </trkpt>
      <trkpt lat="44.42065" lon="5.71941">
        <ele>675</ele>
        <time>2010-04-30T14:11:03Z</time>
      </trkpt>
      <trkpt lat="44.42059" lon="5.71959">
        <ele>680</ele>
        <time>2010-04-30T14:11:17Z</time>
      </trkpt>
      <trkpt lat="44.4204" lon="5.71964">
        <ele>679</ele>
        <time>2010-04-30T14:11:31Z</time>
      </trkpt>
      <trkpt lat="44.42023" lon="5.71967">
        <ele>680</ele>
        <time>2010-04-30T14:11:45Z</time>
      </trkpt>
      <trkpt lat="44.42018" lon="5.71973">
        <ele>679</ele>
        <time>2010-04-30T14:11:59Z</time>
      </trkpt>
      <trkpt lat="44.42018" lon="5.71973">
        <ele>679</ele>
        <time>2010-04-30T14:12:13Z</time>
      </trkpt>
      <trkpt lat="44.42017" lon="5.71975">
        <ele>679</ele>
        <time>2010-04-30T14:12:27Z</time>
      </trkpt>
      <trkpt lat="44.42016" lon="5.71975">
        <ele>680</ele>
        <time>2010-04-30T14:12:41Z</time>
      </trkpt>
      <trkpt lat="44.42017" lon="5.71975">
        <ele>680</ele>
        <time>2010-04-30T14:12:55Z</time>
      </trkpt>
      <trkpt lat="44.42016" lon="5.71975">
        <ele>681</ele>
        <time>2010-04-30T14:13:09Z</time>
      </trkpt>
      <trkpt lat="44.42004" lon="5.71984">
        <ele>680</ele>
        <time>2010-04-30T14:13:23Z</time>
      </trkpt>
      <trkpt lat="44.4201" lon="5.72003">
        <ele>681</ele>
        <time>2010-04-30T14:13:37Z</time>
      </trkpt>
      <trkpt lat="44.42022" lon="5.72013">
        <ele>683</ele>
        <time>2010-04-30T14:13:51Z</time>
      </trkpt>
      <trkpt lat="44.42029" lon="5.72016">
        <ele>683</ele>
        <time>2010-04-30T14:14:05Z</time>
      </trkpt>
      <trkpt lat="44.42044" lon="5.7203">
        <ele>684</ele>
        <time>2010-04-30T14:14:19Z</time>
      </trkpt>
      <trkpt lat="44.4206" lon="5.72042">
        <ele>685</ele>
        <time>2010-04-30T14:14:33Z</time>
      </trkpt>
      <trkpt lat="44.42076" lon="5.72055">
        <ele>686</ele>
        <time>2010-04-30T14:14:47Z</time>
      </trkpt>
      <trkpt lat="44.42093" lon="5.72066">
        <ele>688</ele>
        <time>2010-04-30T14:15:01Z</time>
      </trkpt>
      <trkpt lat="44.42109" lon="5.72079">
        <ele>690</ele>
        <time>2010-04-30T14:15:15Z</time>
      </trkpt>
      <trkpt lat="44.42122" lon="5.72098">
        <ele>691</ele>
        <time>2010-04-30T14:15:29Z</time>
      </trkpt>
      <trkpt lat="44.42135" lon="5.72111">
        <ele>692</ele>
        <time>2010-04-30T14:15:43Z</time>
      </trkpt>
      <trkpt lat="44.42155" lon="5.72113">
        <ele>693</ele>
        <time>2010-04-30T14:15:57Z</time>
      </trkpt>
      <trkpt lat="44.42148" lon="5.72134">
        <ele>694</ele>
        <time>2010-04-30T14:16:11Z</time>
      </trkpt>
      <trkpt lat="44.42131" lon="5.72142">
        <ele>695</ele>
        <time>2010-04-30T14:16:25Z</time>
      </trkpt>
      <trkpt lat="44.42114" lon="5.72156">
        <ele>699</ele>
        <time>2010-04-30T14:16:39Z</time>
      </trkpt>
      <trkpt lat="44.42111" lon="5.72178">
        <ele>701</ele>
        <time>2010-04-30T14:16:53Z</time>
      </trkpt>
      <trkpt lat="44.42111" lon="5.72202">
        <ele>700</ele>
        <time>2010-04-30T14:17:07Z</time>
      </trkpt>
      <trkpt lat="44.42113" lon="5.72223">
        <ele>706</ele>
        <time>2010-04-30T14:17:21Z</time>
      </trkpt>
      <trkpt lat="44.42111" lon="5.72248">
        <ele>706</ele>
        <time>2010-04-30T14:17:35Z</time>
      </trkpt>
      <trkpt lat="44.4211" lon="5.72259">
        <ele>704</ele>
        <time>2010-04-30T14:17:49Z</time>
      </trkpt>
      <trkpt lat="44.42099" lon="5.7225">
        <ele>711</ele>
        <time>2010-04-30T14:18:03Z</time>
      </trkpt>
      <trkpt lat="44.42086" lon="5.72262">
        <ele>714</ele>
        <time>2010-04-30T14:18:17Z</time>
      </trkpt>
      <trkpt lat="44.42076" lon="5.72274">
        <ele>716</ele>
        <time>2010-04-30T14:18:31Z</time>
      </trkpt>
      <trkpt lat="44.42062" lon="5.72286">
        <ele>720</ele>
        <time>2010-04-30T14:18:45Z</time>
      </trkpt>
      <trkpt lat="44.42059" lon="5.72298">
        <ele>721</ele>
        <time>2010-04-30T14:18:59Z</time>
      </trkpt>
      <trkpt lat="44.42048" lon="5.72302">
        <ele>724</ele>
        <time>2010-04-30T14:19:13Z</time>
      </trkpt>
      <trkpt lat="44.42033" lon="5.72308">
        <ele>727</ele>
        <time>2010-04-30T14:19:27Z</time>
      </trkpt>
      <trkpt lat="44.42028" lon="5.72324">
        <ele>731</ele>
        <time>2010-04-30T14:19:41Z</time>
      </trkpt>
      <trkpt lat="44.42026" lon="5.72342">
        <ele>733</ele>
        <time>2010-04-30T14:19:55Z</time>
      </trkpt>
      <trkpt lat="44.42025" lon="5.72362">
        <ele>735</ele>
        <time>2010-04-30T14:20:09Z</time>
      </trkpt>
      <trkpt lat="44.42032" lon="5.72381">
        <ele>736</ele>
        <time>2010-04-30T14:20:23Z</time>
      </trkpt>
      <trkpt lat="44.42042" lon="5.72403">
        <ele>738</ele>
        <time>2010-04-30T14:20:37Z</time>
      </trkpt>
      <trkpt lat="44.42048" lon="5.72429">
        <ele>738</ele>
        <time>2010-04-30T14:20:51Z</time>
      </trkpt>
      <trkpt lat="44.42052" lon="5.72453">
        <ele>742</ele>
        <time>2010-04-30T14:21:05Z</time>
      </trkpt>
      <trkpt lat="44.4205" lon="5.72474">
        <ele>743</ele>
        <time>2010-04-30T14:21:19Z</time>
      </trkpt>
      <trkpt lat="44.42049" lon="5.72498">
        <ele>744</ele>
        <time>2010-04-30T14:21:33Z</time>
      </trkpt>
      <trkpt lat="44.4205" lon="5.72522">
        <ele>747</ele>
        <time>2010-04-30T14:21:47Z</time>
      </trkpt>
      <trkpt lat="44.42053" lon="5.72546">
        <ele>749</ele>
        <time>2010-04-30T14:22:01Z</time>
      </trkpt>
      <trkpt lat="44.42057" lon="5.72571">
        <ele>749</ele>
        <time>2010-04-30T14:22:15Z</time>
      </trkpt>
      <trkpt lat="44.4206" lon="5.72596">
        <ele>749</ele>
        <time>2010-04-30T14:22:29Z</time>
      </trkpt>
      <trkpt lat="44.42061" lon="5.72621">
        <ele>752</ele>
        <time>2010-04-30T14:22:43Z</time>
      </trkpt>
      <trkpt lat="44.42057" lon="5.72645">
        <ele>753</ele>
        <time>2010-04-30T14:22:57Z</time>
      </trkpt>
      <trkpt lat="44.42053" lon="5.72667">
        <ele>755</ele>
        <time>2010-04-30T14:23:11Z</time>
      </trkpt>
      <trkpt lat="44.42051" lon="5.7269">
        <ele>756</ele>
        <time>2010-04-30T14:23:25Z</time>
      </trkpt>
      <trkpt lat="44.42043" lon="5.72707">
        <ele>759</ele>
        <time>2010-04-30T14:23:39Z</time>
      </trkpt>
      <trkpt lat="44.42032" lon="5.72726">
        <ele>760</ele>
        <time>2010-04-30T14:23:53Z</time>
      </trkpt>
      <trkpt lat="44.42021" lon="5.72743">
        <ele>761</ele>
        <time>2010-04-30T14:24:07Z</time>
      </trkpt>
      <trkpt lat="44.42014" lon="5.72765">
        <ele>761</ele>
        <time>2010-04-30T14:24:21Z</time>
      </trkpt>
      <trkpt lat="44.42007" lon="5.72787">
        <ele>761</ele>
        <time>2010-04-30T14:24:35Z</time>
      </trkpt>
      <trkpt lat="44.41995" lon="5.72808">
        <ele>759</ele>
        <time>2010-04-30T14:24:49Z</time>
      </trkpt>
      <trkpt lat="44.41984" lon="5.72828">
        <ele>757</ele>
        <time>2010-04-30T14:25:03Z</time>
      </trkpt>
      <trkpt lat="44.4197" lon="5.72847">
        <ele>756</ele>
        <time>2010-04-30T14:25:17Z</time>
      </trkpt>
      <trkpt lat="44.41956" lon="5.72864">
        <ele>754</ele>
        <time>2010-04-30T14:25:31Z</time>
      </trkpt>
      <trkpt lat="44.41942" lon="5.7288">
        <ele>752</ele>
        <time>2010-04-30T14:25:45Z</time>
      </trkpt>
      <trkpt lat="44.41932" lon="5.72905">
        <ele>751</ele>
        <time>2010-04-30T14:25:59Z</time>
      </trkpt>
      <trkpt lat="44.41923" lon="5.72928">
        <ele>750</ele>
        <time>2010-04-30T14:26:13Z</time>
      </trkpt>
      <trkpt lat="44.41913" lon="5.72949">
        <ele>749</ele>
        <time>2010-04-30T14:26:27Z</time>
      </trkpt>
      <trkpt lat="44.419" lon="5.7297">
        <ele>746</ele>
        <time>2010-04-30T14:26:41Z</time>
      </trkpt>
      <trkpt lat="44.41887" lon="5.72986">
        <ele>746</ele>
        <time>2010-04-30T14:26:55Z</time>
      </trkpt>
      <trkpt lat="44.41877" lon="5.72995">
        <ele>745</ele>
        <time>2010-04-30T14:27:09Z</time>
      </trkpt>
      <trkpt lat="44.4187" lon="5.73002">
        <ele>744</ele>
        <time>2010-04-30T14:27:23Z</time>
      </trkpt>
      <trkpt lat="44.41853" lon="5.73016">
        <ele>744</ele>
        <time>2010-04-30T14:27:37Z</time>
      </trkpt>
      <trkpt lat="44.41841" lon="5.73034">
        <ele>743</ele>
        <time>2010-04-30T14:27:51Z</time>
      </trkpt>
      <trkpt lat="44.41827" lon="5.73051">
        <ele>744</ele>
        <time>2010-04-30T14:28:05Z</time>
      </trkpt>
      <trkpt lat="44.41811" lon="5.73067">
        <ele>744</ele>
        <time>2010-04-30T14:28:19Z</time>
      </trkpt>
      <trkpt lat="44.41797" lon="5.73083">
        <ele>743</ele>
        <time>2010-04-30T14:28:33Z</time>
      </trkpt>
      <trkpt lat="44.41786" lon="5.73103">
        <ele>742</ele>
        <time>2010-04-30T14:28:47Z</time>
      </trkpt>
      <trkpt lat="44.41771" lon="5.73118">
        <ele>745</ele>
        <time>2010-04-30T14:29:01Z</time>
      </trkpt>
      <trkpt lat="44.41755" lon="5.73132">
        <ele>745</ele>
        <time>2010-04-30T14:29:15Z</time>
      </trkpt>
      <trkpt lat="44.4174" lon="5.73149">
        <ele>744</ele>
        <time>2010-04-30T14:29:29Z</time>
      </trkpt>
      <trkpt lat="44.41726" lon="5.73164">
        <ele>746</ele>
        <time>2010-04-30T14:29:43Z</time>
      </trkpt>
      <trkpt lat="44.41712" lon="5.7318">
        <ele>744</ele>
        <time>2010-04-30T14:29:57Z</time>
      </trkpt>
      <trkpt lat="44.41702" lon="5.73198">
        <ele>745</ele>
        <time>2010-04-30T14:30:11Z</time>
      </trkpt>
      <trkpt lat="44.41685" lon="5.73203">
        <ele>744</ele>
        <time>2010-04-30T14:30:25Z</time>
      </trkpt>
      <trkpt lat="44.41666" lon="5.73203">
        <ele>744</ele>
        <time>2010-04-30T14:30:39Z</time>
      </trkpt>
      <trkpt lat="44.41647" lon="5.73203">
        <ele>743</ele>
        <time>2010-04-30T14:30:53Z</time>
      </trkpt>
      <trkpt lat="44.41628" lon="5.73203">
        <ele>740</ele>
        <time>2010-04-30T14:31:07Z</time>
      </trkpt>
      <trkpt lat="44.41616" lon="5.73215">
        <ele>737</ele>
        <time>2010-04-30T14:31:21Z</time>
      </trkpt>
      <trkpt lat="44.41607" lon="5.73237">
        <ele>734</ele>
        <time>2010-04-30T14:31:35Z</time>
      </trkpt>
      <trkpt lat="44.41596" lon="5.73259">
        <ele>732</ele>
        <time>2010-04-30T14:31:49Z</time>
      </trkpt>
      <trkpt lat="44.41585" lon="5.73282">
        <ele>729</ele>
        <time>2010-04-30T14:32:03Z</time>
      </trkpt>
      <trkpt lat="44.41578" lon="5.73306">
        <ele>728</ele>
        <time>2010-04-30T14:32:17Z</time>
      </trkpt>
      <trkpt lat="44.41569" lon="5.73329">
        <ele>726</ele>
        <time>2010-04-30T14:32:31Z</time>
      </trkpt>
      <trkpt lat="44.41558" lon="5.73351">
        <ele>724</ele>
        <time>2010-04-30T14:32:45Z</time>
      </trkpt>
      <trkpt lat="44.41548" lon="5.73371">
        <ele>722</ele>
        <time>2010-04-30T14:32:59Z</time>
      </trkpt>
      <trkpt lat="44.41539" lon="5.73392">
        <ele>722</ele>
        <time>2010-04-30T14:33:13Z</time>
      </trkpt>
      <trkpt lat="44.41524" lon="5.7341">
        <ele>722</ele>
        <time>2010-04-30T14:33:27Z</time>
      </trkpt>
      <trkpt lat="44.41511" lon="5.73426">
        <ele>723</ele>
        <time>2010-04-30T14:33:41Z</time>
      </trkpt>
      <trkpt lat="44.415" lon="5.73444">
        <ele>722</ele>
        <time>2010-04-30T14:33:55Z</time>
      </trkpt>
      <trkpt lat="44.4149" lon="5.73466">
        <ele>722</ele>
        <time>2010-04-30T14:34:09Z</time>
      </trkpt>
      <trkpt lat="44.41479" lon="5.73487">
        <ele>721</ele>
        <time>2010-04-30T14:34:23Z</time>
      </trkpt>
      <trkpt lat="44.41468" lon="5.73506">
        <ele>720</ele>
        <time>2010-04-30T14:34:37Z</time>
      </trkpt>
      <trkpt lat="44.41465" lon="5.73529">
        <ele>718</ele>
        <time>2010-04-30T14:34:51Z</time>
      </trkpt>
      <trkpt lat="44.41461" lon="5.73551">
        <ele>718</ele>
        <time>2010-04-30T14:35:05Z</time>
      </trkpt>
      <trkpt lat="44.41447" lon="5.73568">
        <ele>720</ele>
        <time>2010-04-30T14:35:19Z</time>
      </trkpt>
      <trkpt lat="44.41435" lon="5.73588">
        <ele>717</ele>
        <time>2010-04-30T14:35:33Z</time>
      </trkpt>
      <trkpt lat="44.41421" lon="5.73607">
        <ele>718</ele>
        <time>2010-04-30T14:35:47Z</time>
      </trkpt>
      <trkpt lat="44.41409" lon="5.73627">
        <ele>720</ele>
        <time>2010-04-30T14:36:01Z</time>
      </trkpt>
      <trkpt lat="44.41393" lon="5.7364">
        <ele>720</ele>
        <time>2010-04-30T14:36:15Z</time>
      </trkpt>
      <trkpt lat="44.41387" lon="5.73659">
        <ele>723</ele>
        <time>2010-04-30T14:36:29Z</time>
      </trkpt>
      <trkpt lat="44.41373" lon="5.73679">
        <ele>722</ele>
        <time>2010-04-30T14:36:43Z</time>
      </trkpt>
      <trkpt lat="44.41356" lon="5.73695">
        <ele>719</ele>
        <time>2010-04-30T14:36:57Z</time>
      </trkpt>
      <trkpt lat="44.4135" lon="5.73716">
        <ele>717</ele>
        <time>2010-04-30T14:37:11Z</time>
      </trkpt>
      <trkpt lat="44.41356" lon="5.7373">
        <ele>715</ele>
        <time>2010-04-30T14:37:25Z</time>
      </trkpt>
      <trkpt lat="44.41363" lon="5.73753">
        <ele>713</ele>
        <time>2010-04-30T14:37:39Z</time>
      </trkpt>
      <trkpt lat="44.41372" lon="5.73774">
        <ele>712</ele>
        <time>2010-04-30T14:37:53Z</time>
      </trkpt>
      <trkpt lat="44.41373" lon="5.73774">
        <ele>712</ele>
        <time>2010-04-30T14:38:07Z</time>
      </trkpt>
      <trkpt lat="44.41373" lon="5.73775">
        <ele>711</ele>
        <time>2010-04-30T14:38:21Z</time>
      </trkpt>
      <trkpt lat="44.41373" lon="5.73776">
        <ele>712</ele>
        <time>2010-04-30T14:38:35Z</time>
      </trkpt>
      <trkpt lat="44.41373" lon="5.73776">
        <ele>712</ele>
        <time>2010-04-30T14:38:49Z</time>
      </trkpt>
      <trkpt lat="44.41373" lon="5.73776">
        <ele>712</ele>
        <time>2010-04-30T14:39:03Z</time>
      </trkpt>
      <trkpt lat="44.41379" lon="5.73786">
        <ele>713</ele>
        <time>2010-04-30T14:39:17Z</time>
      </trkpt>
      <trkpt lat="44.41393" lon="5.73803">
        <ele>713</ele>
        <time>2010-04-30T14:39:31Z</time>
      </trkpt>
      <trkpt lat="44.41406" lon="5.7382">
        <ele>715</ele>
        <time>2010-04-30T14:39:45Z</time>
      </trkpt>
      <trkpt lat="44.41405" lon="5.73847">
        <ele>718</ele>
        <time>2010-04-30T14:39:59Z</time>
      </trkpt>
      <trkpt lat="44.41395" lon="5.73861">
        <ele>722</ele>
        <time>2010-04-30T14:40:13Z</time>
      </trkpt>
      <trkpt lat="44.41398" lon="5.73876">
        <ele>726</ele>
        <time>2010-04-30T14:40:27Z</time>
      </trkpt>
      <trkpt lat="44.41402" lon="5.73893">
        <ele>728</ele>
        <time>2010-04-30T14:40:41Z</time>
      </trkpt>
      <trkpt lat="44.41389" lon="5.73915">
        <ele>726</ele>
        <time>2010-04-30T14:40:55Z</time>
      </trkpt>
      <trkpt lat="44.41382" lon="5.73938">
        <ele>725</ele>
        <time>2010-04-30T14:41:09Z</time>
      </trkpt>
      <trkpt lat="44.41375" lon="5.73962">
        <ele>724</ele>
        <time>2010-04-30T14:41:23Z</time>
      </trkpt>
      <trkpt lat="44.41355" lon="5.73965">
        <ele>721</ele>
        <time>2010-04-30T14:41:37Z</time>
      </trkpt>
      <trkpt lat="44.41335" lon="5.73963">
        <ele>719</ele>
        <time>2010-04-30T14:41:51Z</time>
      </trkpt>
      <trkpt lat="44.41318" lon="5.73973">
        <ele>716</ele>
        <time>2010-04-30T14:42:05Z</time>
      </trkpt>
      <trkpt lat="44.41309" lon="5.73988">
        <ele>714</ele>
        <time>2010-04-30T14:42:19Z</time>
      </trkpt>
      <trkpt lat="44.41299" lon="5.74009">
        <ele>711</ele>
        <time>2010-04-30T14:42:33Z</time>
      </trkpt>
      <trkpt lat="44.41291" lon="5.74033">
        <ele>715</ele>
        <time>2010-04-30T14:42:47Z</time>
      </trkpt>
      <trkpt lat="44.41284" lon="5.74056">
        <ele>716</ele>
        <time>2010-04-30T14:43:01Z</time>
      </trkpt>
      <trkpt lat="44.41269" lon="5.74091">
        <ele>724</ele>
        <time>2010-04-30T14:43:15Z</time>
      </trkpt>
      <trkpt lat="44.41262" lon="5.74109">
        <ele>727</ele>
        <time>2010-04-30T14:43:29Z</time>
      </trkpt>
      <trkpt lat="44.41255" lon="5.74124">
        <ele>731</ele>
        <time>2010-04-30T14:43:43Z</time>
      </trkpt>
      <trkpt lat="44.41245" lon="5.74162">
        <ele>741</ele>
        <time>2010-04-30T14:43:57Z</time>
      </trkpt>
      <trkpt lat="44.41249" lon="5.74191">
        <ele>746</ele>
        <time>2010-04-30T14:44:11Z</time>
      </trkpt>
      <trkpt lat="44.41256" lon="5.74208">
        <ele>736.3</ele>
      </trkpt>
      <trkpt lat="44.41177" lon="5.74288">
        <ele>728.8</ele>
      </trkpt>
      <trkpt lat="44.41174" lon="5.74294">
        <ele>728.3</ele>
      </trkpt>
      <trkpt lat="44.41165" lon="5.743">
        <ele>727.2</ele>
      </trkpt>
      <trkpt lat="44.41153" lon="5.74327">
        <ele>725.1</ele>
      </trkpt>
      <trkpt lat="44.41094" lon="5.74336">
        <ele>719.1</ele>
      </trkpt>
      <trkpt lat="44.41158" lon="5.74434">
        <ele>715.8</ele>
      </trkpt>
      <trkpt lat="44.41133" lon="5.74542">
        <ele>716.9</ele>
      </trkpt>
      <trkpt lat="44.41154" lon="5.74792">
        <ele>715.1</ele>
      </trkpt>
      <trkpt lat="44.41177" lon="5.74938">
        <ele>715.6</ele>
      </trkpt>
      <trkpt lat="44.41199" lon="5.75011">
        <ele>710.6</ele>
      </trkpt>
      <trkpt lat="44.41091" lon="5.75083">
        <ele>705.5</ele>
      </trkpt>
      <trkpt lat="44.40978" lon="5.75111">
        <ele>700.7</ele>
      </trkpt>
      <trkpt lat="44.40909" lon="5.7522">
        <ele>687.4</ele>
      </trkpt>
      <trkpt lat="44.40825" lon="5.75315">
        <ele>678.1</ele>
      </trkpt>
      <trkpt lat="44.40718" lon="5.75346">
        <ele>670.4</ele>
      </trkpt>
      <trkpt lat="44.40823" lon="5.75462">
        <ele>669</ele>
      </trkpt>
      <trkpt lat="44.40822" lon="5.75475">
        <ele>668.8</ele>
      </trkpt>
      <trkpt lat="44.40878" lon="5.75569">
        <ele>672.4</ele>
      </trkpt>
      <trkpt lat="44.40914" lon="5.75634">
        <ele>675</ele>
      </trkpt>
      <trkpt lat="44.40917" lon="5.75637">
        <ele>562</ele>
        <time>2010-03-19T16:06:37Z</time>
      </trkpt>
      <trkpt lat="44.40932" lon="5.7565">
        <ele>564</ele>
        <time>2010-03-19T16:06:51Z</time>
      </trkpt>
      <trkpt lat="44.40945" lon="5.75666">
        <ele>565</ele>
        <time>2010-03-19T16:07:05Z</time>
      </trkpt>
      <trkpt lat="44.40958" lon="5.75683">
        <ele>567</ele>
        <time>2010-03-19T16:07:19Z</time>
      </trkpt>
      <trkpt lat="44.40969" lon="5.75702">
        <ele>568</ele>
        <time>2010-03-19T16:07:33Z</time>
      </trkpt>
      <trkpt lat="44.40979" lon="5.7572">
        <ele>571</ele>
        <time>2010-03-19T16:07:47Z</time>
      </trkpt>
      <trkpt lat="44.40991" lon="5.75737">
        <ele>573</ele>
        <time>2010-03-19T16:08:01Z</time>
      </trkpt>
      <trkpt lat="44.41002" lon="5.75754">
        <ele>573</ele>
        <time>2010-03-19T16:08:15Z</time>
      </trkpt>
      <trkpt lat="44.41013" lon="5.75772">
        <ele>574</ele>
        <time>2010-03-19T16:08:29Z</time>
      </trkpt>
      <trkpt lat="44.41006" lon="5.75793">
        <ele>574</ele>
        <time>2010-03-19T16:08:43Z</time>
      </trkpt>
      <trkpt lat="44.4099" lon="5.75807">
        <ele>574</ele>
        <time>2010-03-19T16:08:57Z</time>
      </trkpt>
      <trkpt lat="44.40974" lon="5.7582">
        <ele>573</ele>
        <time>2010-03-19T16:09:11Z</time>
      </trkpt>
      <trkpt lat="44.4096" lon="5.75833">
        <ele>573</ele>
        <time>2010-03-19T16:09:25Z</time>
      </trkpt>
      <trkpt lat="44.40945" lon="5.75847">
        <ele>571</ele>
        <time>2010-03-19T16:09:39Z</time>
      </trkpt>
      <trkpt lat="44.40931" lon="5.75861">
        <ele>571</ele>
        <time>2010-03-19T16:09:53Z</time>
      </trkpt>
      <trkpt lat="44.40915" lon="5.75877">
        <ele>572</ele>
        <time>2010-03-19T16:10:07Z</time>
      </trkpt>
      <trkpt lat="44.40898" lon="5.75887">
        <ele>573</ele>
        <time>2010-03-19T16:10:21Z</time>
      </trkpt>
      <trkpt lat="44.40882" lon="5.75896">
        <ele>573</ele>
        <time>2010-03-19T16:10:35Z</time>
      </trkpt>
      <trkpt lat="44.40871" lon="5.7591">
        <ele>574</ele>
        <time>2010-03-19T16:10:49Z</time>
      </trkpt>
      <trkpt lat="44.40861" lon="5.75926">
        <ele>574</ele>
        <time>2010-03-19T16:11:03Z</time>
      </trkpt>
      <trkpt lat="44.40852" lon="5.75943">
        <ele>575</ele>
        <time>2010-03-19T16:11:17Z</time>
      </trkpt>
      <trkpt lat="44.40843" lon="5.75962">
        <ele>575</ele>
        <time>2010-03-19T16:11:31Z</time>
      </trkpt>
      <trkpt lat="44.4084" lon="5.75968">
        <ele>576</ele>
        <time>2010-03-19T16:11:45Z</time>
      </trkpt>
      <trkpt lat="44.4084" lon="5.75969">
        <ele>577</ele>
        <time>2010-03-19T16:11:59Z</time>
      </trkpt>
      <trkpt lat="44.40838" lon="5.75972">
        <ele>577</ele>
        <time>2010-03-19T16:12:13Z</time>
      </trkpt>
      <trkpt lat="44.40837" lon="5.75974">
        <ele>578</ele>
        <time>2010-03-19T16:12:27Z</time>
      </trkpt>
      <trkpt lat="44.40833" lon="5.75999">
        <ele>581</ele>
        <time>2010-03-19T16:12:41Z</time>
      </trkpt>
      <trkpt lat="44.40838" lon="5.76024">
        <ele>582</ele>
        <time>2010-03-19T16:12:55Z</time>
      </trkpt>
      <trkpt lat="44.40847" lon="5.76047">
        <ele>585</ele>
        <time>2010-03-19T16:13:09Z</time>
      </trkpt>
      <trkpt lat="44.40848" lon="5.76073">
        <ele>587</ele>
        <time>2010-03-19T16:13:23Z</time>
      </trkpt>
      <trkpt lat="44.40844" lon="5.76099">
        <ele>589</ele>
        <time>2010-03-19T16:13:37Z</time>
      </trkpt>
      <trkpt lat="44.40843" lon="5.76125">
        <ele>591</ele>
        <time>2010-03-19T16:13:51Z</time>
      </trkpt>
      <trkpt lat="44.40847" lon="5.7615">
        <ele>592</ele>
        <time>2010-03-19T16:14:05Z</time>
      </trkpt>
      <trkpt lat="44.40846" lon="5.76174">
        <ele>594</ele>
        <time>2010-03-19T16:14:19Z</time>
      </trkpt>
      <trkpt lat="44.40848" lon="5.76199">
        <ele>596</ele>
        <time>2010-03-19T16:14:33Z</time>
      </trkpt>
      <trkpt lat="44.40858" lon="5.76224">
        <ele>598</ele>
        <time>2010-03-19T16:14:47Z</time>
      </trkpt>
      <trkpt lat="44.40865" lon="5.76246">
        <ele>601</ele>
        <time>2010-03-19T16:15:01Z</time>
      </trkpt>
      <trkpt lat="44.40871" lon="5.76269">
        <ele>604</ele>
        <time>2010-03-19T16:15:15Z</time>
      </trkpt>
      <trkpt lat="44.40875" lon="5.76293">
        <ele>607</ele>
        <time>2010-03-19T16:15:29Z</time>
      </trkpt>
      <trkpt lat="44.40876" lon="5.76319">
        <ele>610</ele>
        <time>2010-03-19T16:15:43Z</time>
      </trkpt>
      <trkpt lat="44.40876" lon="5.76342">
        <ele>612</ele>
        <time>2010-03-19T16:15:57Z</time>
      </trkpt>
      <trkpt lat="44.40881" lon="5.76366">
        <ele>615</ele>
        <time>2010-03-19T16:16:11Z</time>
      </trkpt>
      <trkpt lat="44.40888" lon="5.7639">
        <ele>617</ele>
        <time>2010-03-19T16:16:25Z</time>
      </trkpt>
      <trkpt lat="44.40893" lon="5.76414">
        <ele>618</ele>
        <time>2010-03-19T16:16:39Z</time>
      </trkpt>
      <trkpt lat="44.40896" lon="5.76439">
        <ele>620</ele>
        <time>2010-03-19T16:16:53Z</time>
      </trkpt>
      <trkpt lat="44.40902" lon="5.76462">
        <ele>623</ele>
        <time>2010-03-19T16:17:07Z</time>
      </trkpt>
      <trkpt lat="44.40907" lon="5.76485">
        <ele>624</ele>
        <time>2010-03-19T16:17:21Z</time>
      </trkpt>
      <trkpt lat="44.4091" lon="5.76509">
        <ele>627</ele>
        <time>2010-03-19T16:17:35Z</time>
      </trkpt>
      <trkpt lat="44.40908" lon="5.76532">
        <ele>630</ele>
        <time>2010-03-19T16:17:49Z</time>
      </trkpt>
      <trkpt lat="44.40907" lon="5.76555">
        <ele>633</ele>
        <time>2010-03-19T16:18:03Z</time>
      </trkpt>
      <trkpt lat="44.40908" lon="5.76579">
        <ele>635</ele>
        <time>2010-03-19T16:18:17Z</time>
      </trkpt>
      <trkpt lat="44.40904" lon="5.76605">
        <ele>637</ele>
        <time>2010-03-19T16:18:31Z</time>
      </trkpt>
      <trkpt lat="44.40898" lon="5.7663">
        <ele>639</ele>
        <time>2010-03-19T16:18:45Z</time>
      </trkpt>
      <trkpt lat="44.40888" lon="5.7665">
        <ele>641</ele>
        <time>2010-03-19T16:18:59Z</time>
      </trkpt>
      <trkpt lat="44.40876" lon="5.76669">
        <ele>644</ele>
        <time>2010-03-19T16:19:13Z</time>
      </trkpt>
      <trkpt lat="44.40864" lon="5.76684">
        <ele>646</ele>
        <time>2010-03-19T16:19:27Z</time>
      </trkpt>
      <trkpt lat="44.40847" lon="5.76693">
        <ele>648</ele>
        <time>2010-03-19T16:19:41Z</time>
      </trkpt>
      <trkpt lat="44.40831" lon="5.7671">
        <ele>651</ele>
        <time>2010-03-19T16:19:55Z</time>
      </trkpt>
      <trkpt lat="44.40822" lon="5.7673">
        <ele>653</ele>
        <time>2010-03-19T16:20:09Z</time>
      </trkpt>
      <trkpt lat="44.40814" lon="5.76751">
        <ele>655</ele>
        <time>2010-03-19T16:20:23Z</time>
      </trkpt>
      <trkpt lat="44.40806" lon="5.76769">
        <ele>659</ele>
        <time>2010-03-19T16:20:37Z</time>
      </trkpt>
      <trkpt lat="44.40795" lon="5.76786">
        <ele>661</ele>
        <time>2010-03-19T16:20:51Z</time>
      </trkpt>
      <trkpt lat="44.40787" lon="5.76806">
        <ele>664</ele>
        <time>2010-03-19T16:21:05Z</time>
      </trkpt>
      <trkpt lat="44.40785" lon="5.76831">
        <ele>667</ele>
        <time>2010-03-19T16:21:19Z</time>
      </trkpt>
      <trkpt lat="44.40788" lon="5.76855">
        <ele>669</ele>
        <time>2010-03-19T16:21:33Z</time>
      </trkpt>
      <trkpt lat="44.40801" lon="5.76872">
        <ele>671</ele>
        <time>2010-03-19T16:21:47Z</time>
      </trkpt>
      <trkpt lat="44.40816" lon="5.76885">
        <ele>670</ele>
        <time>2010-03-19T16:22:01Z</time>
      </trkpt>
      <trkpt lat="44.40832" lon="5.76899">
        <ele>671</ele>
        <time>2010-03-19T16:22:15Z</time>
      </trkpt>
      <trkpt lat="44.40844" lon="5.76918">
        <ele>671</ele>
        <time>2010-03-19T16:22:29Z</time>
      </trkpt>
      <trkpt lat="44.40852" lon="5.76942">
        <ele>673</ele>
        <time>2010-03-19T16:22:43Z</time>
      </trkpt>
      <trkpt lat="44.40855" lon="5.76967">
        <ele>673</ele>
        <time>2010-03-19T16:22:57Z</time>
      </trkpt>
      <trkpt lat="44.40859" lon="5.76992">
        <ele>674</ele>
        <time>2010-03-19T16:23:11Z</time>
      </trkpt>
      <trkpt lat="44.40861" lon="5.77018">
        <ele>675</ele>
        <time>2010-03-19T16:23:25Z</time>
      </trkpt>
      <trkpt lat="44.40869" lon="5.77042">
        <ele>676</ele>
        <time>2010-03-19T16:23:39Z</time>
      </trkpt>
      <trkpt lat="44.4088" lon="5.77065">
        <ele>676</ele>
        <time>2010-03-19T16:23:53Z</time>
      </trkpt>
      <trkpt lat="44.40889" lon="5.77088">
        <ele>678</ele>
        <time>2010-03-19T16:24:07Z</time>
      </trkpt>
      <trkpt lat="44.40896" lon="5.77113">
        <ele>678</ele>
        <time>2010-03-19T16:24:21Z</time>
      </trkpt>
      <trkpt lat="44.40901" lon="5.77137">
        <ele>679</ele>
        <time>2010-03-19T16:24:35Z</time>
      </trkpt>
      <trkpt lat="44.40907" lon="5.77162">
        <ele>679</ele>
        <time>2010-03-19T16:24:49Z</time>
      </trkpt>
      <trkpt lat="44.40913" lon="5.77186">
        <ele>680</ele>
        <time>2010-03-19T16:25:03Z</time>
      </trkpt>
      <trkpt lat="44.40918" lon="5.77212">
        <ele>680</ele>
        <time>2010-03-19T16:25:17Z</time>
      </trkpt>
      <trkpt lat="44.40921" lon="5.77239">
        <ele>680</ele>
        <time>2010-03-19T16:25:31Z</time>
      </trkpt>
      <trkpt lat="44.40924" lon="5.77266">
        <ele>680</ele>
        <time>2010-03-19T16:25:45Z</time>
      </trkpt>
      <trkpt lat="44.40923" lon="5.7729">
        <ele>681</ele>
        <time>2010-03-19T16:25:59Z</time>
      </trkpt>
      <trkpt lat="44.40919" lon="5.77316">
        <ele>681</ele>
        <time>2010-03-19T16:26:13Z</time>
      </trkpt>
      <trkpt lat="44.40934" lon="5.77324">
        <ele>680</ele>
        <time>2010-03-19T16:26:27Z</time>
      </trkpt>
      <trkpt lat="44.40953" lon="5.77326">
        <ele>678</ele>
        <time>2010-03-19T16:26:41Z</time>
      </trkpt>
      <trkpt lat="44.40971" lon="5.77324">
        <ele>675</ele>
        <time>2010-03-19T16:26:55Z</time>
      </trkpt>
      <trkpt lat="44.40988" lon="5.77312">
        <ele>674</ele>
        <time>2010-03-19T16:27:09Z</time>
      </trkpt>
      <trkpt lat="44.41004" lon="5.77296">
        <ele>674</ele>
        <time>2010-03-19T16:27:23Z</time>
      </trkpt>
      <trkpt lat="44.4102" lon="5.77283">
        <ele>671</ele>
        <time>2010-03-19T16:27:37Z</time>
      </trkpt>
      <trkpt lat="44.41037" lon="5.77274">
        <ele>670</ele>
        <time>2010-03-19T16:27:51Z</time>
      </trkpt>
      <trkpt lat="44.41056" lon="5.77268">
        <ele>668</ele>
        <time>2010-03-19T16:28:05Z</time>
      </trkpt>
      <trkpt lat="44.41075" lon="5.77262">
        <ele>667</ele>
        <time>2010-03-19T16:28:19Z</time>
      </trkpt>
      <trkpt lat="44.41095" lon="5.77259">
        <ele>665</ele>
        <time>2010-03-19T16:28:33Z</time>
      </trkpt>
      <trkpt lat="44.41114" lon="5.77261">
        <ele>663</ele>
        <time>2010-03-19T16:28:47Z</time>
      </trkpt>
      <trkpt lat="44.41132" lon="5.77262">
        <ele>663</ele>
        <time>2010-03-19T16:29:01Z</time>
      </trkpt>
      <trkpt lat="44.41151" lon="5.77257">
        <ele>662</ele>
        <time>2010-03-19T16:29:15Z</time>
      </trkpt>
      <trkpt lat="44.41169" lon="5.77245">
        <ele>660</ele>
        <time>2010-03-19T16:29:29Z</time>
      </trkpt>
      <trkpt lat="44.41187" lon="5.7724">
        <ele>658</ele>
        <time>2010-03-19T16:29:43Z</time>
      </trkpt>
      <trkpt lat="44.41206" lon="5.77241">
        <ele>658</ele>
        <time>2010-03-19T16:29:57Z</time>
      </trkpt>
      <trkpt lat="44.41224" lon="5.77237">
        <ele>656</ele>
        <time>2010-03-19T16:30:11Z</time>
      </trkpt>
      <trkpt lat="44.41242" lon="5.77229">
        <ele>655</ele>
        <time>2010-03-19T16:30:25Z</time>
      </trkpt>
      <trkpt lat="44.41259" lon="5.77241">
        <ele>655</ele>
        <time>2010-03-19T16:30:39Z</time>
      </trkpt>
      <trkpt lat="44.4127" lon="5.7726">
        <ele>653</ele>
        <time>2010-03-19T16:30:53Z</time>
      </trkpt>
      <trkpt lat="44.41279" lon="5.77282">
        <ele>650</ele>
        <time>2010-03-19T16:31:07Z</time>
      </trkpt>
      <trkpt lat="44.4129" lon="5.77302">
        <ele>649</ele>
        <time>2010-03-19T16:31:21Z</time>
      </trkpt>
      <trkpt lat="44.41304" lon="5.7732">
        <ele>647</ele>
        <time>2010-03-19T16:31:35Z</time>
      </trkpt>
      <trkpt lat="44.41318" lon="5.77337">
        <ele>645</ele>
        <time>2010-03-19T16:31:49Z</time>
      </trkpt>
      <trkpt lat="44.41336" lon="5.77353">
        <ele>645</ele>
        <time>2010-03-19T16:32:03Z</time>
      </trkpt>
      <trkpt lat="44.41354" lon="5.77361">
        <ele>646</ele>
        <time>2010-03-19T16:32:17Z</time>
      </trkpt>
      <trkpt lat="44.41372" lon="5.77368">
        <ele>645</ele>
        <time>2010-03-19T16:32:31Z</time>
      </trkpt>
      <trkpt lat="44.41386" lon="5.77387">
        <ele>645</ele>
        <time>2010-03-19T16:32:45Z</time>
      </trkpt>
      <trkpt lat="44.41396" lon="5.7741">
        <ele>646</ele>
        <time>2010-03-19T16:32:59Z</time>
      </trkpt>
      <trkpt lat="44.41411" lon="5.77431">
        <ele>647</ele>
        <time>2010-03-19T16:33:13Z</time>
      </trkpt>
      <trkpt lat="44.41427" lon="5.7745">
        <ele>648</ele>
        <time>2010-03-19T16:33:27Z</time>
      </trkpt>
      <trkpt lat="44.41441" lon="5.77468">
        <ele>648</ele>
        <time>2010-03-19T16:33:41Z</time>
      </trkpt>
      <trkpt lat="44.41455" lon="5.77487">
        <ele>649</ele>
        <time>2010-03-19T16:33:55Z</time>
      </trkpt>
      <trkpt lat="44.41468" lon="5.77506">
        <ele>650</ele>
        <time>2010-03-19T16:34:09Z</time>
      </trkpt>
      <trkpt lat="44.4148" lon="5.77528">
        <ele>651</ele>
        <time>2010-03-19T16:34:23Z</time>
      </trkpt>
      <trkpt lat="44.4149" lon="5.77551">
        <ele>652</ele>
        <time>2010-03-19T16:34:37Z</time>
      </trkpt>
      <trkpt lat="44.41502" lon="5.77573">
        <ele>652</ele>
        <time>2010-03-19T16:34:51Z</time>
      </trkpt>
      <trkpt lat="44.41517" lon="5.77582">
        <ele>651</ele>
        <time>2010-03-19T16:35:05Z</time>
      </trkpt>
      <trkpt lat="44.41526" lon="5.77588">
        <ele>650</ele>
        <time>2010-03-19T16:35:19Z</time>
      </trkpt>
      <trkpt lat="44.41542" lon="5.77596">
        <ele>651</ele>
        <time>2010-03-19T16:35:33Z</time>
      </trkpt>
      <trkpt lat="44.41556" lon="5.77612">
        <ele>652</ele>
        <time>2010-03-19T16:35:47Z</time>
      </trkpt>
      <trkpt lat="44.41567" lon="5.7763">
        <ele>653</ele>
        <time>2010-03-19T16:36:01Z</time>
      </trkpt>
      <trkpt lat="44.41575" lon="5.77646">
        <ele>653</ele>
        <time>2010-03-19T16:36:15Z</time>
      </trkpt>
      <trkpt lat="44.41583" lon="5.77667">
        <ele>653</ele>
        <time>2010-03-19T16:36:29Z</time>
      </trkpt>
      <trkpt lat="44.41596" lon="5.77681">
        <ele>654</ele>
        <time>2010-03-19T16:36:43Z</time>
      </trkpt>
      <trkpt lat="44.41613" lon="5.77678">
        <ele>654</ele>
        <time>2010-03-19T16:36:57Z</time>
      </trkpt>
      <trkpt lat="44.41627" lon="5.77698">
        <ele>659</ele>
        <time>2010-03-19T16:37:11Z</time>
      </trkpt>
      <trkpt lat="44.41646" lon="5.77747">
        <ele>661</ele>
        <time>2010-03-19T16:37:25Z</time>
      </trkpt>
      <trkpt lat="44.4168" lon="5.7778">
        <ele>663</ele>
        <time>2010-03-19T16:37:39Z</time>
      </trkpt>
      <trkpt lat="44.41714" lon="5.77816">
        <ele>664</ele>
        <time>2010-03-19T16:37:53Z</time>
      </trkpt>
      <trkpt lat="44.41729" lon="5.77873">
        <ele>666</ele>
        <time>2010-03-19T16:38:07Z</time>
      </trkpt>
      <trkpt lat="44.41743" lon="5.77934">
        <ele>666</ele>
        <time>2010-03-19T16:38:21Z</time>
      </trkpt>
      <trkpt lat="44.41781" lon="5.77975">
        <ele>668</ele>
        <time>2010-03-19T16:38:35Z</time>
      </trkpt>
      <trkpt lat="44.41822" lon="5.78009">
        <ele>671</ele>
        <time>2010-03-19T16:38:49Z</time>
      </trkpt>
      <trkpt lat="44.41856" lon="5.78045">
        <ele>672</ele>
        <time>2010-03-19T16:39:03Z</time>
      </trkpt>
      <trkpt lat="44.41887" lon="5.78088">
        <ele>674</ele>
        <time>2010-03-19T16:39:17Z</time>
      </trkpt>
      <trkpt lat="44.41912" lon="5.78132">
        <ele>677</ele>
        <time>2010-03-19T16:39:31Z</time>
      </trkpt>
      <trkpt lat="44.41928" lon="5.78154">
        <ele>678</ele>
        <time>2010-03-19T16:39:45Z</time>
      </trkpt>
      <trkpt lat="44.41944" lon="5.78173">
        <ele>679</ele>
        <time>2010-03-19T16:39:59Z</time>
      </trkpt>
      <trkpt lat="44.41954" lon="5.78194">
        <ele>680</ele>
        <time>2010-03-19T16:40:13Z</time>
      </trkpt>
      <trkpt lat="44.41956" lon="5.78218">
        <ele>681</ele>
        <time>2010-03-19T16:40:27Z</time>
      </trkpt>
      <trkpt lat="44.41966" lon="5.7824">
        <ele>682</ele>
        <time>2010-03-19T16:40:41Z</time>
      </trkpt>
      <trkpt lat="44.41984" lon="5.78236">
        <ele>684</ele>
        <time>2010-03-19T16:40:55Z</time>
      </trkpt>
      <trkpt lat="44.42" lon="5.78231">
        <ele>686</ele>
        <time>2010-03-19T16:41:09Z</time>
      </trkpt>
      <trkpt lat="44.42004" lon="5.78205">
        <ele>686</ele>
        <time>2010-03-19T16:41:23Z</time>
      </trkpt>
      <trkpt lat="44.42004" lon="5.78177">
        <ele>685</ele>
        <time>2010-03-19T16:41:37Z</time>
      </trkpt>
      <trkpt lat="44.42006" lon="5.78149">
        <ele>686</ele>
        <time>2010-03-19T16:41:51Z</time>
      </trkpt>
      <trkpt lat="44.42008" lon="5.78123">
        <ele>685</ele>
        <time>2010-03-19T16:42:05Z</time>
      </trkpt>
      <trkpt lat="44.4201" lon="5.78095">
        <ele>686</ele>
        <time>2010-03-19T16:42:19Z</time>
      </trkpt>
      <trkpt lat="44.42012" lon="5.78067">
        <ele>685</ele>
        <time>2010-03-19T16:42:33Z</time>
      </trkpt>
      <trkpt lat="44.42015" lon="5.7804">
        <ele>684</ele>
        <time>2010-03-19T16:42:47Z</time>
      </trkpt>
      <trkpt lat="44.42016" lon="5.78012">
        <ele>684</ele>
        <time>2010-03-19T16:43:01Z</time>
      </trkpt>
      <trkpt lat="44.42019" lon="5.77986">
        <ele>684</ele>
        <time>2010-03-19T16:43:15Z</time>
      </trkpt>
      <trkpt lat="44.42034" lon="5.7797">
        <ele>685</ele>
        <time>2010-03-19T16:43:29Z</time>
      </trkpt>
      <trkpt lat="44.42052" lon="5.77964">
        <ele>686</ele>
        <time>2010-03-19T16:43:43Z</time>
      </trkpt>
      <trkpt lat="44.4207" lon="5.77952">
        <ele>686</ele>
        <time>2010-03-19T16:43:57Z</time>
      </trkpt>
      <trkpt lat="44.42084" lon="5.77938">
        <ele>687</ele>
        <time>2010-03-19T16:44:11Z</time>
      </trkpt>
      <trkpt lat="44.42096" lon="5.77918">
        <ele>687</ele>
        <time>2010-03-19T16:44:25Z</time>
      </trkpt>
      <trkpt lat="44.42108" lon="5.77898">
        <ele>688</ele>
        <time>2010-03-19T16:44:39Z</time>
      </trkpt>
      <trkpt lat="44.42119" lon="5.77874">
        <ele>687</ele>
        <time>2010-03-19T16:44:53Z</time>
      </trkpt>
      <trkpt lat="44.4213" lon="5.77849">
        <ele>687</ele>
        <time>2010-03-19T16:45:07Z</time>
      </trkpt>
      <trkpt lat="44.42139" lon="5.77826">
        <ele>687</ele>
        <time>2010-03-19T16:45:21Z</time>
      </trkpt>
      <trkpt lat="44.42151" lon="5.77804">
        <ele>688</ele>
        <time>2010-03-19T16:45:35Z</time>
      </trkpt>
      <trkpt lat="44.42166" lon="5.77786">
        <ele>689</ele>
        <time>2010-03-19T16:45:49Z</time>
      </trkpt>
      <trkpt lat="44.42181" lon="5.77772">
        <ele>690</ele>
        <time>2010-03-19T16:46:03Z</time>
      </trkpt>
      <trkpt lat="44.42193" lon="5.77754">
        <ele>689</ele>
        <time>2010-03-19T16:46:17Z</time>
      </trkpt>
      <trkpt lat="44.42206" lon="5.77736">
        <ele>689</ele>
        <time>2010-03-19T16:46:31Z</time>
      </trkpt>
      <trkpt lat="44.42215" lon="5.77713">
        <ele>688</ele>
        <time>2010-03-19T16:46:45Z</time>
      </trkpt>
      <trkpt lat="44.42228" lon="5.77691">
        <ele>687</ele>
        <time>2010-03-19T16:46:59Z</time>
      </trkpt>
      <trkpt lat="44.42247" lon="5.77693">
        <ele>687</ele>
        <time>2010-03-19T16:47:13Z</time>
      </trkpt>
      <trkpt lat="44.42263" lon="5.7771">
        <ele>687</ele>
        <time>2010-03-19T16:47:27Z</time>
      </trkpt>
      <trkpt lat="44.42279" lon="5.77723">
        <ele>689</ele>
        <time>2010-03-19T16:47:41Z</time>
      </trkpt>
      <trkpt lat="44.42297" lon="5.77731">
        <ele>690</ele>
        <time>2010-03-19T16:47:55Z</time>
      </trkpt>
      <trkpt lat="44.42315" lon="5.77725">
        <ele>690</ele>
        <time>2010-03-19T16:48:09Z</time>
      </trkpt>
      <trkpt lat="44.42328" lon="5.77706">
        <ele>692</ele>
        <time>2010-03-19T16:48:23Z</time>
      </trkpt>
      <trkpt lat="44.42341" lon="5.77689">
        <ele>693</ele>
        <time>2010-03-19T16:48:37Z</time>
      </trkpt>
      <trkpt lat="44.42356" lon="5.77676">
        <ele>694</ele>
        <time>2010-03-19T16:48:51Z</time>
      </trkpt>
      <trkpt lat="44.42373" lon="5.77663">
        <ele>695</ele>
        <time>2010-03-19T16:49:05Z</time>
      </trkpt>
      <trkpt lat="44.42388" lon="5.7765">
        <ele>696</ele>
        <time>2010-03-19T16:49:19Z</time>
      </trkpt>
      <trkpt lat="44.42403" lon="5.77636">
        <ele>698</ele>
        <time>2010-03-19T16:49:33Z</time>
      </trkpt>
      <trkpt lat="44.42418" lon="5.77623">
        <ele>699</ele>
        <time>2010-03-19T16:49:47Z</time>
      </trkpt>
      <trkpt lat="44.42435" lon="5.77612">
        <ele>700</ele>
        <time>2010-03-19T16:50:01Z</time>
      </trkpt>
      <trkpt lat="44.42451" lon="5.77601">
        <ele>701</ele>
        <time>2010-03-19T16:50:15Z</time>
      </trkpt>
      <trkpt lat="44.42468" lon="5.77591">
        <ele>702</ele>
        <time>2010-03-19T16:50:29Z</time>
      </trkpt>
      <trkpt lat="44.42484" lon="5.77577">
        <ele>704</ele>
        <time>2010-03-19T16:50:43Z</time>
      </trkpt>
      <trkpt lat="44.42498" lon="5.77561">
        <ele>704</ele>
        <time>2010-03-19T16:50:57Z</time>
      </trkpt>
      <trkpt lat="44.42511" lon="5.77545">
        <ele>706</ele>
        <time>2010-03-19T16:51:11Z</time>
      </trkpt>
      <trkpt lat="44.42528" lon="5.77535">
        <ele>707</ele>
        <time>2010-03-19T16:51:25Z</time>
      </trkpt>
      <trkpt lat="44.42545" lon="5.77522">
        <ele>707</ele>
        <time>2010-03-19T16:51:39Z</time>
      </trkpt>
      <trkpt lat="44.42559" lon="5.77503">
        <ele>707</ele>
        <time>2010-03-19T16:51:53Z</time>
      </trkpt>
      <trkpt lat="44.42571" lon="5.77483">
        <ele>706</ele>
        <time>2010-03-19T16:52:07Z</time>
      </trkpt>
      <trkpt lat="44.42579" lon="5.7746">
        <ele>705</ele>
        <time>2010-03-19T16:52:21Z</time>
      </trkpt>
      <trkpt lat="44.42586" lon="5.77434">
        <ele>705</ele>
        <time>2010-03-19T16:52:35Z</time>
      </trkpt>
      <trkpt lat="44.42594" lon="5.77409">
        <ele>704</ele>
        <time>2010-03-19T16:52:49Z</time>
      </trkpt>
      <trkpt lat="44.42604" lon="5.77385">
        <ele>704</ele>
        <time>2010-03-19T16:53:03Z</time>
      </trkpt>
      <trkpt lat="44.42618" lon="5.77368">
        <ele>705</ele>
        <time>2010-03-19T16:53:17Z</time>
      </trkpt>
      <trkpt lat="44.42628" lon="5.7735">
        <ele>708</ele>
        <time>2010-03-19T16:53:31Z</time>
      </trkpt>
      <trkpt lat="44.4264" lon="5.77333">
        <ele>711</ele>
        <time>2010-03-19T16:53:45Z</time>
      </trkpt>
      <trkpt lat="44.4265" lon="5.77316">
        <ele>712</ele>
        <time>2010-03-19T16:53:59Z</time>
      </trkpt>
      <trkpt lat="44.42657" lon="5.77296">
        <ele>714</ele>
        <time>2010-03-19T16:54:13Z</time>
      </trkpt>
      <trkpt lat="44.42663" lon="5.77272">
        <ele>715</ele>
        <time>2010-03-19T16:54:27Z</time>
      </trkpt>
      <trkpt lat="44.42665" lon="5.77248">
        <ele>717</ele>
        <time>2010-03-19T16:54:41Z</time>
      </trkpt>
      <trkpt lat="44.4268" lon="5.77234">
        <ele>718</ele>
        <time>2010-03-19T16:54:55Z</time>
      </trkpt>
      <trkpt lat="44.42693" lon="5.77214">
        <ele>720</ele>
        <time>2010-03-19T16:55:09Z</time>
      </trkpt>
      <trkpt lat="44.42704" lon="5.77193">
        <ele>720</ele>
        <time>2010-03-19T16:55:23Z</time>
      </trkpt>
      <trkpt lat="44.42717" lon="5.77174">
        <ele>721</ele>
        <time>2010-03-19T16:55:37Z</time>
      </trkpt>
      <trkpt lat="44.42729" lon="5.77155">
        <ele>723</ele>
        <time>2010-03-19T16:55:51Z</time>
      </trkpt>
      <trkpt lat="44.42742" lon="5.77138">
        <ele>725</ele>
        <time>2010-03-19T16:56:05Z</time>
      </trkpt>
      <trkpt lat="44.42753" lon="5.7712">
        <ele>723</ele>
        <time>2010-03-19T16:56:19Z</time>
      </trkpt>
      <trkpt lat="44.42761" lon="5.77099">
        <ele>720</ele>
        <time>2010-03-19T16:56:33Z</time>
      </trkpt>
      <trkpt lat="44.42764" lon="5.77072">
        <ele>723</ele>
        <time>2010-03-19T16:56:47Z</time>
      </trkpt>
      <trkpt lat="44.42772" lon="5.77029">
        <ele>729</ele>
        <time>2010-03-19T16:57:01Z</time>
      </trkpt>
      <trkpt lat="44.42787" lon="5.76981">
        <ele>734</ele>
        <time>2010-03-19T16:57:15Z</time>
      </trkpt>
      <trkpt lat="44.42803" lon="5.76924">
        <ele>737</ele>
        <time>2010-03-19T16:57:29Z</time>
      </trkpt>
      <trkpt lat="44.42793" lon="5.76865">
        <ele>743</ele>
        <time>2010-03-19T16:57:43Z</time>
      </trkpt>
      <trkpt lat="44.428" lon="5.7681">
        <ele>748</ele>
        <time>2010-03-19T16:57:57Z</time>
      </trkpt>
      <trkpt lat="44.42832" lon="5.76796">
        <ele>750</ele>
        <time>2010-03-19T16:58:11Z</time>
      </trkpt>
      <trkpt lat="44.42866" lon="5.76783">
        <ele>752</ele>
        <time>2010-03-19T16:58:25Z</time>
      </trkpt>
      <trkpt lat="44.42904" lon="5.7676">
        <ele>752</ele>
        <time>2010-03-19T16:58:39Z</time>
      </trkpt>
      <trkpt lat="44.42935" lon="5.76734">
        <ele>754</ele>
        <time>2010-03-19T16:58:53Z</time>
      </trkpt>
      <trkpt lat="44.42947" lon="5.76721">
        <ele>756</ele>
        <time>2010-03-19T16:59:07Z</time>
      </trkpt>
      <trkpt lat="44.42955" lon="5.76716">
        <ele>757</ele>
        <time>2010-03-19T16:59:21Z</time>
      </trkpt>
      <trkpt lat="44.42973" lon="5.76725">
        <ele>759</ele>
        <time>2010-03-19T16:59:35Z</time>
      </trkpt>
      <trkpt lat="44.42986" lon="5.76729">
        <ele>762</ele>
        <time>2010-03-19T16:59:49Z</time>
      </trkpt>
      <trkpt lat="44.42996" lon="5.76717">
        <ele>765</ele>
        <time>2010-03-19T17:00:03Z</time>
      </trkpt>
      <trkpt lat="44.43009" lon="5.76707">
        <ele>767</ele>
        <time>2010-03-19T17:00:17Z</time>
      </trkpt>
      <trkpt lat="44.43027" lon="5.76697">
        <ele>769</ele>
        <time>2010-03-19T17:00:31Z</time>
      </trkpt>
      <trkpt lat="44.43042" lon="5.76687">
        <ele>772</ele>
        <time>2010-03-19T17:00:45Z</time>
      </trkpt>
      <trkpt lat="44.43058" lon="5.76682">
        <ele>773</ele>
        <time>2010-03-19T17:00:59Z</time>
      </trkpt>
      <trkpt lat="44.43074" lon="5.76678">
        <ele>774</ele>
        <time>2010-03-19T17:01:13Z</time>
      </trkpt>
      <trkpt lat="44.43091" lon="5.76676">
        <ele>775</ele>
        <time>2010-03-19T17:01:27Z</time>
      </trkpt>
      <trkpt lat="44.43107" lon="5.76669">
        <ele>777</ele>
        <time>2010-03-19T17:01:41Z</time>
      </trkpt>
      <trkpt lat="44.43121" lon="5.76663">
        <ele>777</ele>
        <time>2010-03-19T17:01:55Z</time>
      </trkpt>
      <trkpt lat="44.43136" lon="5.76653">
        <ele>778</ele>
        <time>2010-03-19T17:02:09Z</time>
      </trkpt>
      <trkpt lat="44.43151" lon="5.76644">
        <ele>781</ele>
        <time>2010-03-19T17:02:23Z</time>
      </trkpt>
      <trkpt lat="44.43165" lon="5.76661">
        <ele>785</ele>
        <time>2010-03-19T17:02:37Z</time>
      </trkpt>
      <trkpt lat="44.43179" lon="5.76672">
        <ele>788</ele>
        <time>2010-03-19T17:02:51Z</time>
      </trkpt>
      <trkpt lat="44.43195" lon="5.76665">
        <ele>790</ele>
        <time>2010-03-19T17:03:05Z</time>
      </trkpt>
      <trkpt lat="44.43212" lon="5.76661">
        <ele>792</ele>
        <time>2010-03-19T17:03:19Z</time>
      </trkpt>
      <trkpt lat="44.43227" lon="5.76652">
        <ele>795</ele>
        <time>2010-03-19T17:03:33Z</time>
      </trkpt>
      <trkpt lat="44.43238" lon="5.76636">
        <ele>797</ele>
        <time>2010-03-19T17:03:47Z</time>
      </trkpt>
      <trkpt lat="44.4325" lon="5.76611">
        <ele>802</ele>
        <time>2010-03-19T17:04:01Z</time>
      </trkpt>
      <trkpt lat="44.43277" lon="5.76581">
        <ele>812</ele>
        <time>2010-03-19T17:04:15Z</time>
      </trkpt>
      <trkpt lat="44.43291" lon="5.76565">
        <ele>812</ele>
        <time>2010-03-19T17:04:29Z</time>
      </trkpt>
      <trkpt lat="44.43304" lon="5.76564">
        <ele>810</ele>
        <time>2010-03-19T17:04:43Z</time>
      </trkpt>
      <trkpt lat="44.43316" lon="5.76563">
        <ele>807</ele>
        <time>2010-03-19T17:04:57Z</time>
      </trkpt>
      <trkpt lat="44.43332" lon="5.76571">
        <ele>804</ele>
        <time>2010-03-19T17:05:11Z</time>
      </trkpt>
      <trkpt lat="44.43349" lon="5.76571">
        <ele>800</ele>
        <time>2010-03-19T17:05:25Z</time>
      </trkpt>
      <trkpt lat="44.43363" lon="5.76571">
        <ele>796</ele>
        <time>2010-03-19T17:05:39Z</time>
      </trkpt>
      <trkpt lat="44.43377" lon="5.7656">
        <ele>792</ele>
        <time>2010-03-19T17:05:53Z</time>
      </trkpt>
      <trkpt lat="44.43394" lon="5.76546">
        <ele>793</ele>
        <time>2010-03-19T17:06:07Z</time>
      </trkpt>
      <trkpt lat="44.43406" lon="5.76528">
        <ele>793</ele>
        <time>2010-03-19T17:06:21Z</time>
      </trkpt>
      <trkpt lat="44.43412" lon="5.76512">
        <ele>790</ele>
        <time>2010-03-19T17:06:35Z</time>
      </trkpt>
      <trkpt lat="44.43423" lon="5.76493">
        <ele>786</ele>
        <time>2010-03-19T17:06:49Z</time>
      </trkpt>
      <trkpt lat="44.4344" lon="5.76478">
        <ele>786</ele>
        <time>2010-03-19T17:07:03Z</time>
      </trkpt>
      <trkpt lat="44.43458" lon="5.76479">
        <ele>789</ele>
        <time>2010-03-19T17:07:17Z</time>
      </trkpt>
      <trkpt lat="44.43471" lon="5.76477">
        <ele>786</ele>
        <time>2010-03-19T17:07:31Z</time>
      </trkpt>
      <trkpt lat="44.43483" lon="5.76468">
        <ele>782</ele>
        <time>2010-03-19T17:07:45Z</time>
      </trkpt>
      <trkpt lat="44.43491" lon="5.76448">
        <ele>777</ele>
        <time>2010-03-19T17:07:59Z</time>
      </trkpt>
      <trkpt lat="44.43505" lon="5.76438">
        <ele>775</ele>
        <time>2010-03-19T17:08:13Z</time>
      </trkpt>
      <trkpt lat="44.43521" lon="5.76441">
        <ele>775</ele>
        <time>2010-03-19T17:08:27Z</time>
      </trkpt>
      <trkpt lat="44.43533" lon="5.76456">
        <ele>775</ele>
        <time>2010-03-19T17:08:41Z</time>
      </trkpt>
      <trkpt lat="44.43543" lon="5.76477">
        <ele>774</ele>
        <time>2010-03-19T17:08:55Z</time>
      </trkpt>
      <trkpt lat="44.43554" lon="5.76482">
        <ele>776</ele>
        <time>2010-03-19T17:09:09Z</time>
      </trkpt>
      <trkpt lat="44.43572" lon="5.76478">
        <ele>775</ele>
        <time>2010-03-19T17:09:23Z</time>
      </trkpt>
      <trkpt lat="44.43588" lon="5.76474">
        <ele>773</ele>
        <time>2010-03-19T17:09:37Z</time>
      </trkpt>
      <trkpt lat="44.43599" lon="5.76476">
        <ele>768</ele>
        <time>2010-03-19T17:09:51Z</time>
      </trkpt>
      <trkpt lat="44.43614" lon="5.76473">
        <ele>767</ele>
        <time>2010-03-19T17:10:05Z</time>
      </trkpt>
      <trkpt lat="44.43631" lon="5.76471">
        <ele>767</ele>
        <time>2010-03-19T17:10:19Z</time>
      </trkpt>
      <trkpt lat="44.43647" lon="5.76459">
        <ele>765</ele>
        <time>2010-03-19T17:10:33Z</time>
      </trkpt>
      <trkpt lat="44.43665" lon="5.76468">
        <ele>765</ele>
        <time>2010-03-19T17:10:47Z</time>
      </trkpt>
      <trkpt lat="44.43683" lon="5.76468">
        <ele>765</ele>
        <time>2010-03-19T17:11:01Z</time>
      </trkpt>
      <trkpt lat="44.43701" lon="5.76459">
        <ele>763</ele>
        <time>2010-03-19T17:11:15Z</time>
      </trkpt>
      <trkpt lat="44.43715" lon="5.76469">
        <ele>763</ele>
        <time>2010-03-19T17:11:29Z</time>
      </trkpt>
      <trkpt lat="44.43734" lon="5.76486">
        <ele>761</ele>
        <time>2010-03-19T17:11:43Z</time>
      </trkpt>
      <trkpt lat="44.43749" lon="5.76482">
        <ele>761</ele>
        <time>2010-03-19T17:11:57Z</time>
      </trkpt>
      <trkpt lat="44.43759" lon="5.76462">
        <ele>761</ele>
        <time>2010-03-19T17:12:11Z</time>
      </trkpt>
      <trkpt lat="44.43768" lon="5.76439">
        <ele>762</ele>
        <time>2010-03-19T17:12:25Z</time>
      </trkpt>
      <trkpt lat="44.43769" lon="5.76415">
        <ele>765</ele>
        <time>2010-03-19T17:12:39Z</time>
      </trkpt>
      <trkpt lat="44.43765" lon="5.76391">
        <ele>767</ele>
        <time>2010-03-19T17:12:53Z</time>
      </trkpt>
      <trkpt lat="44.43763" lon="5.76368">
        <ele>770</ele>
        <time>2010-03-19T17:13:07Z</time>
      </trkpt>
      <trkpt lat="44.43754" lon="5.76347">
        <ele>771</ele>
        <time>2010-03-19T17:13:21Z</time>
      </trkpt>
      <trkpt lat="44.43746" lon="5.76326">
        <ele>773</ele>
        <time>2010-03-19T17:13:35Z</time>
      </trkpt>
      <trkpt lat="44.43741" lon="5.76302">
        <ele>774</ele>
        <time>2010-03-19T17:13:49Z</time>
      </trkpt>
      <trkpt lat="44.43738" lon="5.76275">
        <ele>775</ele>
        <time>2010-03-19T17:14:03Z</time>
      </trkpt>
      <trkpt lat="44.43744" lon="5.76256">
        <ele>775</ele>
        <time>2010-03-19T17:14:17Z</time>
      </trkpt>
      <trkpt lat="44.4374" lon="5.7623">
        <ele>777</ele>
        <time>2010-03-19T17:14:31Z</time>
      </trkpt>
      <trkpt lat="44.43735" lon="5.76215">
        <ele>778</ele>
        <time>2010-03-19T17:14:45Z</time>
      </trkpt>
      <trkpt lat="44.43733" lon="5.76207">
        <ele>780</ele>
        <time>2010-03-19T17:14:59Z</time>
      </trkpt>
      <trkpt lat="44.43732" lon="5.76202">
        <ele>779</ele>
        <time>2010-03-19T17:15:13Z</time>
      </trkpt>
      <trkpt lat="44.43734" lon="5.76184">
        <ele>781</ele>
        <time>2010-03-19T17:15:27Z</time>
      </trkpt>
      <trkpt lat="44.4374" lon="5.76159">
        <ele>783</ele>
        <time>2010-03-19T17:15:41Z</time>
      </trkpt>
      <trkpt lat="44.43754" lon="5.76142">
        <ele>783</ele>
        <time>2010-03-19T17:15:55Z</time>
      </trkpt>
      <trkpt lat="44.43754" lon="5.76118">
        <ele>784</ele>
        <time>2010-03-19T17:16:09Z</time>
      </trkpt>
      <trkpt lat="44.43745" lon="5.76099">
        <ele>787</ele>
        <time>2010-03-19T17:16:23Z</time>
      </trkpt>
      <trkpt lat="44.43727" lon="5.76091">
        <ele>788</ele>
        <time>2010-03-19T17:16:37Z</time>
      </trkpt>
      <trkpt lat="44.4371" lon="5.7608">
        <ele>789</ele>
        <time>2010-03-19T17:16:51Z</time>
      </trkpt>
      <trkpt lat="44.43703" lon="5.76059">
        <ele>791</ele>
        <time>2010-03-19T17:17:05Z</time>
      </trkpt>
      <trkpt lat="44.43696" lon="5.76035">
        <ele>793</ele>
        <time>2010-03-19T17:17:19Z</time>
      </trkpt>
      <trkpt lat="44.43685" lon="5.76015">
        <ele>795</ele>
        <time>2010-03-19T17:17:33Z</time>
      </trkpt>
      <trkpt lat="44.43691" lon="5.7599">
        <ele>797</ele>
        <time>2010-03-19T17:17:47Z</time>
      </trkpt>
      <trkpt lat="44.43694" lon="5.75968">
        <ele>798</ele>
        <time>2010-03-19T17:18:01Z</time>
      </trkpt>
      <trkpt lat="44.43691" lon="5.75941">
        <ele>800</ele>
        <time>2010-03-19T17:18:15Z</time>
      </trkpt>
      <trkpt lat="44.43677" lon="5.75924">
        <ele>801</ele>
        <time>2010-03-19T17:18:29Z</time>
      </trkpt>
      <trkpt lat="44.43667" lon="5.75903">
        <ele>804</ele>
        <time>2010-03-19T17:18:43Z</time>
      </trkpt>
      <trkpt lat="44.43665" lon="5.7588">
        <ele>807</ele>
        <time>2010-03-19T17:18:57Z</time>
      </trkpt>
      <trkpt lat="44.43659" lon="5.75858">
        <ele>808</ele>
        <time>2010-03-19T17:19:11Z</time>
      </trkpt>
      <trkpt lat="44.43659" lon="5.75835">
        <ele>809</ele>
        <time>2010-03-19T17:19:25Z</time>
      </trkpt>
      <trkpt lat="44.43655" lon="5.7581">
        <ele>811</ele>
        <time>2010-03-19T17:19:39Z</time>
      </trkpt>
      <trkpt lat="44.43644" lon="5.75791">
        <ele>813</ele>
        <time>2010-03-19T17:19:53Z</time>
      </trkpt>
      <trkpt lat="44.43636" lon="5.75772">
        <ele>815</ele>
        <time>2010-03-19T17:20:07Z</time>
      </trkpt>
      <trkpt lat="44.43634" lon="5.7575">
        <ele>817</ele>
        <time>2010-03-19T17:20:21Z</time>
      </trkpt>
      <trkpt lat="44.4365" lon="5.75737">
        <ele>815</ele>
        <time>2010-03-19T17:20:35Z</time>
      </trkpt>
      <trkpt lat="44.43657" lon="5.75714">
        <ele>812</ele>
        <time>2010-03-19T17:20:49Z</time>
      </trkpt>
      <trkpt lat="44.43662" lon="5.75693">
        <ele>812</ele>
        <time>2010-03-19T17:21:03Z</time>
      </trkpt>
      <trkpt lat="44.43676" lon="5.7571">
        <ele>811</ele>
        <time>2010-03-19T17:21:17Z</time>
      </trkpt>
      <trkpt lat="44.43688" lon="5.75733">
        <ele>810</ele>
        <time>2010-03-19T17:21:31Z</time>
      </trkpt>
      <trkpt lat="44.43703" lon="5.75752">
        <ele>809</ele>
        <time>2010-03-19T17:21:45Z</time>
      </trkpt>
      <trkpt lat="44.43718" lon="5.75768">
        <ele>808</ele>
        <time>2010-03-19T17:21:59Z</time>
      </trkpt>
      <trkpt lat="44.43728" lon="5.75791">
        <ele>806</ele>
        <time>2010-03-19T17:22:13Z</time>
      </trkpt>
      <trkpt lat="44.4374" lon="5.75813">
        <ele>804</ele>
        <time>2010-03-19T17:22:27Z</time>
      </trkpt>
      <trkpt lat="44.43755" lon="5.75827">
        <ele>802</ele>
        <time>2010-03-19T17:22:41Z</time>
      </trkpt>
      <trkpt lat="44.43772" lon="5.75833">
        <ele>801</ele>
        <time>2010-03-19T17:22:55Z</time>
      </trkpt>
      <trkpt lat="44.43782" lon="5.75852">
        <ele>798</ele>
        <time>2010-03-19T17:23:09Z</time>
      </trkpt>
      <trkpt lat="44.43791" lon="5.75875">
        <ele>797</ele>
        <time>2010-03-19T17:23:23Z</time>
      </trkpt>
      <trkpt lat="44.43803" lon="5.75894">
        <ele>795</ele>
        <time>2010-03-19T17:23:37Z</time>
      </trkpt>
      <trkpt lat="44.43817" lon="5.75911">
        <ele>794</ele>
        <time>2010-03-19T17:23:51Z</time>
      </trkpt>
      <trkpt lat="44.43832" lon="5.75925">
        <ele>791</ele>
        <time>2010-03-19T17:24:05Z</time>
      </trkpt>
      <trkpt lat="44.43849" lon="5.75937">
        <ele>790</ele>
        <time>2010-03-19T17:24:19Z</time>
      </trkpt>
      <trkpt lat="44.43862" lon="5.75953">
        <ele>788</ele>
        <time>2010-03-19T17:24:33Z</time>
      </trkpt>
      <trkpt lat="44.43875" lon="5.7597">
        <ele>785</ele>
        <time>2010-03-19T17:24:47Z</time>
      </trkpt>
      <trkpt lat="44.43889" lon="5.75982">
        <ele>784</ele>
        <time>2010-03-19T17:25:01Z</time>
      </trkpt>
      <trkpt lat="44.439" lon="5.76001">
        <ele>782</ele>
        <time>2010-03-19T17:25:15Z</time>
      </trkpt>
      <trkpt lat="44.43912" lon="5.76019">
        <ele>781</ele>
        <time>2010-03-19T17:25:29Z</time>
      </trkpt>
      <trkpt lat="44.43927" lon="5.76035">
        <ele>779</ele>
        <time>2010-03-19T17:25:43Z</time>
      </trkpt>
      <trkpt lat="44.43944" lon="5.7605">
        <ele>778</ele>
        <time>2010-03-19T17:25:57Z</time>
      </trkpt>
      <trkpt lat="44.4396" lon="5.76063">
        <ele>776</ele>
        <time>2010-03-19T17:26:11Z</time>
      </trkpt>
      <trkpt lat="44.43973" lon="5.76079">
        <ele>774</ele>
        <time>2010-03-19T17:26:25Z</time>
      </trkpt>
      <trkpt lat="44.43983" lon="5.761">
        <ele>772</ele>
        <time>2010-03-19T17:26:39Z</time>
      </trkpt>
      <trkpt lat="44.43988" lon="5.76125">
        <ele>771</ele>
        <time>2010-03-19T17:26:53Z</time>
      </trkpt>
      <trkpt lat="44.43997" lon="5.76146">
        <ele>770</ele>
        <time>2010-03-19T17:27:07Z</time>
      </trkpt>
      <trkpt lat="44.4401" lon="5.76161">
        <ele>769</ele>
        <time>2010-03-19T17:27:21Z</time>
      </trkpt>
      <trkpt lat="44.44025" lon="5.76174">
        <ele>766</ele>
        <time>2010-03-19T17:27:35Z</time>
      </trkpt>
      <trkpt lat="44.44041" lon="5.76178">
        <ele>764</ele>
        <time>2010-03-19T17:27:49Z</time>
      </trkpt>
      <trkpt lat="44.44058" lon="5.76178">
        <ele>761</ele>
        <time>2010-03-19T17:28:03Z</time>
      </trkpt>
      <trkpt lat="44.44077" lon="5.76177">
        <ele>761</ele>
        <time>2010-03-19T17:28:17Z</time>
      </trkpt>
      <trkpt lat="44.44096" lon="5.76177">
        <ele>760</ele>
        <time>2010-03-19T17:28:31Z</time>
      </trkpt>
      <trkpt lat="44.44114" lon="5.76177">
        <ele>758</ele>
        <time>2010-03-19T17:28:45Z</time>
      </trkpt>
      <trkpt lat="44.44132" lon="5.7618">
        <ele>758</ele>
        <time>2010-03-19T17:28:59Z</time>
      </trkpt>
      <trkpt lat="44.44149" lon="5.76194">
        <ele>756</ele>
        <time>2010-03-19T17:29:13Z</time>
      </trkpt>
      <trkpt lat="44.44166" lon="5.76209">
        <ele>754</ele>
        <time>2010-03-19T17:29:27Z</time>
      </trkpt>
      <trkpt lat="44.44184" lon="5.76214">
        <ele>753</ele>
        <time>2010-03-19T17:29:41Z</time>
      </trkpt>
      <trkpt lat="44.44201" lon="5.76224">
        <ele>753</ele>
        <time>2010-03-19T17:29:55Z</time>
      </trkpt>
      <trkpt lat="44.44218" lon="5.76241">
        <ele>752</ele>
        <time>2010-03-19T17:30:09Z</time>
      </trkpt>
      <trkpt lat="44.44233" lon="5.76257">
        <ele>750</ele>
        <time>2010-03-19T17:30:23Z</time>
      </trkpt>
      <trkpt lat="44.44249" lon="5.76271">
        <ele>750</ele>
        <time>2010-03-19T17:30:37Z</time>
      </trkpt>
      <trkpt lat="44.44264" lon="5.76287">
        <ele>749</ele>
        <time>2010-03-19T17:30:51Z</time>
      </trkpt>
      <trkpt lat="44.44276" lon="5.7631">
        <ele>749</ele>
        <time>2010-03-19T17:31:05Z</time>
      </trkpt>
      <trkpt lat="44.44284" lon="5.76335">
        <ele>749</ele>
        <time>2010-03-19T17:31:19Z</time>
      </trkpt>
      <trkpt lat="44.44299" lon="5.76347">
        <ele>749</ele>
        <time>2010-03-19T17:31:33Z</time>
      </trkpt>
      <trkpt lat="44.44316" lon="5.76345">
        <ele>749</ele>
        <time>2010-03-19T17:31:47Z</time>
      </trkpt>
      <trkpt lat="44.44335" lon="5.76339">
        <ele>749</ele>
        <time>2010-03-19T17:32:01Z</time>
      </trkpt>
      <trkpt lat="44.4435" lon="5.76329">
        <ele>749</ele>
        <time>2010-03-19T17:32:15Z</time>
      </trkpt>
      <trkpt lat="44.44362" lon="5.7631">
        <ele>749</ele>
        <time>2010-03-19T17:32:29Z</time>
      </trkpt>
      <trkpt lat="44.44374" lon="5.76288">
        <ele>748</ele>
        <time>2010-03-19T17:32:43Z</time>
      </trkpt>
      <trkpt lat="44.44386" lon="5.76269">
        <ele>748</ele>
        <time>2010-03-19T17:32:57Z</time>
      </trkpt>
      <trkpt lat="44.44402" lon="5.76256">
        <ele>747</ele>
        <time>2010-03-19T17:33:11Z</time>
      </trkpt>
      <trkpt lat="44.44419" lon="5.76246">
        <ele>746</ele>
        <time>2010-03-19T17:33:25Z</time>
      </trkpt>
      <trkpt lat="44.44436" lon="5.7624">
        <ele>746</ele>
        <time>2010-03-19T17:33:39Z</time>
      </trkpt>
      <trkpt lat="44.44454" lon="5.76233">
        <ele>745</ele>
        <time>2010-03-19T17:33:53Z</time>
      </trkpt>
      <trkpt lat="44.44472" lon="5.76227">
        <ele>744</ele>
        <time>2010-03-19T17:34:07Z</time>
      </trkpt>
      <trkpt lat="44.44491" lon="5.76221">
        <ele>743</ele>
        <time>2010-03-19T17:34:21Z</time>
      </trkpt>
      <trkpt lat="44.44511" lon="5.76218">
        <ele>742</ele>
        <time>2010-03-19T17:34:35Z</time>
      </trkpt>
      <trkpt lat="44.4453" lon="5.76213">
        <ele>741</ele>
        <time>2010-03-19T17:34:49Z</time>
      </trkpt>
      <trkpt lat="44.44546" lon="5.762">
        <ele>740</ele>
        <time>2010-03-19T17:35:03Z</time>
      </trkpt>
      <trkpt lat="44.44564" lon="5.76188">
        <ele>739</ele>
        <time>2010-03-19T17:35:17Z</time>
      </trkpt>
      <trkpt lat="44.4458" lon="5.76177">
        <ele>738</ele>
        <time>2010-03-19T17:35:31Z</time>
      </trkpt>
      <trkpt lat="44.44595" lon="5.76161">
        <ele>737</ele>
        <time>2010-03-19T17:35:45Z</time>
      </trkpt>
      <trkpt lat="44.44601" lon="5.76135">
        <ele>736</ele>
        <time>2010-03-19T17:35:59Z</time>
      </trkpt>
      <trkpt lat="44.4461" lon="5.7611">
        <ele>736</ele>
        <time>2010-03-19T17:36:13Z</time>
      </trkpt>
      <trkpt lat="44.44624" lon="5.76092">
        <ele>736</ele>
        <time>2010-03-19T17:36:27Z</time>
      </trkpt>
      <trkpt lat="44.44641" lon="5.76083">
        <ele>735</ele>
        <time>2010-03-19T17:36:41Z</time>
      </trkpt>
      <trkpt lat="44.44659" lon="5.76072">
        <ele>734</ele>
        <time>2010-03-19T17:36:55Z</time>
      </trkpt>
      <trkpt lat="44.44673" lon="5.76054">
        <ele>733</ele>
        <time>2010-03-19T17:37:09Z</time>
      </trkpt>
      <trkpt lat="44.44688" lon="5.76041">
        <ele>733</ele>
        <time>2010-03-19T17:37:23Z</time>
      </trkpt>
      <trkpt lat="44.44705" lon="5.76031">
        <ele>731</ele>
        <time>2010-03-19T17:37:37Z</time>
      </trkpt>
      <trkpt lat="44.44723" lon="5.76022">
        <ele>729</ele>
        <time>2010-03-19T17:37:51Z</time>
      </trkpt>
      <trkpt lat="44.4474" lon="5.76008">
        <ele>729</ele>
        <time>2010-03-19T17:38:05Z</time>
      </trkpt>
      <trkpt lat="44.44756" lon="5.75994">
        <ele>729</ele>
        <time>2010-03-19T17:38:19Z</time>
      </trkpt>
      <trkpt lat="44.44774" lon="5.75982">
        <ele>727</ele>
        <time>2010-03-19T17:38:33Z</time>
      </trkpt>
      <trkpt lat="44.44792" lon="5.75973">
        <ele>727</ele>
        <time>2010-03-19T17:38:47Z</time>
      </trkpt>
      <trkpt lat="44.44806" lon="5.75956">
        <ele>725</ele>
        <time>2010-03-19T17:39:01Z</time>
      </trkpt>
      <trkpt lat="44.44814" lon="5.75932">
        <ele>723</ele>
        <time>2010-03-19T17:39:15Z</time>
      </trkpt>
      <trkpt lat="44.44823" lon="5.75907">
        <ele>722</ele>
        <time>2010-03-19T17:39:29Z</time>
      </trkpt>
      <trkpt lat="44.44834" lon="5.75884">
        <ele>721</ele>
        <time>2010-03-19T17:39:43Z</time>
      </trkpt>
      <trkpt lat="44.44853" lon="5.7588">
        <ele>720</ele>
        <time>2010-03-19T17:39:57Z</time>
      </trkpt>
      <trkpt lat="44.44871" lon="5.75876">
        <ele>719</ele>
        <time>2010-03-19T17:40:11Z</time>
      </trkpt>
      <trkpt lat="44.4489" lon="5.75869">
        <ele>719</ele>
        <time>2010-03-19T17:40:25Z</time>
      </trkpt>
      <trkpt lat="44.44909" lon="5.75858">
        <ele>718</ele>
        <time>2010-03-19T17:40:39Z</time>
      </trkpt>
      <trkpt lat="44.44929" lon="5.75848">
        <ele>719</ele>
        <time>2010-03-19T17:40:53Z</time>
      </trkpt>
      <trkpt lat="44.44947" lon="5.75838">
        <ele>719</ele>
        <time>2010-03-19T17:41:07Z</time>
      </trkpt>
      <trkpt lat="44.44965" lon="5.75825">
        <ele>719</ele>
        <time>2010-03-19T17:41:21Z</time>
      </trkpt>
      <trkpt lat="44.44984" lon="5.75817">
        <ele>719</ele>
        <time>2010-03-19T17:41:35Z</time>
      </trkpt>
      <trkpt lat="44.45003" lon="5.75807">
        <ele>718</ele>
        <time>2010-03-19T17:41:49Z</time>
      </trkpt>
      <trkpt lat="44.45019" lon="5.7579">
        <ele>719</ele>
        <time>2010-03-19T17:42:03Z</time>
      </trkpt>
      <trkpt lat="44.45034" lon="5.75775">
        <ele>719</ele>
        <time>2010-03-19T17:42:17Z</time>
      </trkpt>
      <trkpt lat="44.45052" lon="5.7577">
        <ele>716</ele>
        <time>2010-03-19T17:42:31Z</time>
      </trkpt>
      <trkpt lat="44.45071" lon="5.75761">
        <ele>717</ele>
        <time>2010-03-19T17:42:45Z</time>
      </trkpt>
      <trkpt lat="44.45088" lon="5.7575">
        <ele>718</ele>
        <time>2010-03-19T17:42:59Z</time>
      </trkpt>
      <trkpt lat="44.45105" lon="5.75738">
        <ele>718</ele>
        <time>2010-03-19T17:43:13Z</time>
      </trkpt>
      <trkpt lat="44.45121" lon="5.75721">
        <ele>717</ele>
        <time>2010-03-19T17:43:27Z</time>
      </trkpt>
      <trkpt lat="44.45134" lon="5.757">
        <ele>717</ele>
        <time>2010-03-19T17:43:41Z</time>
      </trkpt>
      <trkpt lat="44.45148" lon="5.75679">
        <ele>716</ele>
        <time>2010-03-19T17:43:55Z</time>
      </trkpt>
      <trkpt lat="44.45161" lon="5.7566">
        <ele>714</ele>
        <time>2010-03-19T17:44:09Z</time>
      </trkpt>
      <trkpt lat="44.45175" lon="5.75641">
        <ele>712</ele>
        <time>2010-03-19T17:44:23Z</time>
      </trkpt>
      <trkpt lat="44.45193" lon="5.75631">
        <ele>711</ele>
        <time>2010-03-19T17:44:37Z</time>
      </trkpt>
      <trkpt lat="44.45211" lon="5.75647">
        <ele>710</ele>
        <time>2010-03-19T17:44:51Z</time>
      </trkpt>
      <trkpt lat="44.45226" lon="5.75667">
        <ele>711</ele>
        <time>2010-03-19T17:45:05Z</time>
      </trkpt>
      <trkpt lat="44.45239" lon="5.75688">
        <ele>709</ele>
        <time>2010-03-19T17:45:19Z</time>
      </trkpt>
      <trkpt lat="44.45252" lon="5.75709">
        <ele>709</ele>
        <time>2010-03-19T17:45:33Z</time>
      </trkpt>
      <trkpt lat="44.45265" lon="5.75731">
        <ele>709</ele>
        <time>2010-03-19T17:45:47Z</time>
      </trkpt>
      <trkpt lat="44.45279" lon="5.75751">
        <ele>709</ele>
        <time>2010-03-19T17:46:01Z</time>
      </trkpt>
      <trkpt lat="44.45293" lon="5.75771">
        <ele>709</ele>
        <time>2010-03-19T17:46:15Z</time>
      </trkpt>
      <trkpt lat="44.4531" lon="5.75784">
        <ele>710</ele>
        <time>2010-03-19T17:46:29Z</time>
      </trkpt>
      <trkpt lat="44.45326" lon="5.75784">
        <ele>710</ele>
        <time>2010-03-19T17:46:43Z</time>
      </trkpt>
      <trkpt lat="44.45346" lon="5.75779">
        <ele>711</ele>
        <time>2010-03-19T17:46:57Z</time>
      </trkpt>
      <trkpt lat="44.45365" lon="5.75778">
        <ele>711</ele>
        <time>2010-03-19T17:47:11Z</time>
      </trkpt>
      <trkpt lat="44.45383" lon="5.75772">
        <ele>712</ele>
        <time>2010-03-19T17:47:25Z</time>
      </trkpt>
      <trkpt lat="44.45401" lon="5.75767">
        <ele>711</ele>
        <time>2010-03-19T17:47:39Z</time>
      </trkpt>
      <trkpt lat="44.4542" lon="5.75759">
        <ele>711</ele>
        <time>2010-03-19T17:47:53Z</time>
      </trkpt>
      <trkpt lat="44.45433" lon="5.75735">
        <ele>711</ele>
        <time>2010-03-19T17:48:07Z</time>
      </trkpt>
      <trkpt lat="44.4544" lon="5.75707">
        <ele>711</ele>
        <time>2010-03-19T17:48:21Z</time>
      </trkpt>
      <trkpt lat="44.45446" lon="5.75681">
        <ele>711</ele>
        <time>2010-03-19T17:48:35Z</time>
      </trkpt>
      <trkpt lat="44.4545" lon="5.75653">
        <ele>711</ele>
        <time>2010-03-19T17:48:49Z</time>
      </trkpt>
      <trkpt lat="44.45456" lon="5.75628">
        <ele>711</ele>
        <time>2010-03-19T17:49:03Z</time>
      </trkpt>
      <trkpt lat="44.45462" lon="5.75603">
        <ele>711</ele>
        <time>2010-03-19T17:49:17Z</time>
      </trkpt>
      <trkpt lat="44.45466" lon="5.75576">
        <ele>712</ele>
        <time>2010-03-19T17:49:31Z</time>
      </trkpt>
      <trkpt lat="44.45467" lon="5.75552">
        <ele>712</ele>
        <time>2010-03-19T17:49:45Z</time>
      </trkpt>
      <trkpt lat="44.45468" lon="5.75528">
        <ele>713</ele>
        <time>2010-03-19T17:49:59Z</time>
      </trkpt>
      <trkpt lat="44.45476" lon="5.75502">
        <ele>715</ele>
        <time>2010-03-19T17:50:13Z</time>
      </trkpt>
      <trkpt lat="44.45484" lon="5.75477">
        <ele>715</ele>
        <time>2010-03-19T17:50:27Z</time>
      </trkpt>
      <trkpt lat="44.45492" lon="5.75454">
        <ele>716</ele>
        <time>2010-03-19T17:50:41Z</time>
      </trkpt>
      <trkpt lat="44.45501" lon="5.75429">
        <ele>716</ele>
        <time>2010-03-19T17:50:55Z</time>
      </trkpt>
      <trkpt lat="44.45508" lon="5.75404">
        <ele>716</ele>
        <time>2010-03-19T17:51:09Z</time>
      </trkpt>
      <trkpt lat="44.45513" lon="5.75377">
        <ele>717</ele>
        <time>2010-03-19T17:51:23Z</time>
      </trkpt>
      <trkpt lat="44.45517" lon="5.75349">
        <ele>718</ele>
        <time>2010-03-19T17:51:37Z</time>
      </trkpt>
      <trkpt lat="44.4552" lon="5.75322">
        <ele>717</ele>
        <time>2010-03-19T17:51:51Z</time>
      </trkpt>
      <trkpt lat="44.45524" lon="5.75297">
        <ele>717</ele>
        <time>2010-03-19T17:52:05Z</time>
      </trkpt>
      <trkpt lat="44.45529" lon="5.75273">
        <ele>717</ele>
        <time>2010-03-19T17:52:19Z</time>
      </trkpt>
      <trkpt lat="44.45533" lon="5.75247">
        <ele>718</ele>
        <time>2010-03-19T17:52:33Z</time>
      </trkpt>
      <trkpt lat="44.45537" lon="5.7522">
        <ele>719</ele>
        <time>2010-03-19T17:52:47Z</time>
      </trkpt>
      <trkpt lat="44.4554" lon="5.75192">
        <ele>719</ele>
        <time>2010-03-19T17:53:01Z</time>
      </trkpt>
      <trkpt lat="44.45545" lon="5.75166">
        <ele>719</ele>
        <time>2010-03-19T17:53:15Z</time>
      </trkpt>
      <trkpt lat="44.45549" lon="5.75142">
        <ele>721</ele>
        <time>2010-03-19T17:53:29Z</time>
      </trkpt>
      <trkpt lat="44.45553" lon="5.75116">
        <ele>723</ele>
        <time>2010-03-19T17:53:43Z</time>
      </trkpt>
      <trkpt lat="44.45569" lon="5.75101">
        <ele>724</ele>
        <time>2010-03-19T17:53:57Z</time>
      </trkpt>
      <trkpt lat="44.45581" lon="5.75081">
        <ele>724</ele>
        <time>2010-03-19T17:54:11Z</time>
      </trkpt>
      <trkpt lat="44.45582" lon="5.7509">
        <ele>725</ele>
        <time>2010-03-19T17:54:25Z</time>
      </trkpt>
      <trkpt lat="44.45594" lon="5.7511">
        <ele>725</ele>
        <time>2010-03-19T17:54:39Z</time>
      </trkpt>
      <trkpt lat="44.45595" lon="5.75095">
        <ele>724</ele>
        <time>2010-03-19T17:54:53Z</time>
      </trkpt>
      <trkpt lat="44.45593" lon="5.75095">
        <ele>724</ele>
        <time>2010-03-19T17:55:07Z</time>
      </trkpt>
      <trkpt lat="44.45593" lon="5.75086">
        <ele>724</ele>
        <time>2010-03-19T17:55:21Z</time>
      </trkpt>
      <trkpt lat="44.456" lon="5.7506">
        <ele>724</ele>
        <time>2010-03-19T17:55:35Z</time>
      </trkpt>
      <trkpt lat="44.45608" lon="5.75035">
        <ele>724</ele>
        <time>2010-03-19T17:55:49Z</time>
      </trkpt>
      <trkpt lat="44.45606" lon="5.75012">
        <ele>724</ele>
        <time>2010-03-19T17:56:03Z</time>
      </trkpt>
      <trkpt lat="44.4562" lon="5.74993">
        <ele>723</ele>
        <time>2010-03-19T17:56:17Z</time>
      </trkpt>
      <trkpt lat="44.45635" lon="5.74976">
        <ele>724</ele>
        <time>2010-03-19T17:56:31Z</time>
      </trkpt>
      <trkpt lat="44.45652" lon="5.7496">
        <ele>723</ele>
        <time>2010-03-19T17:56:45Z</time>
      </trkpt>
      <trkpt lat="44.45667" lon="5.7494">
        <ele>723</ele>
        <time>2010-03-19T17:56:59Z</time>
      </trkpt>
      <trkpt lat="44.45683" lon="5.74926">
        <ele>723</ele>
        <time>2010-03-19T17:57:13Z</time>
      </trkpt>
      <trkpt lat="44.45701" lon="5.74912">
        <ele>723</ele>
        <time>2010-03-19T17:57:27Z</time>
      </trkpt>
      <trkpt lat="44.45718" lon="5.74898">
        <ele>723</ele>
        <time>2010-03-19T17:57:41Z</time>
      </trkpt>
      <trkpt lat="44.45735" lon="5.74885">
        <ele>723</ele>
        <time>2010-03-19T17:57:55Z</time>
      </trkpt>
      <trkpt lat="44.45755" lon="5.7489">
        <ele>723</ele>
        <time>2010-03-19T17:58:09Z</time>
      </trkpt>
      <trkpt lat="44.4577" lon="5.74905">
        <ele>723</ele>
        <time>2010-03-19T17:58:23Z</time>
      </trkpt>
      <trkpt lat="44.45786" lon="5.74916">
        <ele>722</ele>
        <time>2010-03-19T17:58:37Z</time>
      </trkpt>
      <trkpt lat="44.45798" lon="5.74929">
        <ele>722</ele>
        <time>2010-03-19T17:58:51Z</time>
      </trkpt>
      <trkpt lat="44.45799" lon="5.74929">
        <ele>722</ele>
        <time>2010-03-19T17:59:05Z</time>
      </trkpt>
      <trkpt lat="44.45812" lon="5.7492">
        <ele>722</ele>
        <time>2010-03-19T17:59:19Z</time>
      </trkpt>
      <trkpt lat="44.45827" lon="5.7491">
        <ele>722</ele>
        <time>2010-03-19T17:59:33Z</time>
      </trkpt>
      <trkpt lat="44.45827" lon="5.7491">
        <ele>722</ele>
        <time>2010-03-19T17:59:47Z</time>
      </trkpt>
      <trkpt lat="44.45822" lon="5.74907">
        <ele>724</ele>
        <time>2010-03-19T18:00:01Z</time>
      </trkpt>
      <trkpt lat="44.45824" lon="5.74912">
        <ele>723</ele>
        <time>2010-03-19T18:00:15Z</time>
      </trkpt>
      <trkpt lat="44.45838" lon="5.74925">
        <ele>724</ele>
        <time>2010-03-19T18:00:29Z</time>
      </trkpt>
      <trkpt lat="44.45836" lon="5.74922">
        <ele>723</ele>
        <time>2010-03-19T18:00:43Z</time>
      </trkpt>
      <trkpt lat="44.45832" lon="5.74908">
        <ele>724</ele>
        <time>2010-03-19T18:00:57Z</time>
      </trkpt>
      <trkpt lat="44.45817" lon="5.74904">
        <ele>724</ele>
        <time>2010-03-19T18:01:11Z</time>
      </trkpt>
      <trkpt lat="44.45821" lon="5.74903">
        <ele>724</ele>
        <time>2010-03-19T18:01:25Z</time>
      </trkpt>
      <trkpt lat="44.45828" lon="5.74918">
        <ele>724</ele>
        <time>2010-03-19T18:01:39Z</time>
      </trkpt>
      <trkpt lat="44.45816" lon="5.74921">
        <ele>724</ele>
        <time>2010-03-19T18:01:53Z</time>
      </trkpt>
      <trkpt lat="44.45807" lon="5.74926">
        <ele>724</ele>
        <time>2010-03-19T18:02:07Z</time>
      </trkpt>
      <trkpt lat="44.45805" lon="5.74928">
        <ele>725</ele>
        <time>2010-03-19T18:02:21Z</time>
      </trkpt>
      <trkpt lat="44.45805" lon="5.74929">
        <ele>725</ele>
        <time>2010-03-19T18:02:35Z</time>
      </trkpt>
      <trkpt lat="44.45804" lon="5.74929">
        <ele>725</ele>
        <time>2010-03-19T18:02:49Z</time>
      </trkpt>
      <trkpt lat="44.45804" lon="5.7493">
        <ele>725</ele>
        <time>2010-03-19T18:03:03Z</time>
      </trkpt>
      <trkpt lat="44.45804" lon="5.7493">
        <ele>725</ele>
        <time>2010-03-19T18:03:17Z</time>
      </trkpt>
      <trkpt lat="44.45804" lon="5.7493">
        <ele>725</ele>
        <time>2010-03-19T18:03:31Z</time>
      </trkpt>
      <trkpt lat="44.45804" lon="5.7493">
        <ele>725</ele>
        <time>2010-03-19T18:03:45Z</time>
      </trkpt>
      <trkpt lat="44.458" lon="5.74931">
        <ele>725</ele>
        <time>2010-03-19T18:03:59Z</time>
      </trkpt>
      <trkpt lat="44.45799" lon="5.74932">
        <ele>725</ele>
        <time>2010-03-19T18:04:13Z</time>
      </trkpt>
      <trkpt lat="44.45799" lon="5.74932">
        <ele>725</ele>
        <time>2010-03-19T18:04:27Z</time>
      </trkpt>
      <trkpt lat="44.45799" lon="5.7493">
        <ele>724</ele>
        <time>2010-03-19T18:04:41Z</time>
      </trkpt>
      <trkpt lat="44.45801" lon="5.74919">
        <ele>725</ele>
        <time>2010-03-19T18:04:55Z</time>
      </trkpt>
      <trkpt lat="44.45801" lon="5.7492">
        <ele>725</ele>
        <time>2010-03-19T18:05:09Z</time>
      </trkpt>
      <trkpt lat="44.45801" lon="5.7492">
        <ele>726</ele>
        <time>2010-03-19T18:05:23Z</time>
      </trkpt>
      <trkpt lat="44.458" lon="5.74917">
        <ele>725</ele>
        <time>2010-03-19T18:05:37Z</time>
      </trkpt>
      <trkpt lat="44.45799" lon="5.74917">
        <ele>724</ele>
        <time>2010-03-19T18:05:51Z</time>
      </trkpt>
      <trkpt lat="44.45799" lon="5.74917">
        <ele>725</ele>
        <time>2010-03-19T18:06:05Z</time>
      </trkpt>
      <trkpt lat="44.45799" lon="5.74916">
        <ele>725</ele>
        <time>2010-03-19T18:06:19Z</time>
      </trkpt>
      <trkpt lat="44.45799" lon="5.74916">
        <ele>725</ele>
        <time>2010-03-19T18:06:33Z</time>
      </trkpt>
      <trkpt lat="44.45799" lon="5.74917">
        <ele>725</ele>
        <time>2010-03-19T18:06:47Z</time>
      </trkpt>
      <trkpt lat="44.45799" lon="5.74917">
        <ele>725</ele>
        <time>2010-03-19T18:07:01Z</time>
      </trkpt>
      <trkpt lat="44.45799" lon="5.74917">
        <ele>726</ele>
        <time>2010-03-19T18:07:15Z</time>
      </trkpt>
      <trkpt lat="44.45799" lon="5.74917">
        <ele>725</ele>
        <time>2010-03-19T18:07:29Z</time>
      </trkpt>
      <trkpt lat="44.45799" lon="5.74917">
        <ele>725</ele>
        <time>2010-03-19T18:07:43Z</time>
      </trkpt>
      <trkpt lat="44.45798" lon="5.74917">
        <ele>725</ele>
        <time>2010-03-19T18:07:57Z</time>
      </trkpt>
      <trkpt lat="44.45798" lon="5.74916">
        <ele>725</ele>
        <time>2010-03-19T18:08:11Z</time>
      </trkpt>
      <trkpt lat="44.45798" lon="5.74916">
        <ele>726</ele>
        <time>2010-03-19T18:08:25Z</time>
      </trkpt>
      <trkpt lat="44.45798" lon="5.74915">
        <ele>725</ele>
        <time>2010-03-19T18:08:39Z</time>
      </trkpt>
      <trkpt lat="44.45798" lon="5.74915">
        <ele>725</ele>
        <time>2010-03-19T18:08:53Z</time>
      </trkpt>
      <trkpt lat="44.45798" lon="5.74915">
        <ele>725</ele>
        <time>2010-03-19T18:09:07Z</time>
      </trkpt>
      <trkpt lat="44.45798" lon="5.74916">
        <ele>725</ele>
        <time>2010-03-19T18:09:21Z</time>
      </trkpt>
      <trkpt lat="44.45798" lon="5.74917">
        <ele>724</ele>
        <time>2010-03-19T18:09:35Z</time>
      </trkpt>
      <trkpt lat="44.45797" lon="5.74917">
        <ele>726</ele>
        <time>2010-03-19T18:09:49Z</time>
      </trkpt>
      <trkpt lat="44.45798" lon="5.74917">
        <ele>726</ele>
        <time>2010-03-19T18:10:03Z</time>
      </trkpt>
      <trkpt lat="44.45798" lon="5.74917">
        <ele>727</ele>
        <time>2010-03-19T18:10:17Z</time>
      </trkpt>
      <trkpt lat="44.45798" lon="5.74917">
        <ele>727</ele>
      </trkpt>
      <trkpt lat="44.45798" lon="5.74917">
        <ele>726</ele>
        <time>2010-03-19T18:10:03Z</time>
      </trkpt>
      <trkpt lat="44.45797" lon="5.74917">
        <ele>726</ele>
        <time>2010-03-19T18:09:49Z</time>
      </trkpt>
      <trkpt lat="44.45798" lon="5.74917">
        <ele>724</ele>
        <time>2010-03-19T18:09:35Z</time>
      </trkpt>
      <trkpt lat="44.45798" lon="5.74916">
        <ele>725</ele>
        <time>2010-03-19T18:09:21Z</time>
      </trkpt>
      <trkpt lat="44.45798" lon="5.74915">
        <ele>725</ele>
        <time>2010-03-19T18:09:07Z</time>
      </trkpt>
      <trkpt lat="44.45798" lon="5.74915">
        <ele>725</ele>
        <time>2010-03-19T18:08:53Z</time>
      </trkpt>
      <trkpt lat="44.45798" lon="5.74915">
        <ele>725</ele>
        <time>2010-03-19T18:08:39Z</time>
      </trkpt>
      <trkpt lat="44.45798" lon="5.74916">
        <ele>726</ele>
        <time>2010-03-19T18:08:25Z</time>
      </trkpt>
      <trkpt lat="44.45798" lon="5.74916">
        <ele>725</ele>
        <time>2010-03-19T18:08:11Z</time>
      </trkpt>
      <trkpt lat="44.45798" lon="5.74917">
        <ele>725</ele>
        <time>2010-03-19T18:07:57Z</time>
      </trkpt>
      <trkpt lat="44.45799" lon="5.74917">
        <ele>725</ele>
        <time>2010-03-19T18:07:43Z</time>
      </trkpt>
      <trkpt lat="44.45799" lon="5.74917">
        <ele>725</ele>
        <time>2010-03-19T18:07:29Z</time>
      </trkpt>
      <trkpt lat="44.45799" lon="5.74917">
        <ele>726</ele>
        <time>2010-03-19T18:07:15Z</time>
      </trkpt>
      <trkpt lat="44.45799" lon="5.74917">
        <ele>725</ele>
        <time>2010-03-19T18:07:01Z</time>
      </trkpt>
      <trkpt lat="44.45799" lon="5.74917">
        <ele>725</ele>
        <time>2010-03-19T18:06:47Z</time>
      </trkpt>
      <trkpt lat="44.45799" lon="5.74916">
        <ele>725</ele>
        <time>2010-03-19T18:06:33Z</time>
      </trkpt>
      <trkpt lat="44.45799" lon="5.74916">
        <ele>725</ele>
        <time>2010-03-19T18:06:19Z</time>
      </trkpt>
      <trkpt lat="44.45799" lon="5.74917">
        <ele>725</ele>
        <time>2010-03-19T18:06:05Z</time>
      </trkpt>
      <trkpt lat="44.45799" lon="5.74917">
        <ele>724</ele>
        <time>2010-03-19T18:05:51Z</time>
      </trkpt>
      <trkpt lat="44.458" lon="5.74917">
        <ele>725</ele>
        <time>2010-03-19T18:05:37Z</time>
      </trkpt>
      <trkpt lat="44.45801" lon="5.7492">
        <ele>726</ele>
        <time>2010-03-19T18:05:23Z</time>
      </trkpt>
      <trkpt lat="44.45801" lon="5.7492">
        <ele>725</ele>
        <time>2010-03-19T18:05:09Z</time>
      </trkpt>
      <trkpt lat="44.45801" lon="5.74919">
        <ele>725</ele>
        <time>2010-03-19T18:04:55Z</time>
      </trkpt>
      <trkpt lat="44.45799" lon="5.7493">
        <ele>724</ele>
        <time>2010-03-19T18:04:41Z</time>
      </trkpt>
      <trkpt lat="44.45799" lon="5.74932">
        <ele>725</ele>
        <time>2010-03-19T18:04:27Z</time>
      </trkpt>
      <trkpt lat="44.45799" lon="5.74932">
        <ele>725</ele>
        <time>2010-03-19T18:04:13Z</time>
      </trkpt>
      <trkpt lat="44.458" lon="5.74931">
        <ele>725</ele>
        <time>2010-03-19T18:03:59Z</time>
      </trkpt>
      <trkpt lat="44.45804" lon="5.7493">
        <ele>725</ele>
        <time>2010-03-19T18:03:45Z</time>
      </trkpt>
      <trkpt lat="44.45804" lon="5.7493">
        <ele>725</ele>
        <time>2010-03-19T18:03:31Z</time>
      </trkpt>
      <trkpt lat="44.45804" lon="5.7493">
        <ele>725</ele>
        <time>2010-03-19T18:03:17Z</time>
      </trkpt>
      <trkpt lat="44.45804" lon="5.7493">
        <ele>725</ele>
        <time>2010-03-19T18:03:03Z</time>
      </trkpt>
      <trkpt lat="44.45804" lon="5.74929">
        <ele>725</ele>
        <time>2010-03-19T18:02:49Z</time>
      </trkpt>
      <trkpt lat="44.45805" lon="5.74929">
        <ele>725</ele>
        <time>2010-03-19T18:02:35Z</time>
      </trkpt>
      <trkpt lat="44.45805" lon="5.74928">
        <ele>725</ele>
        <time>2010-03-19T18:02:21Z</time>
      </trkpt>
      <trkpt lat="44.45807" lon="5.74926">
        <ele>724</ele>
        <time>2010-03-19T18:02:07Z</time>
      </trkpt>
      <trkpt lat="44.45816" lon="5.74921">
        <ele>724</ele>
        <time>2010-03-19T18:01:53Z</time>
      </trkpt>
      <trkpt lat="44.45828" lon="5.74918">
        <ele>724</ele>
        <time>2010-03-19T18:01:39Z</time>
      </trkpt>
      <trkpt lat="44.45821" lon="5.74903">
        <ele>724</ele>
        <time>2010-03-19T18:01:25Z</time>
      </trkpt>
      <trkpt lat="44.45817" lon="5.74904">
        <ele>724</ele>
        <time>2010-03-19T18:01:11Z</time>
      </trkpt>
      <trkpt lat="44.45832" lon="5.74908">
        <ele>724</ele>
        <time>2010-03-19T18:00:57Z</time>
      </trkpt>
      <trkpt lat="44.45836" lon="5.74922">
        <ele>723</ele>
        <time>2010-03-19T18:00:43Z</time>
      </trkpt>
      <trkpt lat="44.45838" lon="5.74925">
        <ele>724</ele>
        <time>2010-03-19T18:00:29Z</time>
      </trkpt>
      <trkpt lat="44.45824" lon="5.74912">
        <ele>723</ele>
        <time>2010-03-19T18:00:15Z</time>
      </trkpt>
      <trkpt lat="44.45822" lon="5.74907">
        <ele>724</ele>
        <time>2010-03-19T18:00:01Z</time>
      </trkpt>
      <trkpt lat="44.45827" lon="5.7491">
        <ele>722</ele>
        <time>2010-03-19T17:59:47Z</time>
      </trkpt>
      <trkpt lat="44.45827" lon="5.7491">
        <ele>722</ele>
        <time>2010-03-19T17:59:33Z</time>
      </trkpt>
      <trkpt lat="44.45812" lon="5.7492">
        <ele>722</ele>
        <time>2010-03-19T17:59:19Z</time>
      </trkpt>
      <trkpt lat="44.45799" lon="5.74929">
        <ele>722</ele>
        <time>2010-03-19T17:59:05Z</time>
      </trkpt>
      <trkpt lat="44.45798" lon="5.74929">
        <ele>722</ele>
        <time>2010-03-19T17:58:51Z</time>
      </trkpt>
      <trkpt lat="44.45786" lon="5.74916">
        <ele>722</ele>
        <time>2010-03-19T17:58:37Z</time>
      </trkpt>
      <trkpt lat="44.4577" lon="5.74905">
        <ele>723</ele>
        <time>2010-03-19T17:58:23Z</time>
      </trkpt>
      <trkpt lat="44.45755" lon="5.7489">
        <ele>723</ele>
        <time>2010-03-19T17:58:09Z</time>
      </trkpt>
      <trkpt lat="44.45735" lon="5.74885">
        <ele>723</ele>
        <time>2010-03-19T17:57:55Z</time>
      </trkpt>
      <trkpt lat="44.45718" lon="5.74898">
        <ele>723</ele>
        <time>2010-03-19T17:57:41Z</time>
      </trkpt>
      <trkpt lat="44.45701" lon="5.74912">
        <ele>723</ele>
        <time>2010-03-19T17:57:27Z</time>
      </trkpt>
      <trkpt lat="44.45683" lon="5.74926">
        <ele>723</ele>
        <time>2010-03-19T17:57:13Z</time>
      </trkpt>
      <trkpt lat="44.45667" lon="5.7494">
        <ele>723</ele>
        <time>2010-03-19T17:56:59Z</time>
      </trkpt>
      <trkpt lat="44.45652" lon="5.7496">
        <ele>723</ele>
        <time>2010-03-19T17:56:45Z</time>
      </trkpt>
      <trkpt lat="44.45635" lon="5.74976">
        <ele>724</ele>
        <time>2010-03-19T17:56:31Z</time>
      </trkpt>
      <trkpt lat="44.4562" lon="5.74993">
        <ele>723</ele>
        <time>2010-03-19T17:56:17Z</time>
      </trkpt>
      <trkpt lat="44.45606" lon="5.75012">
        <ele>724</ele>
        <time>2010-03-19T17:56:03Z</time>
      </trkpt>
      <trkpt lat="44.45608" lon="5.75035">
        <ele>724</ele>
        <time>2010-03-19T17:55:49Z</time>
      </trkpt>
      <trkpt lat="44.456" lon="5.7506">
        <ele>724</ele>
        <time>2010-03-19T17:55:35Z</time>
      </trkpt>
      <trkpt lat="44.45593" lon="5.75086">
        <ele>724</ele>
        <time>2010-03-19T17:55:21Z</time>
      </trkpt>
      <trkpt lat="44.45593" lon="5.75095">
        <ele>724</ele>
        <time>2010-03-19T17:55:07Z</time>
      </trkpt>
      <trkpt lat="44.45595" lon="5.75095">
        <ele>724</ele>
        <time>2010-03-19T17:54:53Z</time>
      </trkpt>
      <trkpt lat="44.45594" lon="5.7511">
        <ele>725</ele>
        <time>2010-03-19T17:54:39Z</time>
      </trkpt>
      <trkpt lat="44.45582" lon="5.7509">
        <ele>725</ele>
        <time>2010-03-19T17:54:25Z</time>
      </trkpt>
      <trkpt lat="44.45581" lon="5.75081">
        <ele>724</ele>
        <time>2010-03-19T17:54:11Z</time>
      </trkpt>
      <trkpt lat="44.45569" lon="5.75101">
        <ele>724</ele>
        <time>2010-03-19T17:53:57Z</time>
      </trkpt>
      <trkpt lat="44.45553" lon="5.75116">
        <ele>723</ele>
        <time>2010-03-19T17:53:43Z</time>
      </trkpt>
      <trkpt lat="44.45549" lon="5.75142">
        <ele>721</ele>
        <time>2010-03-19T17:53:29Z</time>
      </trkpt>
      <trkpt lat="44.45545" lon="5.75166">
        <ele>719</ele>
        <time>2010-03-19T17:53:15Z</time>
      </trkpt>
      <trkpt lat="44.4554" lon="5.75192">
        <ele>719</ele>
        <time>2010-03-19T17:53:01Z</time>
      </trkpt>
      <trkpt lat="44.45537" lon="5.7522">
        <ele>719</ele>
        <time>2010-03-19T17:52:47Z</time>
      </trkpt>
      <trkpt lat="44.45533" lon="5.75247">
        <ele>718</ele>
        <time>2010-03-19T17:52:33Z</time>
      </trkpt>
      <trkpt lat="44.45529" lon="5.75273">
        <ele>717</ele>
        <time>2010-03-19T17:52:19Z</time>
      </trkpt>
      <trkpt lat="44.45524" lon="5.75297">
        <ele>717</ele>
        <time>2010-03-19T17:52:05Z</time>
      </trkpt>
      <trkpt lat="44.4552" lon="5.75322">
        <ele>717</ele>
        <time>2010-03-19T17:51:51Z</time>
      </trkpt>
      <trkpt lat="44.45517" lon="5.75349">
        <ele>718</ele>
        <time>2010-03-19T17:51:37Z</time>
      </trkpt>
      <trkpt lat="44.45513" lon="5.75377">
        <ele>717</ele>
        <time>2010-03-19T17:51:23Z</time>
      </trkpt>
      <trkpt lat="44.45508" lon="5.75404">
        <ele>716</ele>
        <time>2010-03-19T17:51:09Z</time>
      </trkpt>
      <trkpt lat="44.45501" lon="5.75429">
        <ele>716</ele>
        <time>2010-03-19T17:50:55Z</time>
      </trkpt>
      <trkpt lat="44.45492" lon="5.75454">
        <ele>716</ele>
        <time>2010-03-19T17:50:41Z</time>
      </trkpt>
      <trkpt lat="44.45484" lon="5.75477">
        <ele>715</ele>
        <time>2010-03-19T17:50:27Z</time>
      </trkpt>
      <trkpt lat="44.45476" lon="5.75502">
        <ele>715</ele>
        <time>2010-03-19T17:50:13Z</time>
      </trkpt>
      <trkpt lat="44.45468" lon="5.75528">
        <ele>713</ele>
        <time>2010-03-19T17:49:59Z</time>
      </trkpt>
      <trkpt lat="44.45467" lon="5.75552">
        <ele>712</ele>
        <time>2010-03-19T17:49:45Z</time>
      </trkpt>
      <trkpt lat="44.45466" lon="5.75576">
        <ele>712</ele>
        <time>2010-03-19T17:49:31Z</time>
      </trkpt>
      <trkpt lat="44.45462" lon="5.75603">
        <ele>711</ele>
        <time>2010-03-19T17:49:17Z</time>
      </trkpt>
      <trkpt lat="44.45456" lon="5.75628">
        <ele>711</ele>
        <time>2010-03-19T17:49:03Z</time>
      </trkpt>
      <trkpt lat="44.4545" lon="5.75653">
        <ele>711</ele>
        <time>2010-03-19T17:48:49Z</time>
      </trkpt>
      <trkpt lat="44.45446" lon="5.75681">
        <ele>711</ele>
        <time>2010-03-19T17:48:35Z</time>
      </trkpt>
      <trkpt lat="44.4544" lon="5.75707">
        <ele>711</ele>
        <time>2010-03-19T17:48:21Z</time>
      </trkpt>
      <trkpt lat="44.45433" lon="5.75735">
        <ele>711</ele>
        <time>2010-03-19T17:48:07Z</time>
      </trkpt>
      <trkpt lat="44.4542" lon="5.75759">
        <ele>711</ele>
        <time>2010-03-19T17:47:53Z</time>
      </trkpt>
      <trkpt lat="44.45401" lon="5.75767">
        <ele>711</ele>
        <time>2010-03-19T17:47:39Z</time>
      </trkpt>
      <trkpt lat="44.45383" lon="5.75772">
        <ele>712</ele>
        <time>2010-03-19T17:47:25Z</time>
      </trkpt>
      <trkpt lat="44.45365" lon="5.75778">
        <ele>711</ele>
        <time>2010-03-19T17:47:11Z</time>
      </trkpt>
      <trkpt lat="44.45346" lon="5.75779">
        <ele>711</ele>
        <time>2010-03-19T17:46:57Z</time>
      </trkpt>
      <trkpt lat="44.45326" lon="5.75784">
        <ele>710</ele>
        <time>2010-03-19T17:46:43Z</time>
      </trkpt>
      <trkpt lat="44.4531" lon="5.75784">
        <ele>710</ele>
        <time>2010-03-19T17:46:29Z</time>
      </trkpt>
      <trkpt lat="44.45293" lon="5.75771">
        <ele>709</ele>
        <time>2010-03-19T17:46:15Z</time>
      </trkpt>
      <trkpt lat="44.45279" lon="5.75751">
        <ele>709</ele>
        <time>2010-03-19T17:46:01Z</time>
      </trkpt>
      <trkpt lat="44.45265" lon="5.75731">
        <ele>709</ele>
        <time>2010-03-19T17:45:47Z</time>
      </trkpt>
      <trkpt lat="44.45252" lon="5.75709">
        <ele>709</ele>
        <time>2010-03-19T17:45:33Z</time>
      </trkpt>
      <trkpt lat="44.45239" lon="5.75688">
        <ele>709</ele>
        <time>2010-03-19T17:45:19Z</time>
      </trkpt>
      <trkpt lat="44.45226" lon="5.75667">
        <ele>711</ele>
        <time>2010-03-19T17:45:05Z</time>
      </trkpt>
      <trkpt lat="44.45211" lon="5.75647">
        <ele>710</ele>
        <time>2010-03-19T17:44:51Z</time>
      </trkpt>
      <trkpt lat="44.45193" lon="5.75631">
        <ele>711</ele>
        <time>2010-03-19T17:44:37Z</time>
      </trkpt>
      <trkpt lat="44.45175" lon="5.75641">
        <ele>712</ele>
        <time>2010-03-19T17:44:23Z</time>
      </trkpt>
      <trkpt lat="44.45161" lon="5.7566">
        <ele>714</ele>
        <time>2010-03-19T17:44:09Z</time>
      </trkpt>
      <trkpt lat="44.45148" lon="5.75679">
        <ele>716</ele>
        <time>2010-03-19T17:43:55Z</time>
      </trkpt>
      <trkpt lat="44.45134" lon="5.757">
        <ele>717</ele>
        <time>2010-03-19T17:43:41Z</time>
      </trkpt>
      <trkpt lat="44.45121" lon="5.75721">
        <ele>717</ele>
        <time>2010-03-19T17:43:27Z</time>
      </trkpt>
      <trkpt lat="44.45105" lon="5.75738">
        <ele>718</ele>
        <time>2010-03-19T17:43:13Z</time>
      </trkpt>
      <trkpt lat="44.45088" lon="5.7575">
        <ele>718</ele>
        <time>2010-03-19T17:42:59Z</time>
      </trkpt>
      <trkpt lat="44.45071" lon="5.75761">
        <ele>717</ele>
        <time>2010-03-19T17:42:45Z</time>
      </trkpt>
      <trkpt lat="44.45052" lon="5.7577">
        <ele>716</ele>
        <time>2010-03-19T17:42:31Z</time>
      </trkpt>
      <trkpt lat="44.45034" lon="5.75775">
        <ele>719</ele>
        <time>2010-03-19T17:42:17Z</time>
      </trkpt>
      <trkpt lat="44.45019" lon="5.7579">
        <ele>719</ele>
        <time>2010-03-19T17:42:03Z</time>
      </trkpt>
      <trkpt lat="44.45003" lon="5.75807">
        <ele>718</ele>
        <time>2010-03-19T17:41:49Z</time>
      </trkpt>
      <trkpt lat="44.44984" lon="5.75817">
        <ele>719</ele>
        <time>2010-03-19T17:41:35Z</time>
      </trkpt>
      <trkpt lat="44.44965" lon="5.75825">
        <ele>719</ele>
        <time>2010-03-19T17:41:21Z</time>
      </trkpt>
      <trkpt lat="44.44947" lon="5.75838">
        <ele>719</ele>
        <time>2010-03-19T17:41:07Z</time>
      </trkpt>
      <trkpt lat="44.44929" lon="5.75848">
        <ele>719</ele>
        <time>2010-03-19T17:40:53Z</time>
      </trkpt>
      <trkpt lat="44.44909" lon="5.75858">
        <ele>718</ele>
        <time>2010-03-19T17:40:39Z</time>
      </trkpt>
      <trkpt lat="44.4489" lon="5.75869">
        <ele>719</ele>
        <time>2010-03-19T17:40:25Z</time>
      </trkpt>
      <trkpt lat="44.44871" lon="5.75876">
        <ele>719</ele>
        <time>2010-03-19T17:40:11Z</time>
      </trkpt>
      <trkpt lat="44.44853" lon="5.7588">
        <ele>720</ele>
        <time>2010-03-19T17:39:57Z</time>
      </trkpt>
      <trkpt lat="44.44834" lon="5.75884">
        <ele>721</ele>
        <time>2010-03-19T17:39:43Z</time>
      </trkpt>
      <trkpt lat="44.44823" lon="5.75907">
        <ele>722</ele>
        <time>2010-03-19T17:39:29Z</time>
      </trkpt>
      <trkpt lat="44.44814" lon="5.75932">
        <ele>723</ele>
        <time>2010-03-19T17:39:15Z</time>
      </trkpt>
      <trkpt lat="44.44806" lon="5.75956">
        <ele>725</ele>
        <time>2010-03-19T17:39:01Z</time>
      </trkpt>
      <trkpt lat="44.44792" lon="5.75973">
        <ele>727</ele>
        <time>2010-03-19T17:38:47Z</time>
      </trkpt>
      <trkpt lat="44.44774" lon="5.75982">
        <ele>727</ele>
        <time>2010-03-19T17:38:33Z</time>
      </trkpt>
      <trkpt lat="44.44756" lon="5.75994">
        <ele>729</ele>
        <time>2010-03-19T17:38:19Z</time>
      </trkpt>
      <trkpt lat="44.4474" lon="5.76008">
        <ele>729</ele>
        <time>2010-03-19T17:38:05Z</time>
      </trkpt>
      <trkpt lat="44.44723" lon="5.76022">
        <ele>729</ele>
        <time>2010-03-19T17:37:51Z</time>
      </trkpt>
      <trkpt lat="44.44705" lon="5.76031">
        <ele>731</ele>
        <time>2010-03-19T17:37:37Z</time>
      </trkpt>
      <trkpt lat="44.44688" lon="5.76041">
        <ele>733</ele>
        <time>2010-03-19T17:37:23Z</time>
      </trkpt>
      <trkpt lat="44.44673" lon="5.76054">
        <ele>733</ele>
        <time>2010-03-19T17:37:09Z</time>
      </trkpt>
      <trkpt lat="44.44659" lon="5.76072">
        <ele>734</ele>
        <time>2010-03-19T17:36:55Z</time>
      </trkpt>
      <trkpt lat="44.44641" lon="5.76083">
        <ele>735</ele>
        <time>2010-03-19T17:36:41Z</time>
      </trkpt>
      <trkpt lat="44.44624" lon="5.76092">
        <ele>736</ele>
        <time>2010-03-19T17:36:27Z</time>
      </trkpt>
      <trkpt lat="44.4461" lon="5.7611">
        <ele>736</ele>
        <time>2010-03-19T17:36:13Z</time>
      </trkpt>
      <trkpt lat="44.44601" lon="5.76135">
        <ele>736</ele>
        <time>2010-03-19T17:35:59Z</time>
      </trkpt>
      <trkpt lat="44.44595" lon="5.76161">
        <ele>737</ele>
        <time>2010-03-19T17:35:45Z</time>
      </trkpt>
      <trkpt lat="44.4458" lon="5.76177">
        <ele>738</ele>
        <time>2010-03-19T17:35:31Z</time>
      </trkpt>
      <trkpt lat="44.44564" lon="5.76188">
        <ele>739</ele>
        <time>2010-03-19T17:35:17Z</time>
      </trkpt>
      <trkpt lat="44.44546" lon="5.762">
        <ele>740</ele>
        <time>2010-03-19T17:35:03Z</time>
      </trkpt>
      <trkpt lat="44.4453" lon="5.76213">
        <ele>741</ele>
        <time>2010-03-19T17:34:49Z</time>
      </trkpt>
      <trkpt lat="44.44511" lon="5.76218">
        <ele>742</ele>
        <time>2010-03-19T17:34:35Z</time>
      </trkpt>
      <trkpt lat="44.44491" lon="5.76221">
        <ele>743</ele>
        <time>2010-03-19T17:34:21Z</time>
      </trkpt>
      <trkpt lat="44.44472" lon="5.76227">
        <ele>744</ele>
        <time>2010-03-19T17:34:07Z</time>
      </trkpt>
      <trkpt lat="44.44454" lon="5.76233">
        <ele>745</ele>
        <time>2010-03-19T17:33:53Z</time>
      </trkpt>
      <trkpt lat="44.44436" lon="5.7624">
        <ele>746</ele>
        <time>2010-03-19T17:33:39Z</time>
      </trkpt>
      <trkpt lat="44.44419" lon="5.76246">
        <ele>746</ele>
        <time>2010-03-19T17:33:25Z</time>
      </trkpt>
      <trkpt lat="44.44402" lon="5.76256">
        <ele>747</ele>
        <time>2010-03-19T17:33:11Z</time>
      </trkpt>
      <trkpt lat="44.44386" lon="5.76269">
        <ele>748</ele>
        <time>2010-03-19T17:32:57Z</time>
      </trkpt>
      <trkpt lat="44.44374" lon="5.76288">
        <ele>748</ele>
        <time>2010-03-19T17:32:43Z</time>
      </trkpt>
      <trkpt lat="44.44362" lon="5.7631">
        <ele>749</ele>
        <time>2010-03-19T17:32:29Z</time>
      </trkpt>
      <trkpt lat="44.4435" lon="5.76329">
        <ele>749</ele>
        <time>2010-03-19T17:32:15Z</time>
      </trkpt>
      <trkpt lat="44.44335" lon="5.76339">
        <ele>749</ele>
        <time>2010-03-19T17:32:01Z</time>
      </trkpt>
      <trkpt lat="44.44316" lon="5.76345">
        <ele>749</ele>
        <time>2010-03-19T17:31:47Z</time>
      </trkpt>
      <trkpt lat="44.44299" lon="5.76347">
        <ele>749</ele>
        <time>2010-03-19T17:31:33Z</time>
      </trkpt>
      <trkpt lat="44.44284" lon="5.76335">
        <ele>749</ele>
        <time>2010-03-19T17:31:19Z</time>
      </trkpt>
      <trkpt lat="44.44276" lon="5.7631">
        <ele>749</ele>
        <time>2010-03-19T17:31:05Z</time>
      </trkpt>
      <trkpt lat="44.44264" lon="5.76287">
        <ele>749</ele>
        <time>2010-03-19T17:30:51Z</time>
      </trkpt>
      <trkpt lat="44.44249" lon="5.76271">
        <ele>750</ele>
        <time>2010-03-19T17:30:37Z</time>
      </trkpt>
      <trkpt lat="44.44233" lon="5.76257">
        <ele>750</ele>
        <time>2010-03-19T17:30:23Z</time>
      </trkpt>
      <trkpt lat="44.44218" lon="5.76241">
        <ele>752</ele>
        <time>2010-03-19T17:30:09Z</time>
      </trkpt>
      <trkpt lat="44.44201" lon="5.76224">
        <ele>753</ele>
        <time>2010-03-19T17:29:55Z</time>
      </trkpt>
      <trkpt lat="44.44184" lon="5.76214">
        <ele>753</ele>
        <time>2010-03-19T17:29:41Z</time>
      </trkpt>
      <trkpt lat="44.44166" lon="5.76209">
        <ele>754</ele>
        <time>2010-03-19T17:29:27Z</time>
      </trkpt>
      <trkpt lat="44.44149" lon="5.76194">
        <ele>756</ele>
        <time>2010-03-19T17:29:13Z</time>
      </trkpt>
      <trkpt lat="44.44132" lon="5.7618">
        <ele>758</ele>
        <time>2010-03-19T17:28:59Z</time>
      </trkpt>
      <trkpt lat="44.44114" lon="5.76177">
        <ele>758</ele>
        <time>2010-03-19T17:28:45Z</time>
      </trkpt>
      <trkpt lat="44.44096" lon="5.76177">
        <ele>760</ele>
        <time>2010-03-19T17:28:31Z</time>
      </trkpt>
      <trkpt lat="44.44077" lon="5.76177">
        <ele>761</ele>
        <time>2010-03-19T17:28:17Z</time>
      </trkpt>
      <trkpt lat="44.44058" lon="5.76178">
        <ele>761</ele>
        <time>2010-03-19T17:28:03Z</time>
      </trkpt>
      <trkpt lat="44.44041" lon="5.76178">
        <ele>764</ele>
        <time>2010-03-19T17:27:49Z</time>
      </trkpt>
      <trkpt lat="44.44025" lon="5.76174">
        <ele>766</ele>
        <time>2010-03-19T17:27:35Z</time>
      </trkpt>
      <trkpt lat="44.4401" lon="5.76161">
        <ele>769</ele>
        <time>2010-03-19T17:27:21Z</time>
      </trkpt>
      <trkpt lat="44.43997" lon="5.76146">
        <ele>770</ele>
        <time>2010-03-19T17:27:07Z</time>
      </trkpt>
      <trkpt lat="44.43988" lon="5.76125">
        <ele>771</ele>
        <time>2010-03-19T17:26:53Z</time>
      </trkpt>
      <trkpt lat="44.43983" lon="5.761">
        <ele>772</ele>
        <time>2010-03-19T17:26:39Z</time>
      </trkpt>
      <trkpt lat="44.43973" lon="5.76079">
        <ele>774</ele>
        <time>2010-03-19T17:26:25Z</time>
      </trkpt>
      <trkpt lat="44.4396" lon="5.76063">
        <ele>776</ele>
        <time>2010-03-19T17:26:11Z</time>
      </trkpt>
      <trkpt lat="44.43944" lon="5.7605">
        <ele>778</ele>
        <time>2010-03-19T17:25:57Z</time>
      </trkpt>
      <trkpt lat="44.43927" lon="5.76035">
        <ele>779</ele>
        <time>2010-03-19T17:25:43Z</time>
      </trkpt>
      <trkpt lat="44.43912" lon="5.76019">
        <ele>781</ele>
        <time>2010-03-19T17:25:29Z</time>
      </trkpt>
      <trkpt lat="44.439" lon="5.76001">
        <ele>782</ele>
        <time>2010-03-19T17:25:15Z</time>
      </trkpt>
      <trkpt lat="44.43889" lon="5.75982">
        <ele>784</ele>
        <time>2010-03-19T17:25:01Z</time>
      </trkpt>
      <trkpt lat="44.43875" lon="5.7597">
        <ele>785</ele>
        <time>2010-03-19T17:24:47Z</time>
      </trkpt>
      <trkpt lat="44.43862" lon="5.75953">
        <ele>788</ele>
        <time>2010-03-19T17:24:33Z</time>
      </trkpt>
      <trkpt lat="44.43849" lon="5.75937">
        <ele>790</ele>
        <time>2010-03-19T17:24:19Z</time>
      </trkpt>
      <trkpt lat="44.43832" lon="5.75925">
        <ele>791</ele>
        <time>2010-03-19T17:24:05Z</time>
      </trkpt>
      <trkpt lat="44.43817" lon="5.75911">
        <ele>794</ele>
        <time>2010-03-19T17:23:51Z</time>
      </trkpt>
      <trkpt lat="44.43803" lon="5.75894">
        <ele>795</ele>
        <time>2010-03-19T17:23:37Z</time>
      </trkpt>
      <trkpt lat="44.43791" lon="5.75875">
        <ele>797</ele>
        <time>2010-03-19T17:23:23Z</time>
      </trkpt>
      <trkpt lat="44.43782" lon="5.75852">
        <ele>798</ele>
        <time>2010-03-19T17:23:09Z</time>
      </trkpt>
      <trkpt lat="44.43772" lon="5.75833">
        <ele>801</ele>
        <time>2010-03-19T17:22:55Z</time>
      </trkpt>
      <trkpt lat="44.43755" lon="5.75827">
        <ele>802</ele>
        <time>2010-03-19T17:22:41Z</time>
      </trkpt>
      <trkpt lat="44.4374" lon="5.75813">
        <ele>804</ele>
        <time>2010-03-19T17:22:27Z</time>
      </trkpt>
      <trkpt lat="44.43728" lon="5.75791">
        <ele>806</ele>
        <time>2010-03-19T17:22:13Z</time>
      </trkpt>
      <trkpt lat="44.43718" lon="5.75768">
        <ele>808</ele>
        <time>2010-03-19T17:21:59Z</time>
      </trkpt>
      <trkpt lat="44.43703" lon="5.75752">
        <ele>809</ele>
        <time>2010-03-19T17:21:45Z</time>
      </trkpt>
      <trkpt lat="44.43688" lon="5.75733">
        <ele>810</ele>
        <time>2010-03-19T17:21:31Z</time>
      </trkpt>
      <trkpt lat="44.43676" lon="5.7571">
        <ele>811</ele>
        <time>2010-03-19T17:21:17Z</time>
      </trkpt>
      <trkpt lat="44.43662" lon="5.75693">
        <ele>812</ele>
        <time>2010-03-19T17:21:03Z</time>
      </trkpt>
      <trkpt lat="44.43657" lon="5.75714">
        <ele>812</ele>
        <time>2010-03-19T17:20:49Z</time>
      </trkpt>
      <trkpt lat="44.4365" lon="5.75737">
        <ele>815</ele>
        <time>2010-03-19T17:20:35Z</time>
      </trkpt>
      <trkpt lat="44.43634" lon="5.7575">
        <ele>817</ele>
        <time>2010-03-19T17:20:21Z</time>
      </trkpt>
      <trkpt lat="44.43636" lon="5.75772">
        <ele>815</ele>
        <time>2010-03-19T17:20:07Z</time>
      </trkpt>
      <trkpt lat="44.43644" lon="5.75791">
        <ele>813</ele>
        <time>2010-03-19T17:19:53Z</time>
      </trkpt>
      <trkpt lat="44.43655" lon="5.7581">
        <ele>811</ele>
        <time>2010-03-19T17:19:39Z</time>
      </trkpt>
      <trkpt lat="44.43659" lon="5.75835">
        <ele>809</ele>
        <time>2010-03-19T17:19:25Z</time>
      </trkpt>
      <trkpt lat="44.43659" lon="5.75858">
        <ele>808</ele>
        <time>2010-03-19T17:19:11Z</time>
      </trkpt>
      <trkpt lat="44.43665" lon="5.7588">
        <ele>807</ele>
        <time>2010-03-19T17:18:57Z</time>
      </trkpt>
      <trkpt lat="44.43667" lon="5.75903">
        <ele>804</ele>
        <time>2010-03-19T17:18:43Z</time>
      </trkpt>
      <trkpt lat="44.43677" lon="5.75924">
        <ele>801</ele>
        <time>2010-03-19T17:18:29Z</time>
      </trkpt>
      <trkpt lat="44.43691" lon="5.75941">
        <ele>800</ele>
        <time>2010-03-19T17:18:15Z</time>
      </trkpt>
      <trkpt lat="44.43694" lon="5.75968">
        <ele>798</ele>
        <time>2010-03-19T17:18:01Z</time>
      </trkpt>
      <trkpt lat="44.43691" lon="5.7599">
        <ele>797</ele>
        <time>2010-03-19T17:17:47Z</time>
      </trkpt>
      <trkpt lat="44.43685" lon="5.76015">
        <ele>795</ele>
        <time>2010-03-19T17:17:33Z</time>
      </trkpt>
      <trkpt lat="44.43696" lon="5.76035">
        <ele>793</ele>
        <time>2010-03-19T17:17:19Z</time>
      </trkpt>
      <trkpt lat="44.43703" lon="5.76059">
        <ele>791</ele>
        <time>2010-03-19T17:17:05Z</time>
      </trkpt>
      <trkpt lat="44.4371" lon="5.7608">
        <ele>789</ele>
        <time>2010-03-19T17:16:51Z</time>
      </trkpt>
      <trkpt lat="44.43727" lon="5.76091">
        <ele>788</ele>
        <time>2010-03-19T17:16:37Z</time>
      </trkpt>
      <trkpt lat="44.43745" lon="5.76099">
        <ele>787</ele>
        <time>2010-03-19T17:16:23Z</time>
      </trkpt>
      <trkpt lat="44.43754" lon="5.76118">
        <ele>784</ele>
        <time>2010-03-19T17:16:09Z</time>
      </trkpt>
      <trkpt lat="44.43754" lon="5.76142">
        <ele>783</ele>
        <time>2010-03-19T17:15:55Z</time>
      </trkpt>
      <trkpt lat="44.4374" lon="5.76159">
        <ele>783</ele>
        <time>2010-03-19T17:15:41Z</time>
      </trkpt>
      <trkpt lat="44.43734" lon="5.76184">
        <ele>781</ele>
        <time>2010-03-19T17:15:27Z</time>
      </trkpt>
      <trkpt lat="44.43732" lon="5.76202">
        <ele>779</ele>
        <time>2010-03-19T17:15:13Z</time>
      </trkpt>
      <trkpt lat="44.43733" lon="5.76207">
        <ele>780</ele>
        <time>2010-03-19T17:14:59Z</time>
      </trkpt>
      <trkpt lat="44.43735" lon="5.76215">
        <ele>778</ele>
        <time>2010-03-19T17:14:45Z</time>
      </trkpt>
      <trkpt lat="44.4374" lon="5.7623">
        <ele>777</ele>
        <time>2010-03-19T17:14:31Z</time>
      </trkpt>
      <trkpt lat="44.43744" lon="5.76256">
        <ele>775</ele>
        <time>2010-03-19T17:14:17Z</time>
      </trkpt>
      <trkpt lat="44.43738" lon="5.76275">
        <ele>775</ele>
        <time>2010-03-19T17:14:03Z</time>
      </trkpt>
      <trkpt lat="44.43741" lon="5.76302">
        <ele>774</ele>
        <time>2010-03-19T17:13:49Z</time>
      </trkpt>
      <trkpt lat="44.43746" lon="5.76326">
        <ele>773</ele>
        <time>2010-03-19T17:13:35Z</time>
      </trkpt>
      <trkpt lat="44.43754" lon="5.76347">
        <ele>771</ele>
        <time>2010-03-19T17:13:21Z</time>
      </trkpt>
      <trkpt lat="44.43763" lon="5.76368">
        <ele>770</ele>
        <time>2010-03-19T17:13:07Z</time>
      </trkpt>
      <trkpt lat="44.43765" lon="5.76391">
        <ele>767</ele>
        <time>2010-03-19T17:12:53Z</time>
      </trkpt>
      <trkpt lat="44.43769" lon="5.76415">
        <ele>765</ele>
        <time>2010-03-19T17:12:39Z</time>
      </trkpt>
      <trkpt lat="44.43768" lon="5.76439">
        <ele>762</ele>
        <time>2010-03-19T17:12:25Z</time>
      </trkpt>
      <trkpt lat="44.43759" lon="5.76462">
        <ele>761</ele>
        <time>2010-03-19T17:12:11Z</time>
      </trkpt>
      <trkpt lat="44.43749" lon="5.76482">
        <ele>761</ele>
        <time>2010-03-19T17:11:57Z</time>
      </trkpt>
      <trkpt lat="44.43734" lon="5.76486">
        <ele>761</ele>
        <time>2010-03-19T17:11:43Z</time>
      </trkpt>
      <trkpt lat="44.43715" lon="5.76469">
        <ele>763</ele>
        <time>2010-03-19T17:11:29Z</time>
      </trkpt>
      <trkpt lat="44.43701" lon="5.76459">
        <ele>763</ele>
        <time>2010-03-19T17:11:15Z</time>
      </trkpt>
      <trkpt lat="44.43683" lon="5.76468">
        <ele>765</ele>
        <time>2010-03-19T17:11:01Z</time>
      </trkpt>
      <trkpt lat="44.43665" lon="5.76468">
        <ele>765</ele>
        <time>2010-03-19T17:10:47Z</time>
      </trkpt>
      <trkpt lat="44.43647" lon="5.76459">
        <ele>765</ele>
        <time>2010-03-19T17:10:33Z</time>
      </trkpt>
      <trkpt lat="44.43631" lon="5.76471">
        <ele>767</ele>
        <time>2010-03-19T17:10:19Z</time>
      </trkpt>
      <trkpt lat="44.43614" lon="5.76473">
        <ele>767</ele>
        <time>2010-03-19T17:10:05Z</time>
      </trkpt>
      <trkpt lat="44.43599" lon="5.76476">
        <ele>768</ele>
        <time>2010-03-19T17:09:51Z</time>
      </trkpt>
      <trkpt lat="44.43588" lon="5.76474">
        <ele>773</ele>
        <time>2010-03-19T17:09:37Z</time>
      </trkpt>
      <trkpt lat="44.43572" lon="5.76478">
        <ele>775</ele>
        <time>2010-03-19T17:09:23Z</time>
      </trkpt>
      <trkpt lat="44.43554" lon="5.76482">
        <ele>776</ele>
        <time>2010-03-19T17:09:09Z</time>
      </trkpt>
      <trkpt lat="44.43543" lon="5.76477">
        <ele>774</ele>
        <time>2010-03-19T17:08:55Z</time>
      </trkpt>
      <trkpt lat="44.43533" lon="5.76456">
        <ele>775</ele>
        <time>2010-03-19T17:08:41Z</time>
      </trkpt>
      <trkpt lat="44.43521" lon="5.76441">
        <ele>775</ele>
        <time>2010-03-19T17:08:27Z</time>
      </trkpt>
      <trkpt lat="44.43505" lon="5.76438">
        <ele>775</ele>
        <time>2010-03-19T17:08:13Z</time>
      </trkpt>
      <trkpt lat="44.43491" lon="5.76448">
        <ele>777</ele>
        <time>2010-03-19T17:07:59Z</time>
      </trkpt>
      <trkpt lat="44.43483" lon="5.76468">
        <ele>782</ele>
        <time>2010-03-19T17:07:45Z</time>
      </trkpt>
      <trkpt lat="44.43471" lon="5.76477">
        <ele>786</ele>
        <time>2010-03-19T17:07:31Z</time>
      </trkpt>
      <trkpt lat="44.43458" lon="5.76479">
        <ele>789</ele>
        <time>2010-03-19T17:07:17Z</time>
      </trkpt>
      <trkpt lat="44.4344" lon="5.76478">
        <ele>786</ele>
        <time>2010-03-19T17:07:03Z</time>
      </trkpt>
      <trkpt lat="44.43423" lon="5.76493">
        <ele>786</ele>
        <time>2010-03-19T17:06:49Z</time>
      </trkpt>
      <trkpt lat="44.43412" lon="5.76512">
        <ele>790</ele>
        <time>2010-03-19T17:06:35Z</time>
      </trkpt>
      <trkpt lat="44.43406" lon="5.76528">
        <ele>793</ele>
        <time>2010-03-19T17:06:21Z</time>
      </trkpt>
      <trkpt lat="44.43394" lon="5.76546">
        <ele>793</ele>
        <time>2010-03-19T17:06:07Z</time>
      </trkpt>
      <trkpt lat="44.43377" lon="5.7656">
        <ele>792</ele>
        <time>2010-03-19T17:05:53Z</time>
      </trkpt>
      <trkpt lat="44.43363" lon="5.76571">
        <ele>796</ele>
        <time>2010-03-19T17:05:39Z</time>
      </trkpt>
      <trkpt lat="44.43349" lon="5.76571">
        <ele>800</ele>
        <time>2010-03-19T17:05:25Z</time>
      </trkpt>
      <trkpt lat="44.43332" lon="5.76571">
        <ele>804</ele>
        <time>2010-03-19T17:05:11Z</time>
      </trkpt>
      <trkpt lat="44.43316" lon="5.76563">
        <ele>807</ele>
        <time>2010-03-19T17:04:57Z</time>
      </trkpt>
      <trkpt lat="44.43304" lon="5.76564">
        <ele>810</ele>
        <time>2010-03-19T17:04:43Z</time>
      </trkpt>
      <trkpt lat="44.43291" lon="5.76565">
        <ele>812</ele>
        <time>2010-03-19T17:04:29Z</time>
      </trkpt>
      <trkpt lat="44.43277" lon="5.76581">
        <ele>812</ele>
        <time>2010-03-19T17:04:15Z</time>
      </trkpt>
      <trkpt lat="44.4325" lon="5.76611">
        <ele>802</ele>
        <time>2010-03-19T17:04:01Z</time>
      </trkpt>
      <trkpt lat="44.43238" lon="5.76636">
        <ele>797</ele>
        <time>2010-03-19T17:03:47Z</time>
      </trkpt>
      <trkpt lat="44.43227" lon="5.76652">
        <ele>795</ele>
        <time>2010-03-19T17:03:33Z</time>
      </trkpt>
      <trkpt lat="44.43212" lon="5.76661">
        <ele>792</ele>
        <time>2010-03-19T17:03:19Z</time>
      </trkpt>
      <trkpt lat="44.43195" lon="5.76665">
        <ele>790</ele>
        <time>2010-03-19T17:03:05Z</time>
      </trkpt>
      <trkpt lat="44.43179" lon="5.76672">
        <ele>788</ele>
        <time>2010-03-19T17:02:51Z</time>
      </trkpt>
      <trkpt lat="44.43165" lon="5.76661">
        <ele>785</ele>
        <time>2010-03-19T17:02:37Z</time>
      </trkpt>
      <trkpt lat="44.43151" lon="5.76644">
        <ele>781</ele>
        <time>2010-03-19T17:02:23Z</time>
      </trkpt>
      <trkpt lat="44.43136" lon="5.76653">
        <ele>778</ele>
        <time>2010-03-19T17:02:09Z</time>
      </trkpt>
      <trkpt lat="44.43121" lon="5.76663">
        <ele>777</ele>
        <time>2010-03-19T17:01:55Z</time>
      </trkpt>
      <trkpt lat="44.43107" lon="5.76669">
        <ele>777</ele>
        <time>2010-03-19T17:01:41Z</time>
      </trkpt>
      <trkpt lat="44.43091" lon="5.76676">
        <ele>775</ele>
        <time>2010-03-19T17:01:27Z</time>
      </trkpt>
      <trkpt lat="44.43074" lon="5.76678">
        <ele>774</ele>
        <time>2010-03-19T17:01:13Z</time>
      </trkpt>
      <trkpt lat="44.43058" lon="5.76682">
        <ele>773</ele>
        <time>2010-03-19T17:00:59Z</time>
      </trkpt>
      <trkpt lat="44.43042" lon="5.76687">
        <ele>772</ele>
        <time>2010-03-19T17:00:45Z</time>
      </trkpt>
      <trkpt lat="44.43027" lon="5.76697">
        <ele>769</ele>
        <time>2010-03-19T17:00:31Z</time>
      </trkpt>
      <trkpt lat="44.43009" lon="5.76707">
        <ele>767</ele>
        <time>2010-03-19T17:00:17Z</time>
      </trkpt>
      <trkpt lat="44.42996" lon="5.76717">
        <ele>765</ele>
        <time>2010-03-19T17:00:03Z</time>
      </trkpt>
      <trkpt lat="44.42986" lon="5.76729">
        <ele>762</ele>
        <time>2010-03-19T16:59:49Z</time>
      </trkpt>
      <trkpt lat="44.42973" lon="5.76725">
        <ele>759</ele>
        <time>2010-03-19T16:59:35Z</time>
      </trkpt>
      <trkpt lat="44.42955" lon="5.76716">
        <ele>757</ele>
        <time>2010-03-19T16:59:21Z</time>
      </trkpt>
      <trkpt lat="44.42947" lon="5.76721">
        <ele>756</ele>
        <time>2010-03-19T16:59:07Z</time>
      </trkpt>
      <trkpt lat="44.42935" lon="5.76734">
        <ele>754</ele>
        <time>2010-03-19T16:58:53Z</time>
      </trkpt>
      <trkpt lat="44.42904" lon="5.7676">
        <ele>752</ele>
        <time>2010-03-19T16:58:39Z</time>
      </trkpt>
      <trkpt lat="44.42866" lon="5.76783">
        <ele>752</ele>
        <time>2010-03-19T16:58:25Z</time>
      </trkpt>
      <trkpt lat="44.42832" lon="5.76796">
        <ele>750</ele>
        <time>2010-03-19T16:58:11Z</time>
      </trkpt>
      <trkpt lat="44.428" lon="5.7681">
        <ele>748</ele>
        <time>2010-03-19T16:57:57Z</time>
      </trkpt>
      <trkpt lat="44.42793" lon="5.76865">
        <ele>743</ele>
        <time>2010-03-19T16:57:43Z</time>
      </trkpt>
      <trkpt lat="44.42803" lon="5.76924">
        <ele>737</ele>
        <time>2010-03-19T16:57:29Z</time>
      </trkpt>
      <trkpt lat="44.42787" lon="5.76981">
        <ele>734</ele>
        <time>2010-03-19T16:57:15Z</time>
      </trkpt>
      <trkpt lat="44.42772" lon="5.77029">
        <ele>729</ele>
        <time>2010-03-19T16:57:01Z</time>
      </trkpt>
      <trkpt lat="44.42764" lon="5.77072">
        <ele>723</ele>
        <time>2010-03-19T16:56:47Z</time>
      </trkpt>
      <trkpt lat="44.42761" lon="5.77099">
        <ele>720</ele>
        <time>2010-03-19T16:56:33Z</time>
      </trkpt>
      <trkpt lat="44.42753" lon="5.7712">
        <ele>723</ele>
        <time>2010-03-19T16:56:19Z</time>
      </trkpt>
      <trkpt lat="44.42742" lon="5.77138">
        <ele>725</ele>
        <time>2010-03-19T16:56:05Z</time>
      </trkpt>
      <trkpt lat="44.42729" lon="5.77155">
        <ele>723</ele>
        <time>2010-03-19T16:55:51Z</time>
      </trkpt>
      <trkpt lat="44.42717" lon="5.77174">
        <ele>721</ele>
        <time>2010-03-19T16:55:37Z</time>
      </trkpt>
      <trkpt lat="44.42704" lon="5.77193">
        <ele>720</ele>
        <time>2010-03-19T16:55:23Z</time>
      </trkpt>
      <trkpt lat="44.42693" lon="5.77214">
        <ele>720</ele>
        <time>2010-03-19T16:55:09Z</time>
      </trkpt>
      <trkpt lat="44.4268" lon="5.77234">
        <ele>718</ele>
        <time>2010-03-19T16:54:55Z</time>
      </trkpt>
      <trkpt lat="44.42665" lon="5.77248">
        <ele>717</ele>
        <time>2010-03-19T16:54:41Z</time>
      </trkpt>
      <trkpt lat="44.42663" lon="5.77272">
        <ele>715</ele>
        <time>2010-03-19T16:54:27Z</time>
      </trkpt>
      <trkpt lat="44.42657" lon="5.77296">
        <ele>714</ele>
        <time>2010-03-19T16:54:13Z</time>
      </trkpt>
      <trkpt lat="44.4265" lon="5.77316">
        <ele>712</ele>
        <time>2010-03-19T16:53:59Z</time>
      </trkpt>
      <trkpt lat="44.4264" lon="5.77333">
        <ele>711</ele>
        <time>2010-03-19T16:53:45Z</time>
      </trkpt>
      <trkpt lat="44.42628" lon="5.7735">
        <ele>708</ele>
        <time>2010-03-19T16:53:31Z</time>
      </trkpt>
      <trkpt lat="44.42618" lon="5.77368">
        <ele>705</ele>
        <time>2010-03-19T16:53:17Z</time>
      </trkpt>
      <trkpt lat="44.42604" lon="5.77385">
        <ele>704</ele>
        <time>2010-03-19T16:53:03Z</time>
      </trkpt>
      <trkpt lat="44.42594" lon="5.77409">
        <ele>704</ele>
        <time>2010-03-19T16:52:49Z</time>
      </trkpt>
      <trkpt lat="44.42586" lon="5.77434">
        <ele>705</ele>
        <time>2010-03-19T16:52:35Z</time>
      </trkpt>
      <trkpt lat="44.42579" lon="5.7746">
        <ele>705</ele>
        <time>2010-03-19T16:52:21Z</time>
      </trkpt>
      <trkpt lat="44.42571" lon="5.77483">
        <ele>706</ele>
        <time>2010-03-19T16:52:07Z</time>
      </trkpt>
      <trkpt lat="44.42559" lon="5.77503">
        <ele>707</ele>
        <time>2010-03-19T16:51:53Z</time>
      </trkpt>
      <trkpt lat="44.42545" lon="5.77522">
        <ele>707</ele>
        <time>2010-03-19T16:51:39Z</time>
      </trkpt>
      <trkpt lat="44.42528" lon="5.77535">
        <ele>707</ele>
        <time>2010-03-19T16:51:25Z</time>
      </trkpt>
      <trkpt lat="44.42511" lon="5.77545">
        <ele>706</ele>
        <time>2010-03-19T16:51:11Z</time>
      </trkpt>
      <trkpt lat="44.42498" lon="5.77561">
        <ele>704</ele>
        <time>2010-03-19T16:50:57Z</time>
      </trkpt>
      <trkpt lat="44.42484" lon="5.77577">
        <ele>704</ele>
        <time>2010-03-19T16:50:43Z</time>
      </trkpt>
      <trkpt lat="44.42468" lon="5.77591">
        <ele>702</ele>
        <time>2010-03-19T16:50:29Z</time>
      </trkpt>
      <trkpt lat="44.42451" lon="5.77601">
        <ele>701</ele>
        <time>2010-03-19T16:50:15Z</time>
      </trkpt>
      <trkpt lat="44.42435" lon="5.77612">
        <ele>700</ele>
        <time>2010-03-19T16:50:01Z</time>
      </trkpt>
      <trkpt lat="44.42418" lon="5.77623">
        <ele>699</ele>
        <time>2010-03-19T16:49:47Z</time>
      </trkpt>
      <trkpt lat="44.42403" lon="5.77636">
        <ele>698</ele>
        <time>2010-03-19T16:49:33Z</time>
      </trkpt>
      <trkpt lat="44.42388" lon="5.7765">
        <ele>696</ele>
        <time>2010-03-19T16:49:19Z</time>
      </trkpt>
      <trkpt lat="44.42373" lon="5.77663">
        <ele>695</ele>
        <time>2010-03-19T16:49:05Z</time>
      </trkpt>
      <trkpt lat="44.42356" lon="5.77676">
        <ele>694</ele>
        <time>2010-03-19T16:48:51Z</time>
      </trkpt>
      <trkpt lat="44.42341" lon="5.77689">
        <ele>693</ele>
        <time>2010-03-19T16:48:37Z</time>
      </trkpt>
      <trkpt lat="44.42328" lon="5.77706">
        <ele>692</ele>
        <time>2010-03-19T16:48:23Z</time>
      </trkpt>
      <trkpt lat="44.42315" lon="5.77725">
        <ele>690</ele>
        <time>2010-03-19T16:48:09Z</time>
      </trkpt>
      <trkpt lat="44.42297" lon="5.77731">
        <ele>690</ele>
        <time>2010-03-19T16:47:55Z</time>
      </trkpt>
      <trkpt lat="44.42279" lon="5.77723">
        <ele>689</ele>
        <time>2010-03-19T16:47:41Z</time>
      </trkpt>
      <trkpt lat="44.42263" lon="5.7771">
        <ele>687</ele>
        <time>2010-03-19T16:47:27Z</time>
      </trkpt>
      <trkpt lat="44.42247" lon="5.77693">
        <ele>687</ele>
        <time>2010-03-19T16:47:13Z</time>
      </trkpt>
      <trkpt lat="44.42228" lon="5.77691">
        <ele>687</ele>
        <time>2010-03-19T16:46:59Z</time>
      </trkpt>
      <trkpt lat="44.42215" lon="5.77713">
        <ele>688</ele>
        <time>2010-03-19T16:46:45Z</time>
      </trkpt>
      <trkpt lat="44.42206" lon="5.77736">
        <ele>689</ele>
        <time>2010-03-19T16:46:31Z</time>
      </trkpt>
      <trkpt lat="44.42193" lon="5.77754">
        <ele>689</ele>
        <time>2010-03-19T16:46:17Z</time>
      </trkpt>
      <trkpt lat="44.42181" lon="5.77772">
        <ele>690</ele>
        <time>2010-03-19T16:46:03Z</time>
      </trkpt>
      <trkpt lat="44.42166" lon="5.77786">
        <ele>689</ele>
        <time>2010-03-19T16:45:49Z</time>
      </trkpt>
      <trkpt lat="44.42151" lon="5.77804">
        <ele>688</ele>
        <time>2010-03-19T16:45:35Z</time>
      </trkpt>
      <trkpt lat="44.42139" lon="5.77826">
        <ele>687</ele>
        <time>2010-03-19T16:45:21Z</time>
      </trkpt>
      <trkpt lat="44.4213" lon="5.77849">
        <ele>687</ele>
        <time>2010-03-19T16:45:07Z</time>
      </trkpt>
      <trkpt lat="44.42119" lon="5.77874">
        <ele>687</ele>
        <time>2010-03-19T16:44:53Z</time>
      </trkpt>
      <trkpt lat="44.42108" lon="5.77898">
        <ele>688</ele>
        <time>2010-03-19T16:44:39Z</time>
      </trkpt>
      <trkpt lat="44.42096" lon="5.77918">
        <ele>687</ele>
        <time>2010-03-19T16:44:25Z</time>
      </trkpt>
      <trkpt lat="44.42084" lon="5.77938">
        <ele>687</ele>
        <time>2010-03-19T16:44:11Z</time>
      </trkpt>
      <trkpt lat="44.4207" lon="5.77952">
        <ele>686</ele>
        <time>2010-03-19T16:43:57Z</time>
      </trkpt>
      <trkpt lat="44.42052" lon="5.77964">
        <ele>686</ele>
        <time>2010-03-19T16:43:43Z</time>
      </trkpt>
      <trkpt lat="44.42034" lon="5.7797">
        <ele>685</ele>
        <time>2010-03-19T16:43:29Z</time>
      </trkpt>
      <trkpt lat="44.42019" lon="5.77986">
        <ele>684</ele>
        <time>2010-03-19T16:43:15Z</time>
      </trkpt>
      <trkpt lat="44.42016" lon="5.78012">
        <ele>684</ele>
        <time>2010-03-19T16:43:01Z</time>
      </trkpt>
      <trkpt lat="44.42015" lon="5.7804">
        <ele>684</ele>
        <time>2010-03-19T16:42:47Z</time>
      </trkpt>
      <trkpt lat="44.42012" lon="5.78067">
        <ele>685</ele>
        <time>2010-03-19T16:42:33Z</time>
      </trkpt>
      <trkpt lat="44.4201" lon="5.78095">
        <ele>686</ele>
        <time>2010-03-19T16:42:19Z</time>
      </trkpt>
      <trkpt lat="44.42008" lon="5.78123">
        <ele>685</ele>
        <time>2010-03-19T16:42:05Z</time>
      </trkpt>
      <trkpt lat="44.42006" lon="5.78149">
        <ele>686</ele>
        <time>2010-03-19T16:41:51Z</time>
      </trkpt>
      <trkpt lat="44.42004" lon="5.78177">
        <ele>685</ele>
        <time>2010-03-19T16:41:37Z</time>
      </trkpt>
      <trkpt lat="44.42004" lon="5.78205">
        <ele>686</ele>
        <time>2010-03-19T16:41:23Z</time>
      </trkpt>
      <trkpt lat="44.42" lon="5.78231">
        <ele>686</ele>
        <time>2010-03-19T16:41:09Z</time>
      </trkpt>
      <trkpt lat="44.41984" lon="5.78236">
        <ele>684</ele>
        <time>2010-03-19T16:40:55Z</time>
      </trkpt>
      <trkpt lat="44.41966" lon="5.7824">
        <ele>682</ele>
        <time>2010-03-19T16:40:41Z</time>
      </trkpt>
      <trkpt lat="44.41956" lon="5.78218">
        <ele>681</ele>
        <time>2010-03-19T16:40:27Z</time>
      </trkpt>
      <trkpt lat="44.41954" lon="5.78194">
        <ele>680</ele>
        <time>2010-03-19T16:40:13Z</time>
      </trkpt>
      <trkpt lat="44.41944" lon="5.78173">
        <ele>679</ele>
        <time>2010-03-19T16:39:59Z</time>
      </trkpt>
      <trkpt lat="44.41928" lon="5.78154">
        <ele>678</ele>
        <time>2010-03-19T16:39:45Z</time>
      </trkpt>
      <trkpt lat="44.41912" lon="5.78132">
        <ele>677</ele>
        <time>2010-03-19T16:39:31Z</time>
      </trkpt>
      <trkpt lat="44.41887" lon="5.78088">
        <ele>674</ele>
        <time>2010-03-19T16:39:17Z</time>
      </trkpt>
      <trkpt lat="44.41856" lon="5.78045">
        <ele>672</ele>
        <time>2010-03-19T16:39:03Z</time>
      </trkpt>
      <trkpt lat="44.41822" lon="5.78009">
        <ele>671</ele>
        <time>2010-03-19T16:38:49Z</time>
      </trkpt>
      <trkpt lat="44.41781" lon="5.77975">
        <ele>668</ele>
        <time>2010-03-19T16:38:35Z</time>
      </trkpt>
      <trkpt lat="44.41743" lon="5.77934">
        <ele>666</ele>
        <time>2010-03-19T16:38:21Z</time>
      </trkpt>
      <trkpt lat="44.41729" lon="5.77873">
        <ele>666</ele>
        <time>2010-03-19T16:38:07Z</time>
      </trkpt>
      <trkpt lat="44.41714" lon="5.77816">
        <ele>664</ele>
        <time>2010-03-19T16:37:53Z</time>
      </trkpt>
      <trkpt lat="44.4168" lon="5.7778">
        <ele>663</ele>
        <time>2010-03-19T16:37:39Z</time>
      </trkpt>
      <trkpt lat="44.41646" lon="5.77747">
        <ele>661</ele>
        <time>2010-03-19T16:37:25Z</time>
      </trkpt>
      <trkpt lat="44.41627" lon="5.77698">
        <ele>659</ele>
        <time>2010-03-19T16:37:11Z</time>
      </trkpt>
      <trkpt lat="44.41613" lon="5.77678">
        <ele>654</ele>
        <time>2010-03-19T16:36:57Z</time>
      </trkpt>
      <trkpt lat="44.41596" lon="5.77681">
        <ele>654</ele>
        <time>2010-03-19T16:36:43Z</time>
      </trkpt>
      <trkpt lat="44.41583" lon="5.77667">
        <ele>653</ele>
        <time>2010-03-19T16:36:29Z</time>
      </trkpt>
      <trkpt lat="44.41575" lon="5.77646">
        <ele>653</ele>
        <time>2010-03-19T16:36:15Z</time>
      </trkpt>
      <trkpt lat="44.41567" lon="5.7763">
        <ele>653</ele>
        <time>2010-03-19T16:36:01Z</time>
      </trkpt>
      <trkpt lat="44.41556" lon="5.77612">
        <ele>652</ele>
        <time>2010-03-19T16:35:47Z</time>
      </trkpt>
      <trkpt lat="44.41542" lon="5.77596">
        <ele>651</ele>
        <time>2010-03-19T16:35:33Z</time>
      </trkpt>
      <trkpt lat="44.41526" lon="5.77588">
        <ele>650</ele>
        <time>2010-03-19T16:35:19Z</time>
      </trkpt>
      <trkpt lat="44.41517" lon="5.77582">
        <ele>651</ele>
        <time>2010-03-19T16:35:05Z</time>
      </trkpt>
      <trkpt lat="44.41502" lon="5.77573">
        <ele>652</ele>
        <time>2010-03-19T16:34:51Z</time>
      </trkpt>
      <trkpt lat="44.4149" lon="5.77551">
        <ele>652</ele>
        <time>2010-03-19T16:34:37Z</time>
      </trkpt>
      <trkpt lat="44.4148" lon="5.77528">
        <ele>651</ele>
        <time>2010-03-19T16:34:23Z</time>
      </trkpt>
      <trkpt lat="44.41468" lon="5.77506">
        <ele>650</ele>
        <time>2010-03-19T16:34:09Z</time>
      </trkpt>
      <trkpt lat="44.41455" lon="5.77487">
        <ele>649</ele>
        <time>2010-03-19T16:33:55Z</time>
      </trkpt>
      <trkpt lat="44.41441" lon="5.77468">
        <ele>648</ele>
        <time>2010-03-19T16:33:41Z</time>
      </trkpt>
      <trkpt lat="44.41427" lon="5.7745">
        <ele>648</ele>
        <time>2010-03-19T16:33:27Z</time>
      </trkpt>
      <trkpt lat="44.41411" lon="5.77431">
        <ele>647</ele>
        <time>2010-03-19T16:33:13Z</time>
      </trkpt>
      <trkpt lat="44.41396" lon="5.7741">
        <ele>646</ele>
        <time>2010-03-19T16:32:59Z</time>
      </trkpt>
      <trkpt lat="44.41386" lon="5.77387">
        <ele>645</ele>
        <time>2010-03-19T16:32:45Z</time>
      </trkpt>
      <trkpt lat="44.41372" lon="5.77368">
        <ele>645</ele>
        <time>2010-03-19T16:32:31Z</time>
      </trkpt>
      <trkpt lat="44.41354" lon="5.77361">
        <ele>646</ele>
        <time>2010-03-19T16:32:17Z</time>
      </trkpt>
      <trkpt lat="44.41336" lon="5.77353">
        <ele>645</ele>
        <time>2010-03-19T16:32:03Z</time>
      </trkpt>
      <trkpt lat="44.41318" lon="5.77337">
        <ele>645</ele>
        <time>2010-03-19T16:31:49Z</time>
      </trkpt>
      <trkpt lat="44.41304" lon="5.7732">
        <ele>647</ele>
        <time>2010-03-19T16:31:35Z</time>
      </trkpt>
      <trkpt lat="44.4129" lon="5.77302">
        <ele>649</ele>
        <time>2010-03-19T16:31:21Z</time>
      </trkpt>
      <trkpt lat="44.41279" lon="5.77282">
        <ele>650</ele>
        <time>2010-03-19T16:31:07Z</time>
      </trkpt>
      <trkpt lat="44.4127" lon="5.7726">
        <ele>653</ele>
        <time>2010-03-19T16:30:53Z</time>
      </trkpt>
      <trkpt lat="44.41259" lon="5.77241">
        <ele>655</ele>
        <time>2010-03-19T16:30:39Z</time>
      </trkpt>
      <trkpt lat="44.41242" lon="5.77229">
        <ele>655</ele>
        <time>2010-03-19T16:30:25Z</time>
      </trkpt>
      <trkpt lat="44.41224" lon="5.77237">
        <ele>656</ele>
        <time>2010-03-19T16:30:11Z</time>
      </trkpt>
      <trkpt lat="44.41206" lon="5.77241">
        <ele>658</ele>
        <time>2010-03-19T16:29:57Z</time>
      </trkpt>
      <trkpt lat="44.41187" lon="5.7724">
        <ele>658</ele>
        <time>2010-03-19T16:29:43Z</time>
      </trkpt>
      <trkpt lat="44.41169" lon="5.77245">
        <ele>660</ele>
        <time>2010-03-19T16:29:29Z</time>
      </trkpt>
      <trkpt lat="44.41151" lon="5.77257">
        <ele>662</ele>
        <time>2010-03-19T16:29:15Z</time>
      </trkpt>
      <trkpt lat="44.41132" lon="5.77262">
        <ele>663</ele>
        <time>2010-03-19T16:29:01Z</time>
      </trkpt>
      <trkpt lat="44.41114" lon="5.77261">
        <ele>663</ele>
        <time>2010-03-19T16:28:47Z</time>
      </trkpt>
      <trkpt lat="44.41095" lon="5.77259">
        <ele>665</ele>
        <time>2010-03-19T16:28:33Z</time>
      </trkpt>
      <trkpt lat="44.41075" lon="5.77262">
        <ele>667</ele>
        <time>2010-03-19T16:28:19Z</time>
      </trkpt>
      <trkpt lat="44.41056" lon="5.77268">
        <ele>668</ele>
        <time>2010-03-19T16:28:05Z</time>
      </trkpt>
      <trkpt lat="44.41037" lon="5.77274">
        <ele>670</ele>
        <time>2010-03-19T16:27:51Z</time>
      </trkpt>
      <trkpt lat="44.4102" lon="5.77283">
        <ele>671</ele>
        <time>2010-03-19T16:27:37Z</time>
      </trkpt>
      <trkpt lat="44.41004" lon="5.77296">
        <ele>674</ele>
        <time>2010-03-19T16:27:23Z</time>
      </trkpt>
      <trkpt lat="44.40988" lon="5.77312">
        <ele>674</ele>
        <time>2010-03-19T16:27:09Z</time>
      </trkpt>
      <trkpt lat="44.40971" lon="5.77324">
        <ele>675</ele>
        <time>2010-03-19T16:26:55Z</time>
      </trkpt>
      <trkpt lat="44.40953" lon="5.77326">
        <ele>678</ele>
        <time>2010-03-19T16:26:41Z</time>
      </trkpt>
      <trkpt lat="44.40934" lon="5.77324">
        <ele>680</ele>
        <time>2010-03-19T16:26:27Z</time>
      </trkpt>
      <trkpt lat="44.40919" lon="5.77316">
        <ele>681</ele>
        <time>2010-03-19T16:26:13Z</time>
      </trkpt>
      <trkpt lat="44.40923" lon="5.7729">
        <ele>681</ele>
        <time>2010-03-19T16:25:59Z</time>
      </trkpt>
      <trkpt lat="44.40924" lon="5.77266">
        <ele>680</ele>
        <time>2010-03-19T16:25:45Z</time>
      </trkpt>
      <trkpt lat="44.40921" lon="5.77239">
        <ele>680</ele>
        <time>2010-03-19T16:25:31Z</time>
      </trkpt>
      <trkpt lat="44.40918" lon="5.77212">
        <ele>680</ele>
        <time>2010-03-19T16:25:17Z</time>
      </trkpt>
      <trkpt lat="44.40913" lon="5.77186">
        <ele>680</ele>
        <time>2010-03-19T16:25:03Z</time>
      </trkpt>
      <trkpt lat="44.40907" lon="5.77162">
        <ele>679</ele>
        <time>2010-03-19T16:24:49Z</time>
      </trkpt>
      <trkpt lat="44.40901" lon="5.77137">
        <ele>679</ele>
        <time>2010-03-19T16:24:35Z</time>
      </trkpt>
      <trkpt lat="44.40896" lon="5.77113">
        <ele>678</ele>
        <time>2010-03-19T16:24:21Z</time>
      </trkpt>
      <trkpt lat="44.40889" lon="5.77088">
        <ele>678</ele>
        <time>2010-03-19T16:24:07Z</time>
      </trkpt>
      <trkpt lat="44.4088" lon="5.77065">
        <ele>676</ele>
        <time>2010-03-19T16:23:53Z</time>
      </trkpt>
      <trkpt lat="44.40869" lon="5.77042">
        <ele>676</ele>
        <time>2010-03-19T16:23:39Z</time>
      </trkpt>
      <trkpt lat="44.40861" lon="5.77018">
        <ele>675</ele>
        <time>2010-03-19T16:23:25Z</time>
      </trkpt>
      <trkpt lat="44.40859" lon="5.76992">
        <ele>674</ele>
        <time>2010-03-19T16:23:11Z</time>
      </trkpt>
      <trkpt lat="44.40855" lon="5.76967">
        <ele>673</ele>
        <time>2010-03-19T16:22:57Z</time>
      </trkpt>
      <trkpt lat="44.40852" lon="5.76942">
        <ele>673</ele>
        <time>2010-03-19T16:22:43Z</time>
      </trkpt>
      <trkpt lat="44.40844" lon="5.76918">
        <ele>671</ele>
        <time>2010-03-19T16:22:29Z</time>
      </trkpt>
      <trkpt lat="44.40832" lon="5.76899">
        <ele>671</ele>
        <time>2010-03-19T16:22:15Z</time>
      </trkpt>
      <trkpt lat="44.40816" lon="5.76885">
        <ele>670</ele>
        <time>2010-03-19T16:22:01Z</time>
      </trkpt>
      <trkpt lat="44.40801" lon="5.76872">
        <ele>671</ele>
        <time>2010-03-19T16:21:47Z</time>
      </trkpt>
      <trkpt lat="44.40788" lon="5.76855">
        <ele>669</ele>
        <time>2010-03-19T16:21:33Z</time>
      </trkpt>
      <trkpt lat="44.40785" lon="5.76831">
        <ele>667</ele>
        <time>2010-03-19T16:21:19Z</time>
      </trkpt>
      <trkpt lat="44.40787" lon="5.76806">
        <ele>664</ele>
        <time>2010-03-19T16:21:05Z</time>
      </trkpt>
      <trkpt lat="44.40795" lon="5.76786">
        <ele>661</ele>
        <time>2010-03-19T16:20:51Z</time>
      </trkpt>
      <trkpt lat="44.40806" lon="5.76769">
        <ele>659</ele>
        <time>2010-03-19T16:20:37Z</time>
      </trkpt>
      <trkpt lat="44.40814" lon="5.76751">
        <ele>655</ele>
        <time>2010-03-19T16:20:23Z</time>
      </trkpt>
      <trkpt lat="44.40822" lon="5.7673">
        <ele>653</ele>
        <time>2010-03-19T16:20:09Z</time>
      </trkpt>
      <trkpt lat="44.40831" lon="5.7671">
        <ele>651</ele>
        <time>2010-03-19T16:19:55Z</time>
      </trkpt>
      <trkpt lat="44.40847" lon="5.76693">
        <ele>648</ele>
        <time>2010-03-19T16:19:41Z</time>
      </trkpt>
      <trkpt lat="44.40864" lon="5.76684">
        <ele>646</ele>
        <time>2010-03-19T16:19:27Z</time>
      </trkpt>
      <trkpt lat="44.40876" lon="5.76669">
        <ele>644</ele>
        <time>2010-03-19T16:19:13Z</time>
      </trkpt>
      <trkpt lat="44.40888" lon="5.7665">
        <ele>641</ele>
        <time>2010-03-19T16:18:59Z</time>
      </trkpt>
      <trkpt lat="44.40898" lon="5.7663">
        <ele>639</ele>
        <time>2010-03-19T16:18:45Z</time>
      </trkpt>
      <trkpt lat="44.40904" lon="5.76605">
        <ele>637</ele>
        <time>2010-03-19T16:18:31Z</time>
      </trkpt>
      <trkpt lat="44.40908" lon="5.76579">
        <ele>635</ele>
        <time>2010-03-19T16:18:17Z</time>
      </trkpt>
      <trkpt lat="44.40907" lon="5.76555">
        <ele>633</ele>
        <time>2010-03-19T16:18:03Z</time>
      </trkpt>
      <trkpt lat="44.40908" lon="5.76532">
        <ele>630</ele>
        <time>2010-03-19T16:17:49Z</time>
      </trkpt>
      <trkpt lat="44.4091" lon="5.76509">
        <ele>627</ele>
        <time>2010-03-19T16:17:35Z</time>
      </trkpt>
      <trkpt lat="44.40907" lon="5.76485">
        <ele>624</ele>
        <time>2010-03-19T16:17:21Z</time>
      </trkpt>
      <trkpt lat="44.40902" lon="5.76462">
        <ele>623</ele>
        <time>2010-03-19T16:17:07Z</time>
      </trkpt>
      <trkpt lat="44.40896" lon="5.76439">
        <ele>620</ele>
        <time>2010-03-19T16:16:53Z</time>
      </trkpt>
      <trkpt lat="44.40893" lon="5.76414">
        <ele>618</ele>
        <time>2010-03-19T16:16:39Z</time>
      </trkpt>
      <trkpt lat="44.40888" lon="5.7639">
        <ele>617</ele>
        <time>2010-03-19T16:16:25Z</time>
      </trkpt>
      <trkpt lat="44.40881" lon="5.76366">
        <ele>615</ele>
        <time>2010-03-19T16:16:11Z</time>
      </trkpt>
      <trkpt lat="44.40876" lon="5.76342">
        <ele>612</ele>
        <time>2010-03-19T16:15:57Z</time>
      </trkpt>
      <trkpt lat="44.40876" lon="5.76319">
        <ele>610</ele>
        <time>2010-03-19T16:15:43Z</time>
      </trkpt>
      <trkpt lat="44.40875" lon="5.76293">
        <ele>607</ele>
        <time>2010-03-19T16:15:29Z</time>
      </trkpt>
      <trkpt lat="44.40871" lon="5.76269">
        <ele>604</ele>
        <time>2010-03-19T16:15:15Z</time>
      </trkpt>
      <trkpt lat="44.40865" lon="5.76246">
        <ele>601</ele>
        <time>2010-03-19T16:15:01Z</time>
      </trkpt>
      <trkpt lat="44.40858" lon="5.76224">
        <ele>598</ele>
        <time>2010-03-19T16:14:47Z</time>
      </trkpt>
      <trkpt lat="44.40848" lon="5.76199">
        <ele>596</ele>
        <time>2010-03-19T16:14:33Z</time>
      </trkpt>
      <trkpt lat="44.40846" lon="5.76174">
        <ele>594</ele>
        <time>2010-03-19T16:14:19Z</time>
      </trkpt>
      <trkpt lat="44.40847" lon="5.7615">
        <ele>592</ele>
        <time>2010-03-19T16:14:05Z</time>
      </trkpt>
      <trkpt lat="44.40843" lon="5.76125">
        <ele>591</ele>
        <time>2010-03-19T16:13:51Z</time>
      </trkpt>
      <trkpt lat="44.40844" lon="5.76099">
        <ele>589</ele>
        <time>2010-03-19T16:13:37Z</time>
      </trkpt>
      <trkpt lat="44.40848" lon="5.76073">
        <ele>587</ele>
        <time>2010-03-19T16:13:23Z</time>
      </trkpt>
      <trkpt lat="44.40847" lon="5.76047">
        <ele>585</ele>
        <time>2010-03-19T16:13:09Z</time>
      </trkpt>
      <trkpt lat="44.40838" lon="5.76024">
        <ele>582</ele>
        <time>2010-03-19T16:12:55Z</time>
      </trkpt>
      <trkpt lat="44.40833" lon="5.75999">
        <ele>581</ele>
        <time>2010-03-19T16:12:41Z</time>
      </trkpt>
      <trkpt lat="44.40837" lon="5.75974">
        <ele>578</ele>
        <time>2010-03-19T16:12:27Z</time>
      </trkpt>
      <trkpt lat="44.40838" lon="5.75972">
        <ele>577</ele>
        <time>2010-03-19T16:12:13Z</time>
      </trkpt>
      <trkpt lat="44.4084" lon="5.75969">
        <ele>577</ele>
        <time>2010-03-19T16:11:59Z</time>
      </trkpt>
      <trkpt lat="44.4084" lon="5.75968">
        <ele>576</ele>
        <time>2010-03-19T16:11:45Z</time>
      </trkpt>
      <trkpt lat="44.40843" lon="5.75962">
        <ele>575</ele>
        <time>2010-03-19T16:11:31Z</time>
      </trkpt>
      <trkpt lat="44.40852" lon="5.75943">
        <ele>575</ele>
        <time>2010-03-19T16:11:17Z</time>
      </trkpt>
      <trkpt lat="44.40861" lon="5.75926">
        <ele>574</ele>
        <time>2010-03-19T16:11:03Z</time>
      </trkpt>
      <trkpt lat="44.40871" lon="5.7591">
        <ele>574</ele>
        <time>2010-03-19T16:10:49Z</time>
      </trkpt>
      <trkpt lat="44.40882" lon="5.75896">
        <ele>573</ele>
        <time>2010-03-19T16:10:35Z</time>
      </trkpt>
      <trkpt lat="44.40898" lon="5.75887">
        <ele>573</ele>
        <time>2010-03-19T16:10:21Z</time>
      </trkpt>
      <trkpt lat="44.40915" lon="5.75877">
        <ele>572</ele>
        <time>2010-03-19T16:10:07Z</time>
      </trkpt>
      <trkpt lat="44.40931" lon="5.75861">
        <ele>571</ele>
        <time>2010-03-19T16:09:53Z</time>
      </trkpt>
      <trkpt lat="44.40945" lon="5.75847">
        <ele>571</ele>
        <time>2010-03-19T16:09:39Z</time>
      </trkpt>
      <trkpt lat="44.4096" lon="5.75833">
        <ele>573</ele>
        <time>2010-03-19T16:09:25Z</time>
      </trkpt>
      <trkpt lat="44.40974" lon="5.7582">
        <ele>573</ele>
        <time>2010-03-19T16:09:11Z</time>
      </trkpt>
      <trkpt lat="44.4099" lon="5.75807">
        <ele>574</ele>
        <time>2010-03-19T16:08:57Z</time>
      </trkpt>
      <trkpt lat="44.41006" lon="5.75793">
        <ele>574</ele>
        <time>2010-03-19T16:08:43Z</time>
      </trkpt>
      <trkpt lat="44.41013" lon="5.75772">
        <ele>574</ele>
        <time>2010-03-19T16:08:29Z</time>
      </trkpt>
      <trkpt lat="44.41002" lon="5.75754">
        <ele>573</ele>
        <time>2010-03-19T16:08:15Z</time>
      </trkpt>
      <trkpt lat="44.40991" lon="5.75737">
        <ele>573</ele>
        <time>2010-03-19T16:08:01Z</time>
      </trkpt>
      <trkpt lat="44.40979" lon="5.7572">
        <ele>571</ele>
        <time>2010-03-19T16:07:47Z</time>
      </trkpt>
      <trkpt lat="44.40969" lon="5.75702">
        <ele>568</ele>
        <time>2010-03-19T16:07:33Z</time>
      </trkpt>
      <trkpt lat="44.40958" lon="5.75683">
        <ele>567</ele>
        <time>2010-03-19T16:07:19Z</time>
      </trkpt>
      <trkpt lat="44.40945" lon="5.75666">
        <ele>565</ele>
        <time>2010-03-19T16:07:05Z</time>
      </trkpt>
      <trkpt lat="44.40932" lon="5.7565">
        <ele>564</ele>
        <time>2010-03-19T16:06:51Z</time>
      </trkpt>
      <trkpt lat="44.40917" lon="5.75637">
        <ele>562</ele>
        <time>2010-03-19T16:06:37Z</time>
      </trkpt>
      <trkpt lat="44.40914" lon="5.75634">
        <ele>675</ele>
      </trkpt>
      <trkpt lat="44.40878" lon="5.75569">
        <ele>672.4</ele>
      </trkpt>
      <trkpt lat="44.40822" lon="5.75475">
        <ele>668.8</ele>
      </trkpt>
      <trkpt lat="44.40823" lon="5.75462">
        <ele>669</ele>
      </trkpt>
      <trkpt lat="44.40718" lon="5.75346">
        <ele>670.4</ele>
      </trkpt>
      <trkpt lat="44.40825" lon="5.75315">
        <ele>678.1</ele>
      </trkpt>
      <trkpt lat="44.40909" lon="5.7522">
        <ele>687.4</ele>
      </trkpt>
      <trkpt lat="44.40978" lon="5.75111">
        <ele>700.7</ele>
      </trkpt>
      <trkpt lat="44.41091" lon="5.75083">
        <ele>705.5</ele>
      </trkpt>
      <trkpt lat="44.41199" lon="5.75011">
        <ele>710.6</ele>
      </trkpt>
      <trkpt lat="44.41177" lon="5.74938">
        <ele>715.6</ele>
      </trkpt>
      <trkpt lat="44.41154" lon="5.74792">
        <ele>715.1</ele>
      </trkpt>
      <trkpt lat="44.41133" lon="5.74542">
        <ele>716.9</ele>
      </trkpt>
      <trkpt lat="44.41158" lon="5.74434">
        <ele>715.8</ele>
      </trkpt>
      <trkpt lat="44.41094" lon="5.74336">
        <ele>719.1</ele>
      </trkpt>
      <trkpt lat="44.41153" lon="5.74327">
        <ele>725.1</ele>
      </trkpt>
      <trkpt lat="44.41165" lon="5.743">
        <ele>727.2</ele>
      </trkpt>
      <trkpt lat="44.41264" lon="5.74215">
        <ele>736.2</ele>
      </trkpt>
      <trkpt lat="44.41269" lon="5.74224">
        <ele>745</ele>
        <time>2010-04-30T14:45:21Z</time>
      </trkpt>
      <trkpt lat="44.41258" lon="5.74207">
        <ele>746</ele>
        <time>2010-04-30T14:45:07Z</time>
      </trkpt>
      <trkpt lat="44.4125" lon="5.74197">
        <ele>747</ele>
        <time>2010-04-30T14:44:53Z</time>
      </trkpt>
      <trkpt lat="44.4125" lon="5.74197">
        <ele>746</ele>
        <time>2010-04-30T14:44:39Z</time>
      </trkpt>
      <trkpt lat="44.41251" lon="5.74195">
        <ele>747</ele>
        <time>2010-04-30T14:44:25Z</time>
      </trkpt>
      <trkpt lat="44.41249" lon="5.74191">
        <ele>746</ele>
        <time>2010-04-30T14:44:11Z</time>
      </trkpt>
      <trkpt lat="44.41245" lon="5.74162">
        <ele>741</ele>
        <time>2010-04-30T14:43:57Z</time>
      </trkpt>
      <trkpt lat="44.41255" lon="5.74124">
        <ele>731</ele>
        <time>2010-04-30T14:43:43Z</time>
      </trkpt>
      <trkpt lat="44.41262" lon="5.74109">
        <ele>727</ele>
        <time>2010-04-30T14:43:29Z</time>
      </trkpt>
      <trkpt lat="44.41269" lon="5.74091">
        <ele>724</ele>
        <time>2010-04-30T14:43:15Z</time>
      </trkpt>
      <trkpt lat="44.41284" lon="5.74056">
        <ele>716</ele>
        <time>2010-04-30T14:43:01Z</time>
      </trkpt>
      <trkpt lat="44.41291" lon="5.74033">
        <ele>715</ele>
        <time>2010-04-30T14:42:47Z</time>
      </trkpt>
      <trkpt lat="44.41299" lon="5.74009">
        <ele>711</ele>
        <time>2010-04-30T14:42:33Z</time>
      </trkpt>
      <trkpt lat="44.41309" lon="5.73988">
        <ele>714</ele>
        <time>2010-04-30T14:42:19Z</time>
      </trkpt>
      <trkpt lat="44.41318" lon="5.73973">
        <ele>716</ele>
        <time>2010-04-30T14:42:05Z</time>
      </trkpt>
      <trkpt lat="44.41335" lon="5.73963">
        <ele>719</ele>
        <time>2010-04-30T14:41:51Z</time>
      </trkpt>
      <trkpt lat="44.41355" lon="5.73965">
        <ele>721</ele>
        <time>2010-04-30T14:41:37Z</time>
      </trkpt>
      <trkpt lat="44.41375" lon="5.73962">
        <ele>724</ele>
        <time>2010-04-30T14:41:23Z</time>
      </trkpt>
      <trkpt lat="44.41382" lon="5.73938">
        <ele>725</ele>
        <time>2010-04-30T14:41:09Z</time>
      </trkpt>
      <trkpt lat="44.41389" lon="5.73915">
        <ele>726</ele>
        <time>2010-04-30T14:40:55Z</time>
      </trkpt>
      <trkpt lat="44.41402" lon="5.73893">
        <ele>728</ele>
        <time>2010-04-30T14:40:41Z</time>
      </trkpt>
      <trkpt lat="44.41398" lon="5.73876">
        <ele>726</ele>
        <time>2010-04-30T14:40:27Z</time>
      </trkpt>
      <trkpt lat="44.41395" lon="5.73861">
        <ele>722</ele>
        <time>2010-04-30T14:40:13Z</time>
      </trkpt>
      <trkpt lat="44.41405" lon="5.73847">
        <ele>718</ele>
        <time>2010-04-30T14:39:59Z</time>
      </trkpt>
      <trkpt lat="44.41406" lon="5.7382">
        <ele>715</ele>
        <time>2010-04-30T14:39:45Z</time>
      </trkpt>
      <trkpt lat="44.41393" lon="5.73803">
        <ele>713</ele>
        <time>2010-04-30T14:39:31Z</time>
      </trkpt>
      <trkpt lat="44.41379" lon="5.73786">
        <ele>713</ele>
        <time>2010-04-30T14:39:17Z</time>
      </trkpt>
      <trkpt lat="44.41373" lon="5.73776">
        <ele>712</ele>
        <time>2010-04-30T14:39:03Z</time>
      </trkpt>
      <trkpt lat="44.41373" lon="5.73776">
        <ele>712</ele>
        <time>2010-04-30T14:38:49Z</time>
      </trkpt>
      <trkpt lat="44.41373" lon="5.73776">
        <ele>712</ele>
        <time>2010-04-30T14:38:35Z</time>
      </trkpt>
      <trkpt lat="44.41373" lon="5.73775">
        <ele>711</ele>
        <time>2010-04-30T14:38:21Z</time>
      </trkpt>
      <trkpt lat="44.41373" lon="5.73774">
        <ele>712</ele>
        <time>2010-04-30T14:38:07Z</time>
      </trkpt>
      <trkpt lat="44.41372" lon="5.73774">
        <ele>712</ele>
        <time>2010-04-30T14:37:53Z</time>
      </trkpt>
      <trkpt lat="44.41363" lon="5.73753">
        <ele>713</ele>
        <time>2010-04-30T14:37:39Z</time>
      </trkpt>
      <trkpt lat="44.41356" lon="5.7373">
        <ele>715</ele>
        <time>2010-04-30T14:37:25Z</time>
      </trkpt>
      <trkpt lat="44.4135" lon="5.73716">
        <ele>717</ele>
        <time>2010-04-30T14:37:11Z</time>
      </trkpt>
      <trkpt lat="44.41356" lon="5.73695">
        <ele>719</ele>
        <time>2010-04-30T14:36:57Z</time>
      </trkpt>
      <trkpt lat="44.41373" lon="5.73679">
        <ele>722</ele>
        <time>2010-04-30T14:36:43Z</time>
      </trkpt>
      <trkpt lat="44.41387" lon="5.73659">
        <ele>723</ele>
        <time>2010-04-30T14:36:29Z</time>
      </trkpt>
      <trkpt lat="44.41393" lon="5.7364">
        <ele>720</ele>
        <time>2010-04-30T14:36:15Z</time>
      </trkpt>
      <trkpt lat="44.41409" lon="5.73627">
        <ele>720</ele>
        <time>2010-04-30T14:36:01Z</time>
      </trkpt>
      <trkpt lat="44.41421" lon="5.73607">
        <ele>718</ele>
        <time>2010-04-30T14:35:47Z</time>
      </trkpt>
      <trkpt lat="44.41435" lon="5.73588">
        <ele>717</ele>
        <time>2010-04-30T14:35:33Z</time>
      </trkpt>
      <trkpt lat="44.41447" lon="5.73568">
        <ele>720</ele>
        <time>2010-04-30T14:35:19Z</time>
      </trkpt>
      <trkpt lat="44.41461" lon="5.73551">
        <ele>718</ele>
        <time>2010-04-30T14:35:05Z</time>
      </trkpt>
      <trkpt lat="44.41465" lon="5.73529">
        <ele>718</ele>
        <time>2010-04-30T14:34:51Z</time>
      </trkpt>
      <trkpt lat="44.41468" lon="5.73506">
        <ele>720</ele>
        <time>2010-04-30T14:34:37Z</time>
      </trkpt>
      <trkpt lat="44.41479" lon="5.73487">
        <ele>721</ele>
        <time>2010-04-30T14:34:23Z</time>
      </trkpt>
      <trkpt lat="44.4149" lon="5.73466">
        <ele>722</ele>
        <time>2010-04-30T14:34:09Z</time>
      </trkpt>
      <trkpt lat="44.415" lon="5.73444">
        <ele>722</ele>
        <time>2010-04-30T14:33:55Z</time>
      </trkpt>
      <trkpt lat="44.41511" lon="5.73426">
        <ele>723</ele>
        <time>2010-04-30T14:33:41Z</time>
      </trkpt>
      <trkpt lat="44.41524" lon="5.7341">
        <ele>722</ele>
        <time>2010-04-30T14:33:27Z</time>
      </trkpt>
      <trkpt lat="44.41539" lon="5.73392">
        <ele>722</ele>
        <time>2010-04-30T14:33:13Z</time>
      </trkpt>
      <trkpt lat="44.41548" lon="5.73371">
        <ele>722</ele>
        <time>2010-04-30T14:32:59Z</time>
      </trkpt>
      <trkpt lat="44.41558" lon="5.73351">
        <ele>724</ele>
        <time>2010-04-30T14:32:45Z</time>
      </trkpt>
      <trkpt lat="44.41569" lon="5.73329">
        <ele>726</ele>
        <time>2010-04-30T14:32:31Z</time>
      </trkpt>
      <trkpt lat="44.41578" lon="5.73306">
        <ele>728</ele>
        <time>2010-04-30T14:32:17Z</time>
      </trkpt>
      <trkpt lat="44.41585" lon="5.73282">
        <ele>729</ele>
        <time>2010-04-30T14:32:03Z</time>
      </trkpt>
      <trkpt lat="44.41596" lon="5.73259">
        <ele>732</ele>
        <time>2010-04-30T14:31:49Z</time>
      </trkpt>
      <trkpt lat="44.41607" lon="5.73237">
        <ele>734</ele>
        <time>2010-04-30T14:31:35Z</time>
      </trkpt>
      <trkpt lat="44.41616" lon="5.73215">
        <ele>737</ele>
        <time>2010-04-30T14:31:21Z</time>
      </trkpt>
      <trkpt lat="44.41628" lon="5.73203">
        <ele>740</ele>
        <time>2010-04-30T14:31:07Z</time>
      </trkpt>
      <trkpt lat="44.41647" lon="5.73203">
        <ele>743</ele>
        <time>2010-04-30T14:30:53Z</time>
      </trkpt>
      <trkpt lat="44.41666" lon="5.73203">
        <ele>744</ele>
        <time>2010-04-30T14:30:39Z</time>
      </trkpt>
      <trkpt lat="44.41685" lon="5.73203">
        <ele>744</ele>
        <time>2010-04-30T14:30:25Z</time>
      </trkpt>
      <trkpt lat="44.41702" lon="5.73198">
        <ele>745</ele>
        <time>2010-04-30T14:30:11Z</time>
      </trkpt>
      <trkpt lat="44.41712" lon="5.7318">
        <ele>744</ele>
        <time>2010-04-30T14:29:57Z</time>
      </trkpt>
      <trkpt lat="44.41726" lon="5.73164">
        <ele>746</ele>
        <time>2010-04-30T14:29:43Z</time>
      </trkpt>
      <trkpt lat="44.4174" lon="5.73149">
        <ele>744</ele>
        <time>2010-04-30T14:29:29Z</time>
      </trkpt>
      <trkpt lat="44.41755" lon="5.73132">
        <ele>745</ele>
        <time>2010-04-30T14:29:15Z</time>
      </trkpt>
      <trkpt lat="44.41771" lon="5.73118">
        <ele>745</ele>
        <time>2010-04-30T14:29:01Z</time>
      </trkpt>
      <trkpt lat="44.41786" lon="5.73103">
        <ele>742</ele>
        <time>2010-04-30T14:28:47Z</time>
      </trkpt>
      <trkpt lat="44.41797" lon="5.73083">
        <ele>743</ele>
        <time>2010-04-30T14:28:33Z</time>
      </trkpt>
      <trkpt lat="44.41811" lon="5.73067">
        <ele>744</ele>
        <time>2010-04-30T14:28:19Z</time>
      </trkpt>
      <trkpt lat="44.41827" lon="5.73051">
        <ele>744</ele>
        <time>2010-04-30T14:28:05Z</time>
      </trkpt>
      <trkpt lat="44.41841" lon="5.73034">
        <ele>743</ele>
        <time>2010-04-30T14:27:51Z</time>
      </trkpt>
      <trkpt lat="44.41853" lon="5.73016">
        <ele>744</ele>
        <time>2010-04-30T14:27:37Z</time>
      </trkpt>
      <trkpt lat="44.4187" lon="5.73002">
        <ele>744</ele>
        <time>2010-04-30T14:27:23Z</time>
      </trkpt>
      <trkpt lat="44.41877" lon="5.72995">
        <ele>745</ele>
        <time>2010-04-30T14:27:09Z</time>
      </trkpt>
      <trkpt lat="44.41887" lon="5.72986">
        <ele>746</ele>
        <time>2010-04-30T14:26:55Z</time>
      </trkpt>
      <trkpt lat="44.419" lon="5.7297">
        <ele>746</ele>
        <time>2010-04-30T14:26:41Z</time>
      </trkpt>
      <trkpt lat="44.41913" lon="5.72949">
        <ele>749</ele>
        <time>2010-04-30T14:26:27Z</time>
      </trkpt>
      <trkpt lat="44.41923" lon="5.72928">
        <ele>750</ele>
        <time>2010-04-30T14:26:13Z</time>
      </trkpt>
      <trkpt lat="44.41932" lon="5.72905">
        <ele>751</ele>
        <time>2010-04-30T14:25:59Z</time>
      </trkpt>
      <trkpt lat="44.41942" lon="5.7288">
        <ele>752</ele>
        <time>2010-04-30T14:25:45Z</time>
      </trkpt>
      <trkpt lat="44.41956" lon="5.72864">
        <ele>754</ele>
        <time>2010-04-30T14:25:31Z</time>
      </trkpt>
      <trkpt lat="44.4197" lon="5.72847">
        <ele>756</ele>
        <time>2010-04-30T14:25:17Z</time>
      </trkpt>
      <trkpt lat="44.41984" lon="5.72828">
        <ele>757</ele>
        <time>2010-04-30T14:25:03Z</time>
      </trkpt>
      <trkpt lat="44.41995" lon="5.72808">
        <ele>759</ele>
        <time>2010-04-30T14:24:49Z</time>
      </trkpt>
      <trkpt lat="44.42007" lon="5.72787">
        <ele>761</ele>
        <time>2010-04-30T14:24:35Z</time>
      </trkpt>
      <trkpt lat="44.42014" lon="5.72765">
        <ele>761</ele>
        <time>2010-04-30T14:24:21Z</time>
      </trkpt>
      <trkpt lat="44.42021" lon="5.72743">
        <ele>761</ele>
        <time>2010-04-30T14:24:07Z</time>
      </trkpt>
      <trkpt lat="44.42032" lon="5.72726">
        <ele>760</ele>
        <time>2010-04-30T14:23:53Z</time>
      </trkpt>
      <trkpt lat="44.42043" lon="5.72707">
        <ele>759</ele>
        <time>2010-04-30T14:23:39Z</time>
      </trkpt>
      <trkpt lat="44.42051" lon="5.7269">
        <ele>756</ele>
        <time>2010-04-30T14:23:25Z</time>
      </trkpt>
      <trkpt lat="44.42053" lon="5.72667">
        <ele>755</ele>
        <time>2010-04-30T14:23:11Z</time>
      </trkpt>
      <trkpt lat="44.42057" lon="5.72645">
        <ele>753</ele>
        <time>2010-04-30T14:22:57Z</time>
      </trkpt>
      <trkpt lat="44.42061" lon="5.72621">
        <ele>752</ele>
        <time>2010-04-30T14:22:43Z</time>
      </trkpt>
      <trkpt lat="44.4206" lon="5.72596">
        <ele>749</ele>
        <time>2010-04-30T14:22:29Z</time>
      </trkpt>
      <trkpt lat="44.42057" lon="5.72571">
        <ele>749</ele>
        <time>2010-04-30T14:22:15Z</time>
      </trkpt>
      <trkpt lat="44.42053" lon="5.72546">
        <ele>749</ele>
        <time>2010-04-30T14:22:01Z</time>
      </trkpt>
      <trkpt lat="44.4205" lon="5.72522">
        <ele>747</ele>
        <time>2010-04-30T14:21:47Z</time>
      </trkpt>
      <trkpt lat="44.42049" lon="5.72498">
        <ele>744</ele>
        <time>2010-04-30T14:21:33Z</time>
      </trkpt>
      <trkpt lat="44.4205" lon="5.72474">
        <ele>743</ele>
        <time>2010-04-30T14:21:19Z</time>
      </trkpt>
      <trkpt lat="44.42052" lon="5.72453">
        <ele>742</ele>
        <time>2010-04-30T14:21:05Z</time>
      </trkpt>
      <trkpt lat="44.42048" lon="5.72429">
        <ele>738</ele>
        <time>2010-04-30T14:20:51Z</time>
      </trkpt>
      <trkpt lat="44.42042" lon="5.72403">
        <ele>738</ele>
        <time>2010-04-30T14:20:37Z</time>
      </trkpt>
      <trkpt lat="44.42032" lon="5.72381">
        <ele>736</ele>
        <time>2010-04-30T14:20:23Z</time>
      </trkpt>
      <trkpt lat="44.42025" lon="5.72362">
        <ele>735</ele>
        <time>2010-04-30T14:20:09Z</time>
      </trkpt>
      <trkpt lat="44.42026" lon="5.72342">
        <ele>733</ele>
        <time>2010-04-30T14:19:55Z</time>
      </trkpt>
      <trkpt lat="44.42028" lon="5.72324">
        <ele>731</ele>
        <time>2010-04-30T14:19:41Z</time>
      </trkpt>
      <trkpt lat="44.42033" lon="5.72308">
        <ele>727</ele>
        <time>2010-04-30T14:19:27Z</time>
      </trkpt>
      <trkpt lat="44.42048" lon="5.72302">
        <ele>724</ele>
        <time>2010-04-30T14:19:13Z</time>
      </trkpt>
      <trkpt lat="44.42059" lon="5.72298">
        <ele>721</ele>
        <time>2010-04-30T14:18:59Z</time>
      </trkpt>
      <trkpt lat="44.42062" lon="5.72286">
        <ele>720</ele>
        <time>2010-04-30T14:18:45Z</time>
      </trkpt>
      <trkpt lat="44.42076" lon="5.72274">
        <ele>716</ele>
        <time>2010-04-30T14:18:31Z</time>
      </trkpt>
      <trkpt lat="44.42086" lon="5.72262">
        <ele>714</ele>
        <time>2010-04-30T14:18:17Z</time>
      </trkpt>
      <trkpt lat="44.42099" lon="5.7225">
        <ele>711</ele>
        <time>2010-04-30T14:18:03Z</time>
      </trkpt>
      <trkpt lat="44.4211" lon="5.72259">
        <ele>704</ele>
        <time>2010-04-30T14:17:49Z</time>
      </trkpt>
      <trkpt lat="44.42111" lon="5.72248">
        <ele>706</ele>
        <time>2010-04-30T14:17:35Z</time>
      </trkpt>
      <trkpt lat="44.42113" lon="5.72223">
        <ele>706</ele>
        <time>2010-04-30T14:17:21Z</time>
      </trkpt>
      <trkpt lat="44.42111" lon="5.72202">
        <ele>700</ele>
        <time>2010-04-30T14:17:07Z</time>
      </trkpt>
      <trkpt lat="44.42111" lon="5.72178">
        <ele>701</ele>
        <time>2010-04-30T14:16:53Z</time>
      </trkpt>
      <trkpt lat="44.42114" lon="5.72156">
        <ele>699</ele>
        <time>2010-04-30T14:16:39Z</time>
      </trkpt>
      <trkpt lat="44.42131" lon="5.72142">
        <ele>695</ele>
        <time>2010-04-30T14:16:25Z</time>
      </trkpt>
      <trkpt lat="44.42148" lon="5.72134">
        <ele>694</ele>
        <time>2010-04-30T14:16:11Z</time>
      </trkpt>
      <trkpt lat="44.42155" lon="5.72113">
        <ele>693</ele>
        <time>2010-04-30T14:15:57Z</time>
      </trkpt>
      <trkpt lat="44.42135" lon="5.72111">
        <ele>692</ele>
        <time>2010-04-30T14:15:43Z</time>
      </trkpt>
      <trkpt lat="44.42122" lon="5.72098">
        <ele>691</ele>
        <time>2010-04-30T14:15:29Z</time>
      </trkpt>
      <trkpt lat="44.42109" lon="5.72079">
        <ele>690</ele>
        <time>2010-04-30T14:15:15Z</time>
      </trkpt>
      <trkpt lat="44.42093" lon="5.72066">
        <ele>688</ele>
        <time>2010-04-30T14:15:01Z</time>
      </trkpt>
      <trkpt lat="44.42076" lon="5.72055">
        <ele>686</ele>
        <time>2010-04-30T14:14:47Z</time>
      </trkpt>
      <trkpt lat="44.4206" lon="5.72042">
        <ele>685</ele>
        <time>2010-04-30T14:14:33Z</time>
      </trkpt>
      <trkpt lat="44.42044" lon="5.7203">
        <ele>684</ele>
        <time>2010-04-30T14:14:19Z</time>
      </trkpt>
      <trkpt lat="44.42029" lon="5.72016">
        <ele>683</ele>
        <time>2010-04-30T14:14:05Z</time>
      </trkpt>
      <trkpt lat="44.42022" lon="5.72013">
        <ele>683</ele>
        <time>2010-04-30T14:13:51Z</time>
      </trkpt>
      <trkpt lat="44.4201" lon="5.72003">
        <ele>681</ele>
        <time>2010-04-30T14:13:37Z</time>
      </trkpt>
      <trkpt lat="44.42004" lon="5.71984">
        <ele>680</ele>
        <time>2010-04-30T14:13:23Z</time>
      </trkpt>
      <trkpt lat="44.42016" lon="5.71975">
        <ele>681</ele>
        <time>2010-04-30T14:13:09Z</time>
      </trkpt>
      <trkpt lat="44.42017" lon="5.71975">
        <ele>680</ele>
        <time>2010-04-30T14:12:55Z</time>
      </trkpt>
      <trkpt lat="44.42016" lon="5.71975">
        <ele>680</ele>
        <time>2010-04-30T14:12:41Z</time>
      </trkpt>
      <trkpt lat="44.42017" lon="5.71975">
        <ele>679</ele>
        <time>2010-04-30T14:12:27Z</time>
      </trkpt>
      <trkpt lat="44.42018" lon="5.71973">
        <ele>679</ele>
        <time>2010-04-30T14:12:13Z</time>
      </trkpt>
      <trkpt lat="44.42018" lon="5.71973">
        <ele>679</ele>
        <time>2010-04-30T14:11:59Z</time>
      </trkpt>
      <trkpt lat="44.42023" lon="5.71967">
        <ele>680</ele>
        <time>2010-04-30T14:11:45Z</time>
      </trkpt>
      <trkpt lat="44.4204" lon="5.71964">
        <ele>679</ele>
        <time>2010-04-30T14:11:31Z</time>
      </trkpt>
      <trkpt lat="44.42059" lon="5.71959">
        <ele>680</ele>
        <time>2010-04-30T14:11:17Z</time>
      </trkpt>
      <trkpt lat="44.42065" lon="5.71941">
        <ele>675</ele>
        <time>2010-04-30T14:11:03Z</time>
      </trkpt>
      <trkpt lat="44.42065" lon="5.71918">
        <ele>676</ele>
        <time>2010-04-30T14:10:49Z</time>
      </trkpt>
      <trkpt lat="44.42067" lon="5.71894">
        <ele>674</ele>
        <time>2010-04-30T14:10:35Z</time>
      </trkpt>
      <trkpt lat="44.42068" lon="5.71876">
        <ele>674</ele>
        <time>2010-04-30T14:10:21Z</time>
      </trkpt>
      <trkpt lat="44.42072" lon="5.71853">
        <ele>673</ele>
        <time>2010-04-30T14:10:07Z</time>
      </trkpt>
      <trkpt lat="44.42086" lon="5.71849">
        <ele>671</ele>
        <time>2010-04-30T14:09:53Z</time>
      </trkpt>
      <trkpt lat="44.42103" lon="5.71858">
        <ele>668</ele>
        <time>2010-04-30T14:09:39Z</time>
      </trkpt>
      <trkpt lat="44.42121" lon="5.71868">
        <ele>668</ele>
        <time>2010-04-30T14:09:25Z</time>
      </trkpt>
      <trkpt lat="44.4214" lon="5.71862">
        <ele>668</ele>
        <time>2010-04-30T14:09:11Z</time>
      </trkpt>
      <trkpt lat="44.42158" lon="5.71863">
        <ele>667</ele>
        <time>2010-04-30T14:08:57Z</time>
      </trkpt>
      <trkpt lat="44.42176" lon="5.71861">
        <ele>668</ele>
        <time>2010-04-30T14:08:43Z</time>
      </trkpt>
      <trkpt lat="44.42194" lon="5.71859">
        <ele>668</ele>
        <time>2010-04-30T14:08:29Z</time>
      </trkpt>
      <trkpt lat="44.42213" lon="5.7186">
        <ele>666</ele>
        <time>2010-04-30T14:08:15Z</time>
      </trkpt>
      <trkpt lat="44.42231" lon="5.71859">
        <ele>667</ele>
        <time>2010-04-30T14:08:01Z</time>
      </trkpt>
      <trkpt lat="44.4225" lon="5.71854">
        <ele>666</ele>
        <time>2010-04-30T14:07:47Z</time>
      </trkpt>
      <trkpt lat="44.42269" lon="5.71848">
        <ele>667</ele>
        <time>2010-04-30T14:07:33Z</time>
      </trkpt>
      <trkpt lat="44.42287" lon="5.71843">
        <ele>664</ele>
        <time>2010-04-30T14:07:19Z</time>
      </trkpt>
      <trkpt lat="44.42305" lon="5.71837">
        <ele>663</ele>
        <time>2010-04-30T14:07:05Z</time>
      </trkpt>
      <trkpt lat="44.42324" lon="5.71833">
        <ele>661</ele>
        <time>2010-04-30T14:06:51Z</time>
      </trkpt>
      <trkpt lat="44.42343" lon="5.71829">
        <ele>661</ele>
        <time>2010-04-30T14:06:37Z</time>
      </trkpt>
      <trkpt lat="44.42362" lon="5.71824">
        <ele>661</ele>
        <time>2010-04-30T14:06:23Z</time>
      </trkpt>
      <trkpt lat="44.4238" lon="5.71819">
        <ele>660</ele>
        <time>2010-04-30T14:06:09Z</time>
      </trkpt>
      <trkpt lat="44.42399" lon="5.71812">
        <ele>659</ele>
        <time>2010-04-30T14:05:55Z</time>
      </trkpt>
      <trkpt lat="44.42419" lon="5.7181">
        <ele>658</ele>
        <time>2010-04-30T14:05:41Z</time>
      </trkpt>
      <trkpt lat="44.42438" lon="5.71804">
        <ele>659</ele>
        <time>2010-04-30T14:05:27Z</time>
      </trkpt>
      <trkpt lat="44.42457" lon="5.71803">
        <ele>662</ele>
        <time>2010-04-30T14:05:13Z</time>
      </trkpt>
      <trkpt lat="44.42475" lon="5.71804">
        <ele>662</ele>
        <time>2010-04-30T14:04:59Z</time>
      </trkpt>
      <trkpt lat="44.42494" lon="5.71804">
        <ele>663</ele>
        <time>2010-04-30T14:04:45Z</time>
      </trkpt>
      <trkpt lat="44.42512" lon="5.71806">
        <ele>665</ele>
        <time>2010-04-30T14:04:31Z</time>
      </trkpt>
      <trkpt lat="44.42531" lon="5.71811">
        <ele>666</ele>
        <time>2010-04-30T14:04:17Z</time>
      </trkpt>
      <trkpt lat="44.4255" lon="5.71809">
        <ele>665</ele>
        <time>2010-04-30T14:04:03Z</time>
      </trkpt>
      <trkpt lat="44.42561" lon="5.71803">
        <ele>663</ele>
        <time>2010-04-30T14:03:49Z</time>
      </trkpt>
      <trkpt lat="44.42578" lon="5.71803">
        <ele>663</ele>
        <time>2010-04-30T14:03:35Z</time>
      </trkpt>
      <trkpt lat="44.42599" lon="5.71801">
        <ele>661</ele>
        <time>2010-04-30T14:03:21Z</time>
      </trkpt>
      <trkpt lat="44.42618" lon="5.71799">
        <ele>660</ele>
        <time>2010-04-30T14:03:07Z</time>
      </trkpt>
      <trkpt lat="44.42636" lon="5.71795">
        <ele>659</ele>
        <time>2010-04-30T14:02:53Z</time>
      </trkpt>
      <trkpt lat="44.42655" lon="5.71792">
        <ele>659</ele>
        <time>2010-04-30T14:02:39Z</time>
      </trkpt>
      <trkpt lat="44.42672" lon="5.71788">
        <ele>658</ele>
        <time>2010-04-30T14:02:25Z</time>
      </trkpt>
      <trkpt lat="44.4269" lon="5.71785">
        <ele>658</ele>
        <time>2010-04-30T14:02:11Z</time>
      </trkpt>
      <trkpt lat="44.42706" lon="5.71792">
        <ele>660</ele>
        <time>2010-04-30T14:01:57Z</time>
      </trkpt>
      <trkpt lat="44.42705" lon="5.71795">
        <ele>658</ele>
        <time>2010-04-30T14:01:43Z</time>
      </trkpt>
      <trkpt lat="44.42708" lon="5.71793">
        <ele>657</ele>
        <time>2010-04-30T14:01:29Z</time>
      </trkpt>
      <trkpt lat="44.42711" lon="5.71795">
        <ele>659</ele>
        <time>2010-04-30T14:01:15Z</time>
      </trkpt>
      <trkpt lat="44.42726" lon="5.71802">
        <ele>657</ele>
        <time>2010-04-30T14:01:01Z</time>
      </trkpt>
      <trkpt lat="44.4274" lon="5.71808">
        <ele>657</ele>
        <time>2010-04-30T14:00:47Z</time>
      </trkpt>
      <trkpt lat="44.42748" lon="5.71788">
        <ele>658</ele>
        <time>2010-04-30T14:00:33Z</time>
      </trkpt>
      <trkpt lat="44.42756" lon="5.71769">
        <ele>656</ele>
        <time>2010-04-30T14:00:19Z</time>
      </trkpt>
      <trkpt lat="44.42764" lon="5.71747">
        <ele>659</ele>
        <time>2010-04-30T14:00:05Z</time>
      </trkpt>
      <trkpt lat="44.42773" lon="5.71727">
        <ele>654</ele>
        <time>2010-04-30T13:59:51Z</time>
      </trkpt>
      <trkpt lat="44.42781" lon="5.71707">
        <ele>652</ele>
        <time>2010-04-30T13:59:37Z</time>
      </trkpt>
      <trkpt lat="44.42792" lon="5.71689">
        <ele>647</ele>
        <time>2010-04-30T13:59:23Z</time>
      </trkpt>
      <trkpt lat="44.42807" lon="5.71697">
        <ele>651</ele>
        <time>2010-04-30T13:59:09Z</time>
      </trkpt>
      <trkpt lat="44.42821" lon="5.71712">
        <ele>653</ele>
        <time>2010-04-30T13:58:55Z</time>
      </trkpt>
      <trkpt lat="44.42834" lon="5.7173">
        <ele>647</ele>
        <time>2010-04-30T13:58:41Z</time>
      </trkpt>
      <trkpt lat="44.42846" lon="5.71748">
        <ele>650</ele>
        <time>2010-04-30T13:58:27Z</time>
      </trkpt>
      <trkpt lat="44.42857" lon="5.71766">
        <ele>649</ele>
        <time>2010-04-30T13:58:13Z</time>
      </trkpt>
      <trkpt lat="44.4287" lon="5.71779">
        <ele>653</ele>
        <time>2010-04-30T13:57:59Z</time>
      </trkpt>
      <trkpt lat="44.42884" lon="5.71763">
        <ele>653</ele>
        <time>2010-04-30T13:57:45Z</time>
      </trkpt>
      <trkpt lat="44.42898" lon="5.71748">
        <ele>654</ele>
        <time>2010-04-30T13:57:31Z</time>
      </trkpt>
      <trkpt lat="44.42901" lon="5.71728">
        <ele>654</ele>
        <time>2010-04-30T13:57:17Z</time>
      </trkpt>
      <trkpt lat="44.42896" lon="5.71706">
        <ele>656</ele>
        <time>2010-04-30T13:57:03Z</time>
      </trkpt>
      <trkpt lat="44.42891" lon="5.71689">
        <ele>648</ele>
        <time>2010-04-30T13:56:49Z</time>
      </trkpt>
      <trkpt lat="44.42891" lon="5.71687">
        <ele>654</ele>
        <time>2010-04-30T13:56:35Z</time>
      </trkpt>
      <trkpt lat="44.42891" lon="5.71687">
        <ele>658</ele>
        <time>2010-04-30T13:56:21Z</time>
      </trkpt>
      <trkpt lat="44.42887" lon="5.7167">
        <ele>653</ele>
        <time>2010-04-30T13:56:07Z</time>
      </trkpt>
      <trkpt lat="44.42877" lon="5.71646">
        <ele>646</ele>
        <time>2010-04-30T13:55:53Z</time>
      </trkpt>
      <trkpt lat="44.42862" lon="5.71628">
        <ele>652</ele>
        <time>2010-04-30T13:55:39Z</time>
      </trkpt>
      <trkpt lat="44.42847" lon="5.71615">
        <ele>652</ele>
        <time>2010-04-30T13:55:25Z</time>
      </trkpt>
      <trkpt lat="44.4283" lon="5.71602">
        <ele>651</ele>
        <time>2010-04-30T13:55:11Z</time>
      </trkpt>
      <trkpt lat="44.42813" lon="5.71591">
        <ele>649</ele>
        <time>2010-04-30T13:54:57Z</time>
      </trkpt>
      <trkpt lat="44.42798" lon="5.71582">
        <ele>649</ele>
        <time>2010-04-30T13:54:43Z</time>
      </trkpt>
      <trkpt lat="44.4278" lon="5.71572">
        <ele>648</ele>
        <time>2010-04-30T13:54:29Z</time>
      </trkpt>
      <trkpt lat="44.42761" lon="5.71561">
        <ele>649</ele>
        <time>2010-04-30T13:54:15Z</time>
      </trkpt>
      <trkpt lat="44.42744" lon="5.71549">
        <ele>649</ele>
        <time>2010-04-30T13:54:01Z</time>
      </trkpt>
      <trkpt lat="44.42724" lon="5.71538">
        <ele>647</ele>
        <time>2010-04-30T13:53:47Z</time>
      </trkpt>
      <trkpt lat="44.42706" lon="5.71526">
        <ele>646</ele>
        <time>2010-04-30T13:53:33Z</time>
      </trkpt>
      <trkpt lat="44.42689" lon="5.71515">
        <ele>645</ele>
        <time>2010-04-30T13:53:19Z</time>
      </trkpt>
      <trkpt lat="44.42671" lon="5.71505">
        <ele>647</ele>
        <time>2010-04-30T13:53:05Z</time>
      </trkpt>
      <trkpt lat="44.42657" lon="5.71489">
        <ele>646</ele>
        <time>2010-04-30T13:52:51Z</time>
      </trkpt>
      <trkpt lat="44.42658" lon="5.71484">
        <ele>646</ele>
        <time>2010-04-30T13:52:37Z</time>
      </trkpt>
      <trkpt lat="44.42669" lon="5.71465">
        <ele>647</ele>
        <time>2010-04-30T13:52:23Z</time>
      </trkpt>
      <trkpt lat="44.42683" lon="5.71448">
        <ele>647</ele>
        <time>2010-04-30T13:52:09Z</time>
      </trkpt>
      <trkpt lat="44.42699" lon="5.71434">
        <ele>651</ele>
        <time>2010-04-30T13:51:55Z</time>
      </trkpt>
      <trkpt lat="44.4272" lon="5.71425">
        <ele>647</ele>
        <time>2010-04-30T13:51:41Z</time>
      </trkpt>
      <trkpt lat="44.42737" lon="5.71411">
        <ele>648</ele>
        <time>2010-04-30T13:51:27Z</time>
      </trkpt>
      <trkpt lat="44.42726" lon="5.7139">
        <ele>646</ele>
        <time>2010-04-30T13:51:13Z</time>
      </trkpt>
      <trkpt lat="44.42713" lon="5.71372">
        <ele>645</ele>
        <time>2010-04-30T13:50:59Z</time>
      </trkpt>
      <trkpt lat="44.42701" lon="5.71353">
        <ele>645</ele>
        <time>2010-04-30T13:50:45Z</time>
      </trkpt>
      <trkpt lat="44.42688" lon="5.71336">
        <ele>646</ele>
        <time>2010-04-30T13:50:31Z</time>
      </trkpt>
      <trkpt lat="44.42673" lon="5.71318">
        <ele>646</ele>
        <time>2010-04-30T13:50:17Z</time>
      </trkpt>
      <trkpt lat="44.42661" lon="5.71298">
        <ele>649</ele>
        <time>2010-04-30T13:50:03Z</time>
      </trkpt>
      <trkpt lat="44.42648" lon="5.71279">
        <ele>641</ele>
        <time>2010-04-30T13:49:49Z</time>
      </trkpt>
      <trkpt lat="44.42634" lon="5.71261">
        <ele>647</ele>
        <time>2010-04-30T13:49:35Z</time>
      </trkpt>
      <trkpt lat="44.4262" lon="5.71242">
        <ele>646</ele>
        <time>2010-04-30T13:49:21Z</time>
      </trkpt>
      <trkpt lat="44.42607" lon="5.71223">
        <ele>650</ele>
        <time>2010-04-30T13:49:07Z</time>
      </trkpt>
      <trkpt lat="44.42594" lon="5.71201">
        <ele>648</ele>
        <time>2010-04-30T13:48:53Z</time>
      </trkpt>
      <trkpt lat="44.42582" lon="5.71183">
        <ele>640</ele>
        <time>2010-04-30T13:48:39Z</time>
      </trkpt>
      <trkpt lat="44.42568" lon="5.71164">
        <ele>643</ele>
        <time>2010-04-30T13:48:25Z</time>
      </trkpt>
      <trkpt lat="44.42554" lon="5.71144">
        <ele>644</ele>
        <time>2010-04-30T13:48:11Z</time>
      </trkpt>
      <trkpt lat="44.4254" lon="5.71124">
        <ele>647</ele>
        <time>2010-04-30T13:47:57Z</time>
      </trkpt>
      <trkpt lat="44.42525" lon="5.71105">
        <ele>644</ele>
        <time>2010-04-30T13:47:43Z</time>
      </trkpt>
      <trkpt lat="44.42511" lon="5.71085">
        <ele>649</ele>
        <time>2010-04-30T13:47:29Z</time>
      </trkpt>
      <trkpt lat="44.42504" lon="5.7106">
        <ele>651</ele>
        <time>2010-04-30T13:47:15Z</time>
      </trkpt>
      <trkpt lat="44.42504" lon="5.71041">
        <ele>653</ele>
        <time>2010-04-30T13:47:01Z</time>
      </trkpt>
      <trkpt lat="44.42519" lon="5.71025">
        <ele>648</ele>
        <time>2010-04-30T13:46:47Z</time>
      </trkpt>
      <trkpt lat="44.42538" lon="5.71019">
        <ele>653</ele>
        <time>2010-04-30T13:46:33Z</time>
      </trkpt>
      <trkpt lat="44.42558" lon="5.71016">
        <ele>656</ele>
        <time>2010-04-30T13:46:19Z</time>
      </trkpt>
      <trkpt lat="44.42574" lon="5.71018">
        <ele>654</ele>
        <time>2010-04-30T13:46:05Z</time>
      </trkpt>
      <trkpt lat="44.42592" lon="5.71014">
        <ele>651</ele>
        <time>2010-04-30T13:45:51Z</time>
      </trkpt>
      <trkpt lat="44.42587" lon="5.70994">
        <ele>656</ele>
        <time>2010-04-30T13:45:37Z</time>
      </trkpt>
      <trkpt lat="44.42572" lon="5.70981">
        <ele>651</ele>
        <time>2010-04-30T13:45:23Z</time>
      </trkpt>
      <trkpt lat="44.42555" lon="5.70969">
        <ele>652</ele>
        <time>2010-04-30T13:45:09Z</time>
      </trkpt>
      <trkpt lat="44.42537" lon="5.7096">
        <ele>659</ele>
        <time>2010-04-30T13:44:55Z</time>
      </trkpt>
      <trkpt lat="44.42534" lon="5.70958">
        <ele>653</ele>
        <time>2010-04-30T13:44:41Z</time>
      </trkpt>
      <trkpt lat="44.42521" lon="5.7094">
        <ele>653</ele>
        <time>2010-04-30T13:44:27Z</time>
      </trkpt>
      <trkpt lat="44.42522" lon="5.70931">
        <ele>649</ele>
        <time>2010-04-30T13:44:13Z</time>
      </trkpt>
      <trkpt lat="44.42533" lon="5.70912">
        <ele>658</ele>
        <time>2010-04-30T13:43:59Z</time>
      </trkpt>
      <trkpt lat="44.42547" lon="5.70897">
        <ele>658</ele>
        <time>2010-04-30T13:43:45Z</time>
      </trkpt>
      <trkpt lat="44.42561" lon="5.70879">
        <ele>657</ele>
        <time>2010-04-30T13:43:31Z</time>
      </trkpt>
      <trkpt lat="44.42577" lon="5.70865">
        <ele>659</ele>
        <time>2010-04-30T13:43:17Z</time>
      </trkpt>
      <trkpt lat="44.42591" lon="5.70848">
        <ele>660</ele>
        <time>2010-04-30T13:43:03Z</time>
      </trkpt>
      <trkpt lat="44.42608" lon="5.70835">
        <ele>663</ele>
        <time>2010-04-30T13:42:49Z</time>
      </trkpt>
      <trkpt lat="44.42625" lon="5.70848">
        <ele>665</ele>
        <time>2010-04-30T13:42:35Z</time>
      </trkpt>
      <trkpt lat="44.42639" lon="5.70864">
        <ele>664</ele>
        <time>2010-04-30T13:42:21Z</time>
      </trkpt>
      <trkpt lat="44.42658" lon="5.70862">
        <ele>670</ele>
        <time>2010-04-30T13:42:07Z</time>
      </trkpt>
      <trkpt lat="44.42674" lon="5.70859">
        <ele>667</ele>
        <time>2010-04-30T13:41:53Z</time>
      </trkpt>
      <trkpt lat="44.42691" lon="5.70853">
        <ele>670</ele>
        <time>2010-04-30T13:41:39Z</time>
      </trkpt>
      <trkpt lat="44.42707" lon="5.70846">
        <ele>675</ele>
        <time>2010-04-30T13:41:25Z</time>
      </trkpt>
      <trkpt lat="44.42725" lon="5.70846">
        <ele>676</ele>
        <time>2010-04-30T13:41:11Z</time>
      </trkpt>
      <trkpt lat="44.42739" lon="5.70858">
        <ele>680</ele>
        <time>2010-04-30T13:40:57Z</time>
      </trkpt>
      <trkpt lat="44.42747" lon="5.7088">
        <ele>684</ele>
        <time>2010-04-30T13:40:43Z</time>
      </trkpt>
      <trkpt lat="44.42749" lon="5.70906">
        <ele>681</ele>
        <time>2010-04-30T13:40:29Z</time>
      </trkpt>
      <trkpt lat="44.42747" lon="5.70931">
        <ele>679</ele>
        <time>2010-04-30T13:40:15Z</time>
      </trkpt>
      <trkpt lat="44.42745" lon="5.70955">
        <ele>680</ele>
        <time>2010-04-30T13:40:01Z</time>
      </trkpt>
      <trkpt lat="44.42746" lon="5.7098">
        <ele>680</ele>
        <time>2010-04-30T13:39:47Z</time>
      </trkpt>
      <trkpt lat="44.42749" lon="5.71006">
        <ele>680</ele>
        <time>2010-04-30T13:39:33Z</time>
      </trkpt>
      <trkpt lat="44.42757" lon="5.71028">
        <ele>678</ele>
        <time>2010-04-30T13:39:19Z</time>
      </trkpt>
      <trkpt lat="44.42758" lon="5.71014">
        <ele>679</ele>
        <time>2010-04-30T13:39:05Z</time>
      </trkpt>
      <trkpt lat="44.42755" lon="5.70992">
        <ele>678</ele>
        <time>2010-04-30T13:38:51Z</time>
      </trkpt>
      <trkpt lat="44.42755" lon="5.70966">
        <ele>686</ele>
        <time>2010-04-30T13:38:37Z</time>
      </trkpt>
      <trkpt lat="44.42757" lon="5.70942">
        <ele>682</ele>
        <time>2010-04-30T13:38:23Z</time>
      </trkpt>
      <trkpt lat="44.42765" lon="5.70918">
        <ele>684</ele>
        <time>2010-04-30T13:38:09Z</time>
      </trkpt>
      <trkpt lat="44.42769" lon="5.70894">
        <ele>686</ele>
        <time>2010-04-30T13:37:55Z</time>
      </trkpt>
      <trkpt lat="44.42778" lon="5.70871">
        <ele>691</ele>
        <time>2010-04-30T13:37:41Z</time>
      </trkpt>
      <trkpt lat="44.42786" lon="5.70851">
        <ele>691</ele>
        <time>2010-04-30T13:37:27Z</time>
      </trkpt>
      <trkpt lat="44.42789" lon="5.70827">
        <ele>690</ele>
        <time>2010-04-30T13:37:13Z</time>
      </trkpt>
      <trkpt lat="44.4279" lon="5.70801">
        <ele>694</ele>
        <time>2010-04-30T13:36:59Z</time>
      </trkpt>
      <trkpt lat="44.42794" lon="5.70777">
        <ele>696</ele>
        <time>2010-04-30T13:36:45Z</time>
      </trkpt>
      <trkpt lat="44.42801" lon="5.70754">
        <ele>699</ele>
        <time>2010-04-30T13:36:31Z</time>
      </trkpt>
      <trkpt lat="44.42806" lon="5.70729">
        <ele>699</ele>
        <time>2010-04-30T13:36:17Z</time>
      </trkpt>
      <trkpt lat="44.42808" lon="5.70716">
        <ele>700</ele>
        <time>2010-04-30T13:36:03Z</time>
      </trkpt>
      <trkpt lat="44.4281" lon="5.7069">
        <ele>701</ele>
        <time>2010-04-30T13:35:49Z</time>
      </trkpt>
      <trkpt lat="44.42811" lon="5.70664">
        <ele>706</ele>
        <time>2010-04-30T13:35:35Z</time>
      </trkpt>
      <trkpt lat="44.42813" lon="5.70639">
        <ele>705</ele>
        <time>2010-04-30T13:35:21Z</time>
      </trkpt>
      <trkpt lat="44.42815" lon="5.70615">
        <ele>705</ele>
        <time>2010-04-30T13:35:07Z</time>
      </trkpt>
      <trkpt lat="44.4282" lon="5.7059">
        <ele>710</ele>
        <time>2010-04-30T13:34:53Z</time>
      </trkpt>
      <trkpt lat="44.42822" lon="5.70564">
        <ele>711</ele>
        <time>2010-04-30T13:34:39Z</time>
      </trkpt>
      <trkpt lat="44.42825" lon="5.70536">
        <ele>716</ele>
        <time>2010-04-30T13:34:25Z</time>
      </trkpt>
      <trkpt lat="44.42829" lon="5.70512">
        <ele>718</ele>
        <time>2010-04-30T13:34:11Z</time>
      </trkpt>
      <trkpt lat="44.42836" lon="5.70486">
        <ele>717</ele>
        <time>2010-04-30T13:33:57Z</time>
      </trkpt>
      <trkpt lat="44.42844" lon="5.70463">
        <ele>720</ele>
        <time>2010-04-30T13:33:43Z</time>
      </trkpt>
      <trkpt lat="44.42853" lon="5.7044">
        <ele>718</ele>
        <time>2010-04-30T13:33:29Z</time>
      </trkpt>
      <trkpt lat="44.42847" lon="5.70416">
        <ele>723</ele>
        <time>2010-04-30T13:33:15Z</time>
      </trkpt>
      <trkpt lat="44.42843" lon="5.70391">
        <ele>724</ele>
        <time>2010-04-30T13:33:01Z</time>
      </trkpt>
      <trkpt lat="44.4284" lon="5.70366">
        <ele>727</ele>
        <time>2010-04-30T13:32:47Z</time>
      </trkpt>
      <trkpt lat="44.42834" lon="5.70343">
        <ele>732</ele>
        <time>2010-04-30T13:32:33Z</time>
      </trkpt>
      <trkpt lat="44.42836" lon="5.7032">
        <ele>733</ele>
        <time>2010-04-30T13:32:19Z</time>
      </trkpt>
      <trkpt lat="44.4283" lon="5.70294">
        <ele>734</ele>
        <time>2010-04-30T13:32:05Z</time>
      </trkpt>
      <trkpt lat="44.42817" lon="5.70275">
        <ele>736</ele>
        <time>2010-04-30T13:31:51Z</time>
      </trkpt>
      <trkpt lat="44.42813" lon="5.70255">
        <ele>736</ele>
        <time>2010-04-30T13:31:37Z</time>
      </trkpt>
      <trkpt lat="44.42809" lon="5.70234">
        <ele>742</ele>
        <time>2010-04-30T13:31:23Z</time>
      </trkpt>
      <trkpt lat="44.42807" lon="5.70217">
        <ele>745</ele>
        <time>2010-04-30T13:31:09Z</time>
      </trkpt>
      <trkpt lat="44.42808" lon="5.70194">
        <ele>744</ele>
        <time>2010-04-30T13:30:55Z</time>
      </trkpt>
      <trkpt lat="44.42816" lon="5.70173">
        <ele>750</ele>
        <time>2010-04-30T13:30:41Z</time>
      </trkpt>
      <trkpt lat="44.42825" lon="5.70151">
        <ele>749</ele>
        <time>2010-04-30T13:30:27Z</time>
      </trkpt>
      <trkpt lat="44.42832" lon="5.7016">
        <ele>752</ele>
        <time>2010-04-30T13:30:13Z</time>
      </trkpt>
      <trkpt lat="44.42833" lon="5.70185">
        <ele>758</ele>
        <time>2010-04-30T13:29:59Z</time>
      </trkpt>
      <trkpt lat="44.42844" lon="5.70208">
        <ele>761</ele>
        <time>2010-04-30T13:29:45Z</time>
      </trkpt>
      <trkpt lat="44.42858" lon="5.70229">
        <ele>757</ele>
        <time>2010-04-30T13:29:31Z</time>
      </trkpt>
      <trkpt lat="44.42867" lon="5.70223">
        <ele>760</ele>
        <time>2010-04-30T13:29:17Z</time>
      </trkpt>
      <trkpt lat="44.42866" lon="5.70197">
        <ele>764</ele>
        <time>2010-04-30T13:29:03Z</time>
      </trkpt>
      <trkpt lat="44.42866" lon="5.70171">
        <ele>766</ele>
        <time>2010-04-30T13:28:49Z</time>
      </trkpt>
      <trkpt lat="44.42874" lon="5.70147">
        <ele>770</ele>
        <time>2010-04-30T13:28:35Z</time>
      </trkpt>
      <trkpt lat="44.42882" lon="5.70122">
        <ele>771</ele>
        <time>2010-04-30T13:28:21Z</time>
      </trkpt>
      <trkpt lat="44.42892" lon="5.701">
        <ele>770</ele>
        <time>2010-04-30T13:28:07Z</time>
      </trkpt>
      <trkpt lat="44.42906" lon="5.7008">
        <ele>775</ele>
        <time>2010-04-30T13:27:53Z</time>
      </trkpt>
      <trkpt lat="44.42919" lon="5.70061">
        <ele>775</ele>
        <time>2010-04-30T13:27:39Z</time>
      </trkpt>
      <trkpt lat="44.42931" lon="5.7004">
        <ele>775</ele>
        <time>2010-04-30T13:27:25Z</time>
      </trkpt>
      <trkpt lat="44.42943" lon="5.70018">
        <ele>779</ele>
        <time>2010-04-30T13:27:11Z</time>
      </trkpt>
      <trkpt lat="44.42953" lon="5.69995">
        <ele>783</ele>
        <time>2010-04-30T13:26:57Z</time>
      </trkpt>
      <trkpt lat="44.42964" lon="5.6997">
        <ele>783</ele>
        <time>2010-04-30T13:26:43Z</time>
      </trkpt>
      <trkpt lat="44.42976" lon="5.69947">
        <ele>785</ele>
        <time>2010-04-30T13:26:29Z</time>
      </trkpt>
      <trkpt lat="44.42986" lon="5.69926">
        <ele>788</ele>
        <time>2010-04-30T13:26:15Z</time>
      </trkpt>
      <trkpt lat="44.43" lon="5.69906">
        <ele>791</ele>
        <time>2010-04-30T13:26:01Z</time>
      </trkpt>
      <trkpt lat="44.43015" lon="5.69896">
        <ele>796</ele>
        <time>2010-04-30T13:25:47Z</time>
      </trkpt>
      <trkpt lat="44.43032" lon="5.69885">
        <ele>795</ele>
        <time>2010-04-30T13:25:33Z</time>
      </trkpt>
      <trkpt lat="44.43046" lon="5.69868">
        <ele>800</ele>
        <time>2010-04-30T13:25:19Z</time>
      </trkpt>
      <trkpt lat="44.43061" lon="5.69858">
        <ele>803</ele>
        <time>2010-04-30T13:25:05Z</time>
      </trkpt>
      <trkpt lat="44.43078" lon="5.69851">
        <ele>805</ele>
        <time>2010-04-30T13:24:51Z</time>
      </trkpt>
      <trkpt lat="44.43097" lon="5.69838">
        <ele>808</ele>
        <time>2010-04-30T13:24:37Z</time>
      </trkpt>
      <trkpt lat="44.43112" lon="5.69824">
        <ele>809</ele>
        <time>2010-04-30T13:24:23Z</time>
      </trkpt>
      <trkpt lat="44.43128" lon="5.69809">
        <ele>817</ele>
        <time>2010-04-30T13:24:09Z</time>
      </trkpt>
      <trkpt lat="44.43144" lon="5.69796">
        <ele>814</ele>
        <time>2010-04-30T13:23:55Z</time>
      </trkpt>
      <trkpt lat="44.4316" lon="5.69782">
        <ele>817</ele>
        <time>2010-04-30T13:23:41Z</time>
      </trkpt>
      <trkpt lat="44.43175" lon="5.69767">
        <ele>821</ele>
        <time>2010-04-30T13:23:27Z</time>
      </trkpt>
      <trkpt lat="44.43191" lon="5.69753">
        <ele>822</ele>
        <time>2010-04-30T13:23:13Z</time>
      </trkpt>
      <trkpt lat="44.43204" lon="5.6973">
        <ele>822</ele>
        <time>2010-04-30T13:22:59Z</time>
      </trkpt>
      <trkpt lat="44.43213" lon="5.69708">
        <ele>827</ele>
        <time>2010-04-30T13:22:45Z</time>
      </trkpt>
      <trkpt lat="44.43218" lon="5.69684">
        <ele>829</ele>
        <time>2010-04-30T13:22:31Z</time>
      </trkpt>
      <trkpt lat="44.43224" lon="5.69662">
        <ele>829</ele>
        <time>2010-04-30T13:22:17Z</time>
      </trkpt>
      <trkpt lat="44.43236" lon="5.69642">
        <ele>831</ele>
        <time>2010-04-30T13:22:03Z</time>
      </trkpt>
      <trkpt lat="44.43249" lon="5.69621">
        <ele>835</ele>
        <time>2010-04-30T13:21:49Z</time>
      </trkpt>
      <trkpt lat="44.43256" lon="5.69599">
        <ele>840</ele>
        <time>2010-04-30T13:21:35Z</time>
      </trkpt>
      <trkpt lat="44.43269" lon="5.69579">
        <ele>843</ele>
        <time>2010-04-30T13:21:21Z</time>
      </trkpt>
      <trkpt lat="44.4328" lon="5.69557">
        <ele>846</ele>
        <time>2010-04-30T13:21:07Z</time>
      </trkpt>
      <trkpt lat="44.43289" lon="5.6954">
        <ele>847</ele>
        <time>2010-04-30T13:20:53Z</time>
      </trkpt>
      <trkpt lat="44.433" lon="5.69527">
        <ele>848</ele>
        <time>2010-04-30T13:20:39Z</time>
      </trkpt>
      <trkpt lat="44.43317" lon="5.69512">
        <ele>848</ele>
        <time>2010-04-30T13:20:25Z</time>
      </trkpt>
      <trkpt lat="44.43333" lon="5.69501">
        <ele>851</ele>
        <time>2010-04-30T13:20:11Z</time>
      </trkpt>
      <trkpt lat="44.43351" lon="5.6949">
        <ele>855</ele>
        <time>2010-04-30T13:19:57Z</time>
      </trkpt>
      <trkpt lat="44.4337" lon="5.6948">
        <ele>854</ele>
        <time>2010-04-30T13:19:43Z</time>
      </trkpt>
      <trkpt lat="44.43387" lon="5.69472">
        <ele>855</ele>
        <time>2010-04-30T13:19:29Z</time>
      </trkpt>
      <trkpt lat="44.43407" lon="5.6947">
        <ele>861</ele>
        <time>2010-04-30T13:19:15Z</time>
      </trkpt>
      <trkpt lat="44.43426" lon="5.69462">
        <ele>861</ele>
        <time>2010-04-30T13:19:01Z</time>
      </trkpt>
      <trkpt lat="44.43444" lon="5.69451">
        <ele>860</ele>
        <time>2010-04-30T13:18:47Z</time>
      </trkpt>
      <trkpt lat="44.43465" lon="5.69442">
        <ele>865</ele>
        <time>2010-04-30T13:18:33Z</time>
      </trkpt>
      <trkpt lat="44.43482" lon="5.69427">
        <ele>866</ele>
        <time>2010-04-30T13:18:19Z</time>
      </trkpt>
      <trkpt lat="44.43496" lon="5.69405">
        <ele>868</ele>
        <time>2010-04-30T13:18:05Z</time>
      </trkpt>
      <trkpt lat="44.43504" lon="5.69382">
        <ele>869</ele>
        <time>2010-04-30T13:17:51Z</time>
      </trkpt>
      <trkpt lat="44.43511" lon="5.69357">
        <ele>874</ele>
        <time>2010-04-30T13:17:37Z</time>
      </trkpt>
      <trkpt lat="44.43521" lon="5.69336">
        <ele>874</ele>
        <time>2010-04-30T13:17:23Z</time>
      </trkpt>
      <trkpt lat="44.43537" lon="5.69319">
        <ele>877</ele>
        <time>2010-04-30T13:17:09Z</time>
      </trkpt>
      <trkpt lat="44.43548" lon="5.69296">
        <ele>879</ele>
        <time>2010-04-30T13:16:55Z</time>
      </trkpt>
      <trkpt lat="44.43561" lon="5.69272">
        <ele>885</ele>
        <time>2010-04-30T13:16:41Z</time>
      </trkpt>
      <trkpt lat="44.43562" lon="5.69247">
        <ele>884</ele>
        <time>2010-04-30T13:16:27Z</time>
      </trkpt>
      <trkpt lat="44.43562" lon="5.69222">
        <ele>888</ele>
        <time>2010-04-30T13:16:13Z</time>
      </trkpt>
      <trkpt lat="44.43568" lon="5.69203">
        <ele>890</ele>
        <time>2010-04-30T13:15:59Z</time>
      </trkpt>
      <trkpt lat="44.43577" lon="5.69228">
        <ele>891</ele>
        <time>2010-04-30T13:15:45Z</time>
      </trkpt>
      <trkpt lat="44.43586" lon="5.6925">
        <ele>892</ele>
        <time>2010-04-30T13:15:31Z</time>
      </trkpt>
      <trkpt lat="44.43588" lon="5.69277">
        <ele>896</ele>
        <time>2010-04-30T13:15:17Z</time>
      </trkpt>
      <trkpt lat="44.43583" lon="5.69303">
        <ele>899</ele>
        <time>2010-04-30T13:15:03Z</time>
      </trkpt>
      <trkpt lat="44.4358" lon="5.69331">
        <ele>895</ele>
        <time>2010-04-30T13:14:49Z</time>
      </trkpt>
      <trkpt lat="44.43581" lon="5.69361">
        <ele>896</ele>
        <time>2010-04-30T13:14:35Z</time>
      </trkpt>
      <trkpt lat="44.43577" lon="5.69387">
        <ele>901</ele>
        <time>2010-04-30T13:14:21Z</time>
      </trkpt>
      <trkpt lat="44.43587" lon="5.69409">
        <ele>903</ele>
        <time>2010-04-30T13:14:07Z</time>
      </trkpt>
      <trkpt lat="44.43606" lon="5.69401">
        <ele>902</ele>
        <time>2010-04-30T13:13:53Z</time>
      </trkpt>
      <trkpt lat="44.43614" lon="5.69376">
        <ele>904</ele>
        <time>2010-04-30T13:13:39Z</time>
      </trkpt>
      <trkpt lat="44.43614" lon="5.69351">
        <ele>908</ele>
        <time>2010-04-30T13:13:25Z</time>
      </trkpt>
      <trkpt lat="44.43625" lon="5.69328">
        <ele>908</ele>
        <time>2010-04-30T13:13:11Z</time>
      </trkpt>
      <trkpt lat="44.43638" lon="5.69307">
        <ele>912</ele>
        <time>2010-04-30T13:12:57Z</time>
      </trkpt>
      <trkpt lat="44.4365" lon="5.69287">
        <ele>913</ele>
        <time>2010-04-30T13:12:43Z</time>
      </trkpt>
      <trkpt lat="44.43658" lon="5.69263">
        <ele>913</ele>
        <time>2010-04-30T13:12:29Z</time>
      </trkpt>
      <trkpt lat="44.43668" lon="5.69234">
        <ele>920</ele>
        <time>2010-04-30T13:12:15Z</time>
      </trkpt>
      <trkpt lat="44.43676" lon="5.69208">
        <ele>919</ele>
        <time>2010-04-30T13:12:01Z</time>
      </trkpt>
      <trkpt lat="44.43685" lon="5.69182">
        <ele>922</ele>
        <time>2010-04-30T13:11:47Z</time>
      </trkpt>
      <trkpt lat="44.43696" lon="5.69161">
        <ele>927</ele>
        <time>2010-04-30T13:11:33Z</time>
      </trkpt>
      <trkpt lat="44.43706" lon="5.69138">
        <ele>926</ele>
        <time>2010-04-30T13:11:19Z</time>
      </trkpt>
      <trkpt lat="44.43714" lon="5.69111">
        <ele>927</ele>
        <time>2010-04-30T13:11:05Z</time>
      </trkpt>
      <trkpt lat="44.43707" lon="5.69086">
        <ele>931</ele>
        <time>2010-04-30T13:10:51Z</time>
      </trkpt>
      <trkpt lat="44.43708" lon="5.69064">
        <ele>932</ele>
        <time>2010-04-30T13:10:37Z</time>
      </trkpt>
      <trkpt lat="44.43723" lon="5.69083">
        <ele>934</ele>
        <time>2010-04-30T13:10:23Z</time>
      </trkpt>
      <trkpt lat="44.4373" lon="5.69108">
        <ele>934</ele>
        <time>2010-04-30T13:10:09Z</time>
      </trkpt>
      <trkpt lat="44.43736" lon="5.69134">
        <ele>937</ele>
        <time>2010-04-30T13:09:55Z</time>
      </trkpt>
      <trkpt lat="44.43738" lon="5.69161">
        <ele>940</ele>
        <time>2010-04-30T13:09:41Z</time>
      </trkpt>
      <trkpt lat="44.43742" lon="5.69191">
        <ele>940</ele>
        <time>2010-04-30T13:09:27Z</time>
      </trkpt>
      <trkpt lat="44.43758" lon="5.69185">
        <ele>943</ele>
        <time>2010-04-30T13:09:13Z</time>
      </trkpt>
      <trkpt lat="44.4377" lon="5.69162">
        <ele>946</ele>
        <time>2010-04-30T13:08:59Z</time>
      </trkpt>
      <trkpt lat="44.4378" lon="5.69138">
        <ele>947</ele>
        <time>2010-04-30T13:08:45Z</time>
      </trkpt>
      <trkpt lat="44.43793" lon="5.69115">
        <ele>952</ele>
        <time>2010-04-30T13:08:31Z</time>
      </trkpt>
      <trkpt lat="44.43807" lon="5.69093">
        <ele>950</ele>
        <time>2010-04-30T13:08:17Z</time>
      </trkpt>
      <trkpt lat="44.43819" lon="5.69071">
        <ele>954</ele>
        <time>2010-04-30T13:08:03Z</time>
      </trkpt>
      <trkpt lat="44.43821" lon="5.69045">
        <ele>954</ele>
        <time>2010-04-30T13:07:49Z</time>
      </trkpt>
      <trkpt lat="44.43832" lon="5.69025">
        <ele>959</ele>
        <time>2010-04-30T13:07:35Z</time>
      </trkpt>
      <trkpt lat="44.43845" lon="5.69042">
        <ele>961</ele>
        <time>2010-04-30T13:07:21Z</time>
      </trkpt>
      <trkpt lat="44.43841" lon="5.69066">
        <ele>963</ele>
        <time>2010-04-30T13:07:07Z</time>
      </trkpt>
      <trkpt lat="44.43843" lon="5.6909">
        <ele>961</ele>
        <time>2010-04-30T13:06:53Z</time>
      </trkpt>
      <trkpt lat="44.43842" lon="5.69116">
        <ele>961</ele>
        <time>2010-04-30T13:06:39Z</time>
      </trkpt>
      <trkpt lat="44.43828" lon="5.69121">
        <ele>966</ele>
        <time>2010-04-30T13:06:25Z</time>
      </trkpt>
      <trkpt lat="44.43831" lon="5.69125">
        <ele>1017.2</ele>
      </trkpt>
      <trkpt lat="44.4381" lon="5.69224">
        <ele>1020.1</ele>
      </trkpt>
      <trkpt lat="44.43777" lon="5.69341">
        <ele>1023.3</ele>
      </trkpt>
      <trkpt lat="44.43787" lon="5.69386">
        <ele>1029.5</ele>
      </trkpt>
      <trkpt lat="44.43821" lon="5.69375">
        <ele>1029.5</ele>
      </trkpt>
      <trkpt lat="44.43817" lon="5.69376">
        <ele>1027</ele>
        <time>2010-04-30T12:33:03Z</time>
      </trkpt>
      <trkpt lat="44.43817" lon="5.69376">
        <ele>1028</ele>
        <time>2010-04-30T12:32:49Z</time>
      </trkpt>
      <trkpt lat="44.43817" lon="5.69376">
        <ele>1031</ele>
        <time>2010-04-30T12:32:35Z</time>
      </trkpt>
      <trkpt lat="44.43816" lon="5.69376">
        <ele>1032</ele>
        <time>2010-04-30T12:32:21Z</time>
      </trkpt>
      <trkpt lat="44.43821" lon="5.69373">
        <ele>1028</ele>
        <time>2010-04-30T12:32:07Z</time>
      </trkpt>
      <trkpt lat="44.43822" lon="5.69372">
        <ele>1030</ele>
        <time>2010-04-30T12:31:53Z</time>
      </trkpt>
      <trkpt lat="44.43825" lon="5.69378">
        <ele>1029</ele>
        <time>2010-04-30T12:31:39Z</time>
      </trkpt>
      <trkpt lat="44.43824" lon="5.69377">
        <ele>1026</ele>
        <time>2010-04-30T12:31:25Z</time>
      </trkpt>
      <trkpt lat="44.43823" lon="5.69377">
        <ele>1030</ele>
        <time>2010-04-30T12:31:11Z</time>
      </trkpt>
      <trkpt lat="44.43823" lon="5.69377">
        <ele>1029</ele>
        <time>2010-04-30T12:30:57Z</time>
      </trkpt>
      <trkpt lat="44.43825" lon="5.69375">
        <ele>1029</ele>
        <time>2010-04-30T12:30:43Z</time>
      </trkpt>
      <trkpt lat="44.43825" lon="5.69375">
        <ele>1031</ele>
        <time>2010-04-30T12:30:29Z</time>
      </trkpt>
      <trkpt lat="44.43826" lon="5.69371">
        <ele>1032</ele>
        <time>2010-04-30T12:30:15Z</time>
      </trkpt>
      <trkpt lat="44.43844" lon="5.69363">
        <ele>1030</ele>
        <time>2010-04-30T12:30:01Z</time>
      </trkpt>
      <trkpt lat="44.43862" lon="5.69362">
        <ele>1032</ele>
        <time>2010-04-30T12:29:47Z</time>
      </trkpt>
      <trkpt lat="44.4388" lon="5.69368">
        <ele>1027</ele>
        <time>2010-04-30T12:29:33Z</time>
      </trkpt>
      <trkpt lat="44.43897" lon="5.69363">
        <ele>1028</ele>
        <time>2010-04-30T12:29:19Z</time>
      </trkpt>
      <trkpt lat="44.4391" lon="5.69352">
        <ele>1026</ele>
        <time>2010-04-30T12:29:05Z</time>
      </trkpt>
      <trkpt lat="44.43927" lon="5.69345">
        <ele>1028</ele>
        <time>2010-04-30T12:28:51Z</time>
      </trkpt>
      <trkpt lat="44.43944" lon="5.6934">
        <ele>1029</ele>
        <time>2010-04-30T12:28:37Z</time>
      </trkpt>
      <trkpt lat="44.43961" lon="5.69335">
        <ele>1024</ele>
        <time>2010-04-30T12:28:23Z</time>
      </trkpt>
      <trkpt lat="44.43977" lon="5.69326">
        <ele>1025</ele>
        <time>2010-04-30T12:28:09Z</time>
      </trkpt>
      <trkpt lat="44.43993" lon="5.6932">
        <ele>1023</ele>
        <time>2010-04-30T12:27:55Z</time>
      </trkpt>
      <trkpt lat="44.44008" lon="5.69313">
        <ele>1024</ele>
        <time>2010-04-30T12:27:41Z</time>
      </trkpt>
      <trkpt lat="44.44025" lon="5.69305">
        <ele>1020</ele>
        <time>2010-04-30T12:27:27Z</time>
      </trkpt>
      <trkpt lat="44.44043" lon="5.69299">
        <ele>1022</ele>
        <time>2010-04-30T12:27:13Z</time>
      </trkpt>
      <trkpt lat="44.4406" lon="5.69294">
        <ele>1020</ele>
        <time>2010-04-30T12:26:59Z</time>
      </trkpt>
      <trkpt lat="44.44079" lon="5.69288">
        <ele>1016</ele>
        <time>2010-04-30T12:26:45Z</time>
      </trkpt>
      <trkpt lat="44.44095" lon="5.69275">
        <ele>1017</ele>
        <time>2010-04-30T12:26:31Z</time>
      </trkpt>
      <trkpt lat="44.4411" lon="5.69263">
        <ele>1015</ele>
        <time>2010-04-30T12:26:17Z</time>
      </trkpt>
      <trkpt lat="44.44125" lon="5.69251">
        <ele>1017</ele>
        <time>2010-04-30T12:26:03Z</time>
      </trkpt>
      <trkpt lat="44.44138" lon="5.69237">
        <ele>1015</ele>
        <time>2010-04-30T12:25:49Z</time>
      </trkpt>
      <trkpt lat="44.44146" lon="5.69219">
        <ele>1014</ele>
        <time>2010-04-30T12:25:35Z</time>
      </trkpt>
      <trkpt lat="44.4416" lon="5.6922">
        <ele>1010</ele>
        <time>2010-04-30T12:25:21Z</time>
      </trkpt>
      <trkpt lat="44.44177" lon="5.69217">
        <ele>1008</ele>
        <time>2010-04-30T12:25:07Z</time>
      </trkpt>
      <trkpt lat="44.44191" lon="5.69207">
        <ele>1009</ele>
        <time>2010-04-30T12:24:53Z</time>
      </trkpt>
      <trkpt lat="44.44199" lon="5.69195">
        <ele>1008</ele>
        <time>2010-04-30T12:24:39Z</time>
      </trkpt>
      <trkpt lat="44.44214" lon="5.69178">
        <ele>1005</ele>
        <time>2010-04-30T12:24:25Z</time>
      </trkpt>
      <trkpt lat="44.44225" lon="5.69168">
        <ele>1004</ele>
        <time>2010-04-30T12:24:11Z</time>
      </trkpt>
      <trkpt lat="44.44237" lon="5.69157">
        <ele>1002</ele>
        <time>2010-04-30T12:23:57Z</time>
      </trkpt>
      <trkpt lat="44.44251" lon="5.6914">
        <ele>1002</ele>
        <time>2010-04-30T12:23:43Z</time>
      </trkpt>
      <trkpt lat="44.4426" lon="5.69124">
        <ele>999</ele>
        <time>2010-04-30T12:23:29Z</time>
      </trkpt>
      <trkpt lat="44.44268" lon="5.69102">
        <ele>998</ele>
        <time>2010-04-30T12:23:15Z</time>
      </trkpt>
      <trkpt lat="44.4428" lon="5.69087">
        <ele>999</ele>
        <time>2010-04-30T12:23:01Z</time>
      </trkpt>
      <trkpt lat="44.44293" lon="5.69077">
        <ele>996</ele>
        <time>2010-04-30T12:22:47Z</time>
      </trkpt>
      <trkpt lat="44.44298" lon="5.69072">
        <ele>997</ele>
        <time>2010-04-30T12:22:33Z</time>
      </trkpt>
      <trkpt lat="44.44295" lon="5.69071">
        <ele>989</ele>
        <time>2010-04-30T12:22:19Z</time>
      </trkpt>
      <trkpt lat="44.44295" lon="5.69071">
        <ele>991</ele>
        <time>2010-04-30T12:22:05Z</time>
      </trkpt>
      <trkpt lat="44.44295" lon="5.69068">
        <ele>994</ele>
        <time>2010-04-30T12:21:51Z</time>
      </trkpt>
      <trkpt lat="44.44297" lon="5.69063">
        <ele>993</ele>
        <time>2010-04-30T12:21:37Z</time>
      </trkpt>
      <trkpt lat="44.44305" lon="5.69038">
        <ele>994</ele>
        <time>2010-04-30T12:21:23Z</time>
      </trkpt>
      <trkpt lat="44.44328" lon="5.69019">
        <ele>991</ele>
        <time>2010-04-30T12:21:09Z</time>
      </trkpt>
      <trkpt lat="44.44356" lon="5.69001">
        <ele>990</ele>
        <time>2010-04-30T12:20:55Z</time>
      </trkpt>
      <trkpt lat="44.44385" lon="5.68977">
        <ele>987</ele>
        <time>2010-04-30T12:20:41Z</time>
      </trkpt>
      <trkpt lat="44.44405" lon="5.68951">
        <ele>982</ele>
        <time>2010-04-30T12:20:27Z</time>
      </trkpt>
      <trkpt lat="44.44418" lon="5.68932">
        <ele>980</ele>
        <time>2010-04-30T12:20:13Z</time>
      </trkpt>
      <trkpt lat="44.4443" lon="5.68911">
        <ele>983</ele>
        <time>2010-04-30T12:19:59Z</time>
      </trkpt>
      <trkpt lat="44.44444" lon="5.68888">
        <ele>980</ele>
        <time>2010-04-30T12:19:45Z</time>
      </trkpt>
      <trkpt lat="44.4446" lon="5.68869">
        <ele>979</ele>
        <time>2010-04-30T12:19:31Z</time>
      </trkpt>
      <trkpt lat="44.44474" lon="5.68848">
        <ele>978</ele>
        <time>2010-04-30T12:19:17Z</time>
      </trkpt>
      <trkpt lat="44.44486" lon="5.68826">
        <ele>977</ele>
        <time>2010-04-30T12:19:03Z</time>
      </trkpt>
      <trkpt lat="44.44496" lon="5.68803">
        <ele>981</ele>
        <time>2010-04-30T12:18:49Z</time>
      </trkpt>
      <trkpt lat="44.44508" lon="5.68784">
        <ele>979</ele>
        <time>2010-04-30T12:18:35Z</time>
      </trkpt>
      <trkpt lat="44.44518" lon="5.68765">
        <ele>981</ele>
        <time>2010-04-30T12:18:21Z</time>
      </trkpt>
      <trkpt lat="44.44525" lon="5.68745">
        <ele>977</ele>
        <time>2010-04-30T12:18:07Z</time>
      </trkpt>
      <trkpt lat="44.44527" lon="5.68722">
        <ele>977</ele>
        <time>2010-04-30T12:17:53Z</time>
      </trkpt>
      <trkpt lat="44.44528" lon="5.68698">
        <ele>976</ele>
        <time>2010-04-30T12:17:39Z</time>
      </trkpt>
      <trkpt lat="44.44531" lon="5.68675">
        <ele>969</ele>
        <time>2010-04-30T12:17:25Z</time>
      </trkpt>
      <trkpt lat="44.44534" lon="5.68655">
        <ele>969</ele>
        <time>2010-04-30T12:17:11Z</time>
      </trkpt>
      <trkpt lat="44.44536" lon="5.68631">
        <ele>968</ele>
        <time>2010-04-30T12:16:57Z</time>
      </trkpt>
      <trkpt lat="44.44532" lon="5.68615">
        <ele>962</ele>
        <time>2010-04-30T12:16:43Z</time>
      </trkpt>
      <trkpt lat="44.44543" lon="5.68573">
        <ele>961</ele>
        <time>2010-04-30T12:16:29Z</time>
      </trkpt>
      <trkpt lat="44.44575" lon="5.68557">
        <ele>955</ele>
        <time>2010-04-30T12:16:15Z</time>
      </trkpt>
      <trkpt lat="44.44606" lon="5.68558">
        <ele>947</ele>
        <time>2010-04-30T12:16:01Z</time>
      </trkpt>
      <trkpt lat="44.44626" lon="5.68556">
        <ele>948</ele>
        <time>2010-04-30T12:15:47Z</time>
      </trkpt>
      <trkpt lat="44.44644" lon="5.68549">
        <ele>949</ele>
        <time>2010-04-30T12:15:33Z</time>
      </trkpt>
      <trkpt lat="44.44661" lon="5.68539">
        <ele>947</ele>
        <time>2010-04-30T12:15:19Z</time>
      </trkpt>
      <trkpt lat="44.44674" lon="5.68526">
        <ele>948</ele>
        <time>2010-04-30T12:15:05Z</time>
      </trkpt>
      <trkpt lat="44.44691" lon="5.68517">
        <ele>949</ele>
        <time>2010-04-30T12:14:51Z</time>
      </trkpt>
      <trkpt lat="44.44706" lon="5.68511">
        <ele>943</ele>
        <time>2010-04-30T12:14:37Z</time>
      </trkpt>
      <trkpt lat="44.44721" lon="5.68501">
        <ele>940</ele>
        <time>2010-04-30T12:14:23Z</time>
      </trkpt>
      <trkpt lat="44.44735" lon="5.68486">
        <ele>939</ele>
        <time>2010-04-30T12:14:09Z</time>
      </trkpt>
      <trkpt lat="44.44747" lon="5.6847">
        <ele>941</ele>
        <time>2010-04-30T12:13:55Z</time>
      </trkpt>
      <trkpt lat="44.44758" lon="5.68454">
        <ele>936</ele>
        <time>2010-04-30T12:13:41Z</time>
      </trkpt>
      <trkpt lat="44.44765" lon="5.68433">
        <ele>930</ele>
        <time>2010-04-30T12:13:27Z</time>
      </trkpt>
      <trkpt lat="44.44776" lon="5.68416">
        <ele>932</ele>
        <time>2010-04-30T12:13:13Z</time>
      </trkpt>
      <trkpt lat="44.44791" lon="5.68411">
        <ele>924</ele>
        <time>2010-04-30T12:12:59Z</time>
      </trkpt>
      <trkpt lat="44.44805" lon="5.68414">
        <ele>929</ele>
        <time>2010-04-30T12:12:45Z</time>
      </trkpt>
      <trkpt lat="44.4482" lon="5.68417">
        <ele>928</ele>
        <time>2010-04-30T12:12:31Z</time>
      </trkpt>
      <trkpt lat="44.44832" lon="5.68408">
        <ele>923</ele>
        <time>2010-04-30T12:12:17Z</time>
      </trkpt>
      <trkpt lat="44.44841" lon="5.68392">
        <ele>921</ele>
        <time>2010-04-30T12:12:03Z</time>
      </trkpt>
      <trkpt lat="44.44853" lon="5.68373">
        <ele>915</ele>
        <time>2010-04-30T12:11:49Z</time>
      </trkpt>
      <trkpt lat="44.44866" lon="5.68365">
        <ele>912</ele>
        <time>2010-04-30T12:11:35Z</time>
      </trkpt>
      <trkpt lat="44.44882" lon="5.68365">
        <ele>907</ele>
        <time>2010-04-30T12:11:21Z</time>
      </trkpt>
      <trkpt lat="44.44891" lon="5.68373">
        <ele>907</ele>
        <time>2010-04-30T12:11:07Z</time>
      </trkpt>
      <trkpt lat="44.44897" lon="5.68396">
        <ele>904</ele>
        <time>2010-04-30T12:10:53Z</time>
      </trkpt>
      <trkpt lat="44.44908" lon="5.68415">
        <ele>900</ele>
        <time>2010-04-30T12:10:39Z</time>
      </trkpt>
      <trkpt lat="44.44921" lon="5.68426">
        <ele>901</ele>
        <time>2010-04-30T12:10:25Z</time>
      </trkpt>
      <trkpt lat="44.44938" lon="5.6843">
        <ele>902</ele>
        <time>2010-04-30T12:10:11Z</time>
      </trkpt>
      <trkpt lat="44.44955" lon="5.68436">
        <ele>898</ele>
        <time>2010-04-30T12:09:57Z</time>
      </trkpt>
      <trkpt lat="44.44972" lon="5.68443">
        <ele>899</ele>
        <time>2010-04-30T12:09:43Z</time>
      </trkpt>
      <trkpt lat="44.44984" lon="5.68458">
        <ele>900</ele>
        <time>2010-04-30T12:09:29Z</time>
      </trkpt>
      <trkpt lat="44.4499" lon="5.6848">
        <ele>903</ele>
        <time>2010-04-30T12:09:15Z</time>
      </trkpt>
      <trkpt lat="44.44998" lon="5.68503">
        <ele>898</ele>
        <time>2010-04-30T12:09:01Z</time>
      </trkpt>
      <trkpt lat="44.45003" lon="5.68523">
        <ele>900</ele>
        <time>2010-04-30T12:08:47Z</time>
      </trkpt>
      <trkpt lat="44.45008" lon="5.68542">
        <ele>898</ele>
        <time>2010-04-30T12:08:33Z</time>
      </trkpt>
      <trkpt lat="44.45009" lon="5.68563">
        <ele>899</ele>
        <time>2010-04-30T12:08:19Z</time>
      </trkpt>
      <trkpt lat="44.45013" lon="5.68582">
        <ele>903</ele>
        <time>2010-04-30T12:08:05Z</time>
      </trkpt>
      <trkpt lat="44.45014" lon="5.686">
        <ele>898</ele>
        <time>2010-04-30T12:07:51Z</time>
      </trkpt>
      <trkpt lat="44.45019" lon="5.68624">
        <ele>890</ele>
        <time>2010-04-30T12:07:37Z</time>
      </trkpt>
      <trkpt lat="44.45025" lon="5.68643">
        <ele>888</ele>
        <time>2010-04-30T12:07:23Z</time>
      </trkpt>
      <trkpt lat="44.45017" lon="5.68677">
        <ele>887</ele>
        <time>2010-04-30T12:07:09Z</time>
      </trkpt>
      <trkpt lat="44.44995" lon="5.6872">
        <ele>880</ele>
        <time>2010-04-30T12:06:55Z</time>
      </trkpt>
      <trkpt lat="44.44974" lon="5.68767">
        <ele>880</ele>
        <time>2010-04-30T12:06:41Z</time>
      </trkpt>
      <trkpt lat="44.44959" lon="5.6882">
        <ele>874</ele>
        <time>2010-04-30T12:06:27Z</time>
      </trkpt>
      <trkpt lat="44.44962" lon="5.68862">
        <ele>873</ele>
        <time>2010-04-30T12:06:13Z</time>
      </trkpt>
      <trkpt lat="44.44948" lon="5.68892">
        <ele>876</ele>
        <time>2010-04-30T12:05:59Z</time>
      </trkpt>
      <trkpt lat="44.44931" lon="5.68938">
        <ele>872</ele>
        <time>2010-04-30T12:05:45Z</time>
      </trkpt>
      <trkpt lat="44.44933" lon="5.68987">
        <ele>866</ele>
        <time>2010-04-30T12:05:31Z</time>
      </trkpt>
      <trkpt lat="44.44971" lon="5.69008">
        <ele>863</ele>
        <time>2010-04-30T12:05:17Z</time>
      </trkpt>
      <trkpt lat="44.4498" lon="5.69043">
        <ele>861</ele>
        <time>2010-04-30T12:05:03Z</time>
      </trkpt>
      <trkpt lat="44.44976" lon="5.69066">
        <ele>859</ele>
        <time>2010-04-30T12:04:49Z</time>
      </trkpt>
      <trkpt lat="44.44968" lon="5.69087">
        <ele>852</ele>
        <time>2010-04-30T12:04:35Z</time>
      </trkpt>
      <trkpt lat="44.44958" lon="5.6911">
        <ele>854</ele>
        <time>2010-04-30T12:04:21Z</time>
      </trkpt>
      <trkpt lat="44.44947" lon="5.69132">
        <ele>852</ele>
        <time>2010-04-30T12:04:07Z</time>
      </trkpt>
      <trkpt lat="44.44939" lon="5.69152">
        <ele>847</ele>
        <time>2010-04-30T12:03:53Z</time>
      </trkpt>
      <trkpt lat="44.44932" lon="5.69172">
        <ele>847</ele>
        <time>2010-04-30T12:03:39Z</time>
      </trkpt>
      <trkpt lat="44.44925" lon="5.69191">
        <ele>848</ele>
        <time>2010-04-30T12:03:25Z</time>
      </trkpt>
      <trkpt lat="44.4492" lon="5.69213">
        <ele>845</ele>
        <time>2010-04-30T12:03:11Z</time>
      </trkpt>
      <trkpt lat="44.44913" lon="5.69233">
        <ele>845</ele>
        <time>2010-04-30T12:02:57Z</time>
      </trkpt>
      <trkpt lat="44.44905" lon="5.69252">
        <ele>842</ele>
        <time>2010-04-30T12:02:43Z</time>
      </trkpt>
      <trkpt lat="44.44896" lon="5.69273">
        <ele>840</ele>
        <time>2010-04-30T12:02:29Z</time>
      </trkpt>
      <trkpt lat="44.44891" lon="5.69294">
        <ele>839</ele>
        <time>2010-04-30T12:02:15Z</time>
      </trkpt>
      <trkpt lat="44.44885" lon="5.69315">
        <ele>836</ele>
        <time>2010-04-30T12:02:01Z</time>
      </trkpt>
      <trkpt lat="44.44879" lon="5.69336">
        <ele>833</ele>
        <time>2010-04-30T12:01:47Z</time>
      </trkpt>
      <trkpt lat="44.44872" lon="5.69356">
        <ele>836</ele>
        <time>2010-04-30T12:01:33Z</time>
      </trkpt>
      <trkpt lat="44.44865" lon="5.69375">
        <ele>832</ele>
        <time>2010-04-30T12:01:19Z</time>
      </trkpt>
      <trkpt lat="44.44858" lon="5.69395">
        <ele>830</ele>
        <time>2010-04-30T12:01:05Z</time>
      </trkpt>
      <trkpt lat="44.44855" lon="5.69414">
        <ele>829</ele>
        <time>2010-04-30T12:00:51Z</time>
      </trkpt>
      <trkpt lat="44.44847" lon="5.69432">
        <ele>829</ele>
        <time>2010-04-30T12:00:37Z</time>
      </trkpt>
      <trkpt lat="44.44838" lon="5.69451">
        <ele>827</ele>
        <time>2010-04-30T12:00:23Z</time>
      </trkpt>
      <trkpt lat="44.44825" lon="5.69468">
        <ele>822</ele>
        <time>2010-04-30T12:00:09Z</time>
      </trkpt>
      <trkpt lat="44.44812" lon="5.6948">
        <ele>821</ele>
        <time>2010-04-30T11:59:55Z</time>
      </trkpt>
      <trkpt lat="44.44803" lon="5.69498">
        <ele>818</ele>
        <time>2010-04-30T11:59:41Z</time>
      </trkpt>
      <trkpt lat="44.44796" lon="5.6952">
        <ele>822</ele>
        <time>2010-04-30T11:59:27Z</time>
      </trkpt>
      <trkpt lat="44.44804" lon="5.69541">
        <ele>818</ele>
        <time>2010-04-30T11:59:13Z</time>
      </trkpt>
      <trkpt lat="44.44823" lon="5.69542">
        <ele>816</ele>
        <time>2010-04-30T11:58:59Z</time>
      </trkpt>
      <trkpt lat="44.44838" lon="5.69529">
        <ele>818</ele>
        <time>2010-04-30T11:58:45Z</time>
      </trkpt>
      <trkpt lat="44.44849" lon="5.69515">
        <ele>811</ele>
        <time>2010-04-30T11:58:31Z</time>
      </trkpt>
      <trkpt lat="44.4486" lon="5.695">
        <ele>810</ele>
        <time>2010-04-30T11:58:17Z</time>
      </trkpt>
      <trkpt lat="44.44872" lon="5.69485">
        <ele>810</ele>
        <time>2010-04-30T11:58:03Z</time>
      </trkpt>
      <trkpt lat="44.44886" lon="5.6947">
        <ele>806</ele>
        <time>2010-04-30T11:57:49Z</time>
      </trkpt>
      <trkpt lat="44.44902" lon="5.69454">
        <ele>803</ele>
        <time>2010-04-30T11:57:35Z</time>
      </trkpt>
      <trkpt lat="44.44916" lon="5.69443">
        <ele>807</ele>
        <time>2010-04-30T11:57:21Z</time>
      </trkpt>
      <trkpt lat="44.4493" lon="5.69433">
        <ele>801</ele>
        <time>2010-04-30T11:57:07Z</time>
      </trkpt>
      <trkpt lat="44.44945" lon="5.69426">
        <ele>799</ele>
        <time>2010-04-30T11:56:53Z</time>
      </trkpt>
      <trkpt lat="44.44963" lon="5.69415">
        <ele>796</ele>
        <time>2010-04-30T11:56:39Z</time>
      </trkpt>
      <trkpt lat="44.44979" lon="5.69407">
        <ele>797</ele>
        <time>2010-04-30T11:56:25Z</time>
      </trkpt>
      <trkpt lat="44.44995" lon="5.69403">
        <ele>793</ele>
        <time>2010-04-30T11:56:11Z</time>
      </trkpt>
      <trkpt lat="44.45011" lon="5.69395">
        <ele>795</ele>
        <time>2010-04-30T11:55:57Z</time>
      </trkpt>
      <trkpt lat="44.45026" lon="5.6939">
        <ele>793</ele>
        <time>2010-04-30T11:55:43Z</time>
      </trkpt>
      <trkpt lat="44.4504" lon="5.69383">
        <ele>791</ele>
        <time>2010-04-30T11:55:29Z</time>
      </trkpt>
      <trkpt lat="44.45058" lon="5.69371">
        <ele>792</ele>
        <time>2010-04-30T11:55:15Z</time>
      </trkpt>
      <trkpt lat="44.45073" lon="5.69359">
        <ele>785</ele>
        <time>2010-04-30T11:55:01Z</time>
      </trkpt>
      <trkpt lat="44.45088" lon="5.69351">
        <ele>785</ele>
        <time>2010-04-30T11:54:47Z</time>
      </trkpt>
      <trkpt lat="44.451" lon="5.69342">
        <ele>785</ele>
        <time>2010-04-30T11:54:33Z</time>
      </trkpt>
      <trkpt lat="44.45116" lon="5.69335">
        <ele>784</ele>
        <time>2010-04-30T11:54:19Z</time>
      </trkpt>
      <trkpt lat="44.45132" lon="5.69328">
        <ele>782</ele>
        <time>2010-04-30T11:54:05Z</time>
      </trkpt>
      <trkpt lat="44.45149" lon="5.69322">
        <ele>780</ele>
        <time>2010-04-30T11:53:51Z</time>
      </trkpt>
      <trkpt lat="44.45166" lon="5.69313">
        <ele>777</ele>
        <time>2010-04-30T11:53:37Z</time>
      </trkpt>
      <trkpt lat="44.45182" lon="5.69303">
        <ele>776</ele>
        <time>2010-04-30T11:53:23Z</time>
      </trkpt>
      <trkpt lat="44.45197" lon="5.69294">
        <ele>776</ele>
        <time>2010-04-30T11:53:09Z</time>
      </trkpt>
      <trkpt lat="44.45211" lon="5.69295">
        <ele>770</ele>
        <time>2010-04-30T11:52:55Z</time>
      </trkpt>
      <trkpt lat="44.45226" lon="5.69296">
        <ele>771</ele>
        <time>2010-04-30T11:52:41Z</time>
      </trkpt>
      <trkpt lat="44.45243" lon="5.69293">
        <ele>769</ele>
        <time>2010-04-30T11:52:27Z</time>
      </trkpt>
      <trkpt lat="44.4526" lon="5.69288">
        <ele>769</ele>
        <time>2010-04-30T11:52:13Z</time>
      </trkpt>
      <trkpt lat="44.45276" lon="5.6928">
        <ele>764</ele>
        <time>2010-04-30T11:51:59Z</time>
      </trkpt>
      <trkpt lat="44.4529" lon="5.6927">
        <ele>763</ele>
        <time>2010-04-30T11:51:45Z</time>
      </trkpt>
      <trkpt lat="44.45304" lon="5.69259">
        <ele>768</ele>
        <time>2010-04-30T11:51:31Z</time>
      </trkpt>
      <trkpt lat="44.45322" lon="5.69246">
        <ele>762</ele>
        <time>2010-04-30T11:51:17Z</time>
      </trkpt>
      <trkpt lat="44.45349" lon="5.6922">
        <ele>759</ele>
        <time>2010-04-30T11:51:03Z</time>
      </trkpt>
      <trkpt lat="44.45364" lon="5.69206">
        <ele>753</ele>
        <time>2010-04-30T11:50:49Z</time>
      </trkpt>
      <trkpt lat="44.45384" lon="5.69176">
        <ele>752</ele>
        <time>2010-04-30T11:50:35Z</time>
      </trkpt>
      <trkpt lat="44.45401" lon="5.69161">
        <ele>750</ele>
        <time>2010-04-30T11:50:21Z</time>
      </trkpt>
      <trkpt lat="44.45413" lon="5.69147">
        <ele>747</ele>
        <time>2010-04-30T11:50:07Z</time>
      </trkpt>
      <trkpt lat="44.45418" lon="5.69155">
        <ele>743</ele>
        <time>2010-04-30T11:49:53Z</time>
      </trkpt>
      <trkpt lat="44.45411" lon="5.69175">
        <ele>742</ele>
        <time>2010-04-30T11:49:39Z</time>
      </trkpt>
      <trkpt lat="44.45403" lon="5.69197">
        <ele>744</ele>
        <time>2010-04-30T11:49:25Z</time>
      </trkpt>
      <trkpt lat="44.45395" lon="5.6922">
        <ele>738</ele>
        <time>2010-04-30T11:49:11Z</time>
      </trkpt>
      <trkpt lat="44.45387" lon="5.6924">
        <ele>740</ele>
        <time>2010-04-30T11:48:57Z</time>
      </trkpt>
      <trkpt lat="44.45376" lon="5.69259">
        <ele>737</ele>
        <time>2010-04-30T11:48:43Z</time>
      </trkpt>
      <trkpt lat="44.45363" lon="5.69275">
        <ele>735</ele>
        <time>2010-04-30T11:48:29Z</time>
      </trkpt>
      <trkpt lat="44.45348" lon="5.6929">
        <ele>734</ele>
        <time>2010-04-30T11:48:15Z</time>
      </trkpt>
      <trkpt lat="44.45324" lon="5.69312">
        <ele>728</ele>
        <time>2010-04-30T11:48:01Z</time>
      </trkpt>
      <trkpt lat="44.45305" lon="5.69318">
        <ele>729</ele>
        <time>2010-04-30T11:47:47Z</time>
      </trkpt>
      <trkpt lat="44.45324" lon="5.69317">
        <ele>725</ele>
        <time>2010-04-30T11:47:33Z</time>
      </trkpt>
      <trkpt lat="44.45359" lon="5.6932">
        <ele>729</ele>
        <time>2010-04-30T11:47:19Z</time>
      </trkpt>
      <trkpt lat="44.45395" lon="5.69324">
        <ele>726</ele>
        <time>2010-04-30T11:47:05Z</time>
      </trkpt>
      <trkpt lat="44.45416" lon="5.69326">
        <ele>726</ele>
        <time>2010-04-30T11:46:51Z</time>
      </trkpt>
      <trkpt lat="44.45421" lon="5.69323">
        <ele>716.3</ele>
      </trkpt>
      <trkpt lat="44.45427" lon="5.69327">
        <ele>716.1</ele>
      </trkpt>
      <trkpt lat="44.45467" lon="5.69338">
        <ele>718.1</ele>
      </trkpt>
      <trkpt lat="44.45472" lon="5.69348">
        <ele>729</ele>
        <time>2010-04-30T11:41:29Z</time>
      </trkpt>
      <trkpt lat="44.45504" lon="5.69357">
        <ele>728</ele>
        <time>2010-04-30T11:41:15Z</time>
      </trkpt>
      <trkpt lat="44.45528" lon="5.69346">
        <ele>726</ele>
        <time>2010-04-30T11:41:01Z</time>
      </trkpt>
      <trkpt lat="44.4554" lon="5.69348">
        <ele>729</ele>
        <time>2010-04-30T11:40:47Z</time>
      </trkpt>
      <trkpt lat="44.4556" lon="5.69338">
        <ele>729</ele>
        <time>2010-04-30T11:40:33Z</time>
      </trkpt>
      <trkpt lat="44.45582" lon="5.69327">
        <ele>729</ele>
        <time>2010-04-30T11:40:19Z</time>
      </trkpt>
      <trkpt lat="44.456" lon="5.69332">
        <ele>730</ele>
        <time>2010-04-30T11:40:05Z</time>
      </trkpt>
      <trkpt lat="44.45616" lon="5.69344">
        <ele>736</ele>
        <time>2010-04-30T11:39:51Z</time>
      </trkpt>
      <trkpt lat="44.45627" lon="5.69362">
        <ele>737</ele>
        <time>2010-04-30T11:39:37Z</time>
      </trkpt>
      <trkpt lat="44.45641" lon="5.69376">
        <ele>736</ele>
        <time>2010-04-30T11:39:23Z</time>
      </trkpt>
      <trkpt lat="44.4566" lon="5.69379">
        <ele>737</ele>
        <time>2010-04-30T11:39:09Z</time>
      </trkpt>
      <trkpt lat="44.45679" lon="5.69379">
        <ele>740</ele>
        <time>2010-04-30T11:38:55Z</time>
      </trkpt>
      <trkpt lat="44.45698" lon="5.69384">
        <ele>742</ele>
        <time>2010-04-30T11:38:41Z</time>
      </trkpt>
      <trkpt lat="44.45706" lon="5.69403">
        <ele>741</ele>
        <time>2010-04-30T11:38:27Z</time>
      </trkpt>
      <trkpt lat="44.45714" lon="5.69428">
        <ele>741</ele>
        <time>2010-04-30T11:38:13Z</time>
      </trkpt>
      <trkpt lat="44.45727" lon="5.6945">
        <ele>742</ele>
        <time>2010-04-30T11:37:59Z</time>
      </trkpt>
      <trkpt lat="44.45744" lon="5.69455">
        <ele>744</ele>
        <time>2010-04-30T11:37:45Z</time>
      </trkpt>
      <trkpt lat="44.4576" lon="5.69448">
        <ele>744</ele>
        <time>2010-04-30T11:37:31Z</time>
      </trkpt>
      <trkpt lat="44.45773" lon="5.69425">
        <ele>745</ele>
        <time>2010-04-30T11:37:17Z</time>
      </trkpt>
      <trkpt lat="44.45785" lon="5.69404">
        <ele>746</ele>
        <time>2010-04-30T11:37:03Z</time>
      </trkpt>
      <trkpt lat="44.458" lon="5.69392">
        <ele>747</ele>
        <time>2010-04-30T11:36:49Z</time>
      </trkpt>
      <trkpt lat="44.45818" lon="5.69394">
        <ele>747</ele>
        <time>2010-04-30T11:36:35Z</time>
      </trkpt>
      <trkpt lat="44.45834" lon="5.69404">
        <ele>747</ele>
        <time>2010-04-30T11:36:21Z</time>
      </trkpt>
      <trkpt lat="44.45852" lon="5.69414">
        <ele>747</ele>
        <time>2010-04-30T11:36:07Z</time>
      </trkpt>
      <trkpt lat="44.4587" lon="5.69421">
        <ele>747</ele>
        <time>2010-04-30T11:35:53Z</time>
      </trkpt>
      <trkpt lat="44.4589" lon="5.69423">
        <ele>748</ele>
        <time>2010-04-30T11:35:39Z</time>
      </trkpt>
      <trkpt lat="44.45909" lon="5.69427">
        <ele>747</ele>
        <time>2010-04-30T11:35:25Z</time>
      </trkpt>
      <trkpt lat="44.45927" lon="5.69423">
        <ele>749</ele>
        <time>2010-04-30T11:35:11Z</time>
      </trkpt>
      <trkpt lat="44.45945" lon="5.69417">
        <ele>750</ele>
        <time>2010-04-30T11:34:57Z</time>
      </trkpt>
      <trkpt lat="44.45962" lon="5.69422">
        <ele>751</ele>
        <time>2010-04-30T11:34:43Z</time>
      </trkpt>
      <trkpt lat="44.45973" lon="5.69439">
        <ele>750</ele>
        <time>2010-04-30T11:34:29Z</time>
      </trkpt>
      <trkpt lat="44.45982" lon="5.69461">
        <ele>752</ele>
        <time>2010-04-30T11:34:15Z</time>
      </trkpt>
      <trkpt lat="44.45997" lon="5.69475">
        <ele>753</ele>
        <time>2010-04-30T11:34:01Z</time>
      </trkpt>
      <trkpt lat="44.46014" lon="5.69488">
        <ele>753</ele>
        <time>2010-04-30T11:33:47Z</time>
      </trkpt>
      <trkpt lat="44.46029" lon="5.69502">
        <ele>754</ele>
        <time>2010-04-30T11:33:33Z</time>
      </trkpt>
      <trkpt lat="44.46043" lon="5.69518">
        <ele>754</ele>
        <time>2010-04-30T11:33:19Z</time>
      </trkpt>
      <trkpt lat="44.46058" lon="5.69534">
        <ele>756</ele>
        <time>2010-04-30T11:33:05Z</time>
      </trkpt>
      <trkpt lat="44.4607" lon="5.69549">
        <ele>757</ele>
        <time>2010-04-30T11:32:51Z</time>
      </trkpt>
      <trkpt lat="44.4608" lon="5.69569">
        <ele>758</ele>
        <time>2010-04-30T11:32:37Z</time>
      </trkpt>
      <trkpt lat="44.46089" lon="5.69589">
        <ele>761</ele>
        <time>2010-04-30T11:32:23Z</time>
      </trkpt>
      <trkpt lat="44.46097" lon="5.6961">
        <ele>762</ele>
        <time>2010-04-30T11:32:09Z</time>
      </trkpt>
      <trkpt lat="44.46107" lon="5.6963">
        <ele>763</ele>
        <time>2010-04-30T11:31:55Z</time>
      </trkpt>
      <trkpt lat="44.46115" lon="5.69651">
        <ele>763</ele>
        <time>2010-04-30T11:31:41Z</time>
      </trkpt>
      <trkpt lat="44.46118" lon="5.69675">
        <ele>765</ele>
        <time>2010-04-30T11:31:27Z</time>
      </trkpt>
      <trkpt lat="44.46121" lon="5.69694">
        <ele>767</ele>
        <time>2010-04-30T11:31:13Z</time>
      </trkpt>
      <trkpt lat="44.46121" lon="5.69719">
        <ele>768</ele>
        <time>2010-04-30T11:30:59Z</time>
      </trkpt>
      <trkpt lat="44.46123" lon="5.69746">
        <ele>770</ele>
        <time>2010-04-30T11:30:45Z</time>
      </trkpt>
      <trkpt lat="44.46128" lon="5.6977">
        <ele>772</ele>
        <time>2010-04-30T11:30:31Z</time>
      </trkpt>
      <trkpt lat="44.4613" lon="5.69799">
        <ele>772</ele>
        <time>2010-04-30T11:30:17Z</time>
      </trkpt>
      <trkpt lat="44.46136" lon="5.6982">
        <ele>773</ele>
        <time>2010-04-30T11:30:03Z</time>
      </trkpt>
      <trkpt lat="44.46142" lon="5.69842">
        <ele>774</ele>
        <time>2010-04-30T11:29:49Z</time>
      </trkpt>
      <trkpt lat="44.46147" lon="5.69866">
        <ele>775</ele>
        <time>2010-04-30T11:29:35Z</time>
      </trkpt>
      <trkpt lat="44.4615" lon="5.69888">
        <ele>776</ele>
        <time>2010-04-30T11:29:21Z</time>
      </trkpt>
      <trkpt lat="44.46153" lon="5.69909">
        <ele>778</ele>
        <time>2010-04-30T11:29:07Z</time>
      </trkpt>
      <trkpt lat="44.46158" lon="5.69933">
        <ele>779</ele>
        <time>2010-04-30T11:28:53Z</time>
      </trkpt>
      <trkpt lat="44.46159" lon="5.69959">
        <ele>778</ele>
        <time>2010-04-30T11:28:39Z</time>
      </trkpt>
      <trkpt lat="44.46166" lon="5.69982">
        <ele>776</ele>
        <time>2010-04-30T11:28:25Z</time>
      </trkpt>
      <trkpt lat="44.46174" lon="5.70003">
        <ele>776</ele>
        <time>2010-04-30T11:28:11Z</time>
      </trkpt>
      <trkpt lat="44.46187" lon="5.70017">
        <ele>774</ele>
        <time>2010-04-30T11:27:57Z</time>
      </trkpt>
      <trkpt lat="44.46202" lon="5.70031">
        <ele>774</ele>
        <time>2010-04-30T11:27:43Z</time>
      </trkpt>
      <trkpt lat="44.46217" lon="5.70039">
        <ele>773</ele>
        <time>2010-04-30T11:27:29Z</time>
      </trkpt>
      <trkpt lat="44.46235" lon="5.70039">
        <ele>770</ele>
        <time>2010-04-30T11:27:15Z</time>
      </trkpt>
      <trkpt lat="44.46252" lon="5.70042">
        <ele>768</ele>
        <time>2010-04-30T11:27:01Z</time>
      </trkpt>
      <trkpt lat="44.46268" lon="5.70049">
        <ele>766</ele>
        <time>2010-04-30T11:26:47Z</time>
      </trkpt>
      <trkpt lat="44.46283" lon="5.70055">
        <ele>764</ele>
        <time>2010-04-30T11:26:33Z</time>
      </trkpt>
      <trkpt lat="44.463" lon="5.70063">
        <ele>763</ele>
        <time>2010-04-30T11:26:19Z</time>
      </trkpt>
      <trkpt lat="44.46314" lon="5.70075">
        <ele>762</ele>
        <time>2010-04-30T11:26:05Z</time>
      </trkpt>
      <trkpt lat="44.46316" lon="5.70094">
        <ele>761</ele>
        <time>2010-04-30T11:25:51Z</time>
      </trkpt>
      <trkpt lat="44.46313" lon="5.70115">
        <ele>761</ele>
        <time>2010-04-30T11:25:37Z</time>
      </trkpt>
      <trkpt lat="44.46314" lon="5.70138">
        <ele>760</ele>
        <time>2010-04-30T11:25:23Z</time>
      </trkpt>
      <trkpt lat="44.46317" lon="5.70153">
        <ele>758</ele>
        <time>2010-04-30T11:25:09Z</time>
      </trkpt>
      <trkpt lat="44.46317" lon="5.70152">
        <ele>760</ele>
        <time>2010-04-30T11:24:55Z</time>
      </trkpt>
      <trkpt lat="44.46317" lon="5.70152">
        <ele>759</ele>
        <time>2010-04-30T11:24:41Z</time>
      </trkpt>
      <trkpt lat="44.46317" lon="5.70152">
        <ele>759</ele>
        <time>2010-04-30T11:24:27Z</time>
      </trkpt>
      <trkpt lat="44.46317" lon="5.70152">
        <ele>758</ele>
        <time>2010-04-30T11:24:13Z</time>
      </trkpt>
      <trkpt lat="44.46317" lon="5.70152">
        <ele>759</ele>
        <time>2010-04-30T11:23:59Z</time>
      </trkpt>
      <trkpt lat="44.46318" lon="5.70151">
        <ele>758</ele>
        <time>2010-04-30T11:23:45Z</time>
      </trkpt>
      <trkpt lat="44.46319" lon="5.70154">
        <ele>759</ele>
        <time>2010-04-30T11:23:31Z</time>
      </trkpt>
      <trkpt lat="44.46314" lon="5.70138">
        <ele>760</ele>
        <time>2010-04-30T11:23:17Z</time>
      </trkpt>
      <trkpt lat="44.46313" lon="5.70125">
        <ele>761</ele>
        <time>2010-04-30T11:23:03Z</time>
      </trkpt>
      <trkpt lat="44.46312" lon="5.70124">
        <ele>761</ele>
        <time>2010-04-30T11:22:49Z</time>
      </trkpt>
      <trkpt lat="44.46316" lon="5.70147">
        <ele>760</ele>
        <time>2010-04-30T11:22:35Z</time>
      </trkpt>
      <trkpt lat="44.46324" lon="5.70166">
        <ele>759</ele>
        <time>2010-04-30T11:22:21Z</time>
      </trkpt>
      <trkpt lat="44.4633" lon="5.70188">
        <ele>758</ele>
        <time>2010-04-30T11:22:07Z</time>
      </trkpt>
      <trkpt lat="44.46335" lon="5.70203">
        <ele>756</ele>
        <time>2010-04-30T11:21:53Z</time>
      </trkpt>
      <trkpt lat="44.46332" lon="5.70227">
        <ele>755</ele>
        <time>2010-04-30T11:21:39Z</time>
      </trkpt>
      <trkpt lat="44.4634" lon="5.7025">
        <ele>754</ele>
        <time>2010-04-30T11:21:25Z</time>
      </trkpt>
      <trkpt lat="44.46353" lon="5.70262">
        <ele>750</ele>
        <time>2010-04-30T11:21:11Z</time>
      </trkpt>
      <trkpt lat="44.46367" lon="5.70264">
        <ele>749</ele>
        <time>2010-04-30T11:20:57Z</time>
      </trkpt>
      <trkpt lat="44.46381" lon="5.70271">
        <ele>746</ele>
        <time>2010-04-30T11:20:43Z</time>
      </trkpt>
      <trkpt lat="44.46397" lon="5.70277">
        <ele>746</ele>
        <time>2010-04-30T11:20:29Z</time>
      </trkpt>
      <trkpt lat="44.46414" lon="5.70285">
        <ele>743</ele>
        <time>2010-04-30T11:20:15Z</time>
      </trkpt>
      <trkpt lat="44.46426" lon="5.70298">
        <ele>741</ele>
        <time>2010-04-30T11:20:01Z</time>
      </trkpt>
      <trkpt lat="44.46435" lon="5.70316">
        <ele>739</ele>
        <time>2010-04-30T11:19:47Z</time>
      </trkpt>
      <trkpt lat="44.46434" lon="5.70338">
        <ele>736</ele>
        <time>2010-04-30T11:19:33Z</time>
      </trkpt>
      <trkpt lat="44.46428" lon="5.70361">
        <ele>736</ele>
        <time>2010-04-30T11:19:19Z</time>
      </trkpt>
      <trkpt lat="44.4642" lon="5.70386">
        <ele>732</ele>
        <time>2010-04-30T11:19:05Z</time>
      </trkpt>
      <trkpt lat="44.46425" lon="5.7041">
        <ele>732</ele>
        <time>2010-04-30T11:18:51Z</time>
      </trkpt>
      <trkpt lat="44.46444" lon="5.70404">
        <ele>733</ele>
        <time>2010-04-30T11:18:37Z</time>
      </trkpt>
      <trkpt lat="44.46462" lon="5.70391">
        <ele>735</ele>
        <time>2010-04-30T11:18:23Z</time>
      </trkpt>
      <trkpt lat="44.46475" lon="5.70373">
        <ele>738</ele>
        <time>2010-04-30T11:18:09Z</time>
      </trkpt>
      <trkpt lat="44.46483" lon="5.70353">
        <ele>739</ele>
        <time>2010-04-30T11:17:55Z</time>
      </trkpt>
      <trkpt lat="44.465" lon="5.70347">
        <ele>742</ele>
        <time>2010-04-30T11:17:41Z</time>
      </trkpt>
      <trkpt lat="44.4652" lon="5.70357">
        <ele>743</ele>
        <time>2010-04-30T11:17:27Z</time>
      </trkpt>
      <trkpt lat="44.46535" lon="5.70372">
        <ele>744</ele>
        <time>2010-04-30T11:17:13Z</time>
      </trkpt>
      <trkpt lat="44.46549" lon="5.70392">
        <ele>746</ele>
        <time>2010-04-30T11:16:59Z</time>
      </trkpt>
      <trkpt lat="44.46559" lon="5.7041">
        <ele>745</ele>
        <time>2010-04-30T11:16:45Z</time>
      </trkpt>
      <trkpt lat="44.46569" lon="5.70427">
        <ele>744</ele>
        <time>2010-04-30T11:16:31Z</time>
      </trkpt>
      <trkpt lat="44.46581" lon="5.70443">
        <ele>744</ele>
        <time>2010-04-30T11:16:17Z</time>
      </trkpt>
      <trkpt lat="44.46595" lon="5.70459">
        <ele>743</ele>
        <time>2010-04-30T11:16:03Z</time>
      </trkpt>
      <trkpt lat="44.46608" lon="5.70477">
        <ele>745</ele>
        <time>2010-04-30T11:15:49Z</time>
      </trkpt>
      <trkpt lat="44.46621" lon="5.70492">
        <ele>744</ele>
        <time>2010-04-30T11:15:35Z</time>
      </trkpt>
      <trkpt lat="44.46633" lon="5.70512">
        <ele>742</ele>
        <time>2010-04-30T11:15:21Z</time>
      </trkpt>
      <trkpt lat="44.46645" lon="5.70532">
        <ele>742</ele>
        <time>2010-04-30T11:15:07Z</time>
      </trkpt>
      <trkpt lat="44.46655" lon="5.70555">
        <ele>741</ele>
        <time>2010-04-30T11:14:53Z</time>
      </trkpt>
      <trkpt lat="44.46675" lon="5.70577">
        <ele>741</ele>
        <time>2010-04-30T11:14:39Z</time>
      </trkpt>
      <trkpt lat="44.4669" lon="5.7059">
        <ele>738</ele>
        <time>2010-04-30T11:14:25Z</time>
      </trkpt>
      <trkpt lat="44.46704" lon="5.70603">
        <ele>739</ele>
        <time>2010-04-30T11:14:11Z</time>
      </trkpt>
      <trkpt lat="44.46719" lon="5.70617">
        <ele>736</ele>
        <time>2010-04-30T11:13:57Z</time>
      </trkpt>
      <trkpt lat="44.46734" lon="5.70626">
        <ele>733</ele>
        <time>2010-04-30T11:13:43Z</time>
      </trkpt>
      <trkpt lat="44.46744" lon="5.70629">
        <ele>735</ele>
        <time>2010-04-30T11:13:29Z</time>
      </trkpt>
      <trkpt lat="44.46752" lon="5.70646">
        <ele>735</ele>
        <time>2010-04-30T11:13:15Z</time>
      </trkpt>
      <trkpt lat="44.46758" lon="5.70654">
        <ele>737</ele>
        <time>2010-04-30T11:13:01Z</time>
      </trkpt>
      <trkpt lat="44.46768" lon="5.70663">
        <ele>741</ele>
        <time>2010-04-30T11:12:47Z</time>
      </trkpt>
      <trkpt lat="44.46781" lon="5.70665">
        <ele>741</ele>
        <time>2010-04-30T11:12:33Z</time>
      </trkpt>
      <trkpt lat="44.46788" lon="5.70668">
        <ele>740</ele>
        <time>2010-04-30T11:12:19Z</time>
      </trkpt>
      <trkpt lat="44.46788" lon="5.70668">
        <ele>740</ele>
        <time>2010-04-30T11:12:05Z</time>
      </trkpt>
      <trkpt lat="44.46788" lon="5.70668">
        <ele>741</ele>
        <time>2010-04-30T11:11:51Z</time>
      </trkpt>
      <trkpt lat="44.4679" lon="5.70669">
        <ele>741</ele>
        <time>2010-04-30T11:11:37Z</time>
      </trkpt>
      <trkpt lat="44.46798" lon="5.7065">
        <ele>743</ele>
        <time>2010-04-30T11:11:23Z</time>
      </trkpt>
      <trkpt lat="44.46807" lon="5.7063">
        <ele>744</ele>
        <time>2010-04-30T11:11:09Z</time>
      </trkpt>
      <trkpt lat="44.4684" lon="5.70612">
        <ele>745</ele>
        <time>2010-04-30T11:10:55Z</time>
      </trkpt>
      <trkpt lat="44.4688" lon="5.70602">
        <ele>742</ele>
        <time>2010-04-30T11:10:41Z</time>
      </trkpt>
      <trkpt lat="44.46916" lon="5.706">
        <ele>742</ele>
        <time>2010-04-30T11:10:27Z</time>
      </trkpt>
      <trkpt lat="44.46934" lon="5.70605">
        <ele>744</ele>
        <time>2010-04-30T11:10:13Z</time>
      </trkpt>
      <trkpt lat="44.46958" lon="5.70608">
        <ele>745</ele>
        <time>2010-04-30T11:09:59Z</time>
      </trkpt>
      <trkpt lat="44.46998" lon="5.70605">
        <ele>749</ele>
        <time>2010-04-30T11:09:45Z</time>
      </trkpt>
      <trkpt lat="44.4704" lon="5.70599">
        <ele>747</ele>
        <time>2010-04-30T11:09:31Z</time>
      </trkpt>
      <trkpt lat="44.4708" lon="5.70604">
        <ele>748</ele>
        <time>2010-04-30T11:09:17Z</time>
      </trkpt>
      <trkpt lat="44.47115" lon="5.70616">
        <ele>748</ele>
        <time>2010-04-30T11:09:03Z</time>
      </trkpt>
      <trkpt lat="44.4714" lon="5.70626">
        <ele>748</ele>
        <time>2010-04-30T11:08:49Z</time>
      </trkpt>
      <trkpt lat="44.47158" lon="5.7063">
        <ele>747</ele>
        <time>2010-04-30T11:08:35Z</time>
      </trkpt>
      <trkpt lat="44.47178" lon="5.7063">
        <ele>745</ele>
        <time>2010-04-30T11:08:21Z</time>
      </trkpt>
      <trkpt lat="44.47187" lon="5.70609">
        <ele>746</ele>
        <time>2010-04-30T11:08:07Z</time>
      </trkpt>
      <trkpt lat="44.47191" lon="5.70598">
        <ele>740.5</ele>
      </trkpt>
      <trkpt lat="44.47185" lon="5.70494">
        <ele>745.3</ele>
      </trkpt>
      <trkpt lat="44.47218" lon="5.70433">
        <ele>748.3</ele>
      </trkpt>
      <trkpt lat="44.47221" lon="5.70424">
        <ele>748.7</ele>
      </trkpt>
      <trkpt lat="44.47245" lon="5.70431">
        <ele>749.3</ele>
      </trkpt>
      <trkpt lat="44.47254" lon="5.70429">
        <ele>749.7</ele>
      </trkpt>
      <trkpt lat="44.4736" lon="5.70357">
        <ele>754.4</ele>
      </trkpt>
      <trkpt lat="44.47448" lon="5.70223">
        <ele>761.7</ele>
      </trkpt>
      <trkpt lat="44.4745" lon="5.70136">
        <ele>766.4</ele>
      </trkpt>
      <trkpt lat="44.47451" lon="5.70123">
        <ele>766.5</ele>
      </trkpt>
      <trkpt lat="44.47516" lon="5.70133">
        <ele>765.3</ele>
      </trkpt>
      <trkpt lat="44.47542" lon="5.70232">
        <ele>761.5</ele>
      </trkpt>
      <trkpt lat="44.47556" lon="5.70255">
        <ele>767</ele>
        <time>2010-04-30T10:56:55Z</time>
      </trkpt>
      <trkpt lat="44.47563" lon="5.70247">
        <ele>772</ele>
        <time>2010-04-30T10:56:41Z</time>
      </trkpt>
      <trkpt lat="44.47572" lon="5.70232">
        <ele>771</ele>
        <time>2010-04-30T10:56:27Z</time>
      </trkpt>
      <trkpt lat="44.47583" lon="5.70212">
        <ele>774</ele>
        <time>2010-04-30T10:56:13Z</time>
      </trkpt>
      <trkpt lat="44.47585" lon="5.70207">
        <ele>773</ele>
        <time>2010-04-30T10:55:59Z</time>
      </trkpt>
      <trkpt lat="44.47585" lon="5.70207">
        <ele>771</ele>
        <time>2010-04-30T10:55:45Z</time>
      </trkpt>
      <trkpt lat="44.47585" lon="5.70207">
        <ele>774</ele>
        <time>2010-04-30T10:55:31Z</time>
      </trkpt>
      <trkpt lat="44.47585" lon="5.70208">
        <ele>772</ele>
        <time>2010-04-30T10:55:17Z</time>
      </trkpt>
      <trkpt lat="44.47585" lon="5.70207">
        <ele>774</ele>
        <time>2010-04-30T10:55:03Z</time>
      </trkpt>
      <trkpt lat="44.47586" lon="5.70207">
        <ele>773</ele>
        <time>2010-04-30T10:54:49Z</time>
      </trkpt>
      <trkpt lat="44.47585" lon="5.70207">
        <ele>770</ele>
        <time>2010-04-30T10:54:35Z</time>
      </trkpt>
      <trkpt lat="44.47585" lon="5.70207">
        <ele>770</ele>
        <time>2010-04-30T10:54:21Z</time>
      </trkpt>
      <trkpt lat="44.47585" lon="5.70207">
        <ele>770</ele>
        <time>2010-04-30T10:54:07Z</time>
      </trkpt>
      <trkpt lat="44.47585" lon="5.70207">
        <ele>773</ele>
        <time>2010-04-30T10:53:53Z</time>
      </trkpt>
      <trkpt lat="44.47586" lon="5.70207">
        <ele>772</ele>
        <time>2010-04-30T10:53:39Z</time>
      </trkpt>
      <trkpt lat="44.47586" lon="5.70207">
        <ele>769</ele>
        <time>2010-04-30T10:53:25Z</time>
      </trkpt>
      <trkpt lat="44.47586" lon="5.70207">
        <ele>774</ele>
        <time>2010-04-30T10:53:11Z</time>
      </trkpt>
      <trkpt lat="44.47586" lon="5.70207">
        <ele>773</ele>
        <time>2010-04-30T10:52:57Z</time>
      </trkpt>
      <trkpt lat="44.47585" lon="5.70207">
        <ele>772</ele>
        <time>2010-04-30T10:52:43Z</time>
      </trkpt>
      <trkpt lat="44.47586" lon="5.70208">
        <ele>775</ele>
        <time>2010-04-30T10:52:29Z</time>
      </trkpt>
      <trkpt lat="44.47587" lon="5.70209">
        <ele>775</ele>
        <time>2010-04-30T10:52:15Z</time>
      </trkpt>
      <trkpt lat="44.47587" lon="5.70209">
        <ele>774</ele>
        <time>2010-04-30T10:52:01Z</time>
      </trkpt>
      <trkpt lat="44.47586" lon="5.70209">
        <ele>771</ele>
        <time>2010-04-30T10:51:47Z</time>
      </trkpt>
      <trkpt lat="44.47585" lon="5.70211">
        <ele>778</ele>
        <time>2010-04-30T10:51:33Z</time>
      </trkpt>
      <trkpt lat="44.47594" lon="5.70202">
        <ele>775</ele>
        <time>2010-04-30T10:51:19Z</time>
      </trkpt>
      <trkpt lat="44.4761" lon="5.70203">
        <ele>770</ele>
        <time>2010-04-30T10:51:05Z</time>
      </trkpt>
      <trkpt lat="44.47627" lon="5.70205">
        <ele>775</ele>
        <time>2010-04-30T10:50:51Z</time>
      </trkpt>
      <trkpt lat="44.47643" lon="5.70205">
        <ele>767</ele>
        <time>2010-04-30T10:50:37Z</time>
      </trkpt>
      <trkpt lat="44.4766" lon="5.70207">
        <ele>766</ele>
        <time>2010-04-30T10:50:23Z</time>
      </trkpt>
      <trkpt lat="44.47675" lon="5.7021">
        <ele>767</ele>
        <time>2010-04-30T10:50:09Z</time>
      </trkpt>
      <trkpt lat="44.47692" lon="5.70225">
        <ele>763</ele>
        <time>2010-04-30T10:49:55Z</time>
      </trkpt>
      <trkpt lat="44.47707" lon="5.70232">
        <ele>764</ele>
        <time>2010-04-30T10:49:41Z</time>
      </trkpt>
      <trkpt lat="44.47727" lon="5.70233">
        <ele>762</ele>
        <time>2010-04-30T10:49:27Z</time>
      </trkpt>
      <trkpt lat="44.47745" lon="5.70232">
        <ele>764</ele>
        <time>2010-04-30T10:49:13Z</time>
      </trkpt>
      <trkpt lat="44.47764" lon="5.70233">
        <ele>767</ele>
        <time>2010-04-30T10:48:59Z</time>
      </trkpt>
      <trkpt lat="44.4778" lon="5.70238">
        <ele>763</ele>
        <time>2010-04-30T10:48:45Z</time>
      </trkpt>
      <trkpt lat="44.47798" lon="5.7024">
        <ele>767</ele>
        <time>2010-04-30T10:48:31Z</time>
      </trkpt>
      <trkpt lat="44.47816" lon="5.70242">
        <ele>765</ele>
        <time>2010-04-30T10:48:17Z</time>
      </trkpt>
      <trkpt lat="44.47832" lon="5.7025">
        <ele>763</ele>
        <time>2010-04-30T10:48:03Z</time>
      </trkpt>
      <trkpt lat="44.47845" lon="5.70265">
        <ele>764</ele>
        <time>2010-04-30T10:47:49Z</time>
      </trkpt>
      <trkpt lat="44.4786" lon="5.70278">
        <ele>759</ele>
        <time>2010-04-30T10:47:35Z</time>
      </trkpt>
      <trkpt lat="44.47878" lon="5.70278">
        <ele>760</ele>
        <time>2010-04-30T10:47:21Z</time>
      </trkpt>
      <trkpt lat="44.47896" lon="5.70277">
        <ele>761</ele>
        <time>2010-04-30T10:47:07Z</time>
      </trkpt>
      <trkpt lat="44.479" lon="5.70278">
        <ele>763</ele>
        <time>2010-04-30T10:46:53Z</time>
      </trkpt>
      <trkpt lat="44.47911" lon="5.70278">
        <ele>761</ele>
        <time>2010-04-30T10:46:39Z</time>
      </trkpt>
      <trkpt lat="44.47927" lon="5.70284">
        <ele>761</ele>
        <time>2010-04-30T10:46:25Z</time>
      </trkpt>
      <trkpt lat="44.47952" lon="5.70286">
        <ele>766</ele>
        <time>2010-04-30T10:46:11Z</time>
      </trkpt>
      <trkpt lat="44.48003" lon="5.70282">
        <ele>764</ele>
        <time>2010-04-30T10:45:57Z</time>
      </trkpt>
      <trkpt lat="44.48063" lon="5.70287">
        <ele>765</ele>
        <time>2010-04-30T10:45:43Z</time>
      </trkpt>
      <trkpt lat="44.48115" lon="5.70284">
        <ele>769</ele>
        <time>2010-04-30T10:45:29Z</time>
      </trkpt>
      <trkpt lat="44.48149" lon="5.70276">
        <ele>767</ele>
        <time>2010-04-30T10:45:15Z</time>
      </trkpt>
      <trkpt lat="44.48169" lon="5.70272">
        <ele>761</ele>
        <time>2010-04-30T10:45:01Z</time>
      </trkpt>
      <trkpt lat="44.48187" lon="5.70267">
        <ele>763</ele>
        <time>2010-04-30T10:44:47Z</time>
      </trkpt>
      <trkpt lat="44.48204" lon="5.7026">
        <ele>763</ele>
        <time>2010-04-30T10:44:33Z</time>
      </trkpt>
      <trkpt lat="44.48218" lon="5.70246">
        <ele>758</ele>
        <time>2010-04-30T10:44:19Z</time>
      </trkpt>
      <trkpt lat="44.4823" lon="5.70225">
        <ele>754</ele>
        <time>2010-04-30T10:44:05Z</time>
      </trkpt>
      <trkpt lat="44.48247" lon="5.70212">
        <ele>759</ele>
        <time>2010-04-30T10:43:51Z</time>
      </trkpt>
      <trkpt lat="44.48262" lon="5.70197">
        <ele>760</ele>
        <time>2010-04-30T10:43:37Z</time>
      </trkpt>
      <trkpt lat="44.48273" lon="5.7018">
        <ele>760</ele>
        <time>2010-04-30T10:43:23Z</time>
      </trkpt>
      <trkpt lat="44.48289" lon="5.70164">
        <ele>763</ele>
        <time>2010-04-30T10:43:09Z</time>
      </trkpt>
      <trkpt lat="44.48305" lon="5.7015">
        <ele>762</ele>
        <time>2010-04-30T10:42:55Z</time>
      </trkpt>
      <trkpt lat="44.48322" lon="5.70138">
        <ele>763</ele>
        <time>2010-04-30T10:42:41Z</time>
      </trkpt>
      <trkpt lat="44.48338" lon="5.70131">
        <ele>764</ele>
        <time>2010-04-30T10:42:27Z</time>
      </trkpt>
      <trkpt lat="44.48355" lon="5.70137">
        <ele>766</ele>
        <time>2010-04-30T10:42:13Z</time>
      </trkpt>
      <trkpt lat="44.48372" lon="5.70141">
        <ele>766</ele>
        <time>2010-04-30T10:41:59Z</time>
      </trkpt>
      <trkpt lat="44.4839" lon="5.70132">
        <ele>772</ele>
        <time>2010-04-30T10:41:45Z</time>
      </trkpt>
      <trkpt lat="44.48406" lon="5.70124">
        <ele>770</ele>
        <time>2010-04-30T10:41:31Z</time>
      </trkpt>
      <trkpt lat="44.48423" lon="5.70127">
        <ele>772</ele>
        <time>2010-04-30T10:41:17Z</time>
      </trkpt>
      <trkpt lat="44.4844" lon="5.70133">
        <ele>775</ele>
        <time>2010-04-30T10:41:03Z</time>
      </trkpt>
      <trkpt lat="44.48459" lon="5.70142">
        <ele>777</ele>
        <time>2010-04-30T10:40:49Z</time>
      </trkpt>
      <trkpt lat="44.48478" lon="5.70147">
        <ele>775</ele>
        <time>2010-04-30T10:40:35Z</time>
      </trkpt>
      <trkpt lat="44.48495" lon="5.7015">
        <ele>779</ele>
        <time>2010-04-30T10:40:21Z</time>
      </trkpt>
      <trkpt lat="44.48511" lon="5.70161">
        <ele>779</ele>
        <time>2010-04-30T10:40:07Z</time>
      </trkpt>
      <trkpt lat="44.48524" lon="5.70178">
        <ele>780</ele>
        <time>2010-04-30T10:39:53Z</time>
      </trkpt>
      <trkpt lat="44.48543" lon="5.70188">
        <ele>778</ele>
        <time>2010-04-30T10:39:39Z</time>
      </trkpt>
      <trkpt lat="44.4856" lon="5.70181">
        <ele>783</ele>
        <time>2010-04-30T10:39:25Z</time>
      </trkpt>
      <trkpt lat="44.48576" lon="5.70175">
        <ele>786</ele>
        <time>2010-04-30T10:39:11Z</time>
      </trkpt>
      <trkpt lat="44.48592" lon="5.70185">
        <ele>787</ele>
        <time>2010-04-30T10:38:57Z</time>
      </trkpt>
      <trkpt lat="44.4861" lon="5.70191">
        <ele>794</ele>
        <time>2010-04-30T10:38:43Z</time>
      </trkpt>
      <trkpt lat="44.48629" lon="5.70196">
        <ele>789</ele>
        <time>2010-04-30T10:38:29Z</time>
      </trkpt>
      <trkpt lat="44.4864" lon="5.70219">
        <ele>792</ele>
        <time>2010-04-30T10:38:15Z</time>
      </trkpt>
      <trkpt lat="44.48648" lon="5.70239">
        <ele>793</ele>
        <time>2010-04-30T10:38:01Z</time>
      </trkpt>
      <trkpt lat="44.48655" lon="5.70263">
        <ele>797</ele>
        <time>2010-04-30T10:37:47Z</time>
      </trkpt>
      <trkpt lat="44.48661" lon="5.70289">
        <ele>794</ele>
        <time>2010-04-30T10:37:33Z</time>
      </trkpt>
      <trkpt lat="44.48671" lon="5.70297">
        <ele>794</ele>
        <time>2010-04-30T10:37:19Z</time>
      </trkpt>
      <trkpt lat="44.48686" lon="5.7031">
        <ele>798</ele>
        <time>2010-04-30T10:37:05Z</time>
      </trkpt>
      <trkpt lat="44.48698" lon="5.70318">
        <ele>799</ele>
        <time>2010-04-30T10:36:51Z</time>
      </trkpt>
      <trkpt lat="44.48714" lon="5.70324">
        <ele>802</ele>
        <time>2010-04-30T10:36:37Z</time>
      </trkpt>
      <trkpt lat="44.48728" lon="5.70333">
        <ele>804</ele>
        <time>2010-04-30T10:36:23Z</time>
      </trkpt>
      <trkpt lat="44.48743" lon="5.70333">
        <ele>806</ele>
        <time>2010-04-30T10:36:09Z</time>
      </trkpt>
      <trkpt lat="44.48759" lon="5.70324">
        <ele>806</ele>
        <time>2010-04-30T10:35:55Z</time>
      </trkpt>
      <trkpt lat="44.48771" lon="5.7031">
        <ele>806</ele>
        <time>2010-04-30T10:35:41Z</time>
      </trkpt>
      <trkpt lat="44.48787" lon="5.70302">
        <ele>800</ele>
        <time>2010-04-30T10:35:27Z</time>
      </trkpt>
      <trkpt lat="44.48804" lon="5.70297">
        <ele>801</ele>
        <time>2010-04-30T10:35:13Z</time>
      </trkpt>
      <trkpt lat="44.48819" lon="5.70288">
        <ele>800</ele>
        <time>2010-04-30T10:34:59Z</time>
      </trkpt>
      <trkpt lat="44.48834" lon="5.70279">
        <ele>800</ele>
        <time>2010-04-30T10:34:45Z</time>
      </trkpt>
      <trkpt lat="44.48847" lon="5.70268">
        <ele>800</ele>
        <time>2010-04-30T10:34:31Z</time>
      </trkpt>
      <trkpt lat="44.48862" lon="5.70259">
        <ele>800</ele>
        <time>2010-04-30T10:34:17Z</time>
      </trkpt>
      <trkpt lat="44.48877" lon="5.70247">
        <ele>801</ele>
        <time>2010-04-30T10:34:03Z</time>
      </trkpt>
      <trkpt lat="44.4889" lon="5.70229">
        <ele>798</ele>
        <time>2010-04-30T10:33:49Z</time>
      </trkpt>
      <trkpt lat="44.48899" lon="5.7021">
        <ele>797</ele>
        <time>2010-04-30T10:33:35Z</time>
      </trkpt>
      <trkpt lat="44.48905" lon="5.70189">
        <ele>794</ele>
        <time>2010-04-30T10:33:21Z</time>
      </trkpt>
      <trkpt lat="44.48917" lon="5.70169">
        <ele>792</ele>
        <time>2010-04-30T10:33:07Z</time>
      </trkpt>
      <trkpt lat="44.48927" lon="5.70151">
        <ele>791</ele>
        <time>2010-04-30T10:32:53Z</time>
      </trkpt>
      <trkpt lat="44.48936" lon="5.7013">
        <ele>790</ele>
        <time>2010-04-30T10:32:39Z</time>
      </trkpt>
      <trkpt lat="44.48946" lon="5.70112">
        <ele>792</ele>
        <time>2010-04-30T10:32:25Z</time>
      </trkpt>
      <trkpt lat="44.48958" lon="5.70097">
        <ele>789</ele>
        <time>2010-04-30T10:32:11Z</time>
      </trkpt>
      <trkpt lat="44.48971" lon="5.70082">
        <ele>789</ele>
        <time>2010-04-30T10:31:57Z</time>
      </trkpt>
      <trkpt lat="44.48983" lon="5.70064">
        <ele>793</ele>
        <time>2010-04-30T10:31:43Z</time>
      </trkpt>
      <trkpt lat="44.48995" lon="5.70046">
        <ele>787</ele>
        <time>2010-04-30T10:31:29Z</time>
      </trkpt>
      <trkpt lat="44.49005" lon="5.70033">
        <ele>787</ele>
        <time>2010-04-30T10:31:15Z</time>
      </trkpt>
      <trkpt lat="44.49018" lon="5.70024">
        <ele>783</ele>
        <time>2010-04-30T10:31:01Z</time>
      </trkpt>
      <trkpt lat="44.49036" lon="5.70027">
        <ele>786</ele>
        <time>2010-04-30T10:30:47Z</time>
      </trkpt>
      <trkpt lat="44.49051" lon="5.7002">
        <ele>787</ele>
        <time>2010-04-30T10:30:33Z</time>
      </trkpt>
      <trkpt lat="44.49066" lon="5.70009">
        <ele>789</ele>
        <time>2010-04-30T10:30:19Z</time>
      </trkpt>
      <trkpt lat="44.49074" lon="5.69996">
        <ele>793</ele>
        <time>2010-04-30T10:30:05Z</time>
      </trkpt>
      <trkpt lat="44.49083" lon="5.69977">
        <ele>794</ele>
        <time>2010-04-30T10:29:51Z</time>
      </trkpt>
      <trkpt lat="44.49094" lon="5.69958">
        <ele>792</ele>
        <time>2010-04-30T10:29:37Z</time>
      </trkpt>
      <trkpt lat="44.49112" lon="5.69945">
        <ele>796</ele>
        <time>2010-04-30T10:29:23Z</time>
      </trkpt>
      <trkpt lat="44.49128" lon="5.69938">
        <ele>798</ele>
        <time>2010-04-30T10:29:09Z</time>
      </trkpt>
      <trkpt lat="44.49147" lon="5.69937">
        <ele>800</ele>
        <time>2010-04-30T10:28:55Z</time>
      </trkpt>
      <trkpt lat="44.49166" lon="5.69928">
        <ele>803</ele>
        <time>2010-04-30T10:28:41Z</time>
      </trkpt>
      <trkpt lat="44.49182" lon="5.69924">
        <ele>805</ele>
        <time>2010-04-30T10:28:27Z</time>
      </trkpt>
      <trkpt lat="44.49201" lon="5.69924">
        <ele>804</ele>
        <time>2010-04-30T10:28:13Z</time>
      </trkpt>
      <trkpt lat="44.49218" lon="5.69925">
        <ele>804</ele>
        <time>2010-04-30T10:27:59Z</time>
      </trkpt>
      <trkpt lat="44.49236" lon="5.69925">
        <ele>803</ele>
        <time>2010-04-30T10:27:45Z</time>
      </trkpt>
      <trkpt lat="44.49253" lon="5.69928">
        <ele>804</ele>
        <time>2010-04-30T10:27:31Z</time>
      </trkpt>
      <trkpt lat="44.4927" lon="5.69925">
        <ele>810</ele>
        <time>2010-04-30T10:27:17Z</time>
      </trkpt>
      <trkpt lat="44.4929" lon="5.69919">
        <ele>808</ele>
        <time>2010-04-30T10:27:03Z</time>
      </trkpt>
      <trkpt lat="44.49298" lon="5.699">
        <ele>810</ele>
        <time>2010-04-30T10:26:49Z</time>
      </trkpt>
      <trkpt lat="44.49303" lon="5.69872">
        <ele>810</ele>
        <time>2010-04-30T10:26:35Z</time>
      </trkpt>
      <trkpt lat="44.49308" lon="5.69847">
        <ele>813</ele>
        <time>2010-04-30T10:26:21Z</time>
      </trkpt>
      <trkpt lat="44.49314" lon="5.69822">
        <ele>813</ele>
        <time>2010-04-30T10:26:07Z</time>
      </trkpt>
      <trkpt lat="44.49317" lon="5.69797">
        <ele>812</ele>
        <time>2010-04-30T10:25:53Z</time>
      </trkpt>
      <trkpt lat="44.49309" lon="5.69774">
        <ele>815</ele>
        <time>2010-04-30T10:25:39Z</time>
      </trkpt>
      <trkpt lat="44.49299" lon="5.69752">
        <ele>817</ele>
        <time>2010-04-30T10:25:25Z</time>
      </trkpt>
      <trkpt lat="44.49303" lon="5.69728">
        <ele>815</ele>
        <time>2010-04-30T10:25:11Z</time>
      </trkpt>
      <trkpt lat="44.49309" lon="5.69707">
        <ele>812</ele>
        <time>2010-04-30T10:24:57Z</time>
      </trkpt>
      <trkpt lat="44.49308" lon="5.69681">
        <ele>820</ele>
        <time>2010-04-30T10:24:43Z</time>
      </trkpt>
      <trkpt lat="44.49309" lon="5.69654">
        <ele>823</ele>
        <time>2010-04-30T10:24:29Z</time>
      </trkpt>
      <trkpt lat="44.49316" lon="5.6963">
        <ele>821</ele>
        <time>2010-04-30T10:24:15Z</time>
      </trkpt>
      <trkpt lat="44.4933" lon="5.69613">
        <ele>824</ele>
        <time>2010-04-30T10:24:01Z</time>
      </trkpt>
      <trkpt lat="44.49345" lon="5.69596">
        <ele>824</ele>
        <time>2010-04-30T10:23:47Z</time>
      </trkpt>
      <trkpt lat="44.49359" lon="5.69577">
        <ele>831</ele>
        <time>2010-04-30T10:23:33Z</time>
      </trkpt>
      <trkpt lat="44.49372" lon="5.69556">
        <ele>827</ele>
        <time>2010-04-30T10:23:19Z</time>
      </trkpt>
      <trkpt lat="44.49378" lon="5.69532">
        <ele>830</ele>
        <time>2010-04-30T10:23:05Z</time>
      </trkpt>
      <trkpt lat="44.49378" lon="5.69506">
        <ele>830</ele>
        <time>2010-04-30T10:22:51Z</time>
      </trkpt>
      <trkpt lat="44.49376" lon="5.69479">
        <ele>835</ele>
        <time>2010-04-30T10:22:37Z</time>
      </trkpt>
      <trkpt lat="44.49375" lon="5.69453">
        <ele>837</ele>
        <time>2010-04-30T10:22:23Z</time>
      </trkpt>
      <trkpt lat="44.49371" lon="5.69426">
        <ele>839</ele>
        <time>2010-04-30T10:22:09Z</time>
      </trkpt>
      <trkpt lat="44.49367" lon="5.694">
        <ele>841</ele>
        <time>2010-04-30T10:21:55Z</time>
      </trkpt>
      <trkpt lat="44.49376" lon="5.69381">
        <ele>844</ele>
        <time>2010-04-30T10:21:41Z</time>
      </trkpt>
      <trkpt lat="44.49397" lon="5.69374">
        <ele>847</ele>
        <time>2010-04-30T10:21:27Z</time>
      </trkpt>
      <trkpt lat="44.49412" lon="5.6936">
        <ele>845</ele>
        <time>2010-04-30T10:21:13Z</time>
      </trkpt>
      <trkpt lat="44.49421" lon="5.69344">
        <ele>851</ele>
        <time>2010-04-30T10:20:59Z</time>
      </trkpt>
      <trkpt lat="44.49441" lon="5.69342">
        <ele>851</ele>
        <time>2010-04-30T10:20:45Z</time>
      </trkpt>
      <trkpt lat="44.49458" lon="5.69349">
        <ele>849</ele>
        <time>2010-04-30T10:20:31Z</time>
      </trkpt>
      <trkpt lat="44.49475" lon="5.69359">
        <ele>842</ele>
        <time>2010-04-30T10:20:17Z</time>
      </trkpt>
      <trkpt lat="44.49494" lon="5.69362">
        <ele>848</ele>
        <time>2010-04-30T10:20:03Z</time>
      </trkpt>
      <trkpt lat="44.49502" lon="5.69342">
        <ele>839</ele>
        <time>2010-04-30T10:19:49Z</time>
      </trkpt>
      <trkpt lat="44.49504" lon="5.69322">
        <ele>841</ele>
        <time>2010-04-30T10:19:35Z</time>
      </trkpt>
      <trkpt lat="44.49519" lon="5.69325">
        <ele>841</ele>
        <time>2010-04-30T10:19:21Z</time>
      </trkpt>
      <trkpt lat="44.49528" lon="5.69347">
        <ele>841</ele>
        <time>2010-04-30T10:19:07Z</time>
      </trkpt>
      <trkpt lat="44.49539" lon="5.69367">
        <ele>841</ele>
        <time>2010-04-30T10:18:53Z</time>
      </trkpt>
      <trkpt lat="44.49553" lon="5.69384">
        <ele>843</ele>
        <time>2010-04-30T10:18:39Z</time>
      </trkpt>
      <trkpt lat="44.49571" lon="5.69395">
        <ele>842</ele>
        <time>2010-04-30T10:18:25Z</time>
      </trkpt>
      <trkpt lat="44.49593" lon="5.694">
        <ele>843</ele>
        <time>2010-04-30T10:18:11Z</time>
      </trkpt>
      <trkpt lat="44.49612" lon="5.69399">
        <ele>844</ele>
        <time>2010-04-30T10:17:57Z</time>
      </trkpt>
      <trkpt lat="44.49626" lon="5.69383">
        <ele>850</ele>
        <time>2010-04-30T10:17:43Z</time>
      </trkpt>
      <trkpt lat="44.49635" lon="5.69363">
        <ele>855</ele>
        <time>2010-04-30T10:17:29Z</time>
      </trkpt>
      <trkpt lat="44.49647" lon="5.69342">
        <ele>854</ele>
        <time>2010-04-30T10:17:15Z</time>
      </trkpt>
      <trkpt lat="44.49656" lon="5.69324">
        <ele>858</ele>
        <time>2010-04-30T10:17:01Z</time>
      </trkpt>
      <trkpt lat="44.49648" lon="5.69308">
        <ele>861</ele>
        <time>2010-04-30T10:16:47Z</time>
      </trkpt>
      <trkpt lat="44.49638" lon="5.69287">
        <ele>864</ele>
        <time>2010-04-30T10:16:33Z</time>
      </trkpt>
      <trkpt lat="44.49633" lon="5.69261">
        <ele>866</ele>
        <time>2010-04-30T10:16:19Z</time>
      </trkpt>
      <trkpt lat="44.49628" lon="5.69233">
        <ele>868</ele>
        <time>2010-04-30T10:16:05Z</time>
      </trkpt>
      <trkpt lat="44.49638" lon="5.69211">
        <ele>870</ele>
        <time>2010-04-30T10:15:51Z</time>
      </trkpt>
      <trkpt lat="44.49651" lon="5.69193">
        <ele>868</ele>
        <time>2010-04-30T10:15:37Z</time>
      </trkpt>
      <trkpt lat="44.49658" lon="5.69168">
        <ele>870</ele>
        <time>2010-04-30T10:15:23Z</time>
      </trkpt>
      <trkpt lat="44.49667" lon="5.69151">
        <ele>864</ele>
        <time>2010-04-30T10:15:09Z</time>
      </trkpt>
      <trkpt lat="44.49666" lon="5.69149">
        <ele>867</ele>
        <time>2010-04-30T10:14:55Z</time>
      </trkpt>
      <trkpt lat="44.49668" lon="5.69151">
        <ele>866</ele>
        <time>2010-04-30T10:14:41Z</time>
      </trkpt>
      <trkpt lat="44.49668" lon="5.6915">
        <ele>866</ele>
        <time>2010-04-30T10:14:27Z</time>
      </trkpt>
      <trkpt lat="44.49668" lon="5.6915">
        <ele>865</ele>
        <time>2010-04-30T10:14:13Z</time>
      </trkpt>
      <trkpt lat="44.49668" lon="5.6915">
        <ele>866</ele>
        <time>2010-04-30T10:13:59Z</time>
      </trkpt>
      <trkpt lat="44.49667" lon="5.69149">
        <ele>868</ele>
        <time>2010-04-30T10:13:45Z</time>
      </trkpt>
      <trkpt lat="44.49668" lon="5.6915">
        <ele>869</ele>
        <time>2010-04-30T10:13:31Z</time>
      </trkpt>
      <trkpt lat="44.49668" lon="5.6915">
        <ele>867</ele>
        <time>2010-04-30T10:13:17Z</time>
      </trkpt>
      <trkpt lat="44.49666" lon="5.69149">
        <ele>868</ele>
        <time>2010-04-30T10:13:03Z</time>
      </trkpt>
      <trkpt lat="44.49667" lon="5.69141">
        <ele>867</ele>
        <time>2010-04-30T10:12:49Z</time>
      </trkpt>
      <trkpt lat="44.4966" lon="5.69125">
        <ele>868</ele>
        <time>2010-04-30T10:12:35Z</time>
      </trkpt>
      <trkpt lat="44.49661" lon="5.69122">
        <ele>868</ele>
        <time>2010-04-30T10:12:21Z</time>
      </trkpt>
      <trkpt lat="44.49658" lon="5.69129">
        <ele>871</ele>
        <time>2010-04-30T10:12:07Z</time>
      </trkpt>
      <trkpt lat="44.49665" lon="5.69144">
        <ele>867</ele>
        <time>2010-04-30T10:11:53Z</time>
      </trkpt>
      <trkpt lat="44.49667" lon="5.69146">
        <ele>866</ele>
        <time>2010-04-30T10:11:39Z</time>
      </trkpt>
      <trkpt lat="44.49667" lon="5.69146">
        <ele>867</ele>
        <time>2010-04-30T10:11:25Z</time>
      </trkpt>
      <trkpt lat="44.49667" lon="5.69146">
        <ele>866</ele>
        <time>2010-04-30T10:11:11Z</time>
      </trkpt>
      <trkpt lat="44.49667" lon="5.69147">
        <ele>866</ele>
        <time>2010-04-30T10:10:57Z</time>
      </trkpt>
      <trkpt lat="44.49667" lon="5.69148">
        <ele>867</ele>
        <time>2010-04-30T10:10:43Z</time>
      </trkpt>
      <trkpt lat="44.49669" lon="5.69145">
        <ele>866</ele>
        <time>2010-04-30T10:10:29Z</time>
      </trkpt>
      <trkpt lat="44.49683" lon="5.69128">
        <ele>869</ele>
        <time>2010-04-30T10:10:15Z</time>
      </trkpt>
      <trkpt lat="44.49696" lon="5.69113">
        <ele>869</ele>
        <time>2010-04-30T10:10:01Z</time>
      </trkpt>
      <trkpt lat="44.4971" lon="5.69096">
        <ele>870</ele>
        <time>2010-04-30T10:09:47Z</time>
      </trkpt>
      <trkpt lat="44.4972" lon="5.69076">
        <ele>875</ele>
        <time>2010-04-30T10:09:33Z</time>
      </trkpt>
      <trkpt lat="44.49727" lon="5.69053">
        <ele>878</ele>
        <time>2010-04-30T10:09:19Z</time>
      </trkpt>
      <trkpt lat="44.49739" lon="5.69032">
        <ele>880</ele>
        <time>2010-04-30T10:09:05Z</time>
      </trkpt>
      <trkpt lat="44.49741" lon="5.69014">
        <ele>883</ele>
        <time>2010-04-30T10:08:51Z</time>
      </trkpt>
      <trkpt lat="44.49742" lon="5.68988">
        <ele>887</ele>
        <time>2010-04-30T10:08:37Z</time>
      </trkpt>
      <trkpt lat="44.49734" lon="5.68965">
        <ele>890</ele>
        <time>2010-04-30T10:08:23Z</time>
      </trkpt>
      <trkpt lat="44.49725" lon="5.68942">
        <ele>893</ele>
        <time>2010-04-30T10:08:09Z</time>
      </trkpt>
      <trkpt lat="44.49724" lon="5.68926">
        <ele>897</ele>
        <time>2010-04-30T10:07:55Z</time>
      </trkpt>
      <trkpt lat="44.49742" lon="5.68922">
        <ele>901</ele>
        <time>2010-04-30T10:07:41Z</time>
      </trkpt>
      <trkpt lat="44.49761" lon="5.68916">
        <ele>902</ele>
        <time>2010-04-30T10:07:27Z</time>
      </trkpt>
      <trkpt lat="44.49775" lon="5.68896">
        <ele>903</ele>
        <time>2010-04-30T10:07:13Z</time>
      </trkpt>
      <trkpt lat="44.49775" lon="5.6887">
        <ele>907</ele>
        <time>2010-04-30T10:06:59Z</time>
      </trkpt>
      <trkpt lat="44.49769" lon="5.68847">
        <ele>909</ele>
        <time>2010-04-30T10:06:45Z</time>
      </trkpt>
      <trkpt lat="44.49773" lon="5.68827">
        <ele>914</ele>
        <time>2010-04-30T10:06:31Z</time>
      </trkpt>
      <trkpt lat="44.49787" lon="5.68809">
        <ele>914</ele>
        <time>2010-04-30T10:06:17Z</time>
      </trkpt>
      <trkpt lat="44.49785" lon="5.6879">
        <ele>921</ele>
        <time>2010-04-30T10:06:03Z</time>
      </trkpt>
      <trkpt lat="44.49773" lon="5.68775">
        <ele>921</ele>
        <time>2010-04-30T10:05:49Z</time>
      </trkpt>
      <trkpt lat="44.49759" lon="5.68777">
        <ele>929</ele>
        <time>2010-04-30T10:05:35Z</time>
      </trkpt>
      <trkpt lat="44.49746" lon="5.68778">
        <ele>927</ele>
        <time>2010-04-30T10:05:21Z</time>
      </trkpt>
      <trkpt lat="44.49734" lon="5.68778">
        <ele>931</ele>
        <time>2010-04-30T10:05:07Z</time>
      </trkpt>
      <trkpt lat="44.49733" lon="5.68762">
        <ele>935</ele>
        <time>2010-04-30T10:04:53Z</time>
      </trkpt>
      <trkpt lat="44.49746" lon="5.68748">
        <ele>938</ele>
        <time>2010-04-30T10:04:39Z</time>
      </trkpt>
      <trkpt lat="44.49757" lon="5.68731">
        <ele>944</ele>
        <time>2010-04-30T10:04:25Z</time>
      </trkpt>
      <trkpt lat="44.49763" lon="5.68716">
        <ele>947</ele>
        <time>2010-04-30T10:04:11Z</time>
      </trkpt>
      <trkpt lat="44.49766" lon="5.68707">
        <ele>949</ele>
        <time>2010-04-30T10:03:57Z</time>
      </trkpt>
      <trkpt lat="44.49769" lon="5.68692">
        <ele>952</ele>
        <time>2010-04-30T10:03:43Z</time>
      </trkpt>
      <trkpt lat="44.4977" lon="5.68673">
        <ele>960</ele>
        <time>2010-04-30T10:03:29Z</time>
      </trkpt>
      <trkpt lat="44.49771" lon="5.68654">
        <ele>960</ele>
        <time>2010-04-30T10:03:15Z</time>
      </trkpt>
      <trkpt lat="44.4977" lon="5.68632">
        <ele>966</ele>
        <time>2010-04-30T10:03:01Z</time>
      </trkpt>
      <trkpt lat="44.49783" lon="5.68616">
        <ele>969</ele>
        <time>2010-04-30T10:02:47Z</time>
      </trkpt>
      <trkpt lat="44.49796" lon="5.68603">
        <ele>973</ele>
        <time>2010-04-30T10:02:33Z</time>
      </trkpt>
      <trkpt lat="44.49808" lon="5.68597">
        <ele>965</ele>
        <time>2010-04-30T10:02:19Z</time>
      </trkpt>
      <trkpt lat="44.49818" lon="5.686">
        <ele>969</ele>
        <time>2010-04-30T10:02:05Z</time>
      </trkpt>
      <trkpt lat="44.49834" lon="5.68604">
        <ele>974</ele>
        <time>2010-04-30T10:01:51Z</time>
      </trkpt>
      <trkpt lat="44.49851" lon="5.68606">
        <ele>981</ele>
        <time>2010-04-30T10:01:37Z</time>
      </trkpt>
      <trkpt lat="44.49864" lon="5.68617">
        <ele>975</ele>
        <time>2010-04-30T10:01:23Z</time>
      </trkpt>
      <trkpt lat="44.49879" lon="5.68624">
        <ele>986</ele>
        <time>2010-04-30T10:01:09Z</time>
      </trkpt>
      <trkpt lat="44.49894" lon="5.68631">
        <ele>992</ele>
        <time>2010-04-30T10:00:55Z</time>
      </trkpt>
      <trkpt lat="44.49911" lon="5.68629">
        <ele>992</ele>
        <time>2010-04-30T10:00:41Z</time>
      </trkpt>
      <trkpt lat="44.4993" lon="5.68609">
        <ele>995</ele>
        <time>2010-04-30T10:00:27Z</time>
      </trkpt>
      <trkpt lat="44.49938" lon="5.68592">
        <ele>990</ele>
        <time>2010-04-30T10:00:13Z</time>
      </trkpt>
      <trkpt lat="44.49942" lon="5.68571">
        <ele>990</ele>
        <time>2010-04-30T09:59:59Z</time>
      </trkpt>
      <trkpt lat="44.49953" lon="5.68556">
        <ele>994</ele>
        <time>2010-04-30T09:59:45Z</time>
      </trkpt>
      <trkpt lat="44.49972" lon="5.68546">
        <ele>991</ele>
        <time>2010-04-30T09:59:31Z</time>
      </trkpt>
      <trkpt lat="44.49983" lon="5.68541">
        <ele>994</ele>
        <time>2010-04-30T09:59:17Z</time>
      </trkpt>
      <trkpt lat="44.49982" lon="5.6854">
        <ele>994</ele>
        <time>2010-04-30T09:59:03Z</time>
      </trkpt>
      <trkpt lat="44.49999" lon="5.68536">
        <ele>997</ele>
        <time>2010-04-30T09:58:49Z</time>
      </trkpt>
      <trkpt lat="44.50008" lon="5.68513">
        <ele>997</ele>
        <time>2010-04-30T09:58:35Z</time>
      </trkpt>
      <trkpt lat="44.50011" lon="5.6849">
        <ele>1001</ele>
        <time>2010-04-30T09:58:21Z</time>
      </trkpt>
      <trkpt lat="44.50016" lon="5.68469">
        <ele>1003</ele>
        <time>2010-04-30T09:58:07Z</time>
      </trkpt>
      <trkpt lat="44.50012" lon="5.68446">
        <ele>1006</ele>
        <time>2010-04-30T09:57:53Z</time>
      </trkpt>
      <trkpt lat="44.50009" lon="5.68424">
        <ele>1009</ele>
        <time>2010-04-30T09:57:39Z</time>
      </trkpt>
      <trkpt lat="44.50009" lon="5.68402">
        <ele>1011</ele>
        <time>2010-04-30T09:57:25Z</time>
      </trkpt>
      <trkpt lat="44.50014" lon="5.68383">
        <ele>1014</ele>
        <time>2010-04-30T09:57:11Z</time>
      </trkpt>
      <trkpt lat="44.50025" lon="5.68368">
        <ele>1019</ele>
        <time>2010-04-30T09:56:57Z</time>
      </trkpt>
      <trkpt lat="44.50038" lon="5.68349">
        <ele>1018</ele>
        <time>2010-04-30T09:56:43Z</time>
      </trkpt>
      <trkpt lat="44.50036" lon="5.68327">
        <ele>1017</ele>
        <time>2010-04-30T09:56:29Z</time>
      </trkpt>
      <trkpt lat="44.50037" lon="5.68307">
        <ele>1024</ele>
        <time>2010-04-30T09:56:15Z</time>
      </trkpt>
      <trkpt lat="44.50034" lon="5.68288">
        <ele>1030</ele>
        <time>2010-04-30T09:56:01Z</time>
      </trkpt>
      <trkpt lat="44.50026" lon="5.68271">
        <ele>1030</ele>
        <time>2010-04-30T09:55:47Z</time>
      </trkpt>
      <trkpt lat="44.50016" lon="5.68259">
        <ele>1033</ele>
        <time>2010-04-30T09:55:33Z</time>
      </trkpt>
      <trkpt lat="44.50013" lon="5.68241">
        <ele>1035</ele>
        <time>2010-04-30T09:55:19Z</time>
      </trkpt>
      <trkpt lat="44.50012" lon="5.68219">
        <ele>1037</ele>
        <time>2010-04-30T09:55:05Z</time>
      </trkpt>
      <trkpt lat="44.50012" lon="5.68219">
        <ele>1041</ele>
        <time>2010-04-30T09:54:51Z</time>
      </trkpt>
      <trkpt lat="44.50012" lon="5.68219">
        <ele>1041</ele>
        <time>2010-04-30T09:54:37Z</time>
      </trkpt>
      <trkpt lat="44.50008" lon="5.68217">
        <ele>1041</ele>
        <time>2010-04-30T09:54:23Z</time>
      </trkpt>
      <trkpt lat="44.50011" lon="5.68216">
        <ele>1039</ele>
        <time>2010-04-30T09:54:09Z</time>
      </trkpt>
      <trkpt lat="44.50013" lon="5.68217">
        <ele>1041</ele>
        <time>2010-04-30T09:53:55Z</time>
      </trkpt>
      <trkpt lat="44.50009" lon="5.68216">
        <ele>1040</ele>
        <time>2010-04-30T09:53:41Z</time>
      </trkpt>
      <trkpt lat="44.50007" lon="5.68216">
        <ele>1043</ele>
        <time>2010-04-30T09:53:27Z</time>
      </trkpt>
      <trkpt lat="44.50006" lon="5.68215">
        <ele>1038</ele>
        <time>2010-04-30T09:53:13Z</time>
      </trkpt>
      <trkpt lat="44.50007" lon="5.682">
        <ele>1041</ele>
        <time>2010-04-30T09:52:59Z</time>
      </trkpt>
      <trkpt lat="44.50008" lon="5.68184">
        <ele>1047</ele>
        <time>2010-04-30T09:52:45Z</time>
      </trkpt>
      <trkpt lat="44.5001" lon="5.6816">
        <ele>1043</ele>
        <time>2010-04-30T09:52:31Z</time>
      </trkpt>
      <trkpt lat="44.50011" lon="5.68132">
        <ele>1044</ele>
        <time>2010-04-30T09:52:17Z</time>
      </trkpt>
      <trkpt lat="44.50011" lon="5.68106">
        <ele>1047</ele>
        <time>2010-04-30T09:52:03Z</time>
      </trkpt>
      <trkpt lat="44.50016" lon="5.68082">
        <ele>1053</ele>
        <time>2010-04-30T09:51:49Z</time>
      </trkpt>
      <trkpt lat="44.50022" lon="5.68058">
        <ele>1049</ele>
        <time>2010-04-30T09:51:35Z</time>
      </trkpt>
      <trkpt lat="44.50028" lon="5.68033">
        <ele>1050</ele>
        <time>2010-04-30T09:51:21Z</time>
      </trkpt>
      <trkpt lat="44.50028" lon="5.68007">
        <ele>1052</ele>
        <time>2010-04-30T09:51:07Z</time>
      </trkpt>
      <trkpt lat="44.50033" lon="5.67983">
        <ele>1052</ele>
        <time>2010-04-30T09:50:53Z</time>
      </trkpt>
      <trkpt lat="44.50038" lon="5.67958">
        <ele>1052</ele>
        <time>2010-04-30T09:50:39Z</time>
      </trkpt>
      <trkpt lat="44.50038" lon="5.67936">
        <ele>1052</ele>
        <time>2010-04-30T09:50:25Z</time>
      </trkpt>
      <trkpt lat="44.50041" lon="5.67913">
        <ele>1049</ele>
        <time>2010-04-30T09:50:11Z</time>
      </trkpt>
      <trkpt lat="44.50048" lon="5.6789">
        <ele>1052</ele>
        <time>2010-04-30T09:49:57Z</time>
      </trkpt>
      <trkpt lat="44.50049" lon="5.67865">
        <ele>1047</ele>
        <time>2010-04-30T09:49:43Z</time>
      </trkpt>
      <trkpt lat="44.50049" lon="5.67844">
        <ele>1043</ele>
        <time>2010-04-30T09:49:29Z</time>
      </trkpt>
      <trkpt lat="44.50049" lon="5.6782">
        <ele>1048</ele>
        <time>2010-04-30T09:49:15Z</time>
      </trkpt>
      <trkpt lat="44.50049" lon="5.67796">
        <ele>1049</ele>
        <time>2010-04-30T09:49:01Z</time>
      </trkpt>
      <trkpt lat="44.50056" lon="5.67776">
        <ele>1044</ele>
        <time>2010-04-30T09:48:47Z</time>
      </trkpt>
      <trkpt lat="44.50056" lon="5.67753">
        <ele>1045</ele>
        <time>2010-04-30T09:48:33Z</time>
      </trkpt>
      <trkpt lat="44.50056" lon="5.67727">
        <ele>1050</ele>
        <time>2010-04-30T09:48:19Z</time>
      </trkpt>
      <trkpt lat="44.50067" lon="5.67708">
        <ele>1050</ele>
        <time>2010-04-30T09:48:05Z</time>
      </trkpt>
      <trkpt lat="44.50085" lon="5.67705">
        <ele>1053</ele>
        <time>2010-04-30T09:47:51Z</time>
      </trkpt>
      <trkpt lat="44.50103" lon="5.67704">
        <ele>1052</ele>
        <time>2010-04-30T09:47:37Z</time>
      </trkpt>
      <trkpt lat="44.50121" lon="5.677">
        <ele>1049</ele>
        <time>2010-04-30T09:47:23Z</time>
      </trkpt>
      <trkpt lat="44.5013" lon="5.67687">
        <ele>1048</ele>
        <time>2010-04-30T09:47:09Z</time>
      </trkpt>
      <trkpt lat="44.50138" lon="5.67669">
        <ele>1045</ele>
        <time>2010-04-30T09:46:55Z</time>
      </trkpt>
      <trkpt lat="44.50145" lon="5.67654">
        <ele>1043</ele>
        <time>2010-04-30T09:46:41Z</time>
      </trkpt>
      <trkpt lat="44.50157" lon="5.6764">
        <ele>1042</ele>
        <time>2010-04-30T09:46:27Z</time>
      </trkpt>
      <trkpt lat="44.50162" lon="5.67638">
        <ele>1040</ele>
        <time>2010-04-30T09:46:13Z</time>
      </trkpt>
      <trkpt lat="44.50166" lon="5.67654">
        <ele>1039</ele>
        <time>2010-04-30T09:45:59Z</time>
      </trkpt>
      <trkpt lat="44.50177" lon="5.67664">
        <ele>1036</ele>
        <time>2010-04-30T09:45:45Z</time>
      </trkpt>
      <trkpt lat="44.50189" lon="5.67667">
        <ele>1033</ele>
        <time>2010-04-30T09:45:31Z</time>
      </trkpt>
      <trkpt lat="44.50201" lon="5.67673">
        <ele>1028</ele>
        <time>2010-04-30T09:45:17Z</time>
      </trkpt>
      <trkpt lat="44.50212" lon="5.67682">
        <ele>1023</ele>
        <time>2010-04-30T09:45:03Z</time>
      </trkpt>
      <trkpt lat="44.50224" lon="5.67688">
        <ele>1021</ele>
        <time>2010-04-30T09:44:49Z</time>
      </trkpt>
      <trkpt lat="44.50236" lon="5.67689">
        <ele>1019</ele>
        <time>2010-04-30T09:44:35Z</time>
      </trkpt>
      <trkpt lat="44.50253" lon="5.67688">
        <ele>1015</ele>
        <time>2010-04-30T09:44:21Z</time>
      </trkpt>
      <trkpt lat="44.50267" lon="5.67689">
        <ele>1013</ele>
        <time>2010-04-30T09:44:07Z</time>
      </trkpt>
      <trkpt lat="44.50282" lon="5.67699">
        <ele>1010</ele>
        <time>2010-04-30T09:43:53Z</time>
      </trkpt>
      <trkpt lat="44.50295" lon="5.6771">
        <ele>1007</ele>
        <time>2010-04-30T09:43:39Z</time>
      </trkpt>
      <trkpt lat="44.50306" lon="5.67725">
        <ele>1007</ele>
        <time>2010-04-30T09:43:25Z</time>
      </trkpt>
      <trkpt lat="44.50315" lon="5.6774">
        <ele>1002</ele>
        <time>2010-04-30T09:43:11Z</time>
      </trkpt>
      <trkpt lat="44.50325" lon="5.67751">
        <ele>999</ele>
        <time>2010-04-30T09:42:57Z</time>
      </trkpt>
      <trkpt lat="44.50332" lon="5.67763">
        <ele>998</ele>
        <time>2010-04-30T09:42:43Z</time>
      </trkpt>
      <trkpt lat="44.50338" lon="5.67774">
        <ele>995</ele>
        <time>2010-04-30T09:42:29Z</time>
      </trkpt>
      <trkpt lat="44.50341" lon="5.67781">
        <ele>994</ele>
        <time>2010-04-30T09:42:15Z</time>
      </trkpt>
      <trkpt lat="44.50353" lon="5.67792">
        <ele>992</ele>
        <time>2010-04-30T09:42:01Z</time>
      </trkpt>
      <trkpt lat="44.50362" lon="5.67806">
        <ele>989</ele>
        <time>2010-04-30T09:41:47Z</time>
      </trkpt>
      <trkpt lat="44.50371" lon="5.67818">
        <ele>985</ele>
        <time>2010-04-30T09:41:33Z</time>
      </trkpt>
      <trkpt lat="44.50376" lon="5.6783">
        <ele>983</ele>
        <time>2010-04-30T09:41:19Z</time>
      </trkpt>
      <trkpt lat="44.50376" lon="5.6785">
        <ele>978</ele>
        <time>2010-04-30T09:41:05Z</time>
      </trkpt>
      <trkpt lat="44.50373" lon="5.6787">
        <ele>975</ele>
        <time>2010-04-30T09:40:51Z</time>
      </trkpt>
      <trkpt lat="44.50371" lon="5.67877">
        <ele>974</ele>
        <time>2010-04-30T09:40:37Z</time>
      </trkpt>
      <trkpt lat="44.5037" lon="5.6789">
        <ele>973</ele>
        <time>2010-04-30T09:40:23Z</time>
      </trkpt>
      <trkpt lat="44.50364" lon="5.67911">
        <ele>972</ele>
        <time>2010-04-30T09:40:09Z</time>
      </trkpt>
      <trkpt lat="44.50354" lon="5.6793">
        <ele>971</ele>
        <time>2010-04-30T09:39:55Z</time>
      </trkpt>
      <trkpt lat="44.50348" lon="5.67947">
        <ele>970</ele>
        <time>2010-04-30T09:39:41Z</time>
      </trkpt>
      <trkpt lat="44.50342" lon="5.67967">
        <ele>968</ele>
        <time>2010-04-30T09:39:27Z</time>
      </trkpt>
      <trkpt lat="44.50334" lon="5.67985">
        <ele>965</ele>
        <time>2010-04-30T09:39:13Z</time>
      </trkpt>
      <trkpt lat="44.50333" lon="5.68007">
        <ele>963</ele>
        <time>2010-04-30T09:38:59Z</time>
      </trkpt>
      <trkpt lat="44.50346" lon="5.68016">
        <ele>960</ele>
        <time>2010-04-30T09:38:45Z</time>
      </trkpt>
      <trkpt lat="44.5035" lon="5.68034">
        <ele>960</ele>
        <time>2010-04-30T09:38:31Z</time>
      </trkpt>
      <trkpt lat="44.50349" lon="5.68056">
        <ele>959</ele>
        <time>2010-04-30T09:38:17Z</time>
      </trkpt>
      <trkpt lat="44.50349" lon="5.68079">
        <ele>958</ele>
        <time>2010-04-30T09:38:03Z</time>
      </trkpt>
      <trkpt lat="44.50347" lon="5.68102">
        <ele>957</ele>
        <time>2010-04-30T09:37:49Z</time>
      </trkpt>
      <trkpt lat="44.50346" lon="5.68128">
        <ele>959</ele>
        <time>2010-04-30T09:37:35Z</time>
      </trkpt>
      <trkpt lat="44.50348" lon="5.6815">
        <ele>960</ele>
        <time>2010-04-30T09:37:21Z</time>
      </trkpt>
      <trkpt lat="44.50354" lon="5.68169">
        <ele>960</ele>
        <time>2010-04-30T09:37:07Z</time>
      </trkpt>
      <trkpt lat="44.50364" lon="5.6819">
        <ele>959</ele>
        <time>2010-04-30T09:36:53Z</time>
      </trkpt>
      <trkpt lat="44.50378" lon="5.68204">
        <ele>957</ele>
        <time>2010-04-30T09:36:39Z</time>
      </trkpt>
      <trkpt lat="44.50393" lon="5.68215">
        <ele>956</ele>
        <time>2010-04-30T09:36:25Z</time>
      </trkpt>
      <trkpt lat="44.50409" lon="5.68223">
        <ele>954</ele>
        <time>2010-04-30T09:36:11Z</time>
      </trkpt>
      <trkpt lat="44.50418" lon="5.68239">
        <ele>955</ele>
        <time>2010-04-30T09:35:57Z</time>
      </trkpt>
      <trkpt lat="44.50433" lon="5.68252">
        <ele>956</ele>
        <time>2010-04-30T09:35:43Z</time>
      </trkpt>
      <trkpt lat="44.5045" lon="5.68256">
        <ele>956</ele>
        <time>2010-04-30T09:35:29Z</time>
      </trkpt>
      <trkpt lat="44.5047" lon="5.68258">
        <ele>956</ele>
        <time>2010-04-30T09:35:15Z</time>
      </trkpt>
      <trkpt lat="44.50483" lon="5.68265">
        <ele>956</ele>
        <time>2010-04-30T09:35:01Z</time>
      </trkpt>
      <trkpt lat="44.50499" lon="5.68273">
        <ele>957</ele>
        <time>2010-04-30T09:34:47Z</time>
      </trkpt>
      <trkpt lat="44.50506" lon="5.68289">
        <ele>956</ele>
        <time>2010-04-30T09:34:33Z</time>
      </trkpt>
      <trkpt lat="44.5051" lon="5.68299">
        <ele>955</ele>
        <time>2010-04-30T09:34:19Z</time>
      </trkpt>
      <trkpt lat="44.5051" lon="5.68301">
        <ele>955</ele>
        <time>2010-04-30T09:34:05Z</time>
      </trkpt>
      <trkpt lat="44.5051" lon="5.68301">
        <ele>956</ele>
        <time>2010-04-30T09:33:51Z</time>
      </trkpt>
      <trkpt lat="44.50509" lon="5.68303">
        <ele>953</ele>
        <time>2010-04-30T09:33:37Z</time>
      </trkpt>
      <trkpt lat="44.50514" lon="5.68308">
        <ele>954</ele>
        <time>2010-04-30T09:33:23Z</time>
      </trkpt>
      <trkpt lat="44.50524" lon="5.68315">
        <ele>953</ele>
        <time>2010-04-30T09:33:09Z</time>
      </trkpt>
      <trkpt lat="44.50535" lon="5.68328">
        <ele>952</ele>
        <time>2010-04-30T09:32:55Z</time>
      </trkpt>
      <trkpt lat="44.50547" lon="5.68339">
        <ele>951</ele>
        <time>2010-04-30T09:32:41Z</time>
      </trkpt>
      <trkpt lat="44.5055" lon="5.68357">
        <ele>949</ele>
        <time>2010-04-30T09:32:27Z</time>
      </trkpt>
      <trkpt lat="44.50559" lon="5.68367">
        <ele>948</ele>
        <time>2010-04-30T09:32:13Z</time>
      </trkpt>
      <trkpt lat="44.50559" lon="5.68382">
        <ele>947</ele>
        <time>2010-04-30T09:31:59Z</time>
      </trkpt>
      <trkpt lat="44.50554" lon="5.68401">
        <ele>944</ele>
        <time>2010-04-30T09:31:45Z</time>
      </trkpt>
      <trkpt lat="44.50553" lon="5.6842">
        <ele>942</ele>
        <time>2010-04-30T09:31:31Z</time>
      </trkpt>
      <trkpt lat="44.50557" lon="5.68438">
        <ele>938</ele>
        <time>2010-04-30T09:31:17Z</time>
      </trkpt>
      <trkpt lat="44.50566" lon="5.68454">
        <ele>936</ele>
        <time>2010-04-30T09:31:03Z</time>
      </trkpt>
      <trkpt lat="44.50577" lon="5.68464">
        <ele>933</ele>
        <time>2010-04-30T09:30:49Z</time>
      </trkpt>
      <trkpt lat="44.50587" lon="5.68479">
        <ele>931</ele>
        <time>2010-04-30T09:30:35Z</time>
      </trkpt>
      <trkpt lat="44.50593" lon="5.68498">
        <ele>931</ele>
        <time>2010-04-30T09:30:21Z</time>
      </trkpt>
      <trkpt lat="44.50588" lon="5.68517">
        <ele>929</ele>
        <time>2010-04-30T09:30:07Z</time>
      </trkpt>
      <trkpt lat="44.50584" lon="5.68536">
        <ele>925</ele>
        <time>2010-04-30T09:29:53Z</time>
      </trkpt>
      <trkpt lat="44.50593" lon="5.68551">
        <ele>923</ele>
        <time>2010-04-30T09:29:39Z</time>
      </trkpt>
      <trkpt lat="44.50605" lon="5.68556">
        <ele>919</ele>
        <time>2010-04-30T09:29:25Z</time>
      </trkpt>
      <trkpt lat="44.50619" lon="5.68551">
        <ele>917</ele>
        <time>2010-04-30T09:29:11Z</time>
      </trkpt>
      <trkpt lat="44.50634" lon="5.68548">
        <ele>915</ele>
        <time>2010-04-30T09:28:57Z</time>
      </trkpt>
      <trkpt lat="44.5064" lon="5.68565">
        <ele>914</ele>
        <time>2010-04-30T09:28:43Z</time>
      </trkpt>
      <trkpt lat="44.50646" lon="5.68583">
        <ele>912</ele>
        <time>2010-04-30T09:28:29Z</time>
      </trkpt>
      <trkpt lat="44.50647" lon="5.68603">
        <ele>910</ele>
        <time>2010-04-30T09:28:15Z</time>
      </trkpt>
      <trkpt lat="44.50653" lon="5.68616">
        <ele>907</ele>
        <time>2010-04-30T09:28:01Z</time>
      </trkpt>
      <trkpt lat="44.50651" lon="5.68634">
        <ele>904</ele>
        <time>2010-04-30T09:27:47Z</time>
      </trkpt>
      <trkpt lat="44.50647" lon="5.68649">
        <ele>902</ele>
        <time>2010-04-30T09:27:33Z</time>
      </trkpt>
      <trkpt lat="44.50641" lon="5.68668">
        <ele>898</ele>
        <time>2010-04-30T09:27:19Z</time>
      </trkpt>
      <trkpt lat="44.5065" lon="5.68681">
        <ele>896</ele>
        <time>2010-04-30T09:27:05Z</time>
      </trkpt>
      <trkpt lat="44.50663" lon="5.68677">
        <ele>893</ele>
        <time>2010-04-30T09:26:51Z</time>
      </trkpt>
      <trkpt lat="44.50676" lon="5.68669">
        <ele>891</ele>
        <time>2010-04-30T09:26:37Z</time>
      </trkpt>
      <trkpt lat="44.5069" lon="5.68664">
        <ele>888</ele>
        <time>2010-04-30T09:26:23Z</time>
      </trkpt>
      <trkpt lat="44.50704" lon="5.68664">
        <ele>885</ele>
        <time>2010-04-30T09:26:09Z</time>
      </trkpt>
      <trkpt lat="44.50718" lon="5.68668">
        <ele>882</ele>
        <time>2010-04-30T09:25:55Z</time>
      </trkpt>
      <trkpt lat="44.5073" lon="5.68672">
        <ele>877</ele>
        <time>2010-04-30T09:25:41Z</time>
      </trkpt>
      <trkpt lat="44.50734" lon="5.68691">
        <ele>874</ele>
        <time>2010-04-30T09:25:27Z</time>
      </trkpt>
      <trkpt lat="44.50738" lon="5.68706">
        <ele>870</ele>
        <time>2010-04-30T09:25:13Z</time>
      </trkpt>
      <trkpt lat="44.50744" lon="5.68721">
        <ele>865</ele>
        <time>2010-04-30T09:24:59Z</time>
      </trkpt>
      <trkpt lat="44.5075" lon="5.68738">
        <ele>861</ele>
        <time>2010-04-30T09:24:45Z</time>
      </trkpt>
      <trkpt lat="44.50758" lon="5.68754">
        <ele>859</ele>
        <time>2010-04-30T09:24:31Z</time>
      </trkpt>
      <trkpt lat="44.50766" lon="5.68769">
        <ele>855</ele>
        <time>2010-04-30T09:24:17Z</time>
      </trkpt>
      <trkpt lat="44.50779" lon="5.68777">
        <ele>852</ele>
        <time>2010-04-30T09:24:03Z</time>
      </trkpt>
      <trkpt lat="44.5079" lon="5.68791">
        <ele>848</ele>
        <time>2010-04-30T09:23:49Z</time>
      </trkpt>
      <trkpt lat="44.50799" lon="5.68797">
        <ele>846</ele>
        <time>2010-04-30T09:23:35Z</time>
      </trkpt>
      <trkpt lat="44.50811" lon="5.68804">
        <ele>842</ele>
        <time>2010-04-30T09:23:21Z</time>
      </trkpt>
      <trkpt lat="44.50824" lon="5.6881">
        <ele>838</ele>
        <time>2010-04-30T09:23:07Z</time>
      </trkpt>
      <trkpt lat="44.50838" lon="5.68817">
        <ele>835</ele>
        <time>2010-04-30T09:22:53Z</time>
      </trkpt>
      <trkpt lat="44.50852" lon="5.6882">
        <ele>832</ele>
        <time>2010-04-30T09:22:39Z</time>
      </trkpt>
      <trkpt lat="44.50869" lon="5.68822">
        <ele>830</ele>
        <time>2010-04-30T09:22:25Z</time>
      </trkpt>
      <trkpt lat="44.50883" lon="5.68832">
        <ele>827</ele>
        <time>2010-04-30T09:22:11Z</time>
      </trkpt>
      <trkpt lat="44.50898" lon="5.68837">
        <ele>825</ele>
        <time>2010-04-30T09:21:57Z</time>
      </trkpt>
      <trkpt lat="44.50913" lon="5.68843">
        <ele>824</ele>
        <time>2010-04-30T09:21:43Z</time>
      </trkpt>
      <trkpt lat="44.50922" lon="5.68862">
        <ele>823</ele>
        <time>2010-04-30T09:21:29Z</time>
      </trkpt>
      <trkpt lat="44.50929" lon="5.6888">
        <ele>822</ele>
        <time>2010-04-30T09:21:15Z</time>
      </trkpt>
      <trkpt lat="44.50937" lon="5.68898">
        <ele>819</ele>
        <time>2010-04-30T09:21:01Z</time>
      </trkpt>
      <trkpt lat="44.5094" lon="5.68919">
        <ele>817</ele>
        <time>2010-04-30T09:20:47Z</time>
      </trkpt>
      <trkpt lat="44.50945" lon="5.68938">
        <ele>813</ele>
        <time>2010-04-30T09:20:33Z</time>
      </trkpt>
      <trkpt lat="44.50955" lon="5.68956">
        <ele>810</ele>
        <time>2010-04-30T09:20:19Z</time>
      </trkpt>
      <trkpt lat="44.50967" lon="5.68973">
        <ele>807</ele>
        <time>2010-04-30T09:20:05Z</time>
      </trkpt>
      <trkpt lat="44.50978" lon="5.68989">
        <ele>803</ele>
        <time>2010-04-30T09:19:51Z</time>
      </trkpt>
      <trkpt lat="44.50989" lon="5.69008">
        <ele>802</ele>
        <time>2010-04-30T09:19:37Z</time>
      </trkpt>
      <trkpt lat="44.50999" lon="5.69026">
        <ele>799</ele>
        <time>2010-04-30T09:19:23Z</time>
      </trkpt>
      <trkpt lat="44.51011" lon="5.69046">
        <ele>797</ele>
        <time>2010-04-30T09:19:09Z</time>
      </trkpt>
      <trkpt lat="44.51021" lon="5.69066">
        <ele>795</ele>
        <time>2010-04-30T09:18:55Z</time>
      </trkpt>
      <trkpt lat="44.5103" lon="5.69085">
        <ele>794</ele>
        <time>2010-04-30T09:18:41Z</time>
      </trkpt>
      <trkpt lat="44.51034" lon="5.69107">
        <ele>791</ele>
        <time>2010-04-30T09:18:27Z</time>
      </trkpt>
      <trkpt lat="44.51032" lon="5.6913">
        <ele>789</ele>
        <time>2010-04-30T09:18:13Z</time>
      </trkpt>
      <trkpt lat="44.51028" lon="5.69153">
        <ele>788</ele>
        <time>2010-04-30T09:17:59Z</time>
      </trkpt>
      <trkpt lat="44.51021" lon="5.69176">
        <ele>786</ele>
        <time>2010-04-30T09:17:45Z</time>
      </trkpt>
      <trkpt lat="44.51009" lon="5.69192">
        <ele>785</ele>
        <time>2010-04-30T09:17:31Z</time>
      </trkpt>
      <trkpt lat="44.50994" lon="5.69203">
        <ele>782</ele>
        <time>2010-04-30T09:17:17Z</time>
      </trkpt>
      <trkpt lat="44.5098" lon="5.69218">
        <ele>779</ele>
        <time>2010-04-30T09:17:03Z</time>
      </trkpt>
      <trkpt lat="44.50968" lon="5.69236">
        <ele>777</ele>
        <time>2010-04-30T09:16:49Z</time>
      </trkpt>
      <trkpt lat="44.50963" lon="5.69259">
        <ele>776</ele>
        <time>2010-04-30T09:16:35Z</time>
      </trkpt>
      <trkpt lat="44.50971" lon="5.69279">
        <ele>777</ele>
        <time>2010-04-30T09:16:21Z</time>
      </trkpt>
      <trkpt lat="44.50981" lon="5.69298">
        <ele>775</ele>
        <time>2010-04-30T09:16:07Z</time>
      </trkpt>
      <trkpt lat="44.5099" lon="5.69314">
        <ele>774</ele>
        <time>2010-04-30T09:15:53Z</time>
      </trkpt>
      <trkpt lat="44.51005" lon="5.69329">
        <ele>772</ele>
        <time>2010-04-30T09:15:39Z</time>
      </trkpt>
      <trkpt lat="44.51015" lon="5.69349">
        <ele>771</ele>
        <time>2010-04-30T09:15:25Z</time>
      </trkpt>
      <trkpt lat="44.51022" lon="5.69371">
        <ele>770</ele>
        <time>2010-04-30T09:15:11Z</time>
      </trkpt>
      <trkpt lat="44.51033" lon="5.69391">
        <ele>768</ele>
        <time>2010-04-30T09:14:57Z</time>
      </trkpt>
      <trkpt lat="44.51049" lon="5.69403">
        <ele>766</ele>
        <time>2010-04-30T09:14:43Z</time>
      </trkpt>
      <trkpt lat="44.51064" lon="5.69419">
        <ele>764</ele>
        <time>2010-04-30T09:14:29Z</time>
      </trkpt>
      <trkpt lat="44.51078" lon="5.69436">
        <ele>763</ele>
        <time>2010-04-30T09:14:15Z</time>
      </trkpt>
      <trkpt lat="44.51091" lon="5.69453">
        <ele>761</ele>
        <time>2010-04-30T09:14:01Z</time>
      </trkpt>
      <trkpt lat="44.51105" lon="5.6947">
        <ele>759</ele>
        <time>2010-04-30T09:13:47Z</time>
      </trkpt>
      <trkpt lat="44.5112" lon="5.69487">
        <ele>757</ele>
        <time>2010-04-30T09:13:33Z</time>
      </trkpt>
      <trkpt lat="44.51133" lon="5.69504">
        <ele>754</ele>
        <time>2010-04-30T09:13:19Z</time>
      </trkpt>
      <trkpt lat="44.51149" lon="5.69522">
        <ele>753</ele>
        <time>2010-04-30T09:13:05Z</time>
      </trkpt>
      <trkpt lat="44.5116" lon="5.69541">
        <ele>751</ele>
        <time>2010-04-30T09:12:51Z</time>
      </trkpt>
      <trkpt lat="44.51154" lon="5.69561">
        <ele>748</ele>
        <time>2010-04-30T09:12:37Z</time>
      </trkpt>
      <trkpt lat="44.51144" lon="5.69558">
        <ele>825</ele>
        <time>2010-05-07T08:53:01Z</time>
      </trkpt>
      <trkpt lat="44.51162" lon="5.69561">
        <ele>828</ele>
        <time>2010-05-07T08:53:15Z</time>
      </trkpt>
      <trkpt lat="44.51184" lon="5.69559">
        <ele>825</ele>
        <time>2010-05-07T08:53:29Z</time>
      </trkpt>
      <trkpt lat="44.51204" lon="5.69547">
        <ele>824</ele>
        <time>2010-05-07T08:53:43Z</time>
      </trkpt>
      <trkpt lat="44.51221" lon="5.69529">
        <ele>823</ele>
        <time>2010-05-07T08:53:57Z</time>
      </trkpt>
      <trkpt lat="44.51238" lon="5.69506">
        <ele>822</ele>
        <time>2010-05-07T08:54:11Z</time>
      </trkpt>
      <trkpt lat="44.51261" lon="5.69489">
        <ele>821</ele>
        <time>2010-05-07T08:54:25Z</time>
      </trkpt>
      <trkpt lat="44.5129" lon="5.69502">
        <ele>820</ele>
        <time>2010-05-07T08:54:39Z</time>
      </trkpt>
      <trkpt lat="44.5131" lon="5.69508">
        <ele>821</ele>
        <time>2010-05-07T08:54:53Z</time>
      </trkpt>
      <trkpt lat="44.51327" lon="5.69491">
        <ele>816</ele>
        <time>2010-05-07T08:55:07Z</time>
      </trkpt>
      <trkpt lat="44.51342" lon="5.69471">
        <ele>820</ele>
        <time>2010-05-07T08:55:21Z</time>
      </trkpt>
      <trkpt lat="44.51357" lon="5.69451">
        <ele>817</ele>
        <time>2010-05-07T08:55:35Z</time>
      </trkpt>
      <trkpt lat="44.51374" lon="5.69431">
        <ele>821</ele>
        <time>2010-05-07T08:55:49Z</time>
      </trkpt>
      <trkpt lat="44.51394" lon="5.69401">
        <ele>814</ele>
        <time>2010-05-07T08:56:03Z</time>
      </trkpt>
      <trkpt lat="44.51409" lon="5.6938">
        <ele>817</ele>
        <time>2010-05-07T08:56:17Z</time>
      </trkpt>
      <trkpt lat="44.51423" lon="5.69357">
        <ele>816</ele>
        <time>2010-05-07T08:56:31Z</time>
      </trkpt>
      <trkpt lat="44.51441" lon="5.6934">
        <ele>812</ele>
        <time>2010-05-07T08:56:45Z</time>
      </trkpt>
      <trkpt lat="44.51461" lon="5.69328">
        <ele>815</ele>
        <time>2010-05-07T08:56:59Z</time>
      </trkpt>
      <trkpt lat="44.51482" lon="5.69315">
        <ele>815</ele>
        <time>2010-05-07T08:57:13Z</time>
      </trkpt>
      <trkpt lat="44.51503" lon="5.69301">
        <ele>821</ele>
        <time>2010-05-07T08:57:27Z</time>
      </trkpt>
      <trkpt lat="44.51524" lon="5.6929">
        <ele>814</ele>
        <time>2010-05-07T08:57:41Z</time>
      </trkpt>
      <trkpt lat="44.51544" lon="5.69284">
        <ele>816</ele>
        <time>2010-05-07T08:57:55Z</time>
      </trkpt>
      <trkpt lat="44.51565" lon="5.69279">
        <ele>810</ele>
        <time>2010-05-07T08:58:09Z</time>
      </trkpt>
      <trkpt lat="44.51586" lon="5.69273">
        <ele>815</ele>
        <time>2010-05-07T08:58:23Z</time>
      </trkpt>
      <trkpt lat="44.51607" lon="5.69267">
        <ele>816</ele>
        <time>2010-05-07T08:58:37Z</time>
      </trkpt>
      <trkpt lat="44.51634" lon="5.69256">
        <ele>810</ele>
        <time>2010-05-07T08:58:51Z</time>
      </trkpt>
      <trkpt lat="44.51657" lon="5.69243">
        <ele>813</ele>
        <time>2010-05-07T08:59:05Z</time>
      </trkpt>
      <trkpt lat="44.51676" lon="5.69229">
        <ele>815</ele>
        <time>2010-05-07T08:59:19Z</time>
      </trkpt>
      <trkpt lat="44.51695" lon="5.69215">
        <ele>813</ele>
        <time>2010-05-07T08:59:33Z</time>
      </trkpt>
      <trkpt lat="44.51711" lon="5.69194">
        <ele>812</ele>
        <time>2010-05-07T08:59:47Z</time>
      </trkpt>
      <trkpt lat="44.51722" lon="5.69168">
        <ele>811</ele>
        <time>2010-05-07T09:00:01Z</time>
      </trkpt>
      <trkpt lat="44.51739" lon="5.6915">
        <ele>814</ele>
        <time>2010-05-07T09:00:15Z</time>
      </trkpt>
      <trkpt lat="44.5176" lon="5.69143">
        <ele>815</ele>
        <time>2010-05-07T09:00:29Z</time>
      </trkpt>
      <trkpt lat="44.51782" lon="5.69142">
        <ele>812</ele>
        <time>2010-05-07T09:00:43Z</time>
      </trkpt>
      <trkpt lat="44.51802" lon="5.69141">
        <ele>813</ele>
        <time>2010-05-07T09:00:57Z</time>
      </trkpt>
      <trkpt lat="44.51823" lon="5.69134">
        <ele>817</ele>
        <time>2010-05-07T09:01:11Z</time>
      </trkpt>
      <trkpt lat="44.51852" lon="5.69117">
        <ele>816</ele>
        <time>2010-05-07T09:01:25Z</time>
      </trkpt>
      <trkpt lat="44.51874" lon="5.6911">
        <ele>816</ele>
        <time>2010-05-07T09:01:39Z</time>
      </trkpt>
      <trkpt lat="44.51894" lon="5.69102">
        <ele>815</ele>
        <time>2010-05-07T09:01:53Z</time>
      </trkpt>
      <trkpt lat="44.51915" lon="5.69092">
        <ele>813</ele>
        <time>2010-05-07T09:02:07Z</time>
      </trkpt>
      <trkpt lat="44.51935" lon="5.6908">
        <ele>818</ele>
        <time>2010-05-07T09:02:21Z</time>
      </trkpt>
      <trkpt lat="44.51953" lon="5.69063">
        <ele>817</ele>
        <time>2010-05-07T09:02:35Z</time>
      </trkpt>
      <trkpt lat="44.5197" lon="5.69046">
        <ele>817</ele>
        <time>2010-05-07T09:02:49Z</time>
      </trkpt>
      <trkpt lat="44.51987" lon="5.69026">
        <ele>817</ele>
        <time>2010-05-07T09:03:03Z</time>
      </trkpt>
      <trkpt lat="44.52003" lon="5.69007">
        <ele>814</ele>
        <time>2010-05-07T09:03:17Z</time>
      </trkpt>
      <trkpt lat="44.52018" lon="5.68987">
        <ele>818</ele>
        <time>2010-05-07T09:03:31Z</time>
      </trkpt>
      <trkpt lat="44.52034" lon="5.68963">
        <ele>820</ele>
        <time>2010-05-07T09:03:45Z</time>
      </trkpt>
      <trkpt lat="44.52046" lon="5.68935">
        <ele>818</ele>
        <time>2010-05-07T09:03:59Z</time>
      </trkpt>
      <trkpt lat="44.52059" lon="5.6891">
        <ele>820</ele>
        <time>2010-05-07T09:04:13Z</time>
      </trkpt>
      <trkpt lat="44.52073" lon="5.68886">
        <ele>821</ele>
        <time>2010-05-07T09:04:27Z</time>
      </trkpt>
      <trkpt lat="44.5209" lon="5.68866">
        <ele>817</ele>
        <time>2010-05-07T09:04:41Z</time>
      </trkpt>
      <trkpt lat="44.52107" lon="5.68847">
        <ele>823</ele>
        <time>2010-05-07T09:04:55Z</time>
      </trkpt>
      <trkpt lat="44.52125" lon="5.68829">
        <ele>818</ele>
        <time>2010-05-07T09:05:09Z</time>
      </trkpt>
      <trkpt lat="44.52142" lon="5.68812">
        <ele>818</ele>
        <time>2010-05-07T09:05:23Z</time>
      </trkpt>
      <trkpt lat="44.52159" lon="5.68794">
        <ele>819</ele>
        <time>2010-05-07T09:05:37Z</time>
      </trkpt>
      <trkpt lat="44.52175" lon="5.68774">
        <ele>819</ele>
        <time>2010-05-07T09:05:51Z</time>
      </trkpt>
      <trkpt lat="44.52191" lon="5.68752">
        <ele>817</ele>
        <time>2010-05-07T09:06:05Z</time>
      </trkpt>
      <trkpt lat="44.52202" lon="5.68725">
        <ele>820</ele>
        <time>2010-05-07T09:06:19Z</time>
      </trkpt>
      <trkpt lat="44.52211" lon="5.68689">
        <ele>819</ele>
        <time>2010-05-07T09:06:33Z</time>
      </trkpt>
      <trkpt lat="44.52214" lon="5.68657">
        <ele>818</ele>
        <time>2010-05-07T09:06:47Z</time>
      </trkpt>
      <trkpt lat="44.52217" lon="5.6863">
        <ele>819</ele>
        <time>2010-05-07T09:07:01Z</time>
      </trkpt>
      <trkpt lat="44.52226" lon="5.68603">
        <ele>820</ele>
        <time>2010-05-07T09:07:15Z</time>
      </trkpt>
      <trkpt lat="44.52242" lon="5.68581">
        <ele>820</ele>
        <time>2010-05-07T09:07:29Z</time>
      </trkpt>
      <trkpt lat="44.52258" lon="5.68564">
        <ele>822</ele>
        <time>2010-05-07T09:07:43Z</time>
      </trkpt>
      <trkpt lat="44.52275" lon="5.68544">
        <ele>820</ele>
        <time>2010-05-07T09:07:57Z</time>
      </trkpt>
      <trkpt lat="44.52297" lon="5.68519">
        <ele>820</ele>
        <time>2010-05-07T09:08:11Z</time>
      </trkpt>
      <trkpt lat="44.52313" lon="5.68499">
        <ele>819</ele>
        <time>2010-05-07T09:08:25Z</time>
      </trkpt>
      <trkpt lat="44.52329" lon="5.68478">
        <ele>821</ele>
        <time>2010-05-07T09:08:39Z</time>
      </trkpt>
      <trkpt lat="44.52346" lon="5.68462">
        <ele>823</ele>
        <time>2010-05-07T09:08:53Z</time>
      </trkpt>
      <trkpt lat="44.52363" lon="5.68444">
        <ele>818</ele>
        <time>2010-05-07T09:09:07Z</time>
      </trkpt>
      <trkpt lat="44.52379" lon="5.68424">
        <ele>821</ele>
        <time>2010-05-07T09:09:21Z</time>
      </trkpt>
      <trkpt lat="44.52388" lon="5.68399">
        <ele>816</ele>
        <time>2010-05-07T09:09:35Z</time>
      </trkpt>
      <trkpt lat="44.52383" lon="5.68369">
        <ele>818</ele>
        <time>2010-05-07T09:09:49Z</time>
      </trkpt>
      <trkpt lat="44.52372" lon="5.68338">
        <ele>814</ele>
        <time>2010-05-07T09:10:03Z</time>
      </trkpt>
      <trkpt lat="44.52376" lon="5.68315">
        <ele>821</ele>
        <time>2010-05-07T09:10:17Z</time>
      </trkpt>
      <trkpt lat="44.52388" lon="5.68279">
        <ele>818</ele>
        <time>2010-05-07T09:10:31Z</time>
      </trkpt>
      <trkpt lat="44.52404" lon="5.68257">
        <ele>821</ele>
        <time>2010-05-07T09:10:45Z</time>
      </trkpt>
      <trkpt lat="44.52419" lon="5.68234">
        <ele>823</ele>
        <time>2010-05-07T09:10:59Z</time>
      </trkpt>
      <trkpt lat="44.52434" lon="5.68213">
        <ele>820</ele>
        <time>2010-05-07T09:11:13Z</time>
      </trkpt>
      <trkpt lat="44.52449" lon="5.68191">
        <ele>819</ele>
        <time>2010-05-07T09:11:27Z</time>
      </trkpt>
      <trkpt lat="44.52463" lon="5.68165">
        <ele>818</ele>
        <time>2010-05-07T09:11:41Z</time>
      </trkpt>
      <trkpt lat="44.5248" lon="5.68141">
        <ele>820</ele>
        <time>2010-05-07T09:11:55Z</time>
      </trkpt>
      <trkpt lat="44.52494" lon="5.68119">
        <ele>822</ele>
        <time>2010-05-07T09:12:09Z</time>
      </trkpt>
      <trkpt lat="44.52507" lon="5.68097">
        <ele>822</ele>
        <time>2010-05-07T09:12:23Z</time>
      </trkpt>
      <trkpt lat="44.52506" lon="5.68069">
        <ele>831</ele>
        <time>2010-05-07T09:12:37Z</time>
      </trkpt>
      <trkpt lat="44.52507" lon="5.68041">
        <ele>829</ele>
        <time>2010-05-07T09:12:51Z</time>
      </trkpt>
      <trkpt lat="44.52521" lon="5.68019">
        <ele>828</ele>
        <time>2010-05-07T09:13:05Z</time>
      </trkpt>
      <trkpt lat="44.52537" lon="5.68">
        <ele>826</ele>
        <time>2010-05-07T09:13:19Z</time>
      </trkpt>
      <trkpt lat="44.52537" lon="5.67962">
        <ele>833</ele>
        <time>2010-05-07T09:13:33Z</time>
      </trkpt>
      <trkpt lat="44.52535" lon="5.67932">
        <ele>833</ele>
        <time>2010-05-07T09:13:47Z</time>
      </trkpt>
      <trkpt lat="44.5253" lon="5.67903">
        <ele>835</ele>
        <time>2010-05-07T09:14:01Z</time>
      </trkpt>
      <trkpt lat="44.52523" lon="5.67874">
        <ele>832</ele>
        <time>2010-05-07T09:14:15Z</time>
      </trkpt>
      <trkpt lat="44.52519" lon="5.67844">
        <ele>833</ele>
        <time>2010-05-07T09:14:29Z</time>
      </trkpt>
      <trkpt lat="44.5252" lon="5.67813">
        <ele>837</ele>
        <time>2010-05-07T09:14:43Z</time>
      </trkpt>
      <trkpt lat="44.52525" lon="5.67783">
        <ele>843</ele>
        <time>2010-05-07T09:14:57Z</time>
      </trkpt>
      <trkpt lat="44.52536" lon="5.67757">
        <ele>838</ele>
        <time>2010-05-07T09:15:11Z</time>
      </trkpt>
      <trkpt lat="44.52545" lon="5.67733">
        <ele>841</ele>
        <time>2010-05-07T09:15:25Z</time>
      </trkpt>
      <trkpt lat="44.52553" lon="5.67707">
        <ele>844</ele>
        <time>2010-05-07T09:15:39Z</time>
      </trkpt>
      <trkpt lat="44.52561" lon="5.6768">
        <ele>838</ele>
        <time>2010-05-07T09:15:53Z</time>
      </trkpt>
      <trkpt lat="44.52573" lon="5.67655">
        <ele>845</ele>
        <time>2010-05-07T09:16:07Z</time>
      </trkpt>
      <trkpt lat="44.52588" lon="5.67634">
        <ele>840</ele>
        <time>2010-05-07T09:16:21Z</time>
      </trkpt>
      <trkpt lat="44.52604" lon="5.67615">
        <ele>845</ele>
        <time>2010-05-07T09:16:35Z</time>
      </trkpt>
      <trkpt lat="44.52621" lon="5.67599">
        <ele>842</ele>
        <time>2010-05-07T09:16:49Z</time>
      </trkpt>
      <trkpt lat="44.5264" lon="5.6759">
        <ele>849</ele>
        <time>2010-05-07T09:17:03Z</time>
      </trkpt>
      <trkpt lat="44.5266" lon="5.67583">
        <ele>851</ele>
        <time>2010-05-07T09:17:17Z</time>
      </trkpt>
      <trkpt lat="44.52679" lon="5.67575">
        <ele>855</ele>
        <time>2010-05-07T09:17:31Z</time>
      </trkpt>
      <trkpt lat="44.52698" lon="5.67567">
        <ele>854</ele>
        <time>2010-05-07T09:17:45Z</time>
      </trkpt>
      <trkpt lat="44.52716" lon="5.67572">
        <ele>850</ele>
        <time>2010-05-07T09:17:59Z</time>
      </trkpt>
      <trkpt lat="44.52722" lon="5.67575">
        <ele>850</ele>
        <time>2010-05-07T09:18:13Z</time>
      </trkpt>
      <trkpt lat="44.5274" lon="5.67582">
        <ele>846</ele>
        <time>2010-05-07T09:18:27Z</time>
      </trkpt>
      <trkpt lat="44.5276" lon="5.67581">
        <ele>850</ele>
        <time>2010-05-07T09:18:41Z</time>
      </trkpt>
      <trkpt lat="44.52778" lon="5.67573">
        <ele>845</ele>
        <time>2010-05-07T09:18:55Z</time>
      </trkpt>
      <trkpt lat="44.52793" lon="5.67554">
        <ele>839</ele>
        <time>2010-05-07T09:19:09Z</time>
      </trkpt>
      <trkpt lat="44.5281" lon="5.67534">
        <ele>846</ele>
        <time>2010-05-07T09:19:23Z</time>
      </trkpt>
      <trkpt lat="44.52831" lon="5.67525">
        <ele>841</ele>
        <time>2010-05-07T09:19:37Z</time>
      </trkpt>
      <trkpt lat="44.5285" lon="5.67521">
        <ele>838</ele>
        <time>2010-05-07T09:19:51Z</time>
      </trkpt>
      <trkpt lat="44.52869" lon="5.67518">
        <ele>839</ele>
        <time>2010-05-07T09:20:05Z</time>
      </trkpt>
      <trkpt lat="44.52889" lon="5.67514">
        <ele>831</ele>
        <time>2010-05-07T09:20:19Z</time>
      </trkpt>
      <trkpt lat="44.5291" lon="5.67505">
        <ele>838</ele>
        <time>2010-05-07T09:20:33Z</time>
      </trkpt>
      <trkpt lat="44.52931" lon="5.67493">
        <ele>841</ele>
        <time>2010-05-07T09:20:47Z</time>
      </trkpt>
      <trkpt lat="44.52951" lon="5.67481">
        <ele>837</ele>
        <time>2010-05-07T09:21:01Z</time>
      </trkpt>
      <trkpt lat="44.52969" lon="5.67469">
        <ele>834</ele>
        <time>2010-05-07T09:21:15Z</time>
      </trkpt>
      <trkpt lat="44.52979" lon="5.67446">
        <ele>836</ele>
        <time>2010-05-07T09:21:29Z</time>
      </trkpt>
      <trkpt lat="44.52997" lon="5.67436">
        <ele>832</ele>
        <time>2010-05-07T09:21:43Z</time>
      </trkpt>
      <trkpt lat="44.53018" lon="5.67433">
        <ele>830</ele>
        <time>2010-05-07T09:21:57Z</time>
      </trkpt>
      <trkpt lat="44.53037" lon="5.67422">
        <ele>831</ele>
        <time>2010-05-07T09:22:11Z</time>
      </trkpt>
      <trkpt lat="44.53054" lon="5.67406">
        <ele>833</ele>
        <time>2010-05-07T09:22:25Z</time>
      </trkpt>
      <trkpt lat="44.53072" lon="5.67391">
        <ele>838</ele>
        <time>2010-05-07T09:22:39Z</time>
      </trkpt>
      <trkpt lat="44.53087" lon="5.67374">
        <ele>831</ele>
        <time>2010-05-07T09:22:53Z</time>
      </trkpt>
      <trkpt lat="44.53102" lon="5.67354">
        <ele>823</ele>
        <time>2010-05-07T09:23:07Z</time>
      </trkpt>
      <trkpt lat="44.53116" lon="5.67335">
        <ele>829</ele>
        <time>2010-05-07T09:23:21Z</time>
      </trkpt>
      <trkpt lat="44.53132" lon="5.6732">
        <ele>830</ele>
        <time>2010-05-07T09:23:35Z</time>
      </trkpt>
      <trkpt lat="44.5315" lon="5.67305">
        <ele>823</ele>
        <time>2010-05-07T09:23:49Z</time>
      </trkpt>
      <trkpt lat="44.53168" lon="5.67288">
        <ele>827</ele>
        <time>2010-05-07T09:24:03Z</time>
      </trkpt>
      <trkpt lat="44.53188" lon="5.67274">
        <ele>830</ele>
        <time>2010-05-07T09:24:17Z</time>
      </trkpt>
      <trkpt lat="44.53209" lon="5.67276">
        <ele>824</ele>
        <time>2010-05-07T09:24:31Z</time>
      </trkpt>
      <trkpt lat="44.5322" lon="5.67279">
        <ele>823</ele>
        <time>2010-05-07T09:24:45Z</time>
      </trkpt>
      <trkpt lat="44.53209" lon="5.67278">
        <ele>823</ele>
        <time>2010-05-07T09:24:59Z</time>
      </trkpt>
      <trkpt lat="44.53189" lon="5.67276">
        <ele>825</ele>
        <time>2010-05-07T09:25:13Z</time>
      </trkpt>
      <trkpt lat="44.53188" lon="5.67277">
        <ele>825</ele>
        <time>2010-05-07T09:25:27Z</time>
      </trkpt>
      <trkpt lat="44.53188" lon="5.67277">
        <ele>828</ele>
        <time>2010-05-07T09:25:41Z</time>
      </trkpt>
      <trkpt lat="44.53213" lon="5.67279">
        <ele>824</ele>
        <time>2010-05-07T09:25:55Z</time>
      </trkpt>
      <trkpt lat="44.5323" lon="5.67265">
        <ele>823</ele>
        <time>2010-05-07T09:26:09Z</time>
      </trkpt>
      <trkpt lat="44.53233" lon="5.67233">
        <ele>826</ele>
        <time>2010-05-07T09:26:23Z</time>
      </trkpt>
      <trkpt lat="44.53237" lon="5.67201">
        <ele>823</ele>
        <time>2010-05-07T09:26:37Z</time>
      </trkpt>
      <trkpt lat="44.53244" lon="5.67172">
        <ele>825</ele>
        <time>2010-05-07T09:26:51Z</time>
      </trkpt>
      <trkpt lat="44.53261" lon="5.67159">
        <ele>826</ele>
        <time>2010-05-07T09:27:05Z</time>
      </trkpt>
      <trkpt lat="44.53278" lon="5.6714">
        <ele>828</ele>
        <time>2010-05-07T09:27:19Z</time>
      </trkpt>
      <trkpt lat="44.53295" lon="5.6712">
        <ele>827</ele>
        <time>2010-05-07T09:27:33Z</time>
      </trkpt>
      <trkpt lat="44.53311" lon="5.67098">
        <ele>827</ele>
        <time>2010-05-07T09:27:47Z</time>
      </trkpt>
      <trkpt lat="44.53319" lon="5.67058">
        <ele>830</ele>
        <time>2010-05-07T09:28:01Z</time>
      </trkpt>
      <trkpt lat="44.53324" lon="5.67028">
        <ele>831</ele>
        <time>2010-05-07T09:28:15Z</time>
      </trkpt>
      <trkpt lat="44.53329" lon="5.67">
        <ele>834</ele>
        <time>2010-05-07T09:28:29Z</time>
      </trkpt>
      <trkpt lat="44.53331" lon="5.66973">
        <ele>833</ele>
        <time>2010-05-07T09:28:43Z</time>
      </trkpt>
      <trkpt lat="44.53335" lon="5.66945">
        <ele>826</ele>
        <time>2010-05-07T09:28:57Z</time>
      </trkpt>
      <trkpt lat="44.53332" lon="5.66924">
        <ele>837</ele>
        <time>2010-05-07T09:29:11Z</time>
      </trkpt>
      <trkpt lat="44.5333" lon="5.66923">
        <ele>839</ele>
        <time>2010-05-07T09:29:25Z</time>
      </trkpt>
      <trkpt lat="44.5333" lon="5.66925">
        <ele>839</ele>
        <time>2010-05-07T09:29:39Z</time>
      </trkpt>
      <trkpt lat="44.53342" lon="5.66938">
        <ele>837</ele>
        <time>2010-05-07T09:29:53Z</time>
      </trkpt>
      <trkpt lat="44.53358" lon="5.66954">
        <ele>838</ele>
        <time>2010-05-07T09:30:07Z</time>
      </trkpt>
      <trkpt lat="44.53378" lon="5.66965">
        <ele>836</ele>
        <time>2010-05-07T09:30:21Z</time>
      </trkpt>
      <trkpt lat="44.53398" lon="5.66969">
        <ele>835</ele>
        <time>2010-05-07T09:30:35Z</time>
      </trkpt>
      <trkpt lat="44.53411" lon="5.66978">
        <ele>834</ele>
        <time>2010-05-07T09:30:49Z</time>
      </trkpt>
      <trkpt lat="44.53409" lon="5.66981">
        <ele>835</ele>
        <time>2010-05-07T09:31:03Z</time>
      </trkpt>
      <trkpt lat="44.53409" lon="5.66982">
        <ele>836</ele>
        <time>2010-05-07T09:31:17Z</time>
      </trkpt>
      <trkpt lat="44.5343" lon="5.66975">
        <ele>835</ele>
        <time>2010-05-07T09:31:31Z</time>
      </trkpt>
      <trkpt lat="44.53447" lon="5.66965">
        <ele>835</ele>
        <time>2010-05-07T09:31:45Z</time>
      </trkpt>
      <trkpt lat="44.53463" lon="5.66955">
        <ele>832</ele>
        <time>2010-05-07T09:31:59Z</time>
      </trkpt>
      <trkpt lat="44.53483" lon="5.66961">
        <ele>830</ele>
        <time>2010-05-07T09:32:13Z</time>
      </trkpt>
      <trkpt lat="44.53495" lon="5.66986">
        <ele>830</ele>
        <time>2010-05-07T09:32:27Z</time>
      </trkpt>
      <trkpt lat="44.53513" lon="5.66982">
        <ele>829</ele>
        <time>2010-05-07T09:32:41Z</time>
      </trkpt>
      <trkpt lat="44.53531" lon="5.66964">
        <ele>828</ele>
        <time>2010-05-07T09:32:55Z</time>
      </trkpt>
      <trkpt lat="44.53545" lon="5.66946">
        <ele>832</ele>
        <time>2010-05-07T09:33:09Z</time>
      </trkpt>
      <trkpt lat="44.53563" lon="5.66928">
        <ele>827</ele>
        <time>2010-05-07T09:33:23Z</time>
      </trkpt>
      <trkpt lat="44.53582" lon="5.66914">
        <ele>831</ele>
        <time>2010-05-07T09:33:37Z</time>
      </trkpt>
      <trkpt lat="44.53603" lon="5.66912">
        <ele>826</ele>
        <time>2010-05-07T09:33:51Z</time>
      </trkpt>
      <trkpt lat="44.53626" lon="5.6692">
        <ele>824</ele>
        <time>2010-05-07T09:34:05Z</time>
      </trkpt>
      <trkpt lat="44.53647" lon="5.66931">
        <ele>824</ele>
        <time>2010-05-07T09:34:19Z</time>
      </trkpt>
      <trkpt lat="44.53668" lon="5.66939">
        <ele>823</ele>
        <time>2010-05-07T09:34:33Z</time>
      </trkpt>
      <trkpt lat="44.53698" lon="5.66942">
        <ele>822</ele>
        <time>2010-05-07T09:34:47Z</time>
      </trkpt>
      <trkpt lat="44.5372" lon="5.66948">
        <ele>826</ele>
        <time>2010-05-07T09:35:01Z</time>
      </trkpt>
      <trkpt lat="44.53741" lon="5.66958">
        <ele>828</ele>
        <time>2010-05-07T09:35:15Z</time>
      </trkpt>
      <trkpt lat="44.53762" lon="5.66968">
        <ele>824</ele>
        <time>2010-05-07T09:35:29Z</time>
      </trkpt>
      <trkpt lat="44.53782" lon="5.66984">
        <ele>829</ele>
        <time>2010-05-07T09:35:43Z</time>
      </trkpt>
      <trkpt lat="44.53804" lon="5.67006">
        <ele>825</ele>
        <time>2010-05-07T09:35:57Z</time>
      </trkpt>
      <trkpt lat="44.53832" lon="5.66993">
        <ele>826</ele>
        <time>2010-05-07T09:36:11Z</time>
      </trkpt>
      <trkpt lat="44.53872" lon="5.67024">
        <ele>824</ele>
        <time>2010-05-07T09:36:25Z</time>
      </trkpt>
      <trkpt lat="44.53915" lon="5.67039">
        <ele>828</ele>
        <time>2010-05-07T09:36:39Z</time>
      </trkpt>
      <trkpt lat="44.53949" lon="5.67092">
        <ele>826</ele>
        <time>2010-05-07T09:36:53Z</time>
      </trkpt>
      <trkpt lat="44.53962" lon="5.67143">
        <ele>824</ele>
        <time>2010-05-07T09:37:07Z</time>
      </trkpt>
      <trkpt lat="44.53974" lon="5.67149">
        <ele>823</ele>
        <time>2010-05-07T09:37:21Z</time>
      </trkpt>
      <trkpt lat="44.53974" lon="5.67148">
        <ele>824</ele>
        <time>2010-05-07T09:37:35Z</time>
      </trkpt>
      <trkpt lat="44.53995" lon="5.67145">
        <ele>823</ele>
        <time>2010-05-07T09:37:49Z</time>
      </trkpt>
      <trkpt lat="44.54012" lon="5.67159">
        <ele>822</ele>
        <time>2010-05-07T09:38:03Z</time>
      </trkpt>
      <trkpt lat="44.54033" lon="5.67151">
        <ele>820</ele>
        <time>2010-05-07T09:38:17Z</time>
      </trkpt>
      <trkpt lat="44.54051" lon="5.67147">
        <ele>823</ele>
        <time>2010-05-07T09:38:31Z</time>
      </trkpt>
      <trkpt lat="44.54093" lon="5.67158">
        <ele>825</ele>
        <time>2010-05-07T09:38:45Z</time>
      </trkpt>
      <trkpt lat="44.54138" lon="5.67163">
        <ele>823</ele>
        <time>2010-05-07T09:38:59Z</time>
      </trkpt>
      <trkpt lat="44.54181" lon="5.67139">
        <ele>823</ele>
        <time>2010-05-07T09:39:13Z</time>
      </trkpt>
      <trkpt lat="44.54227" lon="5.67132">
        <ele>821</ele>
        <time>2010-05-07T09:39:27Z</time>
      </trkpt>
      <trkpt lat="44.54275" lon="5.67133">
        <ele>823</ele>
        <time>2010-05-07T09:39:41Z</time>
      </trkpt>
      <trkpt lat="44.54275" lon="5.67133">
        <ele>823</ele>
      </trkpt>
      <trkpt lat="44.54294" lon="5.67145">
        <ele>824</ele>
        <time>2010-05-07T09:39:55Z</time>
      </trkpt>
      <trkpt lat="44.54294" lon="5.67145">
        <ele>824</ele>
      </trkpt>
      <trkpt lat="44.54299" lon="5.67127">
        <ele>822</ele>
        <time>2010-05-07T09:43:39Z</time>
      </trkpt>
      <trkpt lat="44.54319" lon="5.67129">
        <ele>823</ele>
        <time>2010-05-07T09:43:53Z</time>
      </trkpt>
      <trkpt lat="44.5434" lon="5.67132">
        <ele>824</ele>
        <time>2010-05-07T09:44:07Z</time>
      </trkpt>
      <trkpt lat="44.54355" lon="5.67138">
        <ele>823</ele>
        <time>2010-05-07T09:44:21Z</time>
      </trkpt>
      <trkpt lat="44.54372" lon="5.67141">
        <ele>822</ele>
        <time>2010-05-07T09:44:35Z</time>
      </trkpt>
      <trkpt lat="44.54372" lon="5.67144">
        <ele>822</ele>
        <time>2010-05-07T09:45:17Z</time>
      </trkpt>
      <trkpt lat="44.54373" lon="5.67154">
        <ele>822</ele>
        <time>2010-05-07T09:45:31Z</time>
      </trkpt>
      <trkpt lat="44.54372" lon="5.67157">
        <ele>822</ele>
        <time>2010-05-07T09:45:45Z</time>
      </trkpt>
      <trkpt lat="44.54374" lon="5.67156">
        <ele>823</ele>
        <time>2010-05-07T09:45:59Z</time>
      </trkpt>
      <trkpt lat="44.54372" lon="5.67155">
        <ele>822</ele>
        <time>2010-05-07T09:46:13Z</time>
      </trkpt>
      <trkpt lat="44.54374" lon="5.67155">
        <ele>821</ele>
        <time>2010-05-07T09:46:27Z</time>
      </trkpt>
      <trkpt lat="44.54383" lon="5.67163">
        <ele>819</ele>
        <time>2010-05-07T09:46:41Z</time>
      </trkpt>
      <trkpt lat="44.54384" lon="5.67164">
        <ele>819</ele>
        <time>2010-05-07T09:46:55Z</time>
      </trkpt>
      <trkpt lat="44.54386" lon="5.67164">
        <ele>819</ele>
        <time>2010-05-07T09:47:09Z</time>
      </trkpt>
      <trkpt lat="44.54393" lon="5.67156">
        <ele>821</ele>
        <time>2010-05-07T09:47:23Z</time>
      </trkpt>
      <trkpt lat="44.54402" lon="5.67146">
        <ele>821</ele>
        <time>2010-05-07T09:47:37Z</time>
      </trkpt>
      <trkpt lat="44.54408" lon="5.67143">
        <ele>820</ele>
        <time>2010-05-07T09:47:51Z</time>
      </trkpt>
      <trkpt lat="44.54407" lon="5.67144">
        <ele>820</ele>
        <time>2010-05-07T09:48:05Z</time>
      </trkpt>
      <trkpt lat="44.54408" lon="5.6714">
        <ele>820</ele>
        <time>2010-05-07T09:48:19Z</time>
      </trkpt>
      <trkpt lat="44.54411" lon="5.67142">
        <ele>820</ele>
        <time>2010-05-07T09:48:33Z</time>
      </trkpt>
      <trkpt lat="44.54424" lon="5.67156">
        <ele>821</ele>
        <time>2010-05-07T09:48:47Z</time>
      </trkpt>
      <trkpt lat="44.54437" lon="5.67153">
        <ele>820</ele>
        <time>2010-05-07T09:49:01Z</time>
      </trkpt>
      <trkpt lat="44.54449" lon="5.67148">
        <ele>821</ele>
        <time>2010-05-07T09:49:15Z</time>
      </trkpt>
      <trkpt lat="44.5445" lon="5.67148">
        <ele>821</ele>
        <time>2010-05-07T09:49:29Z</time>
      </trkpt>
      <trkpt lat="44.54441" lon="5.67161">
        <ele>822</ele>
        <time>2010-05-07T09:49:43Z</time>
      </trkpt>
      <trkpt lat="44.54438" lon="5.67183">
        <ele>823</ele>
        <time>2010-05-07T09:49:57Z</time>
      </trkpt>
      <trkpt lat="44.54447" lon="5.67203">
        <ele>823</ele>
        <time>2010-05-07T09:50:11Z</time>
      </trkpt>
      <trkpt lat="44.54456" lon="5.6722">
        <ele>824</ele>
        <time>2010-05-07T09:50:25Z</time>
      </trkpt>
      <trkpt lat="44.54471" lon="5.67221">
        <ele>825</ele>
        <time>2010-05-07T09:50:39Z</time>
      </trkpt>
      <trkpt lat="44.54483" lon="5.6724">
        <ele>823</ele>
        <time>2010-05-07T09:50:53Z</time>
      </trkpt>
      <trkpt lat="44.54493" lon="5.67245">
        <ele>824</ele>
        <time>2010-05-07T09:51:07Z</time>
      </trkpt>
      <trkpt lat="44.54501" lon="5.67268">
        <ele>823</ele>
        <time>2010-05-07T09:51:21Z</time>
      </trkpt>
      <trkpt lat="44.54506" lon="5.67289">
        <ele>824</ele>
        <time>2010-05-07T09:51:35Z</time>
      </trkpt>
      <trkpt lat="44.54503" lon="5.67311">
        <ele>824</ele>
        <time>2010-05-07T09:51:49Z</time>
      </trkpt>
      <trkpt lat="44.54511" lon="5.67317">
        <ele>824</ele>
        <time>2010-05-07T09:52:03Z</time>
      </trkpt>
      <trkpt lat="44.54529" lon="5.67336">
        <ele>825</ele>
        <time>2010-05-07T09:52:17Z</time>
      </trkpt>
      <trkpt lat="44.54546" lon="5.67353">
        <ele>826</ele>
        <time>2010-05-07T09:52:31Z</time>
      </trkpt>
      <trkpt lat="44.54566" lon="5.6737">
        <ele>826</ele>
        <time>2010-05-07T09:52:45Z</time>
      </trkpt>
      <trkpt lat="44.54578" lon="5.6738">
        <ele>827</ele>
        <time>2010-05-07T09:52:59Z</time>
      </trkpt>
      <trkpt lat="44.54594" lon="5.6738">
        <ele>827</ele>
        <time>2010-05-07T09:53:13Z</time>
      </trkpt>
      <trkpt lat="44.54613" lon="5.6738">
        <ele>828</ele>
        <time>2010-05-07T09:53:27Z</time>
      </trkpt>
      <trkpt lat="44.54633" lon="5.67382">
        <ele>829</ele>
        <time>2010-05-07T09:53:41Z</time>
      </trkpt>
      <trkpt lat="44.54653" lon="5.67381">
        <ele>830</ele>
        <time>2010-05-07T09:53:55Z</time>
      </trkpt>
      <trkpt lat="44.54673" lon="5.67381">
        <ele>830</ele>
        <time>2010-05-07T09:54:09Z</time>
      </trkpt>
      <trkpt lat="44.54693" lon="5.67382">
        <ele>830</ele>
        <time>2010-05-07T09:54:23Z</time>
      </trkpt>
      <trkpt lat="44.54713" lon="5.67389">
        <ele>831</ele>
        <time>2010-05-07T09:54:37Z</time>
      </trkpt>
      <trkpt lat="44.54732" lon="5.67394">
        <ele>831</ele>
        <time>2010-05-07T09:54:51Z</time>
      </trkpt>
      <trkpt lat="44.54751" lon="5.67398">
        <ele>833</ele>
        <time>2010-05-07T09:55:05Z</time>
      </trkpt>
      <trkpt lat="44.54766" lon="5.67416">
        <ele>834</ele>
        <time>2010-05-07T09:55:19Z</time>
      </trkpt>
      <trkpt lat="44.54766" lon="5.67446">
        <ele>834</ele>
        <time>2010-05-07T09:55:33Z</time>
      </trkpt>
      <trkpt lat="44.54765" lon="5.67477">
        <ele>835</ele>
        <time>2010-05-07T09:55:47Z</time>
      </trkpt>
      <trkpt lat="44.54764" lon="5.67507">
        <ele>834</ele>
        <time>2010-05-07T09:56:01Z</time>
      </trkpt>
      <trkpt lat="44.54765" lon="5.67537">
        <ele>835</ele>
        <time>2010-05-07T09:56:15Z</time>
      </trkpt>
      <trkpt lat="44.5478" lon="5.6755">
        <ele>835</ele>
        <time>2010-05-07T09:56:29Z</time>
      </trkpt>
      <trkpt lat="44.548" lon="5.67552">
        <ele>836</ele>
        <time>2010-05-07T09:56:43Z</time>
      </trkpt>
      <trkpt lat="44.54819" lon="5.67552">
        <ele>836</ele>
        <time>2010-05-07T09:56:57Z</time>
      </trkpt>
      <trkpt lat="44.54839" lon="5.67553">
        <ele>836</ele>
        <time>2010-05-07T09:57:11Z</time>
      </trkpt>
      <trkpt lat="44.54859" lon="5.67552">
        <ele>837</ele>
        <time>2010-05-07T09:57:25Z</time>
      </trkpt>
      <trkpt lat="44.54879" lon="5.6755">
        <ele>838</ele>
        <time>2010-05-07T09:57:39Z</time>
      </trkpt>
      <trkpt lat="44.54898" lon="5.67545">
        <ele>838</ele>
        <time>2010-05-07T09:57:53Z</time>
      </trkpt>
      <trkpt lat="44.54919" lon="5.6754">
        <ele>839</ele>
        <time>2010-05-07T09:58:07Z</time>
      </trkpt>
      <trkpt lat="44.5494" lon="5.67531">
        <ele>840</ele>
        <time>2010-05-07T09:58:21Z</time>
      </trkpt>
      <trkpt lat="44.54961" lon="5.67521">
        <ele>840</ele>
        <time>2010-05-07T09:58:35Z</time>
      </trkpt>
      <trkpt lat="44.5498" lon="5.6751">
        <ele>841</ele>
        <time>2010-05-07T09:58:49Z</time>
      </trkpt>
      <trkpt lat="44.55001" lon="5.67497">
        <ele>841</ele>
        <time>2010-05-07T09:59:03Z</time>
      </trkpt>
      <trkpt lat="44.55018" lon="5.67487">
        <ele>842</ele>
        <time>2010-05-07T09:59:17Z</time>
      </trkpt>
      <trkpt lat="44.55038" lon="5.67484">
        <ele>842</ele>
        <time>2010-05-07T09:59:31Z</time>
      </trkpt>
      <trkpt lat="44.55059" lon="5.67483">
        <ele>841</ele>
        <time>2010-05-07T09:59:45Z</time>
      </trkpt>
      <trkpt lat="44.55077" lon="5.67478">
        <ele>842</ele>
        <time>2010-05-07T09:59:59Z</time>
      </trkpt>
      <trkpt lat="44.55095" lon="5.67473">
        <ele>844</ele>
        <time>2010-05-07T10:00:13Z</time>
      </trkpt>
      <trkpt lat="44.55098" lon="5.67483">
        <ele>843</ele>
        <time>2010-05-07T10:03:01Z</time>
      </trkpt>
      <trkpt lat="44.55146" lon="5.6746">
        <ele>844</ele>
        <time>2010-05-07T10:02:47Z</time>
      </trkpt>
      <trkpt lat="44.55164" lon="5.67458">
        <ele>845</ele>
        <time>2010-05-07T10:02:33Z</time>
      </trkpt>
      <trkpt lat="44.5515" lon="5.67461">
        <ele>845</ele>
        <time>2010-05-07T10:02:19Z</time>
      </trkpt>
      <trkpt lat="44.5517" lon="5.67453">
        <ele>844</ele>
        <time>2010-05-07T10:10:43Z</time>
      </trkpt>
      <trkpt lat="44.55185" lon="5.67432">
        <ele>843</ele>
        <time>2010-05-07T10:10:57Z</time>
      </trkpt>
      <trkpt lat="44.55207" lon="5.67407">
        <ele>844</ele>
        <time>2010-05-07T10:11:11Z</time>
      </trkpt>
      <trkpt lat="44.55229" lon="5.67402">
        <ele>844</ele>
        <time>2010-05-07T10:11:25Z</time>
      </trkpt>
      <trkpt lat="44.55251" lon="5.67407">
        <ele>846</ele>
        <time>2010-05-07T10:11:39Z</time>
      </trkpt>
      <trkpt lat="44.55277" lon="5.67407">
        <ele>847</ele>
        <time>2010-05-07T10:11:53Z</time>
      </trkpt>
      <trkpt lat="44.55287" lon="5.67378">
        <ele>847</ele>
        <time>2010-05-07T10:12:07Z</time>
      </trkpt>
      <trkpt lat="44.55298" lon="5.67351">
        <ele>848</ele>
        <time>2010-05-07T10:12:21Z</time>
      </trkpt>
      <trkpt lat="44.55319" lon="5.6734">
        <ele>849</ele>
        <time>2010-05-07T10:12:35Z</time>
      </trkpt>
      <trkpt lat="44.55345" lon="5.67332">
        <ele>851</ele>
        <time>2010-05-07T10:12:49Z</time>
      </trkpt>
      <trkpt lat="44.55367" lon="5.67324">
        <ele>853</ele>
        <time>2010-05-07T10:13:03Z</time>
      </trkpt>
      <trkpt lat="44.55384" lon="5.67324">
        <ele>853</ele>
        <time>2010-05-07T10:13:17Z</time>
      </trkpt>
      <trkpt lat="44.55399" lon="5.67347">
        <ele>853</ele>
        <time>2010-05-07T10:13:31Z</time>
      </trkpt>
      <trkpt lat="44.55414" lon="5.67367">
        <ele>854</ele>
        <time>2010-05-07T10:13:45Z</time>
      </trkpt>
      <trkpt lat="44.55431" lon="5.67385">
        <ele>855</ele>
        <time>2010-05-07T10:13:59Z</time>
      </trkpt>
      <trkpt lat="44.55445" lon="5.67404">
        <ele>857</ele>
        <time>2010-05-07T10:14:13Z</time>
      </trkpt>
      <trkpt lat="44.55458" lon="5.6743">
        <ele>859</ele>
        <time>2010-05-07T10:14:27Z</time>
      </trkpt>
      <trkpt lat="44.5547" lon="5.6745">
        <ele>859</ele>
        <time>2010-05-07T10:14:41Z</time>
      </trkpt>
      <trkpt lat="44.55482" lon="5.67468">
        <ele>858</ele>
        <time>2010-05-07T10:14:55Z</time>
      </trkpt>
      <trkpt lat="44.55497" lon="5.67483">
        <ele>857</ele>
        <time>2010-05-07T10:15:09Z</time>
      </trkpt>
      <trkpt lat="44.55514" lon="5.67495">
        <ele>856</ele>
        <time>2010-05-07T10:15:23Z</time>
      </trkpt>
      <trkpt lat="44.5553" lon="5.67513">
        <ele>856</ele>
        <time>2010-05-07T10:15:37Z</time>
      </trkpt>
      <trkpt lat="44.55547" lon="5.67532">
        <ele>856</ele>
        <time>2010-05-07T10:15:51Z</time>
      </trkpt>
      <trkpt lat="44.55563" lon="5.67551">
        <ele>858</ele>
        <time>2010-05-07T10:16:05Z</time>
      </trkpt>
      <trkpt lat="44.55578" lon="5.67572">
        <ele>858</ele>
        <time>2010-05-07T10:16:19Z</time>
      </trkpt>
      <trkpt lat="44.55583" lon="5.676">
        <ele>860</ele>
        <time>2010-05-07T10:16:33Z</time>
      </trkpt>
      <trkpt lat="44.556" lon="5.67619">
        <ele>860</ele>
        <time>2010-05-07T10:16:47Z</time>
      </trkpt>
      <trkpt lat="44.55619" lon="5.67633">
        <ele>861</ele>
        <time>2010-05-07T10:17:01Z</time>
      </trkpt>
      <trkpt lat="44.55634" lon="5.67657">
        <ele>862</ele>
        <time>2010-05-07T10:17:15Z</time>
      </trkpt>
      <trkpt lat="44.55649" lon="5.67681">
        <ele>862</ele>
        <time>2010-05-07T10:17:29Z</time>
      </trkpt>
      <trkpt lat="44.55665" lon="5.67699">
        <ele>863</ele>
        <time>2010-05-07T10:17:43Z</time>
      </trkpt>
      <trkpt lat="44.55682" lon="5.67716">
        <ele>863</ele>
        <time>2010-05-07T10:17:57Z</time>
      </trkpt>
      <trkpt lat="44.55706" lon="5.67745">
        <ele>866</ele>
        <time>2010-05-07T10:18:11Z</time>
      </trkpt>
      <trkpt lat="44.55724" lon="5.67766">
        <ele>867</ele>
        <time>2010-05-07T10:18:25Z</time>
      </trkpt>
      <trkpt lat="44.55739" lon="5.67782">
        <ele>867</ele>
        <time>2010-05-07T10:18:39Z</time>
      </trkpt>
      <trkpt lat="44.55755" lon="5.67802">
        <ele>868</ele>
        <time>2010-05-07T10:18:53Z</time>
      </trkpt>
      <trkpt lat="44.55768" lon="5.67826">
        <ele>870</ele>
        <time>2010-05-07T10:19:07Z</time>
      </trkpt>
      <trkpt lat="44.55777" lon="5.67854">
        <ele>870</ele>
        <time>2010-05-07T10:19:21Z</time>
      </trkpt>
      <trkpt lat="44.55789" lon="5.67879">
        <ele>872</ele>
        <time>2010-05-07T10:19:35Z</time>
      </trkpt>
      <trkpt lat="44.55802" lon="5.67902">
        <ele>872</ele>
        <time>2010-05-07T10:19:49Z</time>
      </trkpt>
      <trkpt lat="44.5582" lon="5.67929">
        <ele>873</ele>
        <time>2010-05-07T10:20:03Z</time>
      </trkpt>
      <trkpt lat="44.55835" lon="5.67953">
        <ele>874</ele>
        <time>2010-05-07T10:20:17Z</time>
      </trkpt>
      <trkpt lat="44.5585" lon="5.67976">
        <ele>875</ele>
        <time>2010-05-07T10:20:31Z</time>
      </trkpt>
      <trkpt lat="44.5587" lon="5.67982">
        <ele>875</ele>
        <time>2010-05-07T10:20:45Z</time>
      </trkpt>
      <trkpt lat="44.5589" lon="5.67993">
        <ele>876</ele>
        <time>2010-05-07T10:20:59Z</time>
      </trkpt>
      <trkpt lat="44.55914" lon="5.68012">
        <ele>879</ele>
        <time>2010-05-07T10:21:13Z</time>
      </trkpt>
      <trkpt lat="44.55933" lon="5.68018">
        <ele>879</ele>
        <time>2010-05-07T10:21:27Z</time>
      </trkpt>
      <trkpt lat="44.55942" lon="5.68015">
        <ele>879</ele>
        <time>2010-05-07T10:21:41Z</time>
      </trkpt>
      <trkpt lat="44.55949" lon="5.68013">
        <ele>880</ele>
        <time>2010-05-07T10:21:55Z</time>
      </trkpt>
      <trkpt lat="44.55951" lon="5.68013">
        <ele>880</ele>
        <time>2010-05-07T10:22:09Z</time>
      </trkpt>
      <trkpt lat="44.5595" lon="5.68014">
        <ele>880</ele>
        <time>2010-05-07T10:22:23Z</time>
      </trkpt>
      <trkpt lat="44.55957" lon="5.68001">
        <ele>883</ele>
        <time>2010-05-07T10:22:37Z</time>
      </trkpt>
      <trkpt lat="44.55971" lon="5.67982">
        <ele>885</ele>
        <time>2010-05-07T10:22:51Z</time>
      </trkpt>
      <trkpt lat="44.55991" lon="5.67987">
        <ele>887</ele>
        <time>2010-05-07T10:23:05Z</time>
      </trkpt>
      <trkpt lat="44.56011" lon="5.67997">
        <ele>889</ele>
        <time>2010-05-07T10:23:19Z</time>
      </trkpt>
      <trkpt lat="44.56031" lon="5.68007">
        <ele>892</ele>
        <time>2010-05-07T10:23:33Z</time>
      </trkpt>
      <trkpt lat="44.56051" lon="5.68012">
        <ele>894</ele>
        <time>2010-05-07T10:23:47Z</time>
      </trkpt>
      <trkpt lat="44.56067" lon="5.68">
        <ele>897</ele>
        <time>2010-05-07T10:24:01Z</time>
      </trkpt>
      <trkpt lat="44.56074" lon="5.67977">
        <ele>899</ele>
        <time>2010-05-07T10:24:15Z</time>
      </trkpt>
      <trkpt lat="44.56079" lon="5.67951">
        <ele>900</ele>
        <time>2010-05-07T10:24:29Z</time>
      </trkpt>
      <trkpt lat="44.56074" lon="5.67928">
        <ele>902</ele>
        <time>2010-05-07T10:24:43Z</time>
      </trkpt>
      <trkpt lat="44.56064" lon="5.6791">
        <ele>905</ele>
        <time>2010-05-07T10:24:57Z</time>
      </trkpt>
      <trkpt lat="44.5608" lon="5.679">
        <ele>909</ele>
        <time>2010-05-07T10:25:11Z</time>
      </trkpt>
      <trkpt lat="44.56097" lon="5.67909">
        <ele>910</ele>
        <time>2010-05-07T10:25:25Z</time>
      </trkpt>
      <trkpt lat="44.56114" lon="5.67917">
        <ele>912</ele>
        <time>2010-05-07T10:25:39Z</time>
      </trkpt>
      <trkpt lat="44.56132" lon="5.67922">
        <ele>914</ele>
        <time>2010-05-07T10:25:53Z</time>
      </trkpt>
      <trkpt lat="44.5615" lon="5.67926">
        <ele>917</ele>
        <time>2010-05-07T10:26:07Z</time>
      </trkpt>
      <trkpt lat="44.56167" lon="5.67934">
        <ele>919</ele>
        <time>2010-05-07T10:26:21Z</time>
      </trkpt>
      <trkpt lat="44.56173" lon="5.6792">
        <ele>921</ele>
        <time>2010-05-07T10:26:35Z</time>
      </trkpt>
      <trkpt lat="44.56153" lon="5.67901">
        <ele>924</ele>
        <time>2010-05-07T10:26:49Z</time>
      </trkpt>
      <trkpt lat="44.56124" lon="5.67859">
        <ele>932</ele>
        <time>2010-05-07T10:27:03Z</time>
      </trkpt>
      <trkpt lat="44.5609" lon="5.67823">
        <ele>937</ele>
        <time>2010-05-07T10:27:17Z</time>
      </trkpt>
      <trkpt lat="44.56055" lon="5.67784">
        <ele>942</ele>
        <time>2010-05-07T10:27:31Z</time>
      </trkpt>
      <trkpt lat="44.56018" lon="5.67742">
        <ele>949</ele>
        <time>2010-05-07T10:27:45Z</time>
      </trkpt>
      <trkpt lat="44.55983" lon="5.67701">
        <ele>953</ele>
        <time>2010-05-07T10:27:59Z</time>
      </trkpt>
      <trkpt lat="44.56001" lon="5.67658">
        <ele>958</ele>
        <time>2010-05-07T10:28:13Z</time>
      </trkpt>
      <trkpt lat="44.56041" lon="5.67676">
        <ele>963</ele>
        <time>2010-05-07T10:28:27Z</time>
      </trkpt>
      <trkpt lat="44.5606" lon="5.67693">
        <ele>965</ele>
        <time>2010-05-07T10:28:41Z</time>
      </trkpt>
      <trkpt lat="44.56085" lon="5.67703">
        <ele>968</ele>
        <time>2010-05-07T10:28:55Z</time>
      </trkpt>
      <trkpt lat="44.56108" lon="5.6771">
        <ele>970</ele>
        <time>2010-05-07T10:29:09Z</time>
      </trkpt>
      <trkpt lat="44.56127" lon="5.67717">
        <ele>972</ele>
        <time>2010-05-07T10:29:23Z</time>
      </trkpt>
      <trkpt lat="44.56146" lon="5.67724">
        <ele>974</ele>
        <time>2010-05-07T10:29:37Z</time>
      </trkpt>
      <trkpt lat="44.56168" lon="5.67734">
        <ele>977</ele>
        <time>2010-05-07T10:29:51Z</time>
      </trkpt>
      <trkpt lat="44.56189" lon="5.67744">
        <ele>979</ele>
        <time>2010-05-07T10:30:05Z</time>
      </trkpt>
      <trkpt lat="44.56209" lon="5.67755">
        <ele>981</ele>
        <time>2010-05-07T10:30:19Z</time>
      </trkpt>
      <trkpt lat="44.56244" lon="5.67783">
        <ele>985</ele>
        <time>2010-05-07T10:30:33Z</time>
      </trkpt>
      <trkpt lat="44.56281" lon="5.67817">
        <ele>990</ele>
        <time>2010-05-07T10:30:47Z</time>
      </trkpt>
      <trkpt lat="44.56315" lon="5.67852">
        <ele>995</ele>
        <time>2010-05-07T10:31:01Z</time>
      </trkpt>
      <trkpt lat="44.56347" lon="5.67889">
        <ele>999</ele>
        <time>2010-05-07T10:31:15Z</time>
      </trkpt>
      <trkpt lat="44.56374" lon="5.67932">
        <ele>1001</ele>
        <time>2010-05-07T10:31:29Z</time>
      </trkpt>
      <trkpt lat="44.56399" lon="5.67971">
        <ele>1005</ele>
        <time>2010-05-07T10:31:43Z</time>
      </trkpt>
      <trkpt lat="44.56426" lon="5.67986">
        <ele>1002</ele>
        <time>2010-05-07T10:31:57Z</time>
      </trkpt>
      <trkpt lat="44.56457" lon="5.68019">
        <ele>999</ele>
        <time>2010-05-07T10:32:11Z</time>
      </trkpt>
      <trkpt lat="44.5649" lon="5.68058">
        <ele>999</ele>
        <time>2010-05-07T10:32:25Z</time>
      </trkpt>
      <trkpt lat="44.56516" lon="5.68105">
        <ele>1001</ele>
        <time>2010-05-07T10:32:39Z</time>
      </trkpt>
      <trkpt lat="44.56551" lon="5.68134">
        <ele>1005</ele>
        <time>2010-05-07T10:32:53Z</time>
      </trkpt>
      <trkpt lat="44.56593" lon="5.68131">
        <ele>1008</ele>
        <time>2010-05-07T10:33:07Z</time>
      </trkpt>
      <trkpt lat="44.56575" lon="5.6808">
        <ele>1011</ele>
        <time>2010-05-07T10:33:21Z</time>
      </trkpt>
      <trkpt lat="44.56562" lon="5.68019">
        <ele>1018</ele>
        <time>2010-05-07T10:33:35Z</time>
      </trkpt>
      <trkpt lat="44.56554" lon="5.67962">
        <ele>1023</ele>
        <time>2010-05-07T10:33:49Z</time>
      </trkpt>
      <trkpt lat="44.56553" lon="5.67906">
        <ele>1030</ele>
        <time>2010-05-07T10:34:03Z</time>
      </trkpt>
      <trkpt lat="44.56562" lon="5.67849">
        <ele>1035</ele>
        <time>2010-05-07T10:34:17Z</time>
      </trkpt>
      <trkpt lat="44.56587" lon="5.67801">
        <ele>1040</ele>
        <time>2010-05-07T10:34:31Z</time>
      </trkpt>
      <trkpt lat="44.56602" lon="5.6774">
        <ele>1044</ele>
        <time>2010-05-07T10:34:45Z</time>
      </trkpt>
      <trkpt lat="44.56618" lon="5.67685">
        <ele>1047</ele>
        <time>2010-05-07T10:34:59Z</time>
      </trkpt>
      <trkpt lat="44.56635" lon="5.67633">
        <ele>1055</ele>
        <time>2010-05-07T10:35:13Z</time>
      </trkpt>
      <trkpt lat="44.56654" lon="5.67678">
        <ele>1061</ele>
        <time>2010-05-07T10:35:27Z</time>
      </trkpt>
      <trkpt lat="44.56662" lon="5.67626">
        <ele>1067</ele>
        <time>2010-05-07T10:35:41Z</time>
      </trkpt>
      <trkpt lat="44.5668" lon="5.67576">
        <ele>1072</ele>
        <time>2010-05-07T10:35:55Z</time>
      </trkpt>
      <trkpt lat="44.56706" lon="5.67537">
        <ele>1078</ele>
        <time>2010-05-07T10:36:09Z</time>
      </trkpt>
      <trkpt lat="44.56706" lon="5.67491">
        <ele>1084</ele>
        <time>2010-05-07T10:36:23Z</time>
      </trkpt>
      <trkpt lat="44.56691" lon="5.67441">
        <ele>1090</ele>
        <time>2010-05-07T10:36:37Z</time>
      </trkpt>
      <trkpt lat="44.56698" lon="5.67389">
        <ele>1096</ele>
        <time>2010-05-07T10:36:51Z</time>
      </trkpt>
      <trkpt lat="44.56715" lon="5.67345">
        <ele>1103</ele>
        <time>2010-05-07T10:37:05Z</time>
      </trkpt>
      <trkpt lat="44.56732" lon="5.673">
        <ele>1107</ele>
        <time>2010-05-07T10:37:19Z</time>
      </trkpt>
      <trkpt lat="44.56736" lon="5.67268">
        <ele>1111</ele>
        <time>2010-05-07T10:37:33Z</time>
      </trkpt>
      <trkpt lat="44.56742" lon="5.67214">
        <ele>1114</ele>
        <time>2010-05-07T10:37:47Z</time>
      </trkpt>
      <trkpt lat="44.56748" lon="5.67169">
        <ele>1117</ele>
        <time>2010-05-07T10:38:01Z</time>
      </trkpt>
      <trkpt lat="44.56729" lon="5.67118">
        <ele>1116</ele>
        <time>2010-05-07T10:38:15Z</time>
      </trkpt>
      <trkpt lat="44.56703" lon="5.67069">
        <ele>1120</ele>
        <time>2010-05-07T10:38:29Z</time>
      </trkpt>
      <trkpt lat="44.56688" lon="5.67023">
        <ele>1123</ele>
        <time>2010-05-07T10:38:43Z</time>
      </trkpt>
      <trkpt lat="44.56672" lon="5.66974">
        <ele>1127</ele>
        <time>2010-05-07T10:38:57Z</time>
      </trkpt>
      <trkpt lat="44.56656" lon="5.66925">
        <ele>1131</ele>
        <time>2010-05-07T10:39:11Z</time>
      </trkpt>
      <trkpt lat="44.56642" lon="5.66879">
        <ele>1136</ele>
        <time>2010-05-07T10:39:25Z</time>
      </trkpt>
      <trkpt lat="44.56633" lon="5.66833">
        <ele>1140</ele>
        <time>2010-05-07T10:39:39Z</time>
      </trkpt>
      <trkpt lat="44.56655" lon="5.66791">
        <ele>1146</ele>
        <time>2010-05-07T10:39:53Z</time>
      </trkpt>
      <trkpt lat="44.56669" lon="5.66753">
        <ele>1150</ele>
        <time>2010-05-07T10:40:07Z</time>
      </trkpt>
      <trkpt lat="44.56651" lon="5.66718">
        <ele>1153</ele>
        <time>2010-05-07T10:40:21Z</time>
      </trkpt>
      <trkpt lat="44.56656" lon="5.66692">
        <ele>1157</ele>
        <time>2010-05-07T10:40:35Z</time>
      </trkpt>
      <trkpt lat="44.56676" lon="5.66698">
        <ele>1158</ele>
        <time>2010-05-07T10:40:49Z</time>
      </trkpt>
      <trkpt lat="44.56694" lon="5.6671">
        <ele>1159</ele>
        <time>2010-05-07T10:41:03Z</time>
      </trkpt>
      <trkpt lat="44.56714" lon="5.66725">
        <ele>1161</ele>
        <time>2010-05-07T10:41:17Z</time>
      </trkpt>
      <trkpt lat="44.5673" lon="5.66737">
        <ele>1162</ele>
        <time>2010-05-07T10:41:31Z</time>
      </trkpt>
      <trkpt lat="44.56747" lon="5.66748">
        <ele>1164</ele>
        <time>2010-05-07T10:41:45Z</time>
      </trkpt>
      <trkpt lat="44.56762" lon="5.66751">
        <ele>1164</ele>
        <time>2010-05-07T10:41:59Z</time>
      </trkpt>
      <trkpt lat="44.56762" lon="5.6675">
        <ele>1165</ele>
        <time>2010-05-07T10:42:13Z</time>
      </trkpt>
      <trkpt lat="44.56762" lon="5.6675">
        <ele>1164</ele>
        <time>2010-05-07T10:42:27Z</time>
      </trkpt>
      <trkpt lat="44.56771" lon="5.6676">
        <ele>1164</ele>
        <time>2010-05-07T10:42:41Z</time>
      </trkpt>
      <trkpt lat="44.56783" lon="5.66751">
        <ele>1165</ele>
        <time>2010-05-07T10:42:55Z</time>
      </trkpt>
      <trkpt lat="44.56784" lon="5.6675">
        <ele>1166</ele>
        <time>2010-05-07T10:43:09Z</time>
      </trkpt>
      <trkpt lat="44.56783" lon="5.6675">
        <ele>1165</ele>
        <time>2010-05-07T10:43:23Z</time>
      </trkpt>
      <trkpt lat="44.56796" lon="5.66751">
        <ele>1165</ele>
        <time>2010-05-07T10:43:37Z</time>
      </trkpt>
      <trkpt lat="44.56815" lon="5.66759">
        <ele>1165</ele>
        <time>2010-05-07T10:43:51Z</time>
      </trkpt>
      <trkpt lat="44.56835" lon="5.6676">
        <ele>1164</ele>
        <time>2010-05-07T10:44:05Z</time>
      </trkpt>
      <trkpt lat="44.56853" lon="5.66758">
        <ele>1162</ele>
        <time>2010-05-07T10:44:19Z</time>
      </trkpt>
      <trkpt lat="44.56869" lon="5.66748">
        <ele>1160</ele>
        <time>2010-05-07T10:44:33Z</time>
      </trkpt>
      <trkpt lat="44.56887" lon="5.66734">
        <ele>1158</ele>
        <time>2010-05-07T10:44:47Z</time>
      </trkpt>
      <trkpt lat="44.56903" lon="5.6672">
        <ele>1154</ele>
        <time>2010-05-07T10:45:01Z</time>
      </trkpt>
      <trkpt lat="44.5692" lon="5.66713">
        <ele>1152</ele>
        <time>2010-05-07T10:45:15Z</time>
      </trkpt>
      <trkpt lat="44.56937" lon="5.66706">
        <ele>1149</ele>
        <time>2010-05-07T10:45:29Z</time>
      </trkpt>
      <trkpt lat="44.56954" lon="5.66695">
        <ele>1147</ele>
        <time>2010-05-07T10:45:43Z</time>
      </trkpt>
      <trkpt lat="44.56972" lon="5.66683">
        <ele>1146</ele>
        <time>2010-05-07T10:45:57Z</time>
      </trkpt>
      <trkpt lat="44.56988" lon="5.66674">
        <ele>1144</ele>
        <time>2010-05-07T10:46:11Z</time>
      </trkpt>
      <trkpt lat="44.57003" lon="5.66659">
        <ele>1142</ele>
        <time>2010-05-07T10:46:25Z</time>
      </trkpt>
      <trkpt lat="44.57016" lon="5.66641">
        <ele>1142</ele>
        <time>2010-05-07T10:46:39Z</time>
      </trkpt>
      <trkpt lat="44.57028" lon="5.66633">
        <ele>1142</ele>
        <time>2010-05-07T10:46:53Z</time>
      </trkpt>
      <trkpt lat="44.57029" lon="5.66637">
        <ele>1141</ele>
        <time>2010-05-07T10:47:07Z</time>
      </trkpt>
      <trkpt lat="44.57029" lon="5.66637">
        <ele>1142</ele>
        <time>2010-05-07T10:47:21Z</time>
      </trkpt>
      <trkpt lat="44.57024" lon="5.66642">
        <ele>1144</ele>
        <time>2010-05-07T10:47:35Z</time>
      </trkpt>
      <trkpt lat="44.57012" lon="5.66657">
        <ele>1142</ele>
        <time>2010-05-07T10:47:49Z</time>
      </trkpt>
      <trkpt lat="44.5703" lon="5.66648">
        <ele>1139</ele>
        <time>2010-05-07T10:48:03Z</time>
      </trkpt>
      <trkpt lat="44.57049" lon="5.66637">
        <ele>1137</ele>
        <time>2010-05-07T10:48:17Z</time>
      </trkpt>
      <trkpt lat="44.57069" lon="5.66636">
        <ele>1134</ele>
        <time>2010-05-07T10:48:31Z</time>
      </trkpt>
      <trkpt lat="44.57089" lon="5.66643">
        <ele>1123.7</ele>
      </trkpt>
      <trkpt lat="44.57265" lon="5.66703">
        <ele>1098.2</ele>
      </trkpt>
      <trkpt lat="44.5736" lon="5.66772">
        <ele>1100.8</ele>
      </trkpt>
      <trkpt lat="44.5753" lon="5.66788">
        <ele>1089.5</ele>
      </trkpt>
      <trkpt lat="44.57684" lon="5.66977">
        <ele>1066.5</ele>
      </trkpt>
      <trkpt lat="44.57881" lon="5.67077">
        <ele>1037.6</ele>
      </trkpt>
      <trkpt lat="44.58101" lon="5.67417">
        <ele>1008.6</ele>
      </trkpt>
      <trkpt lat="44.58389" lon="5.67696">
        <ele>995.8</ele>
      </trkpt>
      <trkpt lat="44.58522" lon="5.68003">
        <ele>985.1</ele>
      </trkpt>
      <trkpt lat="44.58527" lon="5.68195">
        <ele>970</ele>
      </trkpt>
      <trkpt lat="44.58632" lon="5.68287">
        <ele>977.8</ele>
      </trkpt>
      <trkpt lat="44.58832" lon="5.68087">
        <ele>971.1</ele>
      </trkpt>
      <trkpt lat="44.58837" lon="5.68078">
        <ele>970.6</ele>
      </trkpt>
      <trkpt lat="44.58868" lon="5.68095">
        <ele>972</ele>
        <time>2010-05-07T12:05:17Z</time>
      </trkpt>
      <trkpt lat="44.58868" lon="5.68095">
        <ele>971</ele>
        <time>2010-05-07T12:05:31Z</time>
      </trkpt>
      <trkpt lat="44.58868" lon="5.68095">
        <ele>971</ele>
        <time>2010-05-07T12:05:45Z</time>
      </trkpt>
      <trkpt lat="44.58868" lon="5.68095">
        <ele>971</ele>
        <time>2010-05-07T12:05:59Z</time>
      </trkpt>
      <trkpt lat="44.58868" lon="5.68095">
        <ele>970</ele>
        <time>2010-05-07T12:06:13Z</time>
      </trkpt>
      <trkpt lat="44.58868" lon="5.68094">
        <ele>972</ele>
        <time>2010-05-07T12:06:27Z</time>
      </trkpt>
      <trkpt lat="44.58868" lon="5.68094">
        <ele>971</ele>
        <time>2010-05-07T12:06:41Z</time>
      </trkpt>
      <trkpt lat="44.58868" lon="5.68094">
        <ele>971</ele>
        <time>2010-05-07T12:06:55Z</time>
      </trkpt>
      <trkpt lat="44.58868" lon="5.68094">
        <ele>970</ele>
        <time>2010-05-07T12:07:09Z</time>
      </trkpt>
      <trkpt lat="44.58868" lon="5.68094">
        <ele>971</ele>
        <time>2010-05-07T12:07:23Z</time>
      </trkpt>
      <trkpt lat="44.58867" lon="5.68094">
        <ele>970</ele>
        <time>2010-05-07T12:07:37Z</time>
      </trkpt>
      <trkpt lat="44.58867" lon="5.68094">
        <ele>970</ele>
        <time>2010-05-07T12:07:51Z</time>
      </trkpt>
      <trkpt lat="44.58867" lon="5.68094">
        <ele>971</ele>
        <time>2010-05-07T12:08:05Z</time>
      </trkpt>
      <trkpt lat="44.58867" lon="5.68094">
        <ele>970</ele>
        <time>2010-05-07T12:08:19Z</time>
      </trkpt>
      <trkpt lat="44.58867" lon="5.68093">
        <ele>970</ele>
        <time>2010-05-07T12:08:33Z</time>
      </trkpt>
      <trkpt lat="44.58867" lon="5.68093">
        <ele>969</ele>
        <time>2010-05-07T12:08:47Z</time>
      </trkpt>
      <trkpt lat="44.58867" lon="5.68093">
        <ele>969</ele>
        <time>2010-05-07T12:09:01Z</time>
      </trkpt>
      <trkpt lat="44.58867" lon="5.68093">
        <ele>970</ele>
        <time>2010-05-07T12:09:15Z</time>
      </trkpt>
      <trkpt lat="44.58867" lon="5.68093">
        <ele>970</ele>
        <time>2010-05-07T12:09:29Z</time>
      </trkpt>
      <trkpt lat="44.58867" lon="5.68093">
        <ele>969</ele>
        <time>2010-05-07T12:09:43Z</time>
      </trkpt>
      <trkpt lat="44.58867" lon="5.68093">
        <ele>970</ele>
        <time>2010-05-07T12:09:57Z</time>
      </trkpt>
      <trkpt lat="44.58867" lon="5.68093">
        <ele>970</ele>
        <time>2010-05-07T12:10:11Z</time>
      </trkpt>
      <trkpt lat="44.58867" lon="5.68092">
        <ele>969</ele>
        <time>2010-05-07T12:10:25Z</time>
      </trkpt>
      <trkpt lat="44.58867" lon="5.68092">
        <ele>970</ele>
        <time>2010-05-07T12:10:39Z</time>
      </trkpt>
      <trkpt lat="44.58867" lon="5.68092">
        <ele>969</ele>
        <time>2010-05-07T12:10:53Z</time>
      </trkpt>
      <trkpt lat="44.58867" lon="5.68092">
        <ele>969</ele>
        <time>2010-05-07T12:11:07Z</time>
      </trkpt>
      <trkpt lat="44.58867" lon="5.68092">
        <ele>970</ele>
        <time>2010-05-07T12:11:21Z</time>
      </trkpt>
      <trkpt lat="44.58867" lon="5.68092">
        <ele>969</ele>
        <time>2010-05-07T12:11:35Z</time>
      </trkpt>
      <trkpt lat="44.58867" lon="5.68092">
        <ele>969</ele>
        <time>2010-05-07T12:11:49Z</time>
      </trkpt>
      <trkpt lat="44.58868" lon="5.68091">
        <ele>970</ele>
        <time>2010-05-07T12:12:03Z</time>
      </trkpt>
      <trkpt lat="44.58868" lon="5.68091">
        <ele>969</ele>
        <time>2010-05-07T12:12:17Z</time>
      </trkpt>
      <trkpt lat="44.58868" lon="5.68093">
        <ele>969</ele>
        <time>2010-05-07T12:12:31Z</time>
      </trkpt>
      <trkpt lat="44.58868" lon="5.68092">
        <ele>969</ele>
        <time>2010-05-07T12:12:45Z</time>
      </trkpt>
      <trkpt lat="44.58868" lon="5.68092">
        <ele>970</ele>
        <time>2010-05-07T12:12:59Z</time>
      </trkpt>
      <trkpt lat="44.58868" lon="5.68092">
        <ele>969</ele>
        <time>2010-05-07T12:13:13Z</time>
      </trkpt>
      <trkpt lat="44.58868" lon="5.68091">
        <ele>969</ele>
        <time>2010-05-07T12:13:27Z</time>
      </trkpt>
      <trkpt lat="44.58868" lon="5.68091">
        <ele>969</ele>
        <time>2010-05-07T12:13:41Z</time>
      </trkpt>
      <trkpt lat="44.58868" lon="5.68091">
        <ele>969</ele>
        <time>2010-05-07T12:13:55Z</time>
      </trkpt>
      <trkpt lat="44.58868" lon="5.68091">
        <ele>969</ele>
        <time>2010-05-07T12:14:09Z</time>
      </trkpt>
      <trkpt lat="44.58868" lon="5.68092">
        <ele>969</ele>
        <time>2010-05-07T12:14:23Z</time>
      </trkpt>
      <trkpt lat="44.58868" lon="5.68091">
        <ele>969</ele>
        <time>2010-05-07T12:14:37Z</time>
      </trkpt>
      <trkpt lat="44.58868" lon="5.68091">
        <ele>969</ele>
        <time>2010-05-07T12:14:51Z</time>
      </trkpt>
      <trkpt lat="44.58867" lon="5.68091">
        <ele>968</ele>
        <time>2010-05-07T12:15:05Z</time>
      </trkpt>
      <trkpt lat="44.58868" lon="5.68091">
        <ele>969</ele>
        <time>2010-05-07T12:15:19Z</time>
      </trkpt>
      <trkpt lat="44.58867" lon="5.68091">
        <ele>968</ele>
        <time>2010-05-07T12:15:33Z</time>
      </trkpt>
      <trkpt lat="44.58867" lon="5.68091">
        <ele>968</ele>
        <time>2010-05-07T12:15:47Z</time>
      </trkpt>
      <trkpt lat="44.58867" lon="5.68091">
        <ele>968</ele>
        <time>2010-05-07T12:16:01Z</time>
      </trkpt>
      <trkpt lat="44.58867" lon="5.68091">
        <ele>968</ele>
        <time>2010-05-07T12:16:15Z</time>
      </trkpt>
      <trkpt lat="44.58867" lon="5.68092">
        <ele>969</ele>
        <time>2010-05-07T12:16:29Z</time>
      </trkpt>
      <trkpt lat="44.58867" lon="5.68092">
        <ele>968</ele>
        <time>2010-05-07T12:16:43Z</time>
      </trkpt>
      <trkpt lat="44.58867" lon="5.68092">
        <ele>968</ele>
        <time>2010-05-07T12:16:57Z</time>
      </trkpt>
      <trkpt lat="44.58867" lon="5.68092">
        <ele>968</ele>
        <time>2010-05-07T12:17:11Z</time>
      </trkpt>
      <trkpt lat="44.58867" lon="5.68092">
        <ele>968</ele>
        <time>2010-05-07T12:17:25Z</time>
      </trkpt>
      <trkpt lat="44.58867" lon="5.68092">
        <ele>968</ele>
        <time>2010-05-07T12:17:39Z</time>
      </trkpt>
      <trkpt lat="44.58867" lon="5.68092">
        <ele>967</ele>
        <time>2010-05-07T12:17:53Z</time>
      </trkpt>
      <trkpt lat="44.58867" lon="5.68092">
        <ele>968</ele>
        <time>2010-05-07T12:18:07Z</time>
      </trkpt>
      <trkpt lat="44.58867" lon="5.68092">
        <ele>968</ele>
        <time>2010-05-07T12:18:21Z</time>
      </trkpt>
      <trkpt lat="44.58867" lon="5.68092">
        <ele>968</ele>
        <time>2010-05-07T12:18:35Z</time>
      </trkpt>
      <trkpt lat="44.58867" lon="5.68091">
        <ele>968</ele>
        <time>2010-05-07T12:18:49Z</time>
      </trkpt>
      <trkpt lat="44.58867" lon="5.68091">
        <ele>967</ele>
        <time>2010-05-07T12:19:03Z</time>
      </trkpt>
      <trkpt lat="44.58867" lon="5.68091">
        <ele>968</ele>
        <time>2010-05-07T12:19:17Z</time>
      </trkpt>
      <trkpt lat="44.58867" lon="5.68088">
        <ele>969</ele>
        <time>2010-05-07T12:19:31Z</time>
      </trkpt>
      <trkpt lat="44.58867" lon="5.6809">
        <ele>969</ele>
        <time>2010-05-07T12:19:45Z</time>
      </trkpt>
      <trkpt lat="44.58868" lon="5.6809">
        <ele>968</ele>
        <time>2010-05-07T12:19:59Z</time>
      </trkpt>
      <trkpt lat="44.58869" lon="5.68091">
        <ele>968</ele>
        <time>2010-05-07T12:20:13Z</time>
      </trkpt>
      <trkpt lat="44.58868" lon="5.68087">
        <ele>969</ele>
        <time>2010-05-07T12:20:27Z</time>
      </trkpt>
      <trkpt lat="44.5887" lon="5.68086">
        <ele>969</ele>
        <time>2010-05-07T12:20:41Z</time>
      </trkpt>
      <trkpt lat="44.5887" lon="5.68088">
        <ele>968</ele>
        <time>2010-05-07T12:20:55Z</time>
      </trkpt>
      <trkpt lat="44.58871" lon="5.68089">
        <ele>969</ele>
        <time>2010-05-07T12:21:09Z</time>
      </trkpt>
      <trkpt lat="44.58872" lon="5.68088">
        <ele>969</ele>
        <time>2010-05-07T12:21:23Z</time>
      </trkpt>
      <trkpt lat="44.58873" lon="5.68086">
        <ele>969</ele>
        <time>2010-05-07T12:21:37Z</time>
      </trkpt>
      <trkpt lat="44.58873" lon="5.68087">
        <ele>969</ele>
        <time>2010-05-07T12:21:51Z</time>
      </trkpt>
      <trkpt lat="44.58874" lon="5.68086">
        <ele>969</ele>
        <time>2010-05-07T12:22:05Z</time>
      </trkpt>
      <trkpt lat="44.58874" lon="5.68086">
        <ele>969</ele>
        <time>2010-05-07T12:22:19Z</time>
      </trkpt>
      <trkpt lat="44.58874" lon="5.68087">
        <ele>969</ele>
        <time>2010-05-07T12:22:33Z</time>
      </trkpt>
      <trkpt lat="44.58874" lon="5.68087">
        <ele>969</ele>
        <time>2010-05-07T12:22:47Z</time>
      </trkpt>
      <trkpt lat="44.58874" lon="5.68087">
        <ele>970</ele>
        <time>2010-05-07T12:23:01Z</time>
      </trkpt>
      <trkpt lat="44.58874" lon="5.68087">
        <ele>968</ele>
        <time>2010-05-07T12:23:15Z</time>
      </trkpt>
      <trkpt lat="44.58874" lon="5.68087">
        <ele>969</ele>
        <time>2010-05-07T12:23:29Z</time>
      </trkpt>
      <trkpt lat="44.58874" lon="5.68087">
        <ele>969</ele>
        <time>2010-05-07T12:23:43Z</time>
      </trkpt>
      <trkpt lat="44.58875" lon="5.6809">
        <ele>969</ele>
        <time>2010-05-07T12:23:57Z</time>
      </trkpt>
      <trkpt lat="44.58876" lon="5.68107">
        <ele>971</ele>
        <time>2010-05-07T12:24:11Z</time>
      </trkpt>
      <trkpt lat="44.5888" lon="5.68128">
        <ele>971</ele>
        <time>2010-05-07T12:24:25Z</time>
      </trkpt>
      <trkpt lat="44.58886" lon="5.68148">
        <ele>974</ele>
        <time>2010-05-07T12:24:39Z</time>
      </trkpt>
      <trkpt lat="44.58886" lon="5.68157">
        <ele>976</ele>
        <time>2010-05-07T12:24:53Z</time>
      </trkpt>
      <trkpt lat="44.58888" lon="5.68176">
        <ele>978</ele>
        <time>2010-05-07T12:25:07Z</time>
      </trkpt>
      <trkpt lat="44.5889" lon="5.68201">
        <ele>980</ele>
        <time>2010-05-07T12:25:21Z</time>
      </trkpt>
      <trkpt lat="44.58896" lon="5.6823">
        <ele>986</ele>
        <time>2010-05-07T12:25:35Z</time>
      </trkpt>
      <trkpt lat="44.58905" lon="5.68251">
        <ele>989</ele>
        <time>2010-05-07T12:25:49Z</time>
      </trkpt>
      <trkpt lat="44.58918" lon="5.68256">
        <ele>993</ele>
        <time>2010-05-07T12:26:03Z</time>
      </trkpt>
      <trkpt lat="44.58933" lon="5.68256">
        <ele>996</ele>
        <time>2010-05-07T12:26:17Z</time>
      </trkpt>
      <trkpt lat="44.58944" lon="5.68242">
        <ele>998</ele>
        <time>2010-05-07T12:26:31Z</time>
      </trkpt>
      <trkpt lat="44.58953" lon="5.68225">
        <ele>1000</ele>
        <time>2010-05-07T12:26:45Z</time>
      </trkpt>
      <trkpt lat="44.58955" lon="5.68208">
        <ele>1000</ele>
        <time>2010-05-07T12:26:59Z</time>
      </trkpt>
      <trkpt lat="44.58954" lon="5.68209">
        <ele>999</ele>
        <time>2010-05-07T12:27:13Z</time>
      </trkpt>
      <trkpt lat="44.58953" lon="5.68208">
        <ele>999</ele>
        <time>2010-05-07T12:27:27Z</time>
      </trkpt>
      <trkpt lat="44.58952" lon="5.68207">
        <ele>1000</ele>
        <time>2010-05-07T12:27:41Z</time>
      </trkpt>
      <trkpt lat="44.5895" lon="5.68208">
        <ele>1000</ele>
        <time>2010-05-07T12:27:55Z</time>
      </trkpt>
      <trkpt lat="44.58951" lon="5.68208">
        <ele>1000</ele>
        <time>2010-05-07T12:28:09Z</time>
      </trkpt>
      <trkpt lat="44.58953" lon="5.68203">
        <ele>1001</ele>
        <time>2010-05-07T12:28:23Z</time>
      </trkpt>
      <trkpt lat="44.58965" lon="5.68188">
        <ele>1003</ele>
        <time>2010-05-07T12:28:37Z</time>
      </trkpt>
      <trkpt lat="44.58982" lon="5.68175">
        <ele>1008</ele>
        <time>2010-05-07T12:28:51Z</time>
      </trkpt>
      <trkpt lat="44.58982" lon="5.68159">
        <ele>1010</ele>
        <time>2010-05-07T12:29:05Z</time>
      </trkpt>
      <trkpt lat="44.58984" lon="5.6814">
        <ele>1010</ele>
        <time>2010-05-07T12:29:19Z</time>
      </trkpt>
      <trkpt lat="44.58999" lon="5.68145">
        <ele>1008</ele>
        <time>2010-05-07T12:29:33Z</time>
      </trkpt>
      <trkpt lat="44.59014" lon="5.6816">
        <ele>1007</ele>
        <time>2010-05-07T12:29:47Z</time>
      </trkpt>
      <trkpt lat="44.59031" lon="5.6817">
        <ele>1003</ele>
        <time>2010-05-07T12:30:01Z</time>
      </trkpt>
      <trkpt lat="44.59044" lon="5.68185">
        <ele>1002</ele>
        <time>2010-05-07T12:30:15Z</time>
      </trkpt>
      <trkpt lat="44.5905" lon="5.6821">
        <ele>999</ele>
        <time>2010-05-07T12:30:29Z</time>
      </trkpt>
      <trkpt lat="44.59051" lon="5.68235">
        <ele>997</ele>
        <time>2010-05-07T12:30:43Z</time>
      </trkpt>
      <trkpt lat="44.59065" lon="5.6823">
        <ele>994</ele>
        <time>2010-05-07T12:30:57Z</time>
      </trkpt>
      <trkpt lat="44.59079" lon="5.68215">
        <ele>992</ele>
        <time>2010-05-07T12:31:11Z</time>
      </trkpt>
      <trkpt lat="44.59094" lon="5.68205">
        <ele>990</ele>
        <time>2010-05-07T12:31:25Z</time>
      </trkpt>
      <trkpt lat="44.59109" lon="5.68198">
        <ele>989</ele>
        <time>2010-05-07T12:31:39Z</time>
      </trkpt>
      <trkpt lat="44.59123" lon="5.6819">
        <ele>987</ele>
        <time>2010-05-07T12:31:53Z</time>
      </trkpt>
      <trkpt lat="44.5914" lon="5.68199">
        <ele>989</ele>
        <time>2010-05-07T12:32:07Z</time>
      </trkpt>
      <trkpt lat="44.59142" lon="5.68201">
        <ele>988</ele>
        <time>2010-05-07T12:32:21Z</time>
      </trkpt>
      <trkpt lat="44.5916" lon="5.6821">
        <ele>988</ele>
        <time>2010-05-07T12:32:35Z</time>
      </trkpt>
      <trkpt lat="44.59177" lon="5.68219">
        <ele>990</ele>
        <time>2010-05-07T12:32:49Z</time>
      </trkpt>
      <trkpt lat="44.59195" lon="5.6823">
        <ele>990</ele>
        <time>2010-05-07T12:33:03Z</time>
      </trkpt>
      <trkpt lat="44.59209" lon="5.68251">
        <ele>992</ele>
        <time>2010-05-07T12:33:17Z</time>
      </trkpt>
      <trkpt lat="44.59223" lon="5.6827">
        <ele>993</ele>
        <time>2010-05-07T12:33:31Z</time>
      </trkpt>
      <trkpt lat="44.59241" lon="5.68281">
        <ele>994</ele>
        <time>2010-05-07T12:33:45Z</time>
      </trkpt>
      <trkpt lat="44.5926" lon="5.68288">
        <ele>996</ele>
        <time>2010-05-07T12:33:59Z</time>
      </trkpt>
      <trkpt lat="44.59281" lon="5.68292">
        <ele>997</ele>
        <time>2010-05-07T12:34:13Z</time>
      </trkpt>
      <trkpt lat="44.59298" lon="5.683">
        <ele>997</ele>
        <time>2010-05-07T12:34:27Z</time>
      </trkpt>
      <trkpt lat="44.5931" lon="5.68322">
        <ele>998</ele>
        <time>2010-05-07T12:34:41Z</time>
      </trkpt>
      <trkpt lat="44.59322" lon="5.68347">
        <ele>1001</ele>
        <time>2010-05-07T12:34:55Z</time>
      </trkpt>
      <trkpt lat="44.59337" lon="5.68367">
        <ele>1001</ele>
        <time>2010-05-07T12:35:09Z</time>
      </trkpt>
      <trkpt lat="44.59351" lon="5.68383">
        <ele>1001</ele>
        <time>2010-05-07T12:35:23Z</time>
      </trkpt>
      <trkpt lat="44.59365" lon="5.684">
        <ele>1001</ele>
        <time>2010-05-07T12:35:37Z</time>
      </trkpt>
      <trkpt lat="44.59382" lon="5.68412">
        <ele>1002</ele>
        <time>2010-05-07T12:35:51Z</time>
      </trkpt>
      <trkpt lat="44.594" lon="5.68417">
        <ele>1004</ele>
        <time>2010-05-07T12:36:05Z</time>
      </trkpt>
      <trkpt lat="44.59416" lon="5.68428">
        <ele>1005</ele>
        <time>2010-05-07T12:36:19Z</time>
      </trkpt>
      <trkpt lat="44.59427" lon="5.68453">
        <ele>1006</ele>
        <time>2010-05-07T12:36:33Z</time>
      </trkpt>
      <trkpt lat="44.59434" lon="5.68479">
        <ele>1007</ele>
        <time>2010-05-07T12:36:47Z</time>
      </trkpt>
      <trkpt lat="44.59446" lon="5.68519">
        <ele>1009</ele>
        <time>2010-05-07T12:37:01Z</time>
      </trkpt>
      <trkpt lat="44.59444" lon="5.6857">
        <ele>1012</ele>
        <time>2010-05-07T12:37:15Z</time>
      </trkpt>
      <trkpt lat="44.59453" lon="5.68619">
        <ele>1013</ele>
        <time>2010-05-07T12:37:29Z</time>
      </trkpt>
      <trkpt lat="44.59481" lon="5.68649">
        <ele>1015</ele>
        <time>2010-05-07T12:37:43Z</time>
      </trkpt>
      <trkpt lat="44.59516" lon="5.68653">
        <ele>1018</ele>
        <time>2010-05-07T12:37:57Z</time>
      </trkpt>
      <trkpt lat="44.5955" lon="5.6865">
        <ele>1020</ele>
        <time>2010-05-07T12:38:11Z</time>
      </trkpt>
      <trkpt lat="44.5958" lon="5.68672">
        <ele>1022</ele>
        <time>2010-05-07T12:38:25Z</time>
      </trkpt>
      <trkpt lat="44.5959" lon="5.68688">
        <ele>1023</ele>
        <time>2010-05-07T12:38:39Z</time>
      </trkpt>
      <trkpt lat="44.5959" lon="5.68688">
        <ele>1022</ele>
        <time>2010-05-07T12:38:53Z</time>
      </trkpt>
      <trkpt lat="44.5959" lon="5.68688">
        <ele>1022</ele>
        <time>2010-05-07T12:39:07Z</time>
      </trkpt>
      <trkpt lat="44.5959" lon="5.68688">
        <ele>1022</ele>
        <time>2010-05-07T12:39:21Z</time>
      </trkpt>
      <trkpt lat="44.5959" lon="5.68688">
        <ele>1022</ele>
        <time>2010-05-07T12:39:35Z</time>
      </trkpt>
      <trkpt lat="44.5959" lon="5.68688">
        <ele>1022</ele>
        <time>2010-05-07T12:39:49Z</time>
      </trkpt>
      <trkpt lat="44.5959" lon="5.68688">
        <ele>1023</ele>
        <time>2010-05-07T12:40:03Z</time>
      </trkpt>
      <trkpt lat="44.5959" lon="5.68688">
        <ele>1021</ele>
        <time>2010-05-07T12:40:17Z</time>
      </trkpt>
      <trkpt lat="44.5959" lon="5.68688">
        <ele>1021</ele>
        <time>2010-05-07T12:40:31Z</time>
      </trkpt>
      <trkpt lat="44.5959" lon="5.68688">
        <ele>1022</ele>
        <time>2010-05-07T12:40:45Z</time>
      </trkpt>
      <trkpt lat="44.5959" lon="5.68688">
        <ele>1022</ele>
        <time>2010-05-07T12:40:59Z</time>
      </trkpt>
      <trkpt lat="44.5959" lon="5.68688">
        <ele>1022</ele>
        <time>2010-05-07T12:41:13Z</time>
      </trkpt>
      <trkpt lat="44.5959" lon="5.68688">
        <ele>1022</ele>
        <time>2010-05-07T12:41:27Z</time>
      </trkpt>
      <trkpt lat="44.5959" lon="5.68688">
        <ele>1022</ele>
        <time>2010-05-07T12:41:41Z</time>
      </trkpt>
      <trkpt lat="44.5959" lon="5.68688">
        <ele>1022</ele>
        <time>2010-05-07T12:41:55Z</time>
      </trkpt>
      <trkpt lat="44.5959" lon="5.68688">
        <ele>1022</ele>
        <time>2010-05-07T12:42:09Z</time>
      </trkpt>
      <trkpt lat="44.5959" lon="5.68688">
        <ele>1022</ele>
        <time>2010-05-07T12:42:23Z</time>
      </trkpt>
      <trkpt lat="44.5959" lon="5.68688">
        <ele>1022</ele>
        <time>2010-05-07T12:42:37Z</time>
      </trkpt>
      <trkpt lat="44.5959" lon="5.68688">
        <ele>1022</ele>
        <time>2010-05-07T12:42:51Z</time>
      </trkpt>
      <trkpt lat="44.5959" lon="5.68688">
        <ele>1022</ele>
        <time>2010-05-07T12:43:05Z</time>
      </trkpt>
      <trkpt lat="44.59583" lon="5.6871">
        <ele>1023</ele>
        <time>2010-05-07T12:43:19Z</time>
      </trkpt>
      <trkpt lat="44.59567" lon="5.68728">
        <ele>1024</ele>
        <time>2010-05-07T12:43:33Z</time>
      </trkpt>
      <trkpt lat="44.59551" lon="5.68752">
        <ele>1026</ele>
        <time>2010-05-07T12:43:47Z</time>
      </trkpt>
      <trkpt lat="44.59529" lon="5.68789">
        <ele>1029</ele>
        <time>2010-05-07T12:44:01Z</time>
      </trkpt>
      <trkpt lat="44.5951" lon="5.68792">
        <ele>1030</ele>
        <time>2010-05-07T12:44:15Z</time>
      </trkpt>
      <trkpt lat="44.59494" lon="5.68802">
        <ele>1032</ele>
        <time>2010-05-07T12:44:29Z</time>
      </trkpt>
      <trkpt lat="44.59482" lon="5.68823">
        <ele>1033</ele>
        <time>2010-05-07T12:44:43Z</time>
      </trkpt>
      <trkpt lat="44.59477" lon="5.68845">
        <ele>1034</ele>
        <time>2010-05-07T12:44:57Z</time>
      </trkpt>
      <trkpt lat="44.59478" lon="5.6887">
        <ele>1036</ele>
        <time>2010-05-07T12:45:11Z</time>
      </trkpt>
      <trkpt lat="44.59481" lon="5.68893">
        <ele>1036</ele>
        <time>2010-05-07T12:45:25Z</time>
      </trkpt>
      <trkpt lat="44.59483" lon="5.68919">
        <ele>1038</ele>
        <time>2010-05-07T12:45:39Z</time>
      </trkpt>
      <trkpt lat="44.59479" lon="5.68941">
        <ele>1040</ele>
        <time>2010-05-07T12:45:53Z</time>
      </trkpt>
      <trkpt lat="44.59477" lon="5.68964">
        <ele>1041</ele>
        <time>2010-05-07T12:46:07Z</time>
      </trkpt>
      <trkpt lat="44.59472" lon="5.68989">
        <ele>1043</ele>
        <time>2010-05-07T12:46:21Z</time>
      </trkpt>
      <trkpt lat="44.59468" lon="5.69014">
        <ele>1044</ele>
        <time>2010-05-07T12:46:35Z</time>
      </trkpt>
      <trkpt lat="44.59469" lon="5.69043">
        <ele>1046</ele>
        <time>2010-05-07T12:46:49Z</time>
      </trkpt>
      <trkpt lat="44.59474" lon="5.69068">
        <ele>1047</ele>
        <time>2010-05-07T12:47:03Z</time>
      </trkpt>
      <trkpt lat="44.59478" lon="5.69091">
        <ele>1048</ele>
        <time>2010-05-07T12:47:17Z</time>
      </trkpt>
      <trkpt lat="44.5949" lon="5.69121">
        <ele>1049</ele>
        <time>2010-05-07T12:47:31Z</time>
      </trkpt>
      <trkpt lat="44.59493" lon="5.69146">
        <ele>1051</ele>
        <time>2010-05-07T12:47:45Z</time>
      </trkpt>
      <trkpt lat="44.59498" lon="5.69172">
        <ele>1053</ele>
        <time>2010-05-07T12:47:59Z</time>
      </trkpt>
      <trkpt lat="44.59499" lon="5.69201">
        <ele>1054</ele>
        <time>2010-05-07T12:48:13Z</time>
      </trkpt>
      <trkpt lat="44.59484" lon="5.69239">
        <ele>1056</ele>
        <time>2010-05-07T12:48:27Z</time>
      </trkpt>
      <trkpt lat="44.59457" lon="5.6927">
        <ele>1060</ele>
        <time>2010-05-07T12:48:41Z</time>
      </trkpt>
      <trkpt lat="44.59436" lon="5.6928">
        <ele>1061</ele>
        <time>2010-05-07T12:48:55Z</time>
      </trkpt>
      <trkpt lat="44.59445" lon="5.69322">
        <ele>1065</ele>
        <time>2010-05-07T12:49:09Z</time>
      </trkpt>
      <trkpt lat="44.59449" lon="5.69369">
        <ele>1068</ele>
        <time>2010-05-07T12:49:23Z</time>
      </trkpt>
      <trkpt lat="44.59457" lon="5.69395">
        <ele>1069</ele>
        <time>2010-05-07T12:49:37Z</time>
      </trkpt>
      <trkpt lat="44.59465" lon="5.6942">
        <ele>1071</ele>
        <time>2010-05-07T12:49:51Z</time>
      </trkpt>
      <trkpt lat="44.59457" lon="5.69446">
        <ele>1071</ele>
        <time>2010-05-07T12:50:05Z</time>
      </trkpt>
      <trkpt lat="44.59441" lon="5.69466">
        <ele>1072</ele>
        <time>2010-05-07T12:50:19Z</time>
      </trkpt>
      <trkpt lat="44.59419" lon="5.69493">
        <ele>1073</ele>
        <time>2010-05-07T12:50:33Z</time>
      </trkpt>
      <trkpt lat="44.59417" lon="5.69522">
        <ele>1074</ele>
        <time>2010-05-07T12:50:47Z</time>
      </trkpt>
      <trkpt lat="44.59415" lon="5.6955">
        <ele>1074</ele>
        <time>2010-05-07T12:51:01Z</time>
      </trkpt>
      <trkpt lat="44.59416" lon="5.69577">
        <ele>1075</ele>
        <time>2010-05-07T12:51:15Z</time>
      </trkpt>
      <trkpt lat="44.59415" lon="5.69603">
        <ele>1074</ele>
        <time>2010-05-07T12:51:29Z</time>
      </trkpt>
      <trkpt lat="44.59413" lon="5.6963">
        <ele>1072</ele>
        <time>2010-05-07T12:51:43Z</time>
      </trkpt>
      <trkpt lat="44.59413" lon="5.69657">
        <ele>1070</ele>
        <time>2010-05-07T12:51:57Z</time>
      </trkpt>
      <trkpt lat="44.59411" lon="5.69684">
        <ele>1069</ele>
        <time>2010-05-07T12:52:11Z</time>
      </trkpt>
      <trkpt lat="44.59408" lon="5.6971">
        <ele>1067</ele>
        <time>2010-05-07T12:52:25Z</time>
      </trkpt>
      <trkpt lat="44.59399" lon="5.69734">
        <ele>1065</ele>
        <time>2010-05-07T12:52:39Z</time>
      </trkpt>
      <trkpt lat="44.59386" lon="5.69759">
        <ele>1063</ele>
        <time>2010-05-07T12:52:53Z</time>
      </trkpt>
      <trkpt lat="44.59372" lon="5.69781">
        <ele>1062</ele>
        <time>2010-05-07T12:53:07Z</time>
      </trkpt>
      <trkpt lat="44.59362" lon="5.69802">
        <ele>1060</ele>
        <time>2010-05-07T12:53:21Z</time>
      </trkpt>
      <trkpt lat="44.59348" lon="5.69828">
        <ele>1057</ele>
        <time>2010-05-07T12:53:35Z</time>
      </trkpt>
      <trkpt lat="44.59335" lon="5.69848">
        <ele>1057</ele>
        <time>2010-05-07T12:53:49Z</time>
      </trkpt>
      <trkpt lat="44.59321" lon="5.69867">
        <ele>1055</ele>
        <time>2010-05-07T12:54:03Z</time>
      </trkpt>
      <trkpt lat="44.59319" lon="5.69891">
        <ele>1052</ele>
        <time>2010-05-07T12:54:17Z</time>
      </trkpt>
      <trkpt lat="44.59325" lon="5.69914">
        <ele>1050</ele>
        <time>2010-05-07T12:54:31Z</time>
      </trkpt>
      <trkpt lat="44.59329" lon="5.69944">
        <ele>1049</ele>
        <time>2010-05-07T12:54:45Z</time>
      </trkpt>
      <trkpt lat="44.59326" lon="5.69972">
        <ele>1047</ele>
        <time>2010-05-07T12:54:59Z</time>
      </trkpt>
      <trkpt lat="44.59323" lon="5.69998">
        <ele>1046</ele>
        <time>2010-05-07T12:55:13Z</time>
      </trkpt>
      <trkpt lat="44.59319" lon="5.70027">
        <ele>1043</ele>
        <time>2010-05-07T12:55:27Z</time>
      </trkpt>
      <trkpt lat="44.59316" lon="5.70053">
        <ele>1042</ele>
        <time>2010-05-07T12:55:41Z</time>
      </trkpt>
      <trkpt lat="44.59314" lon="5.70078">
        <ele>1039</ele>
        <time>2010-05-07T12:55:55Z</time>
      </trkpt>
      <trkpt lat="44.59301" lon="5.70103">
        <ele>1039</ele>
        <time>2010-05-07T12:56:09Z</time>
      </trkpt>
      <trkpt lat="44.59285" lon="5.70123">
        <ele>1036</ele>
        <time>2010-05-07T12:56:23Z</time>
      </trkpt>
      <trkpt lat="44.59269" lon="5.70139">
        <ele>1035</ele>
        <time>2010-05-07T12:56:37Z</time>
      </trkpt>
      <trkpt lat="44.5925" lon="5.70148">
        <ele>1033</ele>
        <time>2010-05-07T12:56:51Z</time>
      </trkpt>
      <trkpt lat="44.5924" lon="5.70156">
        <ele>1031</ele>
        <time>2010-05-07T12:57:05Z</time>
      </trkpt>
      <trkpt lat="44.59242" lon="5.70168">
        <ele>1030</ele>
        <time>2010-05-07T12:57:19Z</time>
      </trkpt>
      <trkpt lat="44.59241" lon="5.70165">
        <ele>1030</ele>
        <time>2010-05-07T12:57:33Z</time>
      </trkpt>
      <trkpt lat="44.59238" lon="5.70161">
        <ele>1030</ele>
        <time>2010-05-07T12:57:47Z</time>
      </trkpt>
      <trkpt lat="44.59238" lon="5.70161">
        <ele>1030</ele>
        <time>2010-05-07T12:58:01Z</time>
      </trkpt>
      <trkpt lat="44.59246" lon="5.70161">
        <ele>1028</ele>
        <time>2010-05-07T12:58:15Z</time>
      </trkpt>
      <trkpt lat="44.59261" lon="5.70164">
        <ele>1026</ele>
        <time>2010-05-07T12:58:29Z</time>
      </trkpt>
      <trkpt lat="44.59258" lon="5.70178">
        <ele>1023</ele>
        <time>2010-05-07T12:58:43Z</time>
      </trkpt>
      <trkpt lat="44.59259" lon="5.70193">
        <ele>1021</ele>
        <time>2010-05-07T12:58:57Z</time>
      </trkpt>
      <trkpt lat="44.59269" lon="5.70187">
        <ele>1019</ele>
        <time>2010-05-07T12:59:11Z</time>
      </trkpt>
      <trkpt lat="44.59272" lon="5.70175">
        <ele>1018</ele>
        <time>2010-05-07T12:59:25Z</time>
      </trkpt>
      <trkpt lat="44.59288" lon="5.70173">
        <ele>1015</ele>
        <time>2010-05-07T12:59:39Z</time>
      </trkpt>
      <trkpt lat="44.59306" lon="5.70158">
        <ele>1013</ele>
        <time>2010-05-07T12:59:53Z</time>
      </trkpt>
      <trkpt lat="44.5932" lon="5.70145">
        <ele>1013</ele>
        <time>2010-05-07T13:00:07Z</time>
      </trkpt>
      <trkpt lat="44.59329" lon="5.70122">
        <ele>1011</ele>
        <time>2010-05-07T13:00:21Z</time>
      </trkpt>
      <trkpt lat="44.59337" lon="5.70101">
        <ele>1010</ele>
        <time>2010-05-07T13:00:35Z</time>
      </trkpt>
      <trkpt lat="44.59344" lon="5.70079">
        <ele>1008</ele>
        <time>2010-05-07T13:00:49Z</time>
      </trkpt>
      <trkpt lat="44.59362" lon="5.70076">
        <ele>1007</ele>
        <time>2010-05-07T13:01:03Z</time>
      </trkpt>
      <trkpt lat="44.59381" lon="5.70076">
        <ele>1006</ele>
        <time>2010-05-07T13:01:17Z</time>
      </trkpt>
      <trkpt lat="44.59397" lon="5.70066">
        <ele>1003</ele>
        <time>2010-05-07T13:01:31Z</time>
      </trkpt>
      <trkpt lat="44.59412" lon="5.7006">
        <ele>1002</ele>
        <time>2010-05-07T13:01:45Z</time>
      </trkpt>
      <trkpt lat="44.59431" lon="5.70074">
        <ele>1000</ele>
        <time>2010-05-07T13:01:59Z</time>
      </trkpt>
      <trkpt lat="44.59451" lon="5.70088">
        <ele>999</ele>
        <time>2010-05-07T13:02:13Z</time>
      </trkpt>
      <trkpt lat="44.5947" lon="5.70098">
        <ele>996</ele>
        <time>2010-05-07T13:02:27Z</time>
      </trkpt>
      <trkpt lat="44.59486" lon="5.70107">
        <ele>996</ele>
        <time>2010-05-07T13:02:41Z</time>
      </trkpt>
      <trkpt lat="44.59487" lon="5.70127">
        <ele>994</ele>
        <time>2010-05-07T13:02:55Z</time>
      </trkpt>
      <trkpt lat="44.59478" lon="5.70149">
        <ele>992</ele>
        <time>2010-05-07T13:03:09Z</time>
      </trkpt>
      <trkpt lat="44.59468" lon="5.70174">
        <ele>991</ele>
        <time>2010-05-07T13:03:23Z</time>
      </trkpt>
      <trkpt lat="44.59469" lon="5.70198">
        <ele>988</ele>
        <time>2010-05-07T13:03:37Z</time>
      </trkpt>
      <trkpt lat="44.59477" lon="5.70221">
        <ele>987</ele>
        <time>2010-05-07T13:03:51Z</time>
      </trkpt>
      <trkpt lat="44.59484" lon="5.70244">
        <ele>987</ele>
        <time>2010-05-07T13:04:05Z</time>
      </trkpt>
      <trkpt lat="44.5949" lon="5.70268">
        <ele>985</ele>
        <time>2010-05-07T13:04:19Z</time>
      </trkpt>
      <trkpt lat="44.59496" lon="5.70293">
        <ele>985</ele>
        <time>2010-05-07T13:04:33Z</time>
      </trkpt>
      <trkpt lat="44.59501" lon="5.70316">
        <ele>982</ele>
        <time>2010-05-07T13:04:47Z</time>
      </trkpt>
      <trkpt lat="44.59505" lon="5.70339">
        <ele>980</ele>
        <time>2010-05-07T13:05:01Z</time>
      </trkpt>
      <trkpt lat="44.59511" lon="5.70363">
        <ele>979</ele>
        <time>2010-05-07T13:05:15Z</time>
      </trkpt>
      <trkpt lat="44.59518" lon="5.70388">
        <ele>977</ele>
        <time>2010-05-07T13:05:29Z</time>
      </trkpt>
      <trkpt lat="44.5953" lon="5.70407">
        <ele>976</ele>
        <time>2010-05-07T13:05:43Z</time>
      </trkpt>
      <trkpt lat="44.59544" lon="5.70425">
        <ele>975</ele>
        <time>2010-05-07T13:05:57Z</time>
      </trkpt>
      <trkpt lat="44.59552" lon="5.70448">
        <ele>974</ele>
        <time>2010-05-07T13:06:11Z</time>
      </trkpt>
      <trkpt lat="44.59559" lon="5.7047">
        <ele>973</ele>
        <time>2010-05-07T13:06:25Z</time>
      </trkpt>
      <trkpt lat="44.59567" lon="5.70491">
        <ele>970</ele>
        <time>2010-05-07T13:06:39Z</time>
      </trkpt>
      <trkpt lat="44.59578" lon="5.70503">
        <ele>968</ele>
        <time>2010-05-07T13:06:53Z</time>
      </trkpt>
      <trkpt lat="44.59596" lon="5.70513">
        <ele>967</ele>
        <time>2010-05-07T13:07:07Z</time>
      </trkpt>
      <trkpt lat="44.59611" lon="5.70532">
        <ele>966</ele>
        <time>2010-05-07T13:07:21Z</time>
      </trkpt>
      <trkpt lat="44.59623" lon="5.70553">
        <ele>964</ele>
        <time>2010-05-07T13:07:35Z</time>
      </trkpt>
      <trkpt lat="44.59629" lon="5.70576">
        <ele>962</ele>
        <time>2010-05-07T13:07:49Z</time>
      </trkpt>
      <trkpt lat="44.5964" lon="5.706">
        <ele>961</ele>
        <time>2010-05-07T13:08:03Z</time>
      </trkpt>
      <trkpt lat="44.59651" lon="5.70624">
        <ele>959</ele>
        <time>2010-05-07T13:08:17Z</time>
      </trkpt>
      <trkpt lat="44.59663" lon="5.70646">
        <ele>956</ele>
        <time>2010-05-07T13:08:31Z</time>
      </trkpt>
      <trkpt lat="44.59676" lon="5.70668">
        <ele>954</ele>
        <time>2010-05-07T13:08:45Z</time>
      </trkpt>
      <trkpt lat="44.5969" lon="5.70688">
        <ele>952</ele>
        <time>2010-05-07T13:08:59Z</time>
      </trkpt>
      <trkpt lat="44.59706" lon="5.70708">
        <ele>950</ele>
        <time>2010-05-07T13:09:13Z</time>
      </trkpt>
      <trkpt lat="44.5972" lon="5.70721">
        <ele>948</ele>
        <time>2010-05-07T13:09:27Z</time>
      </trkpt>
      <trkpt lat="44.59734" lon="5.70736">
        <ele>947</ele>
        <time>2010-05-07T13:09:41Z</time>
      </trkpt>
      <trkpt lat="44.59752" lon="5.70744">
        <ele>945</ele>
        <time>2010-05-07T13:09:55Z</time>
      </trkpt>
      <trkpt lat="44.59771" lon="5.70748">
        <ele>945</ele>
        <time>2010-05-07T13:10:09Z</time>
      </trkpt>
      <trkpt lat="44.59787" lon="5.70759">
        <ele>942</ele>
        <time>2010-05-07T13:10:23Z</time>
      </trkpt>
      <trkpt lat="44.59797" lon="5.70778">
        <ele>943</ele>
        <time>2010-05-07T13:10:37Z</time>
      </trkpt>
      <trkpt lat="44.59811" lon="5.70795">
        <ele>940</ele>
        <time>2010-05-07T13:10:51Z</time>
      </trkpt>
      <trkpt lat="44.59823" lon="5.70809">
        <ele>940</ele>
        <time>2010-05-07T13:11:05Z</time>
      </trkpt>
      <trkpt lat="44.59835" lon="5.70802">
        <ele>939</ele>
        <time>2010-05-07T13:11:19Z</time>
      </trkpt>
      <trkpt lat="44.59853" lon="5.70798">
        <ele>937</ele>
        <time>2010-05-07T13:11:33Z</time>
      </trkpt>
      <trkpt lat="44.59868" lon="5.70812">
        <ele>935</ele>
        <time>2010-05-07T13:11:47Z</time>
      </trkpt>
      <trkpt lat="44.59883" lon="5.70817">
        <ele>933</ele>
        <time>2010-05-07T13:12:01Z</time>
      </trkpt>
      <trkpt lat="44.59895" lon="5.70802">
        <ele>932</ele>
        <time>2010-05-07T13:12:15Z</time>
      </trkpt>
      <trkpt lat="44.59905" lon="5.70787">
        <ele>931</ele>
        <time>2010-05-07T13:12:29Z</time>
      </trkpt>
      <trkpt lat="44.59918" lon="5.70776">
        <ele>928</ele>
        <time>2010-05-07T13:12:43Z</time>
      </trkpt>
      <trkpt lat="44.59938" lon="5.7078">
        <ele>927</ele>
        <time>2010-05-07T13:12:57Z</time>
      </trkpt>
      <trkpt lat="44.59956" lon="5.70787">
        <ele>925</ele>
        <time>2010-05-07T13:13:11Z</time>
      </trkpt>
      <trkpt lat="44.59973" lon="5.70787">
        <ele>923</ele>
        <time>2010-05-07T13:13:25Z</time>
      </trkpt>
      <trkpt lat="44.59985" lon="5.70787">
        <ele>921</ele>
        <time>2010-05-07T13:13:39Z</time>
      </trkpt>
      <trkpt lat="44.60005" lon="5.7079">
        <ele>919</ele>
        <time>2010-05-07T13:13:53Z</time>
      </trkpt>
      <trkpt lat="44.60024" lon="5.70791">
        <ele>919</ele>
        <time>2010-05-07T13:14:07Z</time>
      </trkpt>
      <trkpt lat="44.60041" lon="5.70787">
        <ele>918</ele>
        <time>2010-05-07T13:14:21Z</time>
      </trkpt>
      <trkpt lat="44.60059" lon="5.70779">
        <ele>917</ele>
        <time>2010-05-07T13:14:35Z</time>
      </trkpt>
      <trkpt lat="44.60075" lon="5.7077">
        <ele>916</ele>
        <time>2010-05-07T13:14:49Z</time>
      </trkpt>
      <trkpt lat="44.60092" lon="5.70763">
        <ele>914</ele>
        <time>2010-05-07T13:15:03Z</time>
      </trkpt>
      <trkpt lat="44.6011" lon="5.70758">
        <ele>913</ele>
        <time>2010-05-07T13:15:17Z</time>
      </trkpt>
      <trkpt lat="44.60125" lon="5.70756">
        <ele>910</ele>
        <time>2010-05-07T13:15:31Z</time>
      </trkpt>
      <trkpt lat="44.60141" lon="5.70757">
        <ele>908</ele>
        <time>2010-05-07T13:15:45Z</time>
      </trkpt>
      <trkpt lat="44.60155" lon="5.70761">
        <ele>907</ele>
        <time>2010-05-07T13:15:59Z</time>
      </trkpt>
      <trkpt lat="44.60171" lon="5.70764">
        <ele>906</ele>
        <time>2010-05-07T13:16:13Z</time>
      </trkpt>
      <trkpt lat="44.60187" lon="5.70769">
        <ele>905</ele>
        <time>2010-05-07T13:16:27Z</time>
      </trkpt>
      <trkpt lat="44.60202" lon="5.70779">
        <ele>904</ele>
        <time>2010-05-07T13:16:41Z</time>
      </trkpt>
      <trkpt lat="44.60218" lon="5.70789">
        <ele>902</ele>
        <time>2010-05-07T13:16:55Z</time>
      </trkpt>
      <trkpt lat="44.60232" lon="5.70801">
        <ele>901</ele>
        <time>2010-05-07T13:17:09Z</time>
      </trkpt>
      <trkpt lat="44.60248" lon="5.70813">
        <ele>901</ele>
        <time>2010-05-07T13:17:23Z</time>
      </trkpt>
      <trkpt lat="44.60266" lon="5.70817">
        <ele>899</ele>
        <time>2010-05-07T13:17:37Z</time>
      </trkpt>
      <trkpt lat="44.60282" lon="5.7081">
        <ele>899</ele>
        <time>2010-05-07T13:17:51Z</time>
      </trkpt>
      <trkpt lat="44.6029" lon="5.70814">
        <ele>898</ele>
        <time>2010-05-07T13:18:05Z</time>
      </trkpt>
      <trkpt lat="44.60309" lon="5.70829">
        <ele>897</ele>
        <time>2010-05-07T13:18:19Z</time>
      </trkpt>
      <trkpt lat="44.60349" lon="5.70831">
        <ele>897</ele>
        <time>2010-05-07T13:18:33Z</time>
      </trkpt>
      <trkpt lat="44.60393" lon="5.70827">
        <ele>896</ele>
        <time>2010-05-07T13:18:47Z</time>
      </trkpt>
      <trkpt lat="44.60432" lon="5.70819">
        <ele>897</ele>
        <time>2010-05-07T13:19:01Z</time>
      </trkpt>
      <trkpt lat="44.6046" lon="5.70814">
        <ele>897</ele>
        <time>2010-05-07T13:19:15Z</time>
      </trkpt>
      <trkpt lat="44.60512" lon="5.70799">
        <ele>898</ele>
        <time>2010-05-07T13:19:29Z</time>
      </trkpt>
      <trkpt lat="44.60598" lon="5.70795">
        <ele>899</ele>
        <time>2010-05-07T13:19:43Z</time>
      </trkpt>
      <trkpt lat="44.60688" lon="5.7079">
        <ele>900</ele>
        <time>2010-05-07T13:19:57Z</time>
      </trkpt>
      <trkpt lat="44.60781" lon="5.70776">
        <ele>903</ele>
        <time>2010-05-07T13:20:11Z</time>
      </trkpt>
      <trkpt lat="44.60876" lon="5.70761">
        <ele>904</ele>
        <time>2010-05-07T13:20:25Z</time>
      </trkpt>
      <trkpt lat="44.60996" lon="5.70747">
        <ele>910</ele>
        <time>2010-05-07T13:20:39Z</time>
      </trkpt>
      <trkpt lat="44.61034" lon="5.70742">
        <ele>909</ele>
        <time>2010-05-07T13:20:53Z</time>
      </trkpt>
      <trkpt lat="44.61094" lon="5.70737">
        <ele>907</ele>
        <time>2010-05-07T13:21:07Z</time>
      </trkpt>
      <trkpt lat="44.61195" lon="5.70716">
        <ele>910</ele>
        <time>2010-05-07T13:21:21Z</time>
      </trkpt>
      <trkpt lat="44.6125" lon="5.70716">
        <ele>910</ele>
        <time>2010-05-07T13:21:35Z</time>
      </trkpt>
      <trkpt lat="44.6128" lon="5.70722">
        <ele>910</ele>
        <time>2010-05-07T13:21:49Z</time>
      </trkpt>
      <trkpt lat="44.61345" lon="5.70738">
        <ele>911</ele>
        <time>2010-05-07T13:22:03Z</time>
      </trkpt>
      <trkpt lat="44.61389" lon="5.7075">
        <ele>910</ele>
        <time>2010-05-07T13:22:17Z</time>
      </trkpt>
      <trkpt lat="44.61461" lon="5.70768">
        <ele>912</ele>
        <time>2010-05-07T13:22:31Z</time>
      </trkpt>
      <trkpt lat="44.6152" lon="5.70777">
        <ele>911</ele>
        <time>2010-05-07T13:22:45Z</time>
      </trkpt>
      <trkpt lat="44.61587" lon="5.70764">
        <ele>913</ele>
        <time>2010-05-07T13:22:59Z</time>
      </trkpt>
      <trkpt lat="44.61605" lon="5.70775">
        <ele>913</ele>
        <time>2010-05-07T13:23:13Z</time>
      </trkpt>
      <trkpt lat="44.61585" lon="5.70793">
        <ele>914</ele>
        <time>2010-05-07T13:23:27Z</time>
      </trkpt>
      <trkpt lat="44.61583" lon="5.70823">
        <ele>914</ele>
        <time>2010-05-07T13:23:41Z</time>
      </trkpt>
      <trkpt lat="44.61597" lon="5.70842">
        <ele>913</ele>
        <time>2010-05-07T13:23:55Z</time>
      </trkpt>
      <trkpt lat="44.61599" lon="5.70849">
        <ele>916</ele>
      </trkpt>
      <trkpt lat="44.61645" lon="5.70952">
        <ele>921.3</ele>
      </trkpt>
      <trkpt lat="44.61667" lon="5.71124">
        <ele>925.1</ele>
      </trkpt>
      <trkpt lat="44.61767" lon="5.71243">
        <ele>930.6</ele>
      </trkpt>
      <trkpt lat="44.61967" lon="5.71312">
        <ele>938.6</ele>
      </trkpt>
      <trkpt lat="44.62192" lon="5.71338">
        <ele>950.1</ele>
      </trkpt>
      <trkpt lat="44.62294" lon="5.71388">
        <ele>964.4</ele>
      </trkpt>
      <trkpt lat="44.62317" lon="5.71509">
        <ele>960.7</ele>
      </trkpt>
      <trkpt lat="44.62433" lon="5.71674">
        <ele>970.8</ele>
      </trkpt>
      <trkpt lat="44.62691" lon="5.71916">
        <ele>984.5</ele>
      </trkpt>
      <trkpt lat="44.62764" lon="5.72028">
        <ele>1000.8</ele>
      </trkpt>
      <trkpt lat="44.62757" lon="5.72122">
        <ele>997.2</ele>
      </trkpt>
      <trkpt lat="44.6277" lon="5.72135">
        <ele>996.6</ele>
      </trkpt>
      <trkpt lat="44.62866" lon="5.72248">
        <ele>1007.9</ele>
      </trkpt>
      <trkpt lat="44.62962" lon="5.72468">
        <ele>1018.1</ele>
      </trkpt>
      <trkpt lat="44.63007" lon="5.72641">
        <ele>1032</ele>
      </trkpt>
      <trkpt lat="44.63258" lon="5.72959">
        <ele>1104</ele>
      </trkpt>
      <trkpt lat="44.63393" lon="5.731">
        <ele>1131.3</ele>
      </trkpt>
      <trkpt lat="44.635" lon="5.73144">
        <ele>1158.3</ele>
      </trkpt>
      <trkpt lat="44.63472" lon="5.73319">
        <ele>1178.2</ele>
      </trkpt>
      <trkpt lat="44.63419" lon="5.73429">
        <ele>1171.6</ele>
      </trkpt>
      <trkpt lat="44.63374" lon="5.73855">
        <ele>1183.2</ele>
      </trkpt>
      <trkpt lat="44.63368" lon="5.74069">
        <ele>1186.3</ele>
      </trkpt>
      <trkpt lat="44.63288" lon="5.74177">
        <ele>1170.2</ele>
      </trkpt>
      <trkpt lat="44.63342" lon="5.74307">
        <ele>1183.1</ele>
      </trkpt>
      <trkpt lat="44.63384" lon="5.74706">
        <ele>1195.4</ele>
      </trkpt>
      <trkpt lat="44.63327" lon="5.74785">
        <ele>1189</ele>
      </trkpt>
      <trkpt lat="44.63326" lon="5.74968">
        <ele>1194.9</ele>
      </trkpt>
      <trkpt lat="44.63203" lon="5.75464">
        <ele>1226.6</ele>
      </trkpt>
      <trkpt lat="44.6311" lon="5.75856">
        <ele>1262.3</ele>
      </trkpt>
      <trkpt lat="44.63082" lon="5.75879">
        <ele>1263.8</ele>
      </trkpt>
      <trkpt lat="44.631" lon="5.76026">
        <ele>1288.3</ele>
      </trkpt>
      <trkpt lat="44.63055" lon="5.76035">
        <ele>1288.1</ele>
      </trkpt>
      <trkpt lat="44.63058" lon="5.76067">
        <ele>1293.3</ele>
      </trkpt>
      <trkpt lat="44.63026" lon="5.76084">
        <ele>1295.2</ele>
      </trkpt>
      <trkpt lat="44.63034" lon="5.76122">
        <ele>1303</ele>
      </trkpt>
      <trkpt lat="44.62998" lon="5.7612">
        <ele>1302.7</ele>
      </trkpt>
      <trkpt lat="44.63019" lon="5.76159">
        <ele>1310.9</ele>
      </trkpt>
      <trkpt lat="44.62967" lon="5.76112">
        <ele>1303.7</ele>
      </trkpt>
      <trkpt lat="44.62952" lon="5.76136">
        <ele>1307.2</ele>
      </trkpt>
      <trkpt lat="44.62978" lon="5.76195">
        <ele>1317.2</ele>
      </trkpt>
      <trkpt lat="44.6294" lon="5.7623">
        <ele>1325.7</ele>
      </trkpt>
      <trkpt lat="44.62892" lon="5.76189">
        <ele>1322.9</ele>
      </trkpt>
      <trkpt lat="44.62782" lon="5.76252">
        <ele>1345.6</ele>
      </trkpt>
      <trkpt lat="44.62754" lon="5.76149">
        <ele>1352.2</ele>
      </trkpt>
      <trkpt lat="44.62839" lon="5.76022">
        <ele>1361.9</ele>
      </trkpt>
      <trkpt lat="44.62816" lon="5.75882">
        <ele>1364.7</ele>
      </trkpt>
      <trkpt lat="44.62749" lon="5.75878">
        <ele>1396.4</ele>
      </trkpt>
      <trkpt lat="44.62789" lon="5.75742">
        <ele>1373.9</ele>
      </trkpt>
      <trkpt lat="44.62716" lon="5.75643">
        <ele>1394.6</ele>
      </trkpt>
      <trkpt lat="44.62705" lon="5.75415">
        <ele>1406.1</ele>
      </trkpt>
      <trkpt lat="44.62658" lon="5.75312">
        <ele>1411.2</ele>
      </trkpt>
      <trkpt lat="44.62641" lon="5.75443">
        <ele>1438.6</ele>
      </trkpt>
      <trkpt lat="44.62652" lon="5.75519">
        <ele>1436</ele>
      </trkpt>
      <trkpt lat="44.62639" lon="5.75638">
        <ele>1437.8</ele>
      </trkpt>
      <trkpt lat="44.62644" lon="5.75777">
        <ele>1437.2</ele>
      </trkpt>
      <trkpt lat="44.62625" lon="5.75795">
        <ele>1441.7</ele>
      </trkpt>
      <trkpt lat="44.62477" lon="5.75931">
        <ele>1460.9</ele>
      </trkpt>
      <trkpt lat="44.62415" lon="5.7604">
        <ele>1467.5</ele>
      </trkpt>
      <trkpt lat="44.62452" lon="5.7615">
        <ele>1462.8</ele>
      </trkpt>
      <trkpt lat="44.624" lon="5.76254">
        <ele>1482.8</ele>
      </trkpt>
      <trkpt lat="44.62478" lon="5.76347">
        <ele>1484.4</ele>
      </trkpt>
      <trkpt lat="44.62469" lon="5.76485">
        <ele>1501.7</ele>
      </trkpt>
      <trkpt lat="44.62329" lon="5.76653">
        <ele>1547.8</ele>
      </trkpt>
      <trkpt lat="44.62167" lon="5.76927">
        <ele>1597.8</ele>
      </trkpt>
      <trkpt lat="44.62158" lon="5.76945">
        <ele>1602.9</ele>
      </trkpt>
      <trkpt lat="44.62104" lon="5.77061">
        <ele>1641.3</ele>
      </trkpt>
      <trkpt lat="44.62177" lon="5.77337">
        <ele>1673.1</ele>
      </trkpt>
      <trkpt lat="44.62163" lon="5.77355">
        <ele>1681.4</ele>
      </trkpt>
      <trkpt lat="44.62076" lon="5.77545">
        <ele>1693.5</ele>
      </trkpt>
      <trkpt lat="44.62075" lon="5.7757">
        <ele>1692.8</ele>
      </trkpt>
      <trkpt lat="44.6207" lon="5.77601">
        <ele>1689.6</ele>
      </trkpt>
      <trkpt lat="44.62044" lon="5.77833">
        <ele>1667.1</ele>
      </trkpt>
      <trkpt lat="44.6202" lon="5.78033">
        <ele>1648.9</ele>
      </trkpt>
      <trkpt lat="44.61985" lon="5.78151">
        <ele>1641.1</ele>
      </trkpt>
      <trkpt lat="44.62124" lon="5.78304">
        <ele>1625.9</ele>
      </trkpt>
      <trkpt lat="44.62164" lon="5.78464">
        <ele>1609.9</ele>
      </trkpt>
      <trkpt lat="44.62245" lon="5.78475">
        <ele>1606.9</ele>
      </trkpt>
      <trkpt lat="44.62279" lon="5.78534">
        <ele>1600.5</ele>
      </trkpt>
      <trkpt lat="44.62249" lon="5.78639">
        <ele>1584.6</ele>
      </trkpt>
      <trkpt lat="44.62214" lon="5.78726">
        <ele>1578.9</ele>
      </trkpt>
      <trkpt lat="44.62212" lon="5.78656">
        <ele>1574.4</ele>
      </trkpt>
      <trkpt lat="44.62092" lon="5.78737">
        <ele>1551.4</ele>
      </trkpt>
      <trkpt lat="44.61923" lon="5.7884">
        <ele>1509.5</ele>
      </trkpt>
      <trkpt lat="44.61829" lon="5.78941">
        <ele>1494.6</ele>
      </trkpt>
      <trkpt lat="44.61849" lon="5.79043">
        <ele>1491.7</ele>
      </trkpt>
      <trkpt lat="44.61942" lon="5.79087">
        <ele>1510.6</ele>
      </trkpt>
      <trkpt lat="44.61965" lon="5.79208">
        <ele>1485.3</ele>
      </trkpt>
      <trkpt lat="44.62091" lon="5.79342">
        <ele>1472.8</ele>
      </trkpt>
      <trkpt lat="44.6199" lon="5.79411">
        <ele>1453</ele>
      </trkpt>
      <trkpt lat="44.61928" lon="5.79401">
        <ele>1446.8</ele>
      </trkpt>
      <trkpt lat="44.61904" lon="5.79564">
        <ele>1446.5</ele>
      </trkpt>
      <trkpt lat="44.61816" lon="5.79672">
        <ele>1429.8</ele>
      </trkpt>
      <trkpt lat="44.61818" lon="5.79451">
        <ele>1416.2</ele>
      </trkpt>
      <trkpt lat="44.61847" lon="5.7939">
        <ele>1420</ele>
      </trkpt>
      <trkpt lat="44.61714" lon="5.79174">
        <ele>1416.4</ele>
      </trkpt>
      <trkpt lat="44.61659" lon="5.78931">
        <ele>1384.2</ele>
      </trkpt>
      <trkpt lat="44.61614" lon="5.78638">
        <ele>1373.8</ele>
      </trkpt>
      <trkpt lat="44.61602" lon="5.78871">
        <ele>1363.4</ele>
      </trkpt>
      <trkpt lat="44.61598" lon="5.78852">
        <ele>1364</ele>
      </trkpt>
      <trkpt lat="44.61581" lon="5.78832">
        <ele>1360.6</ele>
      </trkpt>
      <trkpt lat="44.6151" lon="5.78663">
        <ele>1357.8</ele>
      </trkpt>
      <trkpt lat="44.61398" lon="5.78764">
        <ele>1333.4</ele>
      </trkpt>
      <trkpt lat="44.6132" lon="5.78809">
        <ele>1330.2</ele>
      </trkpt>
      <trkpt lat="44.61315" lon="5.78828">
        <ele>1328.1</ele>
      </trkpt>
      <trkpt lat="44.61227" lon="5.79062">
        <ele>1307.9</ele>
      </trkpt>
      <trkpt lat="44.61166" lon="5.79134">
        <ele>1302.3</ele>
      </trkpt>
      <trkpt lat="44.61184" lon="5.79135">
        <ele>1300</ele>
      </trkpt>
      <trkpt lat="44.61261" lon="5.79133">
        <ele>1286</ele>
      </trkpt>
      <trkpt lat="44.61339" lon="5.79069">
        <ele>1284.6</ele>
      </trkpt>
      <trkpt lat="44.61372" lon="5.79184">
        <ele>1286.3</ele>
      </trkpt>
      <trkpt lat="44.61341" lon="5.79302">
        <ele>1275.1</ele>
      </trkpt>
      <trkpt lat="44.61294" lon="5.79236">
        <ele>1266.1</ele>
      </trkpt>
      <trkpt lat="44.61271" lon="5.79244">
        <ele>1272</ele>
        <time>2010-08-26T13:19:39Z</time>
      </trkpt>
      <trkpt lat="44.61285" lon="5.79244">
        <ele>1272</ele>
        <time>2010-08-26T13:19:49Z</time>
      </trkpt>
      <trkpt lat="44.61281" lon="5.79247">
        <ele>1271</ele>
        <time>2010-08-26T13:19:59Z</time>
      </trkpt>
      <trkpt lat="44.61269" lon="5.79261">
        <ele>1271</ele>
        <time>2010-08-26T13:20:09Z</time>
      </trkpt>
      <trkpt lat="44.61258" lon="5.79267">
        <ele>1270</ele>
        <time>2010-08-26T13:20:19Z</time>
      </trkpt>
      <trkpt lat="44.6125" lon="5.79275">
        <ele>1270</ele>
        <time>2010-08-26T13:20:29Z</time>
      </trkpt>
      <trkpt lat="44.61241" lon="5.79281">
        <ele>1269</ele>
        <time>2010-08-26T13:20:39Z</time>
      </trkpt>
      <trkpt lat="44.61228" lon="5.7929">
        <ele>1268</ele>
        <time>2010-08-26T13:20:49Z</time>
      </trkpt>
      <trkpt lat="44.61214" lon="5.79297">
        <ele>1266</ele>
        <time>2010-08-26T13:20:59Z</time>
      </trkpt>
      <trkpt lat="44.612" lon="5.79306">
        <ele>1266</ele>
        <time>2010-08-26T13:21:09Z</time>
      </trkpt>
      <trkpt lat="44.61187" lon="5.79312">
        <ele>1265</ele>
        <time>2010-08-26T13:21:19Z</time>
      </trkpt>
      <trkpt lat="44.61175" lon="5.79315">
        <ele>1264</ele>
        <time>2010-08-26T13:21:29Z</time>
      </trkpt>
      <trkpt lat="44.61162" lon="5.79319">
        <ele>1262</ele>
        <time>2010-08-26T13:21:39Z</time>
      </trkpt>
      <trkpt lat="44.61149" lon="5.79327">
        <ele>1262</ele>
        <time>2010-08-26T13:21:49Z</time>
      </trkpt>
      <trkpt lat="44.61136" lon="5.79332">
        <ele>1260</ele>
        <time>2010-08-26T13:21:59Z</time>
      </trkpt>
      <trkpt lat="44.6112" lon="5.79326">
        <ele>1258</ele>
        <time>2010-08-26T13:22:09Z</time>
      </trkpt>
      <trkpt lat="44.61108" lon="5.79319">
        <ele>1257</ele>
        <time>2010-08-26T13:22:19Z</time>
      </trkpt>
      <trkpt lat="44.61096" lon="5.79321">
        <ele>1256</ele>
        <time>2010-08-26T13:22:29Z</time>
      </trkpt>
      <trkpt lat="44.61087" lon="5.79334">
        <ele>1255</ele>
        <time>2010-08-26T13:22:39Z</time>
      </trkpt>
      <trkpt lat="44.61076" lon="5.79351">
        <ele>1254</ele>
        <time>2010-08-26T13:22:49Z</time>
      </trkpt>
      <trkpt lat="44.61068" lon="5.79359">
        <ele>1252</ele>
        <time>2010-08-26T13:22:59Z</time>
      </trkpt>
      <trkpt lat="44.61056" lon="5.79369">
        <ele>1252</ele>
        <time>2010-08-26T13:23:09Z</time>
      </trkpt>
      <trkpt lat="44.61048" lon="5.79373">
        <ele>1250</ele>
        <time>2010-08-26T13:23:19Z</time>
      </trkpt>
      <trkpt lat="44.61039" lon="5.79379">
        <ele>1249</ele>
        <time>2010-08-26T13:23:29Z</time>
      </trkpt>
      <trkpt lat="44.61017" lon="5.79391">
        <ele>1247</ele>
        <time>2010-08-26T13:23:39Z</time>
      </trkpt>
      <trkpt lat="44.61005" lon="5.79385">
        <ele>1246</ele>
        <time>2010-08-26T13:23:49Z</time>
      </trkpt>
      <trkpt lat="44.60992" lon="5.79379">
        <ele>1246</ele>
        <time>2010-08-26T13:23:59Z</time>
      </trkpt>
      <trkpt lat="44.60981" lon="5.79373">
        <ele>1244</ele>
        <time>2010-08-26T13:24:09Z</time>
      </trkpt>
      <trkpt lat="44.60969" lon="5.7937">
        <ele>1244</ele>
        <time>2010-08-26T13:24:19Z</time>
      </trkpt>
      <trkpt lat="44.60955" lon="5.7937">
        <ele>1242</ele>
        <time>2010-08-26T13:24:29Z</time>
      </trkpt>
      <trkpt lat="44.60946" lon="5.79362">
        <ele>1242</ele>
        <time>2010-08-26T13:24:39Z</time>
      </trkpt>
      <trkpt lat="44.60941" lon="5.79349">
        <ele>1240</ele>
        <time>2010-08-26T13:24:49Z</time>
      </trkpt>
      <trkpt lat="44.60931" lon="5.79348">
        <ele>1240</ele>
        <time>2010-08-26T13:24:59Z</time>
      </trkpt>
      <trkpt lat="44.6092" lon="5.79353">
        <ele>1238</ele>
        <time>2010-08-26T13:25:09Z</time>
      </trkpt>
      <trkpt lat="44.60909" lon="5.79358">
        <ele>1236</ele>
        <time>2010-08-26T13:25:19Z</time>
      </trkpt>
      <trkpt lat="44.60899" lon="5.79364">
        <ele>1235</ele>
        <time>2010-08-26T13:25:29Z</time>
      </trkpt>
      <trkpt lat="44.60887" lon="5.79369">
        <ele>1235</ele>
        <time>2010-08-26T13:25:39Z</time>
      </trkpt>
      <trkpt lat="44.60877" lon="5.79378">
        <ele>1233</ele>
        <time>2010-08-26T13:25:49Z</time>
      </trkpt>
      <trkpt lat="44.60865" lon="5.79388">
        <ele>1233</ele>
        <time>2010-08-26T13:25:59Z</time>
      </trkpt>
      <trkpt lat="44.60854" lon="5.79396">
        <ele>1231</ele>
        <time>2010-08-26T13:26:09Z</time>
      </trkpt>
      <trkpt lat="44.60845" lon="5.79404">
        <ele>1230</ele>
        <time>2010-08-26T13:26:19Z</time>
      </trkpt>
      <trkpt lat="44.60839" lon="5.79411">
        <ele>1229</ele>
        <time>2010-08-26T13:26:29Z</time>
      </trkpt>
      <trkpt lat="44.60824" lon="5.79423">
        <ele>1228</ele>
        <time>2010-08-26T13:26:39Z</time>
      </trkpt>
      <trkpt lat="44.60811" lon="5.7943">
        <ele>1227</ele>
        <time>2010-08-26T13:26:49Z</time>
      </trkpt>
      <trkpt lat="44.60795" lon="5.79423">
        <ele>1226</ele>
        <time>2010-08-26T13:26:59Z</time>
      </trkpt>
      <trkpt lat="44.60787" lon="5.79416">
        <ele>1224</ele>
        <time>2010-08-26T13:27:09Z</time>
      </trkpt>
      <trkpt lat="44.6078" lon="5.79398">
        <ele>1222</ele>
        <time>2010-08-26T13:27:19Z</time>
      </trkpt>
      <trkpt lat="44.60772" lon="5.79388">
        <ele>1221</ele>
        <time>2010-08-26T13:27:29Z</time>
      </trkpt>
      <trkpt lat="44.60763" lon="5.79395">
        <ele>1220</ele>
        <time>2010-08-26T13:27:39Z</time>
      </trkpt>
      <trkpt lat="44.6075" lon="5.79398">
        <ele>1219</ele>
        <time>2010-08-26T13:27:49Z</time>
      </trkpt>
      <trkpt lat="44.6072" lon="5.79377">
        <ele>1217</ele>
        <time>2010-08-26T13:27:59Z</time>
      </trkpt>
      <trkpt lat="44.6071" lon="5.79348">
        <ele>1216</ele>
        <time>2010-08-26T13:28:09Z</time>
      </trkpt>
      <trkpt lat="44.60711" lon="5.79338">
        <ele>1215</ele>
        <time>2010-08-26T13:28:19Z</time>
      </trkpt>
      <trkpt lat="44.60709" lon="5.79329">
        <ele>1213</ele>
        <time>2010-08-26T13:28:29Z</time>
      </trkpt>
      <trkpt lat="44.60697" lon="5.79323">
        <ele>1213</ele>
        <time>2010-08-26T13:28:39Z</time>
      </trkpt>
      <trkpt lat="44.60692" lon="5.79316">
        <ele>1211</ele>
        <time>2010-08-26T13:28:49Z</time>
      </trkpt>
      <trkpt lat="44.60683" lon="5.79299">
        <ele>1210</ele>
        <time>2010-08-26T13:28:59Z</time>
      </trkpt>
      <trkpt lat="44.60672" lon="5.79277">
        <ele>1209</ele>
        <time>2010-08-26T13:29:09Z</time>
      </trkpt>
      <trkpt lat="44.60671" lon="5.79255">
        <ele>1207</ele>
        <time>2010-08-26T13:29:19Z</time>
      </trkpt>
      <trkpt lat="44.60674" lon="5.7924">
        <ele>1207</ele>
        <time>2010-08-26T13:29:29Z</time>
      </trkpt>
      <trkpt lat="44.60671" lon="5.79229">
        <ele>1205</ele>
        <time>2010-08-26T13:29:39Z</time>
      </trkpt>
      <trkpt lat="44.60673" lon="5.79215">
        <ele>1204</ele>
        <time>2010-08-26T13:29:49Z</time>
      </trkpt>
      <trkpt lat="44.60665" lon="5.79204">
        <ele>1203</ele>
        <time>2010-08-26T13:29:59Z</time>
      </trkpt>
      <trkpt lat="44.60652" lon="5.79204">
        <ele>1202</ele>
        <time>2010-08-26T13:30:09Z</time>
      </trkpt>
      <trkpt lat="44.60637" lon="5.79209">
        <ele>1200</ele>
        <time>2010-08-26T13:30:19Z</time>
      </trkpt>
      <trkpt lat="44.60622" lon="5.7921">
        <ele>1199</ele>
        <time>2010-08-26T13:30:29Z</time>
      </trkpt>
      <trkpt lat="44.60615" lon="5.79207">
        <ele>1197</ele>
        <time>2010-08-26T13:30:39Z</time>
      </trkpt>
      <trkpt lat="44.60629" lon="5.79191">
        <ele>1196</ele>
        <time>2010-08-26T13:30:49Z</time>
      </trkpt>
      <trkpt lat="44.60611" lon="5.79155">
        <ele>1195</ele>
        <time>2010-08-26T13:30:59Z</time>
      </trkpt>
      <trkpt lat="44.60604" lon="5.79133">
        <ele>1194</ele>
        <time>2010-08-26T13:31:09Z</time>
      </trkpt>
      <trkpt lat="44.60598" lon="5.79121">
        <ele>1193</ele>
        <time>2010-08-26T13:31:19Z</time>
      </trkpt>
      <trkpt lat="44.60587" lon="5.79104">
        <ele>1191</ele>
        <time>2010-08-26T13:31:29Z</time>
      </trkpt>
      <trkpt lat="44.60582" lon="5.79088">
        <ele>1190</ele>
        <time>2010-08-26T13:31:39Z</time>
      </trkpt>
      <trkpt lat="44.6058" lon="5.7907">
        <ele>1188</ele>
        <time>2010-08-26T13:31:49Z</time>
      </trkpt>
      <trkpt lat="44.60575" lon="5.79051">
        <ele>1187</ele>
        <time>2010-08-26T13:31:59Z</time>
      </trkpt>
      <trkpt lat="44.6057" lon="5.79033">
        <ele>1185</ele>
        <time>2010-08-26T13:32:09Z</time>
      </trkpt>
      <trkpt lat="44.6057" lon="5.79015">
        <ele>1184</ele>
        <time>2010-08-26T13:32:19Z</time>
      </trkpt>
      <trkpt lat="44.6057" lon="5.78996">
        <ele>1183</ele>
        <time>2010-08-26T13:32:29Z</time>
      </trkpt>
      <trkpt lat="44.6056" lon="5.78983">
        <ele>1182</ele>
        <time>2010-08-26T13:32:39Z</time>
      </trkpt>
      <trkpt lat="44.60555" lon="5.78969">
        <ele>1180</ele>
        <time>2010-08-26T13:32:49Z</time>
      </trkpt>
      <trkpt lat="44.60549" lon="5.78951">
        <ele>1179</ele>
        <time>2010-08-26T13:32:59Z</time>
      </trkpt>
      <trkpt lat="44.60543" lon="5.78936">
        <ele>1177</ele>
        <time>2010-08-26T13:33:09Z</time>
      </trkpt>
      <trkpt lat="44.60532" lon="5.78927">
        <ele>1176</ele>
        <time>2010-08-26T13:33:19Z</time>
      </trkpt>
      <trkpt lat="44.60522" lon="5.78915">
        <ele>1176</ele>
        <time>2010-08-26T13:33:29Z</time>
      </trkpt>
      <trkpt lat="44.60508" lon="5.78909">
        <ele>1175</ele>
        <time>2010-08-26T13:33:39Z</time>
      </trkpt>
      <trkpt lat="44.60494" lon="5.78911">
        <ele>1172</ele>
        <time>2010-08-26T13:33:50Z</time>
      </trkpt>
      <trkpt lat="44.60482" lon="5.78909">
        <ele>1171</ele>
        <time>2010-08-26T13:34:00Z</time>
      </trkpt>
      <trkpt lat="44.60469" lon="5.78903">
        <ele>1170</ele>
        <time>2010-08-26T13:34:10Z</time>
      </trkpt>
      <trkpt lat="44.60458" lon="5.78892">
        <ele>1167</ele>
        <time>2010-08-26T13:34:20Z</time>
      </trkpt>
      <trkpt lat="44.60448" lon="5.7888">
        <ele>1166</ele>
        <time>2010-08-26T13:34:30Z</time>
      </trkpt>
      <trkpt lat="44.6044" lon="5.78869">
        <ele>1164</ele>
        <time>2010-08-26T13:34:40Z</time>
      </trkpt>
      <trkpt lat="44.60428" lon="5.7886">
        <ele>1164</ele>
        <time>2010-08-26T13:34:50Z</time>
      </trkpt>
      <trkpt lat="44.60416" lon="5.78854">
        <ele>1163</ele>
        <time>2010-08-26T13:35:00Z</time>
      </trkpt>
      <trkpt lat="44.60403" lon="5.78853">
        <ele>1161</ele>
        <time>2010-08-26T13:35:11Z</time>
      </trkpt>
      <trkpt lat="44.60391" lon="5.78843">
        <ele>1159</ele>
        <time>2010-08-26T13:35:21Z</time>
      </trkpt>
      <trkpt lat="44.60383" lon="5.78827">
        <ele>1158</ele>
        <time>2010-08-26T13:35:31Z</time>
      </trkpt>
      <trkpt lat="44.6037" lon="5.78818">
        <ele>1155</ele>
        <time>2010-08-26T13:35:41Z</time>
      </trkpt>
      <trkpt lat="44.60359" lon="5.78811">
        <ele>1154</ele>
        <time>2010-08-26T13:35:51Z</time>
      </trkpt>
      <trkpt lat="44.60346" lon="5.78805">
        <ele>1153</ele>
        <time>2010-08-26T13:36:01Z</time>
      </trkpt>
      <trkpt lat="44.60335" lon="5.78798">
        <ele>1151</ele>
        <time>2010-08-26T13:36:11Z</time>
      </trkpt>
      <trkpt lat="44.60323" lon="5.78789">
        <ele>1149</ele>
        <time>2010-08-26T13:36:21Z</time>
      </trkpt>
      <trkpt lat="44.60309" lon="5.78781">
        <ele>1147</ele>
        <time>2010-08-26T13:36:31Z</time>
      </trkpt>
      <trkpt lat="44.60297" lon="5.78773">
        <ele>1146</ele>
        <time>2010-08-26T13:36:41Z</time>
      </trkpt>
      <trkpt lat="44.60285" lon="5.78764">
        <ele>1144</ele>
        <time>2010-08-26T13:36:51Z</time>
      </trkpt>
      <trkpt lat="44.60273" lon="5.78757">
        <ele>1143</ele>
        <time>2010-08-26T13:37:01Z</time>
      </trkpt>
      <trkpt lat="44.6026" lon="5.78752">
        <ele>1142</ele>
        <time>2010-08-26T13:37:11Z</time>
      </trkpt>
      <trkpt lat="44.60247" lon="5.78749">
        <ele>1140</ele>
        <time>2010-08-26T13:37:21Z</time>
      </trkpt>
      <trkpt lat="44.60236" lon="5.78751">
        <ele>1138</ele>
        <time>2010-08-26T13:37:31Z</time>
      </trkpt>
      <trkpt lat="44.60223" lon="5.78757">
        <ele>1136</ele>
        <time>2010-08-26T13:37:41Z</time>
      </trkpt>
      <trkpt lat="44.60209" lon="5.78758">
        <ele>1134</ele>
        <time>2010-08-26T13:37:51Z</time>
      </trkpt>
      <trkpt lat="44.60196" lon="5.78756">
        <ele>1134</ele>
        <time>2010-08-26T13:38:01Z</time>
      </trkpt>
      <trkpt lat="44.60184" lon="5.7875">
        <ele>1132</ele>
        <time>2010-08-26T13:38:11Z</time>
      </trkpt>
      <trkpt lat="44.60171" lon="5.78741">
        <ele>1131</ele>
        <time>2010-08-26T13:38:21Z</time>
      </trkpt>
      <trkpt lat="44.60157" lon="5.78734">
        <ele>1129</ele>
        <time>2010-08-26T13:38:31Z</time>
      </trkpt>
      <trkpt lat="44.60144" lon="5.7873">
        <ele>1128</ele>
        <time>2010-08-26T13:38:41Z</time>
      </trkpt>
      <trkpt lat="44.60129" lon="5.78732">
        <ele>1127</ele>
        <time>2010-08-26T13:38:51Z</time>
      </trkpt>
      <trkpt lat="44.60112" lon="5.7874">
        <ele>1126</ele>
        <time>2010-08-26T13:39:01Z</time>
      </trkpt>
      <trkpt lat="44.60093" lon="5.78754">
        <ele>1125</ele>
        <time>2010-08-26T13:39:11Z</time>
      </trkpt>
      <trkpt lat="44.60077" lon="5.78762">
        <ele>1123</ele>
        <time>2010-08-26T13:39:21Z</time>
      </trkpt>
      <trkpt lat="44.6006" lon="5.78772">
        <ele>1124</ele>
        <time>2010-08-26T13:39:31Z</time>
      </trkpt>
      <trkpt lat="44.60043" lon="5.78766">
        <ele>1122</ele>
        <time>2010-08-26T13:39:41Z</time>
      </trkpt>
      <trkpt lat="44.6003" lon="5.78747">
        <ele>1121</ele>
        <time>2010-08-26T13:39:51Z</time>
      </trkpt>
      <trkpt lat="44.60022" lon="5.78728">
        <ele>1121</ele>
        <time>2010-08-26T13:40:01Z</time>
      </trkpt>
      <trkpt lat="44.60014" lon="5.78718">
        <ele>1119</ele>
        <time>2010-08-26T13:40:11Z</time>
      </trkpt>
      <trkpt lat="44.60003" lon="5.78712">
        <ele>1119</ele>
        <time>2010-08-26T13:40:21Z</time>
      </trkpt>
      <trkpt lat="44.59995" lon="5.787">
        <ele>1117</ele>
        <time>2010-08-26T13:40:31Z</time>
      </trkpt>
      <trkpt lat="44.59987" lon="5.78693">
        <ele>1116</ele>
        <time>2010-08-26T13:40:41Z</time>
      </trkpt>
      <trkpt lat="44.59966" lon="5.78699">
        <ele>1115</ele>
        <time>2010-08-26T13:40:51Z</time>
      </trkpt>
      <trkpt lat="44.5995" lon="5.78698">
        <ele>1113</ele>
        <time>2010-08-26T13:41:01Z</time>
      </trkpt>
      <trkpt lat="44.59934" lon="5.78697">
        <ele>1113</ele>
        <time>2010-08-26T13:41:11Z</time>
      </trkpt>
      <trkpt lat="44.59917" lon="5.78691">
        <ele>1112</ele>
        <time>2010-08-26T13:41:21Z</time>
      </trkpt>
      <trkpt lat="44.59907" lon="5.7868">
        <ele>1111</ele>
        <time>2010-08-26T13:41:31Z</time>
      </trkpt>
      <trkpt lat="44.59895" lon="5.78673">
        <ele>1111</ele>
        <time>2010-08-26T13:41:41Z</time>
      </trkpt>
      <trkpt lat="44.59883" lon="5.78665">
        <ele>1110</ele>
        <time>2010-08-26T13:41:51Z</time>
      </trkpt>
      <trkpt lat="44.5987" lon="5.7866">
        <ele>1110</ele>
        <time>2010-08-26T13:42:01Z</time>
      </trkpt>
      <trkpt lat="44.59855" lon="5.78655">
        <ele>1109</ele>
        <time>2010-08-26T13:42:11Z</time>
      </trkpt>
      <trkpt lat="44.59841" lon="5.78648">
        <ele>1108</ele>
        <time>2010-08-26T13:42:21Z</time>
      </trkpt>
      <trkpt lat="44.59827" lon="5.7864">
        <ele>1108</ele>
        <time>2010-08-26T13:42:31Z</time>
      </trkpt>
      <trkpt lat="44.59817" lon="5.7863">
        <ele>1106</ele>
        <time>2010-08-26T13:42:41Z</time>
      </trkpt>
      <trkpt lat="44.59805" lon="5.78621">
        <ele>1106</ele>
        <time>2010-08-26T13:42:51Z</time>
      </trkpt>
      <trkpt lat="44.59793" lon="5.78612">
        <ele>1105</ele>
        <time>2010-08-26T13:43:01Z</time>
      </trkpt>
      <trkpt lat="44.59783" lon="5.78602">
        <ele>1104</ele>
        <time>2010-08-26T13:43:11Z</time>
      </trkpt>
      <trkpt lat="44.59771" lon="5.78591">
        <ele>1103</ele>
        <time>2010-08-26T13:43:21Z</time>
      </trkpt>
      <trkpt lat="44.59755" lon="5.78591">
        <ele>1102</ele>
        <time>2010-08-26T13:43:31Z</time>
      </trkpt>
      <trkpt lat="44.59739" lon="5.7859">
        <ele>1101</ele>
        <time>2010-08-26T13:43:41Z</time>
      </trkpt>
      <trkpt lat="44.59725" lon="5.78577">
        <ele>1101</ele>
        <time>2010-08-26T13:43:51Z</time>
      </trkpt>
      <trkpt lat="44.59714" lon="5.78562">
        <ele>1100</ele>
        <time>2010-08-26T13:44:01Z</time>
      </trkpt>
      <trkpt lat="44.59701" lon="5.78553">
        <ele>1099</ele>
        <time>2010-08-26T13:44:11Z</time>
      </trkpt>
      <trkpt lat="44.59687" lon="5.78544">
        <ele>1098</ele>
        <time>2010-08-26T13:44:21Z</time>
      </trkpt>
      <trkpt lat="44.59673" lon="5.78538">
        <ele>1097</ele>
        <time>2010-08-26T13:44:31Z</time>
      </trkpt>
      <trkpt lat="44.59655" lon="5.78541">
        <ele>1097</ele>
        <time>2010-08-26T13:44:41Z</time>
      </trkpt>
      <trkpt lat="44.59634" lon="5.78542">
        <ele>1097</ele>
        <time>2010-08-26T13:44:51Z</time>
      </trkpt>
      <trkpt lat="44.59607" lon="5.7855">
        <ele>1095</ele>
        <time>2010-08-26T13:45:01Z</time>
      </trkpt>
      <trkpt lat="44.59587" lon="5.78547">
        <ele>1096</ele>
        <time>2010-08-26T13:45:11Z</time>
      </trkpt>
      <trkpt lat="44.59569" lon="5.78543">
        <ele>1095</ele>
        <time>2010-08-26T13:45:21Z</time>
      </trkpt>
      <trkpt lat="44.59548" lon="5.78544">
        <ele>1094</ele>
        <time>2010-08-26T13:45:31Z</time>
      </trkpt>
      <trkpt lat="44.5953" lon="5.78546">
        <ele>1095</ele>
        <time>2010-08-26T13:45:41Z</time>
      </trkpt>
      <trkpt lat="44.59512" lon="5.78551">
        <ele>1095</ele>
        <time>2010-08-26T13:45:51Z</time>
      </trkpt>
      <trkpt lat="44.59494" lon="5.78566">
        <ele>1095</ele>
        <time>2010-08-26T13:46:01Z</time>
      </trkpt>
      <trkpt lat="44.59477" lon="5.78573">
        <ele>1096</ele>
        <time>2010-08-26T13:46:11Z</time>
      </trkpt>
      <trkpt lat="44.59465" lon="5.78569">
        <ele>1097</ele>
        <time>2010-08-26T13:46:21Z</time>
      </trkpt>
      <trkpt lat="44.59464" lon="5.78537">
        <ele>1097</ele>
        <time>2010-08-26T13:46:31Z</time>
      </trkpt>
      <trkpt lat="44.59458" lon="5.78521">
        <ele>1097</ele>
        <time>2010-08-26T13:46:41Z</time>
      </trkpt>
      <trkpt lat="44.59458" lon="5.78513">
        <ele>1097</ele>
        <time>2010-08-26T13:46:51Z</time>
      </trkpt>
      <trkpt lat="44.59452" lon="5.78503">
        <ele>1097</ele>
        <time>2010-08-26T13:47:01Z</time>
      </trkpt>
      <trkpt lat="44.59448" lon="5.78486">
        <ele>1096</ele>
        <time>2010-08-26T13:47:11Z</time>
      </trkpt>
      <trkpt lat="44.59442" lon="5.78471">
        <ele>1095</ele>
        <time>2010-08-26T13:47:21Z</time>
      </trkpt>
      <trkpt lat="44.59438" lon="5.78453">
        <ele>1095</ele>
        <time>2010-08-26T13:47:31Z</time>
      </trkpt>
      <trkpt lat="44.5943" lon="5.78439">
        <ele>1093</ele>
        <time>2010-08-26T13:47:41Z</time>
      </trkpt>
      <trkpt lat="44.59417" lon="5.78433">
        <ele>1091</ele>
        <time>2010-08-26T13:47:51Z</time>
      </trkpt>
      <trkpt lat="44.59402" lon="5.78429">
        <ele>1091</ele>
        <time>2010-08-26T13:48:01Z</time>
      </trkpt>
      <trkpt lat="44.59392" lon="5.78419">
        <ele>1090</ele>
        <time>2010-08-26T13:48:11Z</time>
      </trkpt>
      <trkpt lat="44.59385" lon="5.78405">
        <ele>1088</ele>
        <time>2010-08-26T13:48:21Z</time>
      </trkpt>
      <trkpt lat="44.59375" lon="5.78398">
        <ele>1086</ele>
        <time>2010-08-26T13:48:31Z</time>
      </trkpt>
      <trkpt lat="44.59362" lon="5.78393">
        <ele>1085</ele>
        <time>2010-08-26T13:48:41Z</time>
      </trkpt>
      <trkpt lat="44.59348" lon="5.78389">
        <ele>1084</ele>
        <time>2010-08-26T13:48:51Z</time>
      </trkpt>
      <trkpt lat="44.59334" lon="5.78388">
        <ele>1084</ele>
        <time>2010-08-26T13:49:01Z</time>
      </trkpt>
      <trkpt lat="44.59322" lon="5.78385">
        <ele>1083</ele>
        <time>2010-08-26T13:49:11Z</time>
      </trkpt>
      <trkpt lat="44.59309" lon="5.78382">
        <ele>1082</ele>
        <time>2010-08-26T13:49:21Z</time>
      </trkpt>
      <trkpt lat="44.59295" lon="5.78379">
        <ele>1081</ele>
        <time>2010-08-26T13:49:31Z</time>
      </trkpt>
      <trkpt lat="44.5928" lon="5.78377">
        <ele>1081</ele>
        <time>2010-08-26T13:49:41Z</time>
      </trkpt>
      <trkpt lat="44.59265" lon="5.78376">
        <ele>1079</ele>
        <time>2010-08-26T13:49:51Z</time>
      </trkpt>
      <trkpt lat="44.59251" lon="5.78376">
        <ele>1079</ele>
        <time>2010-08-26T13:50:01Z</time>
      </trkpt>
      <trkpt lat="44.59239" lon="5.78377">
        <ele>1077</ele>
        <time>2010-08-26T13:50:11Z</time>
      </trkpt>
      <trkpt lat="44.59226" lon="5.78382">
        <ele>1077</ele>
        <time>2010-08-26T13:50:21Z</time>
      </trkpt>
      <trkpt lat="44.59215" lon="5.78386">
        <ele>1075</ele>
        <time>2010-08-26T13:50:31Z</time>
      </trkpt>
      <trkpt lat="44.59203" lon="5.78389">
        <ele>1073</ele>
        <time>2010-08-26T13:50:41Z</time>
      </trkpt>
      <trkpt lat="44.59189" lon="5.78394">
        <ele>1074</ele>
        <time>2010-08-26T13:50:51Z</time>
      </trkpt>
      <trkpt lat="44.59177" lon="5.78399">
        <ele>1072</ele>
        <time>2010-08-26T13:51:01Z</time>
      </trkpt>
      <trkpt lat="44.59161" lon="5.78397">
        <ele>1072</ele>
        <time>2010-08-26T13:51:11Z</time>
      </trkpt>
      <trkpt lat="44.59145" lon="5.78396">
        <ele>1072</ele>
        <time>2010-08-26T13:51:21Z</time>
      </trkpt>
      <trkpt lat="44.5913" lon="5.78397">
        <ele>1072</ele>
        <time>2010-08-26T13:51:31Z</time>
      </trkpt>
      <trkpt lat="44.59115" lon="5.78399">
        <ele>1071</ele>
        <time>2010-08-26T13:51:41Z</time>
      </trkpt>
      <trkpt lat="44.59101" lon="5.78405">
        <ele>1070</ele>
        <time>2010-08-26T13:51:51Z</time>
      </trkpt>
      <trkpt lat="44.59089" lon="5.78411">
        <ele>1070</ele>
        <time>2010-08-26T13:52:01Z</time>
      </trkpt>
      <trkpt lat="44.59075" lon="5.78416">
        <ele>1069</ele>
        <time>2010-08-26T13:52:11Z</time>
      </trkpt>
      <trkpt lat="44.5906" lon="5.7842">
        <ele>1068</ele>
        <time>2010-08-26T13:52:21Z</time>
      </trkpt>
      <trkpt lat="44.59046" lon="5.78422">
        <ele>1068</ele>
        <time>2010-08-26T13:52:31Z</time>
      </trkpt>
      <trkpt lat="44.59031" lon="5.78423">
        <ele>1067</ele>
        <time>2010-08-26T13:52:41Z</time>
      </trkpt>
      <trkpt lat="44.59016" lon="5.78423">
        <ele>1067</ele>
        <time>2010-08-26T13:52:51Z</time>
      </trkpt>
      <trkpt lat="44.59001" lon="5.78424">
        <ele>1066</ele>
        <time>2010-08-26T13:53:01Z</time>
      </trkpt>
      <trkpt lat="44.58987" lon="5.78428">
        <ele>1066</ele>
        <time>2010-08-26T13:53:11Z</time>
      </trkpt>
      <trkpt lat="44.58974" lon="5.78429">
        <ele>1066</ele>
        <time>2010-08-26T13:53:21Z</time>
      </trkpt>
      <trkpt lat="44.58961" lon="5.78428">
        <ele>1066</ele>
        <time>2010-08-26T13:53:31Z</time>
      </trkpt>
      <trkpt lat="44.58948" lon="5.78423">
        <ele>1066</ele>
        <time>2010-08-26T13:53:41Z</time>
      </trkpt>
      <trkpt lat="44.58936" lon="5.7842">
        <ele>1064</ele>
        <time>2010-08-26T13:53:51Z</time>
      </trkpt>
      <trkpt lat="44.58919" lon="5.78421">
        <ele>1065</ele>
        <time>2010-08-26T13:54:01Z</time>
      </trkpt>
      <trkpt lat="44.58904" lon="5.7842">
        <ele>1064</ele>
        <time>2010-08-26T13:54:11Z</time>
      </trkpt>
      <trkpt lat="44.58895" lon="5.78425">
        <ele>1065</ele>
        <time>2010-08-26T13:54:21Z</time>
      </trkpt>
      <trkpt lat="44.5889" lon="5.78434">
        <ele>1065</ele>
        <time>2010-08-26T13:54:31Z</time>
      </trkpt>
      <trkpt lat="44.58883" lon="5.78443">
        <ele>1064</ele>
        <time>2010-08-26T13:54:41Z</time>
      </trkpt>
      <trkpt lat="44.58874" lon="5.7845">
        <ele>1064</ele>
        <time>2010-08-26T13:54:51Z</time>
      </trkpt>
      <trkpt lat="44.58866" lon="5.78464">
        <ele>1064</ele>
        <time>2010-08-26T13:55:01Z</time>
      </trkpt>
      <trkpt lat="44.58854" lon="5.78476">
        <ele>1064</ele>
        <time>2010-08-26T13:55:11Z</time>
      </trkpt>
      <trkpt lat="44.58841" lon="5.78484">
        <ele>1065</ele>
        <time>2010-08-26T13:55:21Z</time>
      </trkpt>
      <trkpt lat="44.58825" lon="5.78497">
        <ele>1064</ele>
        <time>2010-08-26T13:55:31Z</time>
      </trkpt>
      <trkpt lat="44.58804" lon="5.78503">
        <ele>1065</ele>
        <time>2010-08-26T13:55:41Z</time>
      </trkpt>
      <trkpt lat="44.58783" lon="5.78509">
        <ele>1064</ele>
        <time>2010-08-26T13:55:51Z</time>
      </trkpt>
      <trkpt lat="44.5877" lon="5.78516">
        <ele>1064</ele>
        <time>2010-08-26T13:56:01Z</time>
      </trkpt>
      <trkpt lat="44.58758" lon="5.78524">
        <ele>1062</ele>
        <time>2010-08-26T13:56:11Z</time>
      </trkpt>
      <trkpt lat="44.58741" lon="5.78529">
        <ele>1062</ele>
        <time>2010-08-26T13:56:21Z</time>
      </trkpt>
      <trkpt lat="44.58728" lon="5.78536">
        <ele>1062</ele>
        <time>2010-08-26T13:56:31Z</time>
      </trkpt>
      <trkpt lat="44.58719" lon="5.78544">
        <ele>1061</ele>
        <time>2010-08-26T13:56:41Z</time>
      </trkpt>
      <trkpt lat="44.58711" lon="5.78554">
        <ele>1061</ele>
        <time>2010-08-26T13:56:51Z</time>
      </trkpt>
      <trkpt lat="44.587" lon="5.78565">
        <ele>1059</ele>
        <time>2010-08-26T13:57:01Z</time>
      </trkpt>
      <trkpt lat="44.58687" lon="5.78573">
        <ele>1060</ele>
        <time>2010-08-26T13:57:11Z</time>
      </trkpt>
      <trkpt lat="44.58676" lon="5.7858">
        <ele>1059</ele>
        <time>2010-08-26T13:57:21Z</time>
      </trkpt>
      <trkpt lat="44.58658" lon="5.78586">
        <ele>1059</ele>
        <time>2010-08-26T13:57:31Z</time>
      </trkpt>
      <trkpt lat="44.58642" lon="5.78591">
        <ele>1059</ele>
        <time>2010-08-26T13:57:41Z</time>
      </trkpt>
      <trkpt lat="44.58625" lon="5.78596">
        <ele>1058</ele>
        <time>2010-08-26T13:57:51Z</time>
      </trkpt>
      <trkpt lat="44.5861" lon="5.78606">
        <ele>1058</ele>
        <time>2010-08-26T13:58:01Z</time>
      </trkpt>
      <trkpt lat="44.58597" lon="5.78614">
        <ele>1058</ele>
        <time>2010-08-26T13:58:11Z</time>
      </trkpt>
      <trkpt lat="44.58582" lon="5.78616">
        <ele>1059</ele>
        <time>2010-08-26T13:58:21Z</time>
      </trkpt>
      <trkpt lat="44.58568" lon="5.78609">
        <ele>1060</ele>
        <time>2010-08-26T13:58:31Z</time>
      </trkpt>
      <trkpt lat="44.58573" lon="5.78593">
        <ele>1064</ele>
        <time>2010-08-26T13:58:41Z</time>
      </trkpt>
      <trkpt lat="44.58577" lon="5.78588">
        <ele>1064</ele>
        <time>2010-08-26T13:58:51Z</time>
      </trkpt>
      <trkpt lat="44.58577" lon="5.78588">
        <ele>1063</ele>
        <time>2010-08-26T13:59:01Z</time>
      </trkpt>
      <trkpt lat="44.58574" lon="5.78587">
        <ele>1064</ele>
        <time>2010-08-26T13:59:11Z</time>
      </trkpt>
      <trkpt lat="44.58577" lon="5.78591">
        <ele>1064</ele>
        <time>2010-08-26T13:59:21Z</time>
      </trkpt>
      <trkpt lat="44.58576" lon="5.78585">
        <ele>1064</ele>
        <time>2010-08-26T13:59:31Z</time>
      </trkpt>
      <trkpt lat="44.58573" lon="5.78583">
        <ele>1063</ele>
        <time>2010-08-26T13:59:41Z</time>
      </trkpt>
      <trkpt lat="44.58573" lon="5.78584">
        <ele>1063</ele>
        <time>2010-08-26T13:59:51Z</time>
      </trkpt>
      <trkpt lat="44.58567" lon="5.78589">
        <ele>1062</ele>
        <time>2010-08-26T14:00:01Z</time>
      </trkpt>
      <trkpt lat="44.58558" lon="5.786">
        <ele>1059</ele>
        <time>2010-08-26T14:00:11Z</time>
      </trkpt>
      <trkpt lat="44.58543" lon="5.78603">
        <ele>1059</ele>
        <time>2010-08-26T14:00:21Z</time>
      </trkpt>
      <trkpt lat="44.58528" lon="5.78601">
        <ele>1059</ele>
        <time>2010-08-26T14:00:31Z</time>
      </trkpt>
      <trkpt lat="44.58516" lon="5.78594">
        <ele>1059</ele>
        <time>2010-08-26T14:00:41Z</time>
      </trkpt>
      <trkpt lat="44.58516" lon="5.78596">
        <ele>1059</ele>
        <time>2010-08-26T14:00:51Z</time>
      </trkpt>
      <trkpt lat="44.58516" lon="5.78602">
        <ele>1058</ele>
        <time>2010-08-26T14:01:01Z</time>
      </trkpt>
      <trkpt lat="44.58516" lon="5.78609">
        <ele>1057</ele>
        <time>2010-08-26T14:01:11Z</time>
      </trkpt>
      <trkpt lat="44.58516" lon="5.7862">
        <ele>1054</ele>
        <time>2010-08-26T14:01:21Z</time>
      </trkpt>
      <trkpt lat="44.58516" lon="5.78626">
        <ele>1052</ele>
        <time>2010-08-26T14:01:31Z</time>
      </trkpt>
      <trkpt lat="44.58504" lon="5.78621">
        <ele>1050</ele>
        <time>2010-08-26T14:01:41Z</time>
      </trkpt>
      <trkpt lat="44.58492" lon="5.78609">
        <ele>1048</ele>
        <time>2010-08-26T14:01:51Z</time>
      </trkpt>
      <trkpt lat="44.58481" lon="5.78602">
        <ele>1048</ele>
        <time>2010-08-26T14:02:01Z</time>
      </trkpt>
      <trkpt lat="44.5847" lon="5.78589">
        <ele>1048</ele>
        <time>2010-08-26T14:02:11Z</time>
      </trkpt>
      <trkpt lat="44.5846" lon="5.78583">
        <ele>1047</ele>
        <time>2010-08-26T14:02:21Z</time>
      </trkpt>
      <trkpt lat="44.58446" lon="5.78577">
        <ele>1046</ele>
        <time>2010-08-26T14:02:31Z</time>
      </trkpt>
      <trkpt lat="44.58433" lon="5.7857">
        <ele>1045</ele>
        <time>2010-08-26T14:02:41Z</time>
      </trkpt>
      <trkpt lat="44.58419" lon="5.78568">
        <ele>1045</ele>
        <time>2010-08-26T14:02:51Z</time>
      </trkpt>
      <trkpt lat="44.58426" lon="5.78577">
        <ele>1044</ele>
        <time>2010-08-26T14:03:01Z</time>
      </trkpt>
      <trkpt lat="44.58437" lon="5.78581">
        <ele>1042</ele>
        <time>2010-08-26T14:03:11Z</time>
      </trkpt>
      <trkpt lat="44.58453" lon="5.78594">
        <ele>1042</ele>
        <time>2010-08-26T14:03:21Z</time>
      </trkpt>
      <trkpt lat="44.58468" lon="5.78608">
        <ele>1041</ele>
        <time>2010-08-26T14:03:31Z</time>
      </trkpt>
      <trkpt lat="44.58482" lon="5.78622">
        <ele>1040</ele>
        <time>2010-08-26T14:03:41Z</time>
      </trkpt>
      <trkpt lat="44.58494" lon="5.78637">
        <ele>1039</ele>
        <time>2010-08-26T14:03:51Z</time>
      </trkpt>
      <trkpt lat="44.58502" lon="5.78651">
        <ele>1038</ele>
        <time>2010-08-26T14:04:01Z</time>
      </trkpt>
      <trkpt lat="44.58517" lon="5.78662">
        <ele>1038</ele>
        <time>2010-08-26T14:04:11Z</time>
      </trkpt>
      <trkpt lat="44.58532" lon="5.78666">
        <ele>1037</ele>
        <time>2010-08-26T14:04:21Z</time>
      </trkpt>
      <trkpt lat="44.58544" lon="5.7867">
        <ele>1037</ele>
        <time>2010-08-26T14:04:31Z</time>
      </trkpt>
      <trkpt lat="44.58549" lon="5.7869">
        <ele>1037</ele>
        <time>2010-08-26T14:04:41Z</time>
      </trkpt>
      <trkpt lat="44.58548" lon="5.78708">
        <ele>1036</ele>
        <time>2010-08-26T14:04:51Z</time>
      </trkpt>
      <trkpt lat="44.58552" lon="5.78726">
        <ele>1036</ele>
        <time>2010-08-26T14:05:01Z</time>
      </trkpt>
      <trkpt lat="44.58545" lon="5.78744">
        <ele>1037</ele>
        <time>2010-08-26T14:05:11Z</time>
      </trkpt>
      <trkpt lat="44.58521" lon="5.78749">
        <ele>1038</ele>
        <time>2010-08-26T14:05:21Z</time>
      </trkpt>
      <trkpt lat="44.58502" lon="5.78746">
        <ele>1038</ele>
        <time>2010-08-26T14:05:31Z</time>
      </trkpt>
      <trkpt lat="44.5849" lon="5.78743">
        <ele>1039</ele>
        <time>2010-08-26T14:05:41Z</time>
      </trkpt>
      <trkpt lat="44.58479" lon="5.78736">
        <ele>1040</ele>
        <time>2010-08-26T14:05:51Z</time>
      </trkpt>
      <trkpt lat="44.58466" lon="5.7873">
        <ele>1041</ele>
        <time>2010-08-26T14:06:01Z</time>
      </trkpt>
      <trkpt lat="44.58452" lon="5.78727">
        <ele>1042</ele>
        <time>2010-08-26T14:06:11Z</time>
      </trkpt>
      <trkpt lat="44.58437" lon="5.78727">
        <ele>1043</ele>
        <time>2010-08-26T14:06:21Z</time>
      </trkpt>
      <trkpt lat="44.58423" lon="5.78729">
        <ele>1043</ele>
        <time>2010-08-26T14:06:31Z</time>
      </trkpt>
      <trkpt lat="44.58407" lon="5.78728">
        <ele>1042</ele>
        <time>2010-08-26T14:06:41Z</time>
      </trkpt>
      <trkpt lat="44.5839" lon="5.78733">
        <ele>1044</ele>
        <time>2010-08-26T14:06:51Z</time>
      </trkpt>
      <trkpt lat="44.58375" lon="5.78738">
        <ele>1044</ele>
        <time>2010-08-26T14:07:01Z</time>
      </trkpt>
      <trkpt lat="44.58361" lon="5.78739">
        <ele>1043</ele>
        <time>2010-08-26T14:07:11Z</time>
      </trkpt>
      <trkpt lat="44.58351" lon="5.78741">
        <ele>1045</ele>
        <time>2010-08-26T14:07:21Z</time>
      </trkpt>
      <trkpt lat="44.58343" lon="5.7874">
        <ele>1045</ele>
        <time>2010-08-26T14:07:31Z</time>
      </trkpt>
      <trkpt lat="44.58332" lon="5.78735">
        <ele>1046</ele>
        <time>2010-08-26T14:07:41Z</time>
      </trkpt>
      <trkpt lat="44.58321" lon="5.78728">
        <ele>1046</ele>
        <time>2010-08-26T14:07:51Z</time>
      </trkpt>
      <trkpt lat="44.58307" lon="5.78715">
        <ele>1047</ele>
        <time>2010-08-26T14:08:01Z</time>
      </trkpt>
      <trkpt lat="44.58287" lon="5.78701">
        <ele>1048</ele>
        <time>2010-08-26T14:08:11Z</time>
      </trkpt>
      <trkpt lat="44.58273" lon="5.78697">
        <ele>1048</ele>
        <time>2010-08-26T14:08:21Z</time>
      </trkpt>
      <trkpt lat="44.58259" lon="5.78695">
        <ele>1049</ele>
        <time>2010-08-26T14:08:31Z</time>
      </trkpt>
      <trkpt lat="44.58247" lon="5.78694">
        <ele>1050</ele>
        <time>2010-08-26T14:08:41Z</time>
      </trkpt>
      <trkpt lat="44.58232" lon="5.78692">
        <ele>1051</ele>
        <time>2010-08-26T14:08:51Z</time>
      </trkpt>
      <trkpt lat="44.58221" lon="5.78684">
        <ele>1051</ele>
        <time>2010-08-26T14:09:01Z</time>
      </trkpt>
      <trkpt lat="44.58209" lon="5.78679">
        <ele>1052</ele>
        <time>2010-08-26T14:09:11Z</time>
      </trkpt>
      <trkpt lat="44.58195" lon="5.7868">
        <ele>1051</ele>
        <time>2010-08-26T14:09:21Z</time>
      </trkpt>
      <trkpt lat="44.58181" lon="5.7868">
        <ele>1052</ele>
        <time>2010-08-26T14:09:31Z</time>
      </trkpt>
      <trkpt lat="44.58167" lon="5.78678">
        <ele>1053</ele>
        <time>2010-08-26T14:09:41Z</time>
      </trkpt>
      <trkpt lat="44.58152" lon="5.78678">
        <ele>1053</ele>
        <time>2010-08-26T14:09:51Z</time>
      </trkpt>
      <trkpt lat="44.58135" lon="5.78679">
        <ele>1054</ele>
        <time>2010-08-26T14:10:01Z</time>
      </trkpt>
      <trkpt lat="44.58122" lon="5.78673">
        <ele>1054</ele>
        <time>2010-08-26T14:10:11Z</time>
      </trkpt>
      <trkpt lat="44.58109" lon="5.78669">
        <ele>1055</ele>
        <time>2010-08-26T14:10:21Z</time>
      </trkpt>
      <trkpt lat="44.58094" lon="5.78667">
        <ele>1057</ele>
        <time>2010-08-26T14:10:31Z</time>
      </trkpt>
      <trkpt lat="44.58079" lon="5.78664">
        <ele>1057</ele>
        <time>2010-08-26T14:10:41Z</time>
      </trkpt>
      <trkpt lat="44.58064" lon="5.78665">
        <ele>1058</ele>
        <time>2010-08-26T14:10:51Z</time>
      </trkpt>
      <trkpt lat="44.58049" lon="5.78664">
        <ele>1058</ele>
        <time>2010-08-26T14:11:01Z</time>
      </trkpt>
      <trkpt lat="44.58034" lon="5.78661">
        <ele>1060</ele>
        <time>2010-08-26T14:11:11Z</time>
      </trkpt>
      <trkpt lat="44.58019" lon="5.78654">
        <ele>1059</ele>
        <time>2010-08-26T14:11:21Z</time>
      </trkpt>
      <trkpt lat="44.58006" lon="5.78652">
        <ele>1060</ele>
        <time>2010-08-26T14:11:31Z</time>
      </trkpt>
      <trkpt lat="44.57991" lon="5.78658">
        <ele>1062</ele>
        <time>2010-08-26T14:11:41Z</time>
      </trkpt>
      <trkpt lat="44.57977" lon="5.78662">
        <ele>1061</ele>
        <time>2010-08-26T14:11:51Z</time>
      </trkpt>
      <trkpt lat="44.57959" lon="5.78664">
        <ele>1062</ele>
        <time>2010-08-26T14:12:01Z</time>
      </trkpt>
      <trkpt lat="44.57944" lon="5.78667">
        <ele>1063</ele>
        <time>2010-08-26T14:12:11Z</time>
      </trkpt>
      <trkpt lat="44.57931" lon="5.78673">
        <ele>1065</ele>
        <time>2010-08-26T14:12:21Z</time>
      </trkpt>
      <trkpt lat="44.57917" lon="5.7868">
        <ele>1065</ele>
        <time>2010-08-26T14:12:31Z</time>
      </trkpt>
      <trkpt lat="44.57903" lon="5.78681">
        <ele>1067</ele>
        <time>2010-08-26T14:12:41Z</time>
      </trkpt>
      <trkpt lat="44.57889" lon="5.78681">
        <ele>1068</ele>
        <time>2010-08-26T14:12:51Z</time>
      </trkpt>
      <trkpt lat="44.57876" lon="5.78683">
        <ele>1067</ele>
        <time>2010-08-26T14:13:01Z</time>
      </trkpt>
      <trkpt lat="44.57863" lon="5.78689">
        <ele>1069</ele>
        <time>2010-08-26T14:13:11Z</time>
      </trkpt>
      <trkpt lat="44.5785" lon="5.78692">
        <ele>1070</ele>
        <time>2010-08-26T14:13:21Z</time>
      </trkpt>
      <trkpt lat="44.57836" lon="5.78697">
        <ele>1070</ele>
        <time>2010-08-26T14:13:31Z</time>
      </trkpt>
      <trkpt lat="44.57822" lon="5.78702">
        <ele>1071</ele>
        <time>2010-08-26T14:13:41Z</time>
      </trkpt>
      <trkpt lat="44.57808" lon="5.78706">
        <ele>1072</ele>
        <time>2010-08-26T14:13:51Z</time>
      </trkpt>
      <trkpt lat="44.57794" lon="5.78708">
        <ele>1073</ele>
        <time>2010-08-26T14:14:01Z</time>
      </trkpt>
      <trkpt lat="44.57782" lon="5.78714">
        <ele>1073</ele>
        <time>2010-08-26T14:14:11Z</time>
      </trkpt>
      <trkpt lat="44.57769" lon="5.78725">
        <ele>1075</ele>
        <time>2010-08-26T14:14:21Z</time>
      </trkpt>
      <trkpt lat="44.57756" lon="5.78737">
        <ele>1077</ele>
        <time>2010-08-26T14:14:31Z</time>
      </trkpt>
      <trkpt lat="44.57742" lon="5.78744">
        <ele>1077</ele>
        <time>2010-08-26T14:14:41Z</time>
      </trkpt>
      <trkpt lat="44.5773" lon="5.7874">
        <ele>1078</ele>
        <time>2010-08-26T14:14:51Z</time>
      </trkpt>
      <trkpt lat="44.57717" lon="5.78734">
        <ele>1078</ele>
        <time>2010-08-26T14:15:01Z</time>
      </trkpt>
      <trkpt lat="44.57704" lon="5.7873">
        <ele>1079</ele>
        <time>2010-08-26T14:15:11Z</time>
      </trkpt>
      <trkpt lat="44.57689" lon="5.78727">
        <ele>1079</ele>
        <time>2010-08-26T14:15:21Z</time>
      </trkpt>
      <trkpt lat="44.57675" lon="5.78729">
        <ele>1081</ele>
        <time>2010-08-26T14:15:31Z</time>
      </trkpt>
      <trkpt lat="44.57663" lon="5.78731">
        <ele>1082</ele>
        <time>2010-08-26T14:15:41Z</time>
      </trkpt>
      <trkpt lat="44.57648" lon="5.78734">
        <ele>1082</ele>
        <time>2010-08-26T14:15:51Z</time>
      </trkpt>
      <trkpt lat="44.57634" lon="5.78735">
        <ele>1083</ele>
        <time>2010-08-26T14:16:01Z</time>
      </trkpt>
      <trkpt lat="44.57618" lon="5.78738">
        <ele>1083</ele>
        <time>2010-08-26T14:16:11Z</time>
      </trkpt>
      <trkpt lat="44.57605" lon="5.78741">
        <ele>1084</ele>
        <time>2010-08-26T14:16:21Z</time>
      </trkpt>
      <trkpt lat="44.57593" lon="5.78742">
        <ele>1084</ele>
        <time>2010-08-26T14:16:31Z</time>
      </trkpt>
      <trkpt lat="44.5758" lon="5.78744">
        <ele>1085</ele>
        <time>2010-08-26T14:16:41Z</time>
      </trkpt>
      <trkpt lat="44.57566" lon="5.78745">
        <ele>1086</ele>
        <time>2010-08-26T14:16:51Z</time>
      </trkpt>
      <trkpt lat="44.57553" lon="5.78746">
        <ele>1088</ele>
        <time>2010-08-26T14:17:01Z</time>
      </trkpt>
      <trkpt lat="44.5754" lon="5.78748">
        <ele>1089</ele>
        <time>2010-08-26T14:17:11Z</time>
      </trkpt>
      <trkpt lat="44.57527" lon="5.7875">
        <ele>1089</ele>
        <time>2010-08-26T14:17:21Z</time>
      </trkpt>
      <trkpt lat="44.57513" lon="5.7875">
        <ele>1090</ele>
        <time>2010-08-26T14:17:31Z</time>
      </trkpt>
      <trkpt lat="44.575" lon="5.78757">
        <ele>1092</ele>
        <time>2010-08-26T14:17:41Z</time>
      </trkpt>
      <trkpt lat="44.57486" lon="5.78759">
        <ele>1092</ele>
        <time>2010-08-26T14:17:51Z</time>
      </trkpt>
      <trkpt lat="44.57472" lon="5.7876">
        <ele>1093</ele>
        <time>2010-08-26T14:18:01Z</time>
      </trkpt>
      <trkpt lat="44.5746" lon="5.78759">
        <ele>1093</ele>
        <time>2010-08-26T14:18:11Z</time>
      </trkpt>
      <trkpt lat="44.57448" lon="5.78758">
        <ele>1095</ele>
        <time>2010-08-26T14:18:21Z</time>
      </trkpt>
      <trkpt lat="44.57436" lon="5.78756">
        <ele>1096</ele>
        <time>2010-08-26T14:18:31Z</time>
      </trkpt>
      <trkpt lat="44.57422" lon="5.78753">
        <ele>1097</ele>
        <time>2010-08-26T14:18:41Z</time>
      </trkpt>
      <trkpt lat="44.57409" lon="5.7875">
        <ele>1097</ele>
        <time>2010-08-26T14:18:51Z</time>
      </trkpt>
      <trkpt lat="44.57395" lon="5.78747">
        <ele>1097</ele>
        <time>2010-08-26T14:19:01Z</time>
      </trkpt>
      <trkpt lat="44.57382" lon="5.7875">
        <ele>1097</ele>
        <time>2010-08-26T14:19:11Z</time>
      </trkpt>
      <trkpt lat="44.57375" lon="5.78762">
        <ele>1097</ele>
        <time>2010-08-26T14:19:21Z</time>
      </trkpt>
      <trkpt lat="44.57372" lon="5.7878">
        <ele>1096</ele>
        <time>2010-08-26T14:19:31Z</time>
      </trkpt>
      <trkpt lat="44.57372" lon="5.78799">
        <ele>1095</ele>
        <time>2010-08-26T14:19:41Z</time>
      </trkpt>
      <trkpt lat="44.57369" lon="5.78817">
        <ele>1094</ele>
        <time>2010-08-26T14:19:51Z</time>
      </trkpt>
      <trkpt lat="44.57362" lon="5.78836">
        <ele>1093</ele>
        <time>2010-08-26T14:20:01Z</time>
      </trkpt>
      <trkpt lat="44.57355" lon="5.78852">
        <ele>1093</ele>
        <time>2010-08-26T14:20:11Z</time>
      </trkpt>
      <trkpt lat="44.57348" lon="5.78868">
        <ele>1092</ele>
        <time>2010-08-26T14:20:21Z</time>
      </trkpt>
      <trkpt lat="44.57344" lon="5.78885">
        <ele>1090</ele>
        <time>2010-08-26T14:20:31Z</time>
      </trkpt>
      <trkpt lat="44.5734" lon="5.78902">
        <ele>1090</ele>
        <time>2010-08-26T14:20:41Z</time>
      </trkpt>
      <trkpt lat="44.57338" lon="5.78922">
        <ele>1089</ele>
        <time>2010-08-26T14:20:51Z</time>
      </trkpt>
      <trkpt lat="44.57336" lon="5.78942">
        <ele>1088</ele>
        <time>2010-08-26T14:21:01Z</time>
      </trkpt>
      <trkpt lat="44.57338" lon="5.78959">
        <ele>1087</ele>
        <time>2010-08-26T14:21:11Z</time>
      </trkpt>
      <trkpt lat="44.57343" lon="5.78975">
        <ele>1087</ele>
        <time>2010-08-26T14:21:21Z</time>
      </trkpt>
      <trkpt lat="44.57351" lon="5.78989">
        <ele>1085</ele>
        <time>2010-08-26T14:21:31Z</time>
      </trkpt>
      <trkpt lat="44.57361" lon="5.79004">
        <ele>1086</ele>
        <time>2010-08-26T14:21:41Z</time>
      </trkpt>
      <trkpt lat="44.57365" lon="5.79022">
        <ele>1085</ele>
        <time>2010-08-26T14:21:51Z</time>
      </trkpt>
      <trkpt lat="44.57372" lon="5.79038">
        <ele>1084</ele>
        <time>2010-08-26T14:22:01Z</time>
      </trkpt>
      <trkpt lat="44.57378" lon="5.79052">
        <ele>1084</ele>
        <time>2010-08-26T14:22:11Z</time>
      </trkpt>
      <trkpt lat="44.57389" lon="5.79066">
        <ele>1082</ele>
        <time>2010-08-26T14:22:21Z</time>
      </trkpt>
      <trkpt lat="44.57398" lon="5.79072">
        <ele>1082</ele>
        <time>2010-08-26T14:22:31Z</time>
      </trkpt>
      <trkpt lat="44.57409" lon="5.79084">
        <ele>1080</ele>
        <time>2010-08-26T14:22:41Z</time>
      </trkpt>
      <trkpt lat="44.57417" lon="5.79096">
        <ele>1080</ele>
        <time>2010-08-26T14:22:51Z</time>
      </trkpt>
      <trkpt lat="44.57424" lon="5.7911">
        <ele>1079</ele>
        <time>2010-08-26T14:23:01Z</time>
      </trkpt>
      <trkpt lat="44.57428" lon="5.79127">
        <ele>1078</ele>
        <time>2010-08-26T14:23:11Z</time>
      </trkpt>
      <trkpt lat="44.57432" lon="5.79143">
        <ele>1077</ele>
        <time>2010-08-26T14:23:21Z</time>
      </trkpt>
      <trkpt lat="44.57443" lon="5.79155">
        <ele>1076</ele>
        <time>2010-08-26T14:23:31Z</time>
      </trkpt>
      <trkpt lat="44.57459" lon="5.79159">
        <ele>1077</ele>
        <time>2010-08-26T14:23:41Z</time>
      </trkpt>
      <trkpt lat="44.57468" lon="5.79158">
        <ele>1076</ele>
        <time>2010-08-26T14:23:51Z</time>
      </trkpt>
      <trkpt lat="44.57478" lon="5.7916">
        <ele>1076</ele>
        <time>2010-08-26T14:24:01Z</time>
      </trkpt>
      <trkpt lat="44.57483" lon="5.79169">
        <ele>1075</ele>
        <time>2010-08-26T14:24:11Z</time>
      </trkpt>
      <trkpt lat="44.57492" lon="5.79179">
        <ele>1075</ele>
        <time>2010-08-26T14:24:21Z</time>
      </trkpt>
      <trkpt lat="44.57502" lon="5.79189">
        <ele>1075</ele>
        <time>2010-08-26T14:24:31Z</time>
      </trkpt>
      <trkpt lat="44.57515" lon="5.79203">
        <ele>1075</ele>
        <time>2010-08-26T14:24:41Z</time>
      </trkpt>
      <trkpt lat="44.57516" lon="5.79222">
        <ele>1074</ele>
        <time>2010-08-26T14:24:51Z</time>
      </trkpt>
      <trkpt lat="44.575" lon="5.7922">
        <ele>1074</ele>
        <time>2010-08-26T14:25:01Z</time>
      </trkpt>
      <trkpt lat="44.57486" lon="5.79225">
        <ele>1074</ele>
        <time>2010-08-26T14:25:11Z</time>
      </trkpt>
      <trkpt lat="44.57471" lon="5.79231">
        <ele>1074</ele>
        <time>2010-08-26T14:25:21Z</time>
      </trkpt>
      <trkpt lat="44.5746" lon="5.79238">
        <ele>1073</ele>
        <time>2010-08-26T14:25:31Z</time>
      </trkpt>
      <trkpt lat="44.57448" lon="5.79246">
        <ele>1072</ele>
        <time>2010-08-26T14:25:41Z</time>
      </trkpt>
      <trkpt lat="44.57437" lon="5.79258">
        <ele>1072</ele>
        <time>2010-08-26T14:25:51Z</time>
      </trkpt>
      <trkpt lat="44.57431" lon="5.79274">
        <ele>1071</ele>
        <time>2010-08-26T14:26:01Z</time>
      </trkpt>
      <trkpt lat="44.57428" lon="5.79288">
        <ele>1072</ele>
        <time>2010-08-26T14:26:11Z</time>
      </trkpt>
      <trkpt lat="44.57423" lon="5.79303">
        <ele>1070</ele>
        <time>2010-08-26T14:26:21Z</time>
      </trkpt>
      <trkpt lat="44.57417" lon="5.79318">
        <ele>1070</ele>
        <time>2010-08-26T14:26:31Z</time>
      </trkpt>
      <trkpt lat="44.57409" lon="5.79332">
        <ele>1069</ele>
        <time>2010-08-26T14:26:41Z</time>
      </trkpt>
      <trkpt lat="44.574" lon="5.79338">
        <ele>1069</ele>
        <time>2010-08-26T14:26:51Z</time>
      </trkpt>
      <trkpt lat="44.57396" lon="5.79321">
        <ele>1069</ele>
        <time>2010-08-26T14:27:01Z</time>
      </trkpt>
      <trkpt lat="44.57395" lon="5.79301">
        <ele>1070</ele>
        <time>2010-08-26T14:27:11Z</time>
      </trkpt>
      <trkpt lat="44.57389" lon="5.79283">
        <ele>1071</ele>
        <time>2010-08-26T14:27:21Z</time>
      </trkpt>
      <trkpt lat="44.57385" lon="5.79268">
        <ele>1070</ele>
        <time>2010-08-26T14:27:31Z</time>
      </trkpt>
      <trkpt lat="44.57376" lon="5.79254">
        <ele>1070</ele>
        <time>2010-08-26T14:27:41Z</time>
      </trkpt>
      <trkpt lat="44.57367" lon="5.79242">
        <ele>1071</ele>
        <time>2010-08-26T14:27:51Z</time>
      </trkpt>
      <trkpt lat="44.57359" lon="5.7923">
        <ele>1071</ele>
        <time>2010-08-26T14:28:01Z</time>
      </trkpt>
      <trkpt lat="44.57348" lon="5.79225">
        <ele>1070</ele>
        <time>2010-08-26T14:28:11Z</time>
      </trkpt>
      <trkpt lat="44.57336" lon="5.79218">
        <ele>1070</ele>
        <time>2010-08-26T14:28:21Z</time>
      </trkpt>
      <trkpt lat="44.57325" lon="5.79211">
        <ele>1070</ele>
        <time>2010-08-26T14:28:31Z</time>
      </trkpt>
      <trkpt lat="44.57314" lon="5.79202">
        <ele>1069</ele>
        <time>2010-08-26T14:28:41Z</time>
      </trkpt>
      <trkpt lat="44.57304" lon="5.79191">
        <ele>1070</ele>
        <time>2010-08-26T14:28:51Z</time>
      </trkpt>
      <trkpt lat="44.57292" lon="5.79182">
        <ele>1070</ele>
        <time>2010-08-26T14:29:01Z</time>
      </trkpt>
      <trkpt lat="44.5728" lon="5.79174">
        <ele>1070</ele>
        <time>2010-08-26T14:29:11Z</time>
      </trkpt>
      <trkpt lat="44.57265" lon="5.79161">
        <ele>1069</ele>
        <time>2010-08-26T14:29:21Z</time>
      </trkpt>
      <trkpt lat="44.57252" lon="5.79149">
        <ele>1069</ele>
        <time>2010-08-26T14:29:31Z</time>
      </trkpt>
      <trkpt lat="44.57241" lon="5.79138">
        <ele>1071</ele>
        <time>2010-08-26T14:29:41Z</time>
      </trkpt>
      <trkpt lat="44.5723" lon="5.79125">
        <ele>1070</ele>
        <time>2010-08-26T14:29:51Z</time>
      </trkpt>
      <trkpt lat="44.57219" lon="5.79113">
        <ele>1070</ele>
        <time>2010-08-26T14:30:01Z</time>
      </trkpt>
      <trkpt lat="44.57209" lon="5.79101">
        <ele>1070</ele>
        <time>2010-08-26T14:30:11Z</time>
      </trkpt>
      <trkpt lat="44.57197" lon="5.79085">
        <ele>1070</ele>
        <time>2010-08-26T14:30:21Z</time>
      </trkpt>
      <trkpt lat="44.57183" lon="5.7907">
        <ele>1070</ele>
        <time>2010-08-26T14:30:31Z</time>
      </trkpt>
      <trkpt lat="44.57171" lon="5.79058">
        <ele>1071</ele>
        <time>2010-08-26T14:30:41Z</time>
      </trkpt>
      <trkpt lat="44.57161" lon="5.79047">
        <ele>1071</ele>
        <time>2010-08-26T14:30:51Z</time>
      </trkpt>
      <trkpt lat="44.57147" lon="5.79035">
        <ele>1072</ele>
        <time>2010-08-26T14:31:01Z</time>
      </trkpt>
      <trkpt lat="44.57133" lon="5.79026">
        <ele>1072</ele>
        <time>2010-08-26T14:31:11Z</time>
      </trkpt>
      <trkpt lat="44.57118" lon="5.79021">
        <ele>1072</ele>
        <time>2010-08-26T14:31:21Z</time>
      </trkpt>
      <trkpt lat="44.57105" lon="5.79019">
        <ele>1072</ele>
        <time>2010-08-26T14:31:31Z</time>
      </trkpt>
      <trkpt lat="44.57091" lon="5.79016">
        <ele>1072</ele>
        <time>2010-08-26T14:31:41Z</time>
      </trkpt>
      <trkpt lat="44.57075" lon="5.79016">
        <ele>1073</ele>
        <time>2010-08-26T14:31:51Z</time>
      </trkpt>
      <trkpt lat="44.57062" lon="5.79025">
        <ele>1072</ele>
        <time>2010-08-26T14:32:01Z</time>
      </trkpt>
      <trkpt lat="44.57052" lon="5.79045">
        <ele>1071</ele>
        <time>2010-08-26T14:32:11Z</time>
      </trkpt>
      <trkpt lat="44.57044" lon="5.79063">
        <ele>1072</ele>
        <time>2010-08-26T14:32:21Z</time>
      </trkpt>
      <trkpt lat="44.57031" lon="5.7908">
        <ele>1071</ele>
        <time>2010-08-26T14:32:31Z</time>
      </trkpt>
      <trkpt lat="44.57022" lon="5.79096">
        <ele>1069</ele>
        <time>2010-08-26T14:32:41Z</time>
      </trkpt>
      <trkpt lat="44.57016" lon="5.79114">
        <ele>1069</ele>
        <time>2010-08-26T14:32:51Z</time>
      </trkpt>
      <trkpt lat="44.57011" lon="5.7913">
        <ele>1068</ele>
        <time>2010-08-26T14:33:01Z</time>
      </trkpt>
      <trkpt lat="44.57003" lon="5.79148">
        <ele>1067</ele>
        <time>2010-08-26T14:33:11Z</time>
      </trkpt>
      <trkpt lat="44.56996" lon="5.79168">
        <ele>1066</ele>
        <time>2010-08-26T14:33:21Z</time>
      </trkpt>
      <trkpt lat="44.56996" lon="5.79189">
        <ele>1066</ele>
        <time>2010-08-26T14:33:31Z</time>
      </trkpt>
      <trkpt lat="44.56998" lon="5.79208">
        <ele>1063</ele>
        <time>2010-08-26T14:33:41Z</time>
      </trkpt>
      <trkpt lat="44.56997" lon="5.79228">
        <ele>1064</ele>
        <time>2010-08-26T14:33:51Z</time>
      </trkpt>
      <trkpt lat="44.56997" lon="5.79248">
        <ele>1065</ele>
        <time>2010-08-26T14:34:01Z</time>
      </trkpt>
      <trkpt lat="44.56997" lon="5.79268">
        <ele>1063</ele>
        <time>2010-08-26T14:34:11Z</time>
      </trkpt>
      <trkpt lat="44.56997" lon="5.79289">
        <ele>1061</ele>
        <time>2010-08-26T14:34:21Z</time>
      </trkpt>
      <trkpt lat="44.56996" lon="5.79309">
        <ele>1062</ele>
        <time>2010-08-26T14:34:31Z</time>
      </trkpt>
      <trkpt lat="44.56991" lon="5.79326">
        <ele>1061</ele>
        <time>2010-08-26T14:34:41Z</time>
      </trkpt>
      <trkpt lat="44.56987" lon="5.79345">
        <ele>1060</ele>
        <time>2010-08-26T14:34:51Z</time>
      </trkpt>
      <trkpt lat="44.56981" lon="5.79362">
        <ele>1059</ele>
        <time>2010-08-26T14:35:01Z</time>
      </trkpt>
      <trkpt lat="44.56975" lon="5.7938">
        <ele>1059</ele>
        <time>2010-08-26T14:35:11Z</time>
      </trkpt>
      <trkpt lat="44.56967" lon="5.79395">
        <ele>1059</ele>
        <time>2010-08-26T14:35:21Z</time>
      </trkpt>
      <trkpt lat="44.56957" lon="5.79408">
        <ele>1059</ele>
        <time>2010-08-26T14:35:31Z</time>
      </trkpt>
      <trkpt lat="44.5695" lon="5.79422">
        <ele>1059</ele>
        <time>2010-08-26T14:35:41Z</time>
      </trkpt>
      <trkpt lat="44.56943" lon="5.79438">
        <ele>1058</ele>
        <time>2010-08-26T14:35:51Z</time>
      </trkpt>
      <trkpt lat="44.56937" lon="5.79457">
        <ele>1057</ele>
        <time>2010-08-26T14:36:01Z</time>
      </trkpt>
      <trkpt lat="44.56931" lon="5.79475">
        <ele>1057</ele>
        <time>2010-08-26T14:36:11Z</time>
      </trkpt>
      <trkpt lat="44.56929" lon="5.79494">
        <ele>1056</ele>
        <time>2010-08-26T14:36:21Z</time>
      </trkpt>
      <trkpt lat="44.56929" lon="5.79511">
        <ele>1055</ele>
        <time>2010-08-26T14:36:31Z</time>
      </trkpt>
      <trkpt lat="44.56926" lon="5.7953">
        <ele>1054</ele>
        <time>2010-08-26T14:36:41Z</time>
      </trkpt>
      <trkpt lat="44.56925" lon="5.79549">
        <ele>1053</ele>
        <time>2010-08-26T14:36:51Z</time>
      </trkpt>
      <trkpt lat="44.56923" lon="5.79571">
        <ele>1052</ele>
        <time>2010-08-26T14:37:01Z</time>
      </trkpt>
      <trkpt lat="44.56921" lon="5.7959">
        <ele>1051</ele>
        <time>2010-08-26T14:37:11Z</time>
      </trkpt>
      <trkpt lat="44.56909" lon="5.79599">
        <ele>1051</ele>
        <time>2010-08-26T14:37:21Z</time>
      </trkpt>
      <trkpt lat="44.56896" lon="5.79582">
        <ele>1052</ele>
        <time>2010-08-26T14:37:31Z</time>
      </trkpt>
      <trkpt lat="44.56889" lon="5.79562">
        <ele>1052</ele>
        <time>2010-08-26T14:37:41Z</time>
      </trkpt>
      <trkpt lat="44.56883" lon="5.7954">
        <ele>1054</ele>
        <time>2010-08-26T14:37:51Z</time>
      </trkpt>
      <trkpt lat="44.56879" lon="5.79527">
        <ele>1054</ele>
        <time>2010-08-26T14:38:01Z</time>
      </trkpt>
      <trkpt lat="44.56873" lon="5.79506">
        <ele>1054</ele>
        <time>2010-08-26T14:38:11Z</time>
      </trkpt>
      <trkpt lat="44.56868" lon="5.7949">
        <ele>1055</ele>
        <time>2010-08-26T14:38:21Z</time>
      </trkpt>
      <trkpt lat="44.56862" lon="5.79474">
        <ele>1056</ele>
        <time>2010-08-26T14:38:31Z</time>
      </trkpt>
      <trkpt lat="44.56853" lon="5.7946">
        <ele>1054</ele>
        <time>2010-08-26T14:38:41Z</time>
      </trkpt>
      <trkpt lat="44.56839" lon="5.79455">
        <ele>1056</ele>
        <time>2010-08-26T14:38:51Z</time>
      </trkpt>
      <trkpt lat="44.56823" lon="5.79458">
        <ele>1056</ele>
        <time>2010-08-26T14:39:01Z</time>
      </trkpt>
      <trkpt lat="44.56809" lon="5.79458">
        <ele>1055</ele>
        <time>2010-08-26T14:39:11Z</time>
      </trkpt>
      <trkpt lat="44.56797" lon="5.79454">
        <ele>1055</ele>
        <time>2010-08-26T14:39:21Z</time>
      </trkpt>
      <trkpt lat="44.56783" lon="5.79449">
        <ele>1055</ele>
        <time>2010-08-26T14:39:31Z</time>
      </trkpt>
      <trkpt lat="44.56771" lon="5.7944">
        <ele>1054</ele>
        <time>2010-08-26T14:39:41Z</time>
      </trkpt>
      <trkpt lat="44.56772" lon="5.79418">
        <ele>1056</ele>
        <time>2010-08-26T14:39:51Z</time>
      </trkpt>
      <trkpt lat="44.56784" lon="5.79403">
        <ele>1056</ele>
        <time>2010-08-26T14:40:01Z</time>
      </trkpt>
      <trkpt lat="44.56791" lon="5.79386">
        <ele>1057</ele>
        <time>2010-08-26T14:40:11Z</time>
      </trkpt>
      <trkpt lat="44.56799" lon="5.79374">
        <ele>1057</ele>
        <time>2010-08-26T14:40:21Z</time>
      </trkpt>
      <trkpt lat="44.56808" lon="5.79362">
        <ele>1058</ele>
        <time>2010-08-26T14:40:31Z</time>
      </trkpt>
      <trkpt lat="44.56819" lon="5.79349">
        <ele>1058</ele>
        <time>2010-08-26T14:40:41Z</time>
      </trkpt>
      <trkpt lat="44.56827" lon="5.7933">
        <ele>1057</ele>
        <time>2010-08-26T14:40:51Z</time>
      </trkpt>
      <trkpt lat="44.56833" lon="5.79314">
        <ele>1057</ele>
        <time>2010-08-26T14:41:01Z</time>
      </trkpt>
      <trkpt lat="44.5683" lon="5.79294">
        <ele>1057</ele>
        <time>2010-08-26T14:41:11Z</time>
      </trkpt>
      <trkpt lat="44.56824" lon="5.79273">
        <ele>1058</ele>
        <time>2010-08-26T14:41:21Z</time>
      </trkpt>
      <trkpt lat="44.56823" lon="5.79259">
        <ele>1059</ele>
        <time>2010-08-26T14:41:31Z</time>
      </trkpt>
      <trkpt lat="44.56818" lon="5.79242">
        <ele>1060</ele>
        <time>2010-08-26T14:41:41Z</time>
      </trkpt>
      <trkpt lat="44.56815" lon="5.79221">
        <ele>1060</ele>
        <time>2010-08-26T14:41:51Z</time>
      </trkpt>
      <trkpt lat="44.56813" lon="5.79206">
        <ele>1061</ele>
        <time>2010-08-26T14:42:01Z</time>
      </trkpt>
      <trkpt lat="44.56806" lon="5.79193">
        <ele>1060</ele>
        <time>2010-08-26T14:42:11Z</time>
      </trkpt>
      <trkpt lat="44.56797" lon="5.79175">
        <ele>1061</ele>
        <time>2010-08-26T14:42:21Z</time>
      </trkpt>
      <trkpt lat="44.56788" lon="5.79159">
        <ele>1062</ele>
        <time>2010-08-26T14:42:31Z</time>
      </trkpt>
      <trkpt lat="44.56781" lon="5.79141">
        <ele>1062</ele>
        <time>2010-08-26T14:42:41Z</time>
      </trkpt>
      <trkpt lat="44.56773" lon="5.79121">
        <ele>1062</ele>
        <time>2010-08-26T14:42:51Z</time>
      </trkpt>
      <trkpt lat="44.56763" lon="5.7911">
        <ele>1063</ele>
        <time>2010-08-26T14:43:01Z</time>
      </trkpt>
      <trkpt lat="44.56755" lon="5.79092">
        <ele>1063</ele>
        <time>2010-08-26T14:43:11Z</time>
      </trkpt>
      <trkpt lat="44.56747" lon="5.79078">
        <ele>1064</ele>
        <time>2010-08-26T14:43:21Z</time>
      </trkpt>
      <trkpt lat="44.56737" lon="5.79064">
        <ele>1064</ele>
        <time>2010-08-26T14:43:31Z</time>
      </trkpt>
      <trkpt lat="44.56726" lon="5.79051">
        <ele>1064</ele>
        <time>2010-08-26T14:43:41Z</time>
      </trkpt>
      <trkpt lat="44.56716" lon="5.79034">
        <ele>1066</ele>
        <time>2010-08-26T14:43:51Z</time>
      </trkpt>
      <trkpt lat="44.56707" lon="5.79017">
        <ele>1064</ele>
        <time>2010-08-26T14:44:01Z</time>
      </trkpt>
      <trkpt lat="44.56701" lon="5.79001">
        <ele>1065</ele>
        <time>2010-08-26T14:44:11Z</time>
      </trkpt>
      <trkpt lat="44.56698" lon="5.7898">
        <ele>1067</ele>
        <time>2010-08-26T14:44:21Z</time>
      </trkpt>
      <trkpt lat="44.56693" lon="5.7896">
        <ele>1067</ele>
        <time>2010-08-26T14:44:31Z</time>
      </trkpt>
      <trkpt lat="44.56689" lon="5.78941">
        <ele>1065</ele>
        <time>2010-08-26T14:44:41Z</time>
      </trkpt>
      <trkpt lat="44.56685" lon="5.78923">
        <ele>1067</ele>
        <time>2010-08-26T14:44:51Z</time>
      </trkpt>
      <trkpt lat="44.56684" lon="5.78903">
        <ele>1067</ele>
        <time>2010-08-26T14:45:01Z</time>
      </trkpt>
      <trkpt lat="44.56684" lon="5.78883">
        <ele>1068</ele>
        <time>2010-08-26T14:45:11Z</time>
      </trkpt>
      <trkpt lat="44.56684" lon="5.78864">
        <ele>1068</ele>
        <time>2010-08-26T14:45:21Z</time>
      </trkpt>
      <trkpt lat="44.56684" lon="5.78844">
        <ele>1067</ele>
        <time>2010-08-26T14:45:31Z</time>
      </trkpt>
      <trkpt lat="44.56684" lon="5.78824">
        <ele>1069</ele>
        <time>2010-08-26T14:45:41Z</time>
      </trkpt>
      <trkpt lat="44.56685" lon="5.78805">
        <ele>1069</ele>
        <time>2010-08-26T14:45:51Z</time>
      </trkpt>
      <trkpt lat="44.56672" lon="5.78799">
        <ele>1069</ele>
        <time>2010-08-26T14:46:01Z</time>
      </trkpt>
      <trkpt lat="44.56658" lon="5.78803">
        <ele>1068</ele>
        <time>2010-08-26T14:46:11Z</time>
      </trkpt>
      <trkpt lat="44.56642" lon="5.78808">
        <ele>1068</ele>
        <time>2010-08-26T14:46:21Z</time>
      </trkpt>
      <trkpt lat="44.56629" lon="5.78804">
        <ele>1067</ele>
        <time>2010-08-26T14:46:31Z</time>
      </trkpt>
      <trkpt lat="44.56618" lon="5.7879">
        <ele>1067</ele>
        <time>2010-08-26T14:46:41Z</time>
      </trkpt>
      <trkpt lat="44.56609" lon="5.78773">
        <ele>1068</ele>
        <time>2010-08-26T14:46:51Z</time>
      </trkpt>
      <trkpt lat="44.56602" lon="5.78755">
        <ele>1067</ele>
        <time>2010-08-26T14:47:01Z</time>
      </trkpt>
      <trkpt lat="44.56597" lon="5.78737">
        <ele>1068</ele>
        <time>2010-08-26T14:47:11Z</time>
      </trkpt>
      <trkpt lat="44.56595" lon="5.78715">
        <ele>1068</ele>
        <time>2010-08-26T14:47:21Z</time>
      </trkpt>
      <trkpt lat="44.56595" lon="5.78694">
        <ele>1067</ele>
        <time>2010-08-26T14:47:31Z</time>
      </trkpt>
      <trkpt lat="44.56596" lon="5.78672">
        <ele>1065</ele>
        <time>2010-08-26T14:47:41Z</time>
      </trkpt>
      <trkpt lat="44.56599" lon="5.78652">
        <ele>1065</ele>
        <time>2010-08-26T14:47:51Z</time>
      </trkpt>
      <trkpt lat="44.56602" lon="5.78632">
        <ele>1065</ele>
        <time>2010-08-26T14:48:01Z</time>
      </trkpt>
      <trkpt lat="44.56597" lon="5.78616">
        <ele>1065</ele>
        <time>2010-08-26T14:48:11Z</time>
      </trkpt>
      <trkpt lat="44.5659" lon="5.78601">
        <ele>1065</ele>
        <time>2010-08-26T14:48:21Z</time>
      </trkpt>
      <trkpt lat="44.56577" lon="5.78589">
        <ele>1063</ele>
        <time>2010-08-26T14:48:31Z</time>
      </trkpt>
      <trkpt lat="44.56562" lon="5.78585">
        <ele>1061</ele>
        <time>2010-08-26T14:48:41Z</time>
      </trkpt>
      <trkpt lat="44.56549" lon="5.7858">
        <ele>1061</ele>
        <time>2010-08-26T14:48:51Z</time>
      </trkpt>
      <trkpt lat="44.56539" lon="5.78567">
        <ele>1060</ele>
        <time>2010-08-26T14:49:01Z</time>
      </trkpt>
      <trkpt lat="44.56537" lon="5.78545">
        <ele>1059</ele>
        <time>2010-08-26T14:49:11Z</time>
      </trkpt>
      <trkpt lat="44.56537" lon="5.78524">
        <ele>1059</ele>
        <time>2010-08-26T14:49:21Z</time>
      </trkpt>
      <trkpt lat="44.56539" lon="5.78504">
        <ele>1058</ele>
        <time>2010-08-26T14:49:31Z</time>
      </trkpt>
      <trkpt lat="44.5654" lon="5.78485">
        <ele>1058</ele>
        <time>2010-08-26T14:49:41Z</time>
      </trkpt>
      <trkpt lat="44.56538" lon="5.78467">
        <ele>1056</ele>
        <time>2010-08-26T14:49:51Z</time>
      </trkpt>
      <trkpt lat="44.56534" lon="5.78448">
        <ele>1056</ele>
        <time>2010-08-26T14:50:01Z</time>
      </trkpt>
      <trkpt lat="44.5653" lon="5.7843">
        <ele>1055</ele>
        <time>2010-08-26T14:50:11Z</time>
      </trkpt>
      <trkpt lat="44.56526" lon="5.7841">
        <ele>1055</ele>
        <time>2010-08-26T14:50:21Z</time>
      </trkpt>
      <trkpt lat="44.56522" lon="5.78391">
        <ele>1054</ele>
        <time>2010-08-26T14:50:31Z</time>
      </trkpt>
      <trkpt lat="44.56516" lon="5.78374">
        <ele>1053</ele>
        <time>2010-08-26T14:50:41Z</time>
      </trkpt>
      <trkpt lat="44.56511" lon="5.78357">
        <ele>1052</ele>
        <time>2010-08-26T14:50:51Z</time>
      </trkpt>
      <trkpt lat="44.56506" lon="5.78339">
        <ele>1052</ele>
        <time>2010-08-26T14:51:01Z</time>
      </trkpt>
      <trkpt lat="44.56498" lon="5.78322">
        <ele>1052</ele>
        <time>2010-08-26T14:51:11Z</time>
      </trkpt>
      <trkpt lat="44.56488" lon="5.7831">
        <ele>1052</ele>
        <time>2010-08-26T14:51:21Z</time>
      </trkpt>
      <trkpt lat="44.56475" lon="5.78304">
        <ele>1051</ele>
        <time>2010-08-26T14:51:31Z</time>
      </trkpt>
      <trkpt lat="44.56462" lon="5.78304">
        <ele>1051</ele>
        <time>2010-08-26T14:51:41Z</time>
      </trkpt>
      <trkpt lat="44.56448" lon="5.78312">
        <ele>1051</ele>
        <time>2010-08-26T14:51:51Z</time>
      </trkpt>
      <trkpt lat="44.56436" lon="5.78321">
        <ele>1051</ele>
        <time>2010-08-26T14:52:01Z</time>
      </trkpt>
      <trkpt lat="44.56426" lon="5.78332">
        <ele>1052</ele>
        <time>2010-08-26T14:52:11Z</time>
      </trkpt>
      <trkpt lat="44.56419" lon="5.78346">
        <ele>1052</ele>
        <time>2010-08-26T14:52:21Z</time>
      </trkpt>
      <trkpt lat="44.56414" lon="5.78363">
        <ele>1051</ele>
        <time>2010-08-26T14:52:31Z</time>
      </trkpt>
      <trkpt lat="44.56405" lon="5.78381">
        <ele>1052</ele>
        <time>2010-08-26T14:52:41Z</time>
      </trkpt>
      <trkpt lat="44.564" lon="5.78397">
        <ele>1051</ele>
        <time>2010-08-26T14:52:51Z</time>
      </trkpt>
      <trkpt lat="44.56396" lon="5.78415">
        <ele>1050</ele>
        <time>2010-08-26T14:53:01Z</time>
      </trkpt>
      <trkpt lat="44.56392" lon="5.78433">
        <ele>1050</ele>
        <time>2010-08-26T14:53:11Z</time>
      </trkpt>
      <trkpt lat="44.56388" lon="5.78453">
        <ele>1049</ele>
        <time>2010-08-26T14:53:21Z</time>
      </trkpt>
      <trkpt lat="44.56386" lon="5.78472">
        <ele>1048</ele>
        <time>2010-08-26T14:53:31Z</time>
      </trkpt>
      <trkpt lat="44.56386" lon="5.7849">
        <ele>1049</ele>
        <time>2010-08-26T14:53:41Z</time>
      </trkpt>
      <trkpt lat="44.56383" lon="5.7851">
        <ele>1047</ele>
        <time>2010-08-26T14:53:51Z</time>
      </trkpt>
      <trkpt lat="44.56382" lon="5.7853">
        <ele>1047</ele>
        <time>2010-08-26T14:54:01Z</time>
      </trkpt>
      <trkpt lat="44.56378" lon="5.78548">
        <ele>1047</ele>
        <time>2010-08-26T14:54:11Z</time>
      </trkpt>
      <trkpt lat="44.5637" lon="5.78563">
        <ele>1046</ele>
        <time>2010-08-26T14:54:21Z</time>
      </trkpt>
      <trkpt lat="44.56355" lon="5.78567">
        <ele>1044</ele>
        <time>2010-08-26T14:54:31Z</time>
      </trkpt>
      <trkpt lat="44.56342" lon="5.78559">
        <ele>1044</ele>
        <time>2010-08-26T14:54:41Z</time>
      </trkpt>
      <trkpt lat="44.56337" lon="5.78538">
        <ele>1044</ele>
        <time>2010-08-26T14:54:51Z</time>
      </trkpt>
      <trkpt lat="44.56334" lon="5.78516">
        <ele>1042</ele>
        <time>2010-08-26T14:55:01Z</time>
      </trkpt>
      <trkpt lat="44.56325" lon="5.785">
        <ele>1041</ele>
        <time>2010-08-26T14:55:11Z</time>
      </trkpt>
      <trkpt lat="44.56316" lon="5.78485">
        <ele>1040</ele>
        <time>2010-08-26T14:55:21Z</time>
      </trkpt>
      <trkpt lat="44.56306" lon="5.7847">
        <ele>1040</ele>
        <time>2010-08-26T14:55:31Z</time>
      </trkpt>
      <trkpt lat="44.56297" lon="5.78456">
        <ele>1040</ele>
        <time>2010-08-26T14:55:41Z</time>
      </trkpt>
      <trkpt lat="44.56286" lon="5.78441">
        <ele>1040</ele>
        <time>2010-08-26T14:55:51Z</time>
      </trkpt>
      <trkpt lat="44.56276" lon="5.78428">
        <ele>1039</ele>
        <time>2010-08-26T14:56:01Z</time>
      </trkpt>
      <trkpt lat="44.5627" lon="5.7841">
        <ele>1039</ele>
        <time>2010-08-26T14:56:11Z</time>
      </trkpt>
      <trkpt lat="44.56267" lon="5.7839">
        <ele>1038</ele>
        <time>2010-08-26T14:56:21Z</time>
      </trkpt>
      <trkpt lat="44.56265" lon="5.7837">
        <ele>1037</ele>
        <time>2010-08-26T14:56:31Z</time>
      </trkpt>
      <trkpt lat="44.5626" lon="5.78351">
        <ele>1037</ele>
        <time>2010-08-26T14:56:41Z</time>
      </trkpt>
      <trkpt lat="44.56259" lon="5.78334">
        <ele>1036</ele>
        <time>2010-08-26T14:56:51Z</time>
      </trkpt>
      <trkpt lat="44.56256" lon="5.78315">
        <ele>1035</ele>
        <time>2010-08-26T14:57:01Z</time>
      </trkpt>
      <trkpt lat="44.56252" lon="5.78296">
        <ele>1034</ele>
        <time>2010-08-26T14:57:11Z</time>
      </trkpt>
      <trkpt lat="44.56249" lon="5.78277">
        <ele>1034</ele>
        <time>2010-08-26T14:57:21Z</time>
      </trkpt>
      <trkpt lat="44.56245" lon="5.78259">
        <ele>1034</ele>
        <time>2010-08-26T14:57:31Z</time>
      </trkpt>
      <trkpt lat="44.56238" lon="5.78242">
        <ele>1033</ele>
        <time>2010-08-26T14:57:41Z</time>
      </trkpt>
      <trkpt lat="44.56226" lon="5.78239">
        <ele>1033</ele>
        <time>2010-08-26T14:57:51Z</time>
      </trkpt>
      <trkpt lat="44.56214" lon="5.78249">
        <ele>1033</ele>
        <time>2010-08-26T14:58:01Z</time>
      </trkpt>
      <trkpt lat="44.56204" lon="5.78261">
        <ele>1032</ele>
        <time>2010-08-26T14:58:11Z</time>
      </trkpt>
      <trkpt lat="44.56195" lon="5.78274">
        <ele>1032</ele>
        <time>2010-08-26T14:58:21Z</time>
      </trkpt>
      <trkpt lat="44.56187" lon="5.78288">
        <ele>1032</ele>
        <time>2010-08-26T14:58:31Z</time>
      </trkpt>
      <trkpt lat="44.56182" lon="5.78302">
        <ele>1031</ele>
        <time>2010-08-26T14:58:41Z</time>
      </trkpt>
      <trkpt lat="44.56175" lon="5.7832">
        <ele>1029</ele>
        <time>2010-08-26T14:58:51Z</time>
      </trkpt>
      <trkpt lat="44.56171" lon="5.78339">
        <ele>1030</ele>
        <time>2010-08-26T14:59:01Z</time>
      </trkpt>
      <trkpt lat="44.56167" lon="5.78358">
        <ele>1028</ele>
        <time>2010-08-26T14:59:11Z</time>
      </trkpt>
      <trkpt lat="44.56162" lon="5.78377">
        <ele>1029</ele>
        <time>2010-08-26T14:59:21Z</time>
      </trkpt>
      <trkpt lat="44.56156" lon="5.78396">
        <ele>1029</ele>
        <time>2010-08-26T14:59:31Z</time>
      </trkpt>
      <trkpt lat="44.56151" lon="5.78415">
        <ele>1028</ele>
        <time>2010-08-26T14:59:41Z</time>
      </trkpt>
      <trkpt lat="44.56148" lon="5.78434">
        <ele>1026</ele>
        <time>2010-08-26T14:59:51Z</time>
      </trkpt>
      <trkpt lat="44.56144" lon="5.78452">
        <ele>1026</ele>
        <time>2010-08-26T15:00:01Z</time>
      </trkpt>
      <trkpt lat="44.56141" lon="5.78472">
        <ele>1026</ele>
        <time>2010-08-26T15:00:11Z</time>
      </trkpt>
      <trkpt lat="44.56137" lon="5.78491">
        <ele>1025</ele>
        <time>2010-08-26T15:00:21Z</time>
      </trkpt>
      <trkpt lat="44.5613" lon="5.78509">
        <ele>1023</ele>
        <time>2010-08-26T15:00:31Z</time>
      </trkpt>
      <trkpt lat="44.56121" lon="5.78526">
        <ele>1023</ele>
        <time>2010-08-26T15:00:41Z</time>
      </trkpt>
      <trkpt lat="44.56111" lon="5.78543">
        <ele>1024</ele>
        <time>2010-08-26T15:00:51Z</time>
      </trkpt>
      <trkpt lat="44.56101" lon="5.7856">
        <ele>1023</ele>
        <time>2010-08-26T15:01:01Z</time>
      </trkpt>
      <trkpt lat="44.56087" lon="5.78564">
        <ele>1023</ele>
        <time>2010-08-26T15:01:11Z</time>
      </trkpt>
      <trkpt lat="44.56079" lon="5.78546">
        <ele>1022</ele>
        <time>2010-08-26T15:01:21Z</time>
      </trkpt>
      <trkpt lat="44.56079" lon="5.78525">
        <ele>1021</ele>
        <time>2010-08-26T15:01:31Z</time>
      </trkpt>
      <trkpt lat="44.56077" lon="5.78504">
        <ele>1021</ele>
        <time>2010-08-26T15:01:41Z</time>
      </trkpt>
      <trkpt lat="44.56073" lon="5.78484">
        <ele>1020</ele>
        <time>2010-08-26T15:01:51Z</time>
      </trkpt>
      <trkpt lat="44.56067" lon="5.78464">
        <ele>1019</ele>
        <time>2010-08-26T15:02:01Z</time>
      </trkpt>
      <trkpt lat="44.56059" lon="5.78449">
        <ele>1020</ele>
        <time>2010-08-26T15:02:11Z</time>
      </trkpt>
      <trkpt lat="44.56052" lon="5.78433">
        <ele>1019</ele>
        <time>2010-08-26T15:02:21Z</time>
      </trkpt>
      <trkpt lat="44.56044" lon="5.78415">
        <ele>1018</ele>
        <time>2010-08-26T15:02:31Z</time>
      </trkpt>
      <trkpt lat="44.56035" lon="5.78401">
        <ele>1019</ele>
        <time>2010-08-26T15:02:41Z</time>
      </trkpt>
      <trkpt lat="44.56021" lon="5.78395">
        <ele>1018</ele>
        <time>2010-08-26T15:02:51Z</time>
      </trkpt>
      <trkpt lat="44.56004" lon="5.78395">
        <ele>1018</ele>
        <time>2010-08-26T15:03:01Z</time>
      </trkpt>
      <trkpt lat="44.5599" lon="5.78396">
        <ele>1018</ele>
        <time>2010-08-26T15:03:11Z</time>
      </trkpt>
      <trkpt lat="44.55975" lon="5.78398">
        <ele>1017</ele>
        <time>2010-08-26T15:03:21Z</time>
      </trkpt>
      <trkpt lat="44.55959" lon="5.78401">
        <ele>1018</ele>
        <time>2010-08-26T15:03:31Z</time>
      </trkpt>
      <trkpt lat="44.55947" lon="5.78392">
        <ele>1018</ele>
        <time>2010-08-26T15:03:41Z</time>
      </trkpt>
      <trkpt lat="44.55944" lon="5.78371">
        <ele>1018</ele>
        <time>2010-08-26T15:03:51Z</time>
      </trkpt>
      <trkpt lat="44.55946" lon="5.78353">
        <ele>1018</ele>
        <time>2010-08-26T15:04:01Z</time>
      </trkpt>
      <trkpt lat="44.55948" lon="5.78331">
        <ele>1017</ele>
        <time>2010-08-26T15:04:11Z</time>
      </trkpt>
      <trkpt lat="44.55954" lon="5.78311">
        <ele>1017</ele>
        <time>2010-08-26T15:04:21Z</time>
      </trkpt>
      <trkpt lat="44.55961" lon="5.78293">
        <ele>1018</ele>
        <time>2010-08-26T15:04:31Z</time>
      </trkpt>
      <trkpt lat="44.55969" lon="5.78277">
        <ele>1018</ele>
        <time>2010-08-26T15:04:41Z</time>
      </trkpt>
      <trkpt lat="44.55977" lon="5.78258">
        <ele>1018</ele>
        <time>2010-08-26T15:04:51Z</time>
      </trkpt>
      <trkpt lat="44.55984" lon="5.7824">
        <ele>1018</ele>
        <time>2010-08-26T15:05:01Z</time>
      </trkpt>
      <trkpt lat="44.55988" lon="5.7822">
        <ele>1018</ele>
        <time>2010-08-26T15:05:11Z</time>
      </trkpt>
      <trkpt lat="44.55991" lon="5.782">
        <ele>1019</ele>
        <time>2010-08-26T15:05:21Z</time>
      </trkpt>
      <trkpt lat="44.55994" lon="5.78179">
        <ele>1018</ele>
        <time>2010-08-26T15:05:31Z</time>
      </trkpt>
      <trkpt lat="44.55991" lon="5.78159">
        <ele>1019</ele>
        <time>2010-08-26T15:05:41Z</time>
      </trkpt>
      <trkpt lat="44.55986" lon="5.7814">
        <ele>1018</ele>
        <time>2010-08-26T15:05:51Z</time>
      </trkpt>
      <trkpt lat="44.55982" lon="5.78121">
        <ele>1019</ele>
        <time>2010-08-26T15:06:01Z</time>
      </trkpt>
      <trkpt lat="44.55978" lon="5.781">
        <ele>1019</ele>
        <time>2010-08-26T15:06:11Z</time>
      </trkpt>
      <trkpt lat="44.55975" lon="5.78081">
        <ele>1018</ele>
        <time>2010-08-26T15:06:21Z</time>
      </trkpt>
      <trkpt lat="44.55968" lon="5.78064">
        <ele>1018</ele>
        <time>2010-08-26T15:06:31Z</time>
      </trkpt>
      <trkpt lat="44.55955" lon="5.78056">
        <ele>1019</ele>
        <time>2010-08-26T15:06:41Z</time>
      </trkpt>
      <trkpt lat="44.55942" lon="5.78058">
        <ele>1019</ele>
        <time>2010-08-26T15:06:51Z</time>
      </trkpt>
      <trkpt lat="44.55928" lon="5.78059">
        <ele>1018</ele>
        <time>2010-08-26T15:07:01Z</time>
      </trkpt>
      <trkpt lat="44.55914" lon="5.78061">
        <ele>1018</ele>
        <time>2010-08-26T15:07:11Z</time>
      </trkpt>
      <trkpt lat="44.55901" lon="5.78064">
        <ele>1018</ele>
        <time>2010-08-26T15:07:21Z</time>
      </trkpt>
      <trkpt lat="44.55886" lon="5.78067">
        <ele>1019</ele>
        <time>2010-08-26T15:07:31Z</time>
      </trkpt>
      <trkpt lat="44.55877" lon="5.7808">
        <ele>1018</ele>
        <time>2010-08-26T15:07:41Z</time>
      </trkpt>
      <trkpt lat="44.55874" lon="5.78099">
        <ele>1019</ele>
        <time>2010-08-26T15:07:51Z</time>
      </trkpt>
      <trkpt lat="44.55871" lon="5.78118">
        <ele>1018</ele>
        <time>2010-08-26T15:08:01Z</time>
      </trkpt>
      <trkpt lat="44.55864" lon="5.78135">
        <ele>1018</ele>
        <time>2010-08-26T15:08:11Z</time>
      </trkpt>
      <trkpt lat="44.55854" lon="5.7815">
        <ele>1017</ele>
        <time>2010-08-26T15:08:21Z</time>
      </trkpt>
      <trkpt lat="44.55841" lon="5.78154">
        <ele>1017</ele>
        <time>2010-08-26T15:08:31Z</time>
      </trkpt>
      <trkpt lat="44.55827" lon="5.78149">
        <ele>1017</ele>
        <time>2010-08-26T15:08:41Z</time>
      </trkpt>
      <trkpt lat="44.55811" lon="5.78141">
        <ele>1017</ele>
        <time>2010-08-26T15:08:51Z</time>
      </trkpt>
      <trkpt lat="44.55799" lon="5.78128">
        <ele>1018</ele>
        <time>2010-08-26T15:09:01Z</time>
      </trkpt>
      <trkpt lat="44.55789" lon="5.78115">
        <ele>1019</ele>
        <time>2010-08-26T15:09:11Z</time>
      </trkpt>
      <trkpt lat="44.5578" lon="5.78101">
        <ele>1018</ele>
        <time>2010-08-26T15:09:21Z</time>
      </trkpt>
      <trkpt lat="44.5577" lon="5.78087">
        <ele>1018</ele>
        <time>2010-08-26T15:09:31Z</time>
      </trkpt>
      <trkpt lat="44.55759" lon="5.78073">
        <ele>1018</ele>
        <time>2010-08-26T15:09:41Z</time>
      </trkpt>
      <trkpt lat="44.55748" lon="5.78059">
        <ele>1017</ele>
        <time>2010-08-26T15:09:51Z</time>
      </trkpt>
      <trkpt lat="44.55736" lon="5.78047">
        <ele>1018</ele>
        <time>2010-08-26T15:10:01Z</time>
      </trkpt>
      <trkpt lat="44.55723" lon="5.78037">
        <ele>1017</ele>
        <time>2010-08-26T15:10:11Z</time>
      </trkpt>
      <trkpt lat="44.5571" lon="5.78034">
        <ele>1017</ele>
        <time>2010-08-26T15:10:21Z</time>
      </trkpt>
      <trkpt lat="44.55696" lon="5.78032">
        <ele>1017</ele>
        <time>2010-08-26T15:10:31Z</time>
      </trkpt>
      <trkpt lat="44.55682" lon="5.7803">
        <ele>1017</ele>
        <time>2010-08-26T15:10:41Z</time>
      </trkpt>
      <trkpt lat="44.55669" lon="5.78025">
        <ele>1018</ele>
        <time>2010-08-26T15:10:51Z</time>
      </trkpt>
      <trkpt lat="44.55655" lon="5.7802">
        <ele>1017</ele>
        <time>2010-08-26T15:11:01Z</time>
      </trkpt>
      <trkpt lat="44.55642" lon="5.78014">
        <ele>1017</ele>
        <time>2010-08-26T15:11:11Z</time>
      </trkpt>
      <trkpt lat="44.55629" lon="5.78006">
        <ele>1017</ele>
        <time>2010-08-26T15:11:21Z</time>
      </trkpt>
      <trkpt lat="44.55616" lon="5.77997">
        <ele>1017</ele>
        <time>2010-08-26T15:11:31Z</time>
      </trkpt>
      <trkpt lat="44.55603" lon="5.77992">
        <ele>1017</ele>
        <time>2010-08-26T15:11:41Z</time>
      </trkpt>
      <trkpt lat="44.55591" lon="5.78001">
        <ele>1017</ele>
        <time>2010-08-26T15:11:51Z</time>
      </trkpt>
      <trkpt lat="44.5558" lon="5.78013">
        <ele>1016</ele>
        <time>2010-08-26T15:12:01Z</time>
      </trkpt>
      <trkpt lat="44.55571" lon="5.78025">
        <ele>1016</ele>
        <time>2010-08-26T15:12:11Z</time>
      </trkpt>
      <trkpt lat="44.55559" lon="5.78033">
        <ele>1016</ele>
        <time>2010-08-26T15:12:21Z</time>
      </trkpt>
      <trkpt lat="44.55546" lon="5.78037">
        <ele>1015</ele>
        <time>2010-08-26T15:12:31Z</time>
      </trkpt>
      <trkpt lat="44.55531" lon="5.78032">
        <ele>1014</ele>
        <time>2010-08-26T15:12:41Z</time>
      </trkpt>
      <trkpt lat="44.55518" lon="5.78025">
        <ele>1014</ele>
        <time>2010-08-26T15:12:51Z</time>
      </trkpt>
      <trkpt lat="44.55506" lon="5.78012">
        <ele>1013</ele>
        <time>2010-08-26T15:13:01Z</time>
      </trkpt>
      <trkpt lat="44.55497" lon="5.77998">
        <ele>1013</ele>
        <time>2010-08-26T15:13:11Z</time>
      </trkpt>
      <trkpt lat="44.55486" lon="5.77984">
        <ele>1012</ele>
        <time>2010-08-26T15:13:21Z</time>
      </trkpt>
      <trkpt lat="44.55474" lon="5.77972">
        <ele>1011</ele>
        <time>2010-08-26T15:13:31Z</time>
      </trkpt>
      <trkpt lat="44.55462" lon="5.77963">
        <ele>1012</ele>
        <time>2010-08-26T15:13:41Z</time>
      </trkpt>
      <trkpt lat="44.5545" lon="5.77961">
        <ele>1012</ele>
        <time>2010-08-26T15:13:51Z</time>
      </trkpt>
      <trkpt lat="44.55437" lon="5.77963">
        <ele>1012</ele>
        <time>2010-08-26T15:14:01Z</time>
      </trkpt>
      <trkpt lat="44.55427" lon="5.77974">
        <ele>1010</ele>
        <time>2010-08-26T15:14:11Z</time>
      </trkpt>
      <trkpt lat="44.55428" lon="5.77992">
        <ele>1009</ele>
        <time>2010-08-26T15:14:21Z</time>
      </trkpt>
      <trkpt lat="44.55436" lon="5.78009">
        <ele>1009</ele>
        <time>2010-08-26T15:14:31Z</time>
      </trkpt>
      <trkpt lat="44.55444" lon="5.78021">
        <ele>1008</ele>
        <time>2010-08-26T15:14:41Z</time>
      </trkpt>
      <trkpt lat="44.55452" lon="5.78035">
        <ele>1007</ele>
        <time>2010-08-26T15:14:51Z</time>
      </trkpt>
      <trkpt lat="44.55458" lon="5.78052">
        <ele>1006</ele>
        <time>2010-08-26T15:15:01Z</time>
      </trkpt>
      <trkpt lat="44.55467" lon="5.78071">
        <ele>1005</ele>
        <time>2010-08-26T15:15:11Z</time>
      </trkpt>
      <trkpt lat="44.55474" lon="5.78087">
        <ele>1006</ele>
        <time>2010-08-26T15:15:21Z</time>
      </trkpt>
      <trkpt lat="44.55481" lon="5.78104">
        <ele>1005</ele>
        <time>2010-08-26T15:15:31Z</time>
      </trkpt>
      <trkpt lat="44.55488" lon="5.78122">
        <ele>1005</ele>
        <time>2010-08-26T15:15:41Z</time>
      </trkpt>
      <trkpt lat="44.55494" lon="5.78138">
        <ele>1005</ele>
        <time>2010-08-26T15:15:51Z</time>
      </trkpt>
      <trkpt lat="44.55488" lon="5.78143">
        <ele>1004</ele>
        <time>2010-08-26T15:16:01Z</time>
      </trkpt>
      <trkpt lat="44.5548" lon="5.78126">
        <ele>1002</ele>
        <time>2010-08-26T15:16:11Z</time>
      </trkpt>
      <trkpt lat="44.55473" lon="5.78111">
        <ele>1002</ele>
        <time>2010-08-26T15:16:21Z</time>
      </trkpt>
      <trkpt lat="44.55464" lon="5.78097">
        <ele>1001</ele>
        <time>2010-08-26T15:16:31Z</time>
      </trkpt>
      <trkpt lat="44.55456" lon="5.78083">
        <ele>1000</ele>
        <time>2010-08-26T15:16:41Z</time>
      </trkpt>
      <trkpt lat="44.55445" lon="5.7807">
        <ele>999</ele>
        <time>2010-08-26T15:16:51Z</time>
      </trkpt>
      <trkpt lat="44.55434" lon="5.78056">
        <ele>998</ele>
        <time>2010-08-26T15:17:01Z</time>
      </trkpt>
      <trkpt lat="44.55424" lon="5.78045">
        <ele>997</ele>
        <time>2010-08-26T15:17:11Z</time>
      </trkpt>
      <trkpt lat="44.55413" lon="5.78035">
        <ele>997</ele>
        <time>2010-08-26T15:17:21Z</time>
      </trkpt>
      <trkpt lat="44.55405" lon="5.78022">
        <ele>995</ele>
        <time>2010-08-26T15:17:31Z</time>
      </trkpt>
      <trkpt lat="44.55397" lon="5.78006">
        <ele>993</ele>
        <time>2010-08-26T15:17:41Z</time>
      </trkpt>
      <trkpt lat="44.55394" lon="5.7799">
        <ele>991</ele>
        <time>2010-08-26T15:17:51Z</time>
      </trkpt>
      <trkpt lat="44.55391" lon="5.77971">
        <ele>990</ele>
        <time>2010-08-26T15:18:01Z</time>
      </trkpt>
      <trkpt lat="44.55389" lon="5.77954">
        <ele>989</ele>
        <time>2010-08-26T15:18:11Z</time>
      </trkpt>
      <trkpt lat="44.55387" lon="5.77937">
        <ele>987</ele>
        <time>2010-08-26T15:18:21Z</time>
      </trkpt>
      <trkpt lat="44.55387" lon="5.7792">
        <ele>985</ele>
        <time>2010-08-26T15:18:31Z</time>
      </trkpt>
      <trkpt lat="44.5539" lon="5.77902">
        <ele>983</ele>
        <time>2010-08-26T15:18:41Z</time>
      </trkpt>
      <trkpt lat="44.55392" lon="5.77884">
        <ele>983</ele>
        <time>2010-08-26T15:18:51Z</time>
      </trkpt>
      <trkpt lat="44.55395" lon="5.77868">
        <ele>981</ele>
        <time>2010-08-26T15:19:01Z</time>
      </trkpt>
      <trkpt lat="44.55398" lon="5.77851">
        <ele>980</ele>
        <time>2010-08-26T15:19:11Z</time>
      </trkpt>
      <trkpt lat="44.55403" lon="5.77834">
        <ele>979</ele>
        <time>2010-08-26T15:19:21Z</time>
      </trkpt>
      <trkpt lat="44.55411" lon="5.77816">
        <ele>977</ele>
        <time>2010-08-26T15:19:31Z</time>
      </trkpt>
      <trkpt lat="44.5542" lon="5.77803">
        <ele>976</ele>
        <time>2010-08-26T15:19:41Z</time>
      </trkpt>
      <trkpt lat="44.5543" lon="5.77794">
        <ele>974</ele>
        <time>2010-08-26T15:19:51Z</time>
      </trkpt>
      <trkpt lat="44.55442" lon="5.77786">
        <ele>973</ele>
        <time>2010-08-26T15:20:01Z</time>
      </trkpt>
      <trkpt lat="44.55455" lon="5.77782">
        <ele>974</ele>
        <time>2010-08-26T15:20:11Z</time>
      </trkpt>
      <trkpt lat="44.5547" lon="5.77784">
        <ele>972</ele>
        <time>2010-08-26T15:20:21Z</time>
      </trkpt>
      <trkpt lat="44.55479" lon="5.77775">
        <ele>973</ele>
        <time>2010-08-26T15:20:31Z</time>
      </trkpt>
      <trkpt lat="44.55476" lon="5.77756">
        <ele>972</ele>
        <time>2010-08-26T15:20:41Z</time>
      </trkpt>
      <trkpt lat="44.55471" lon="5.77739">
        <ele>971</ele>
        <time>2010-08-26T15:20:51Z</time>
      </trkpt>
      <trkpt lat="44.55465" lon="5.77724">
        <ele>969</ele>
        <time>2010-08-26T15:21:01Z</time>
      </trkpt>
      <trkpt lat="44.55456" lon="5.77711">
        <ele>968</ele>
        <time>2010-08-26T15:21:11Z</time>
      </trkpt>
      <trkpt lat="44.55448" lon="5.77702">
        <ele>967</ele>
        <time>2010-08-26T15:21:21Z</time>
      </trkpt>
      <trkpt lat="44.55439" lon="5.77693">
        <ele>966</ele>
        <time>2010-08-26T15:21:31Z</time>
      </trkpt>
      <trkpt lat="44.5543" lon="5.77684">
        <ele>965</ele>
        <time>2010-08-26T15:21:41Z</time>
      </trkpt>
      <trkpt lat="44.55419" lon="5.77673">
        <ele>964</ele>
        <time>2010-08-26T15:21:51Z</time>
      </trkpt>
      <trkpt lat="44.5541" lon="5.77662">
        <ele>962</ele>
        <time>2010-08-26T15:22:01Z</time>
      </trkpt>
      <trkpt lat="44.55401" lon="5.77649">
        <ele>961</ele>
        <time>2010-08-26T15:22:11Z</time>
      </trkpt>
      <trkpt lat="44.55396" lon="5.7763">
        <ele>959</ele>
        <time>2010-08-26T15:22:21Z</time>
      </trkpt>
      <trkpt lat="44.55391" lon="5.77612">
        <ele>959</ele>
        <time>2010-08-26T15:22:31Z</time>
      </trkpt>
      <trkpt lat="44.55384" lon="5.77597">
        <ele>957</ele>
        <time>2010-08-26T15:22:41Z</time>
      </trkpt>
      <trkpt lat="44.55374" lon="5.77584">
        <ele>954</ele>
        <time>2010-08-26T15:22:51Z</time>
      </trkpt>
      <trkpt lat="44.55364" lon="5.77575">
        <ele>953</ele>
        <time>2010-08-26T15:23:01Z</time>
      </trkpt>
      <trkpt lat="44.55355" lon="5.7756">
        <ele>952</ele>
        <time>2010-08-26T15:23:11Z</time>
      </trkpt>
      <trkpt lat="44.55352" lon="5.77542">
        <ele>951</ele>
        <time>2010-08-26T15:23:21Z</time>
      </trkpt>
      <trkpt lat="44.5535" lon="5.77524">
        <ele>951</ele>
        <time>2010-08-26T15:23:31Z</time>
      </trkpt>
      <trkpt lat="44.5535" lon="5.77514">
        <ele>950</ele>
        <time>2010-08-26T15:23:41Z</time>
      </trkpt>
      <trkpt lat="44.55348" lon="5.77512">
        <ele>948</ele>
        <time>2010-08-26T15:23:51Z</time>
      </trkpt>
      <trkpt lat="44.55347" lon="5.7751">
        <ele>949</ele>
        <time>2010-08-26T15:24:01Z</time>
      </trkpt>
      <trkpt lat="44.55348" lon="5.7751">
        <ele>948</ele>
        <time>2010-08-26T15:24:11Z</time>
      </trkpt>
      <trkpt lat="44.55349" lon="5.77509">
        <ele>947</ele>
        <time>2010-08-26T15:24:21Z</time>
      </trkpt>
      <trkpt lat="44.55348" lon="5.77508">
        <ele>948</ele>
        <time>2010-08-26T15:24:31Z</time>
      </trkpt>
      <trkpt lat="44.55348" lon="5.77509">
        <ele>948</ele>
        <time>2010-08-26T15:24:41Z</time>
      </trkpt>
      <trkpt lat="44.55347" lon="5.77511">
        <ele>948</ele>
        <time>2010-08-26T15:24:51Z</time>
      </trkpt>
      <trkpt lat="44.55346" lon="5.7751">
        <ele>949</ele>
        <time>2010-08-26T15:25:01Z</time>
      </trkpt>
      <trkpt lat="44.55342" lon="5.77502">
        <ele>948</ele>
        <time>2010-08-26T15:25:11Z</time>
      </trkpt>
      <trkpt lat="44.5534" lon="5.77485">
        <ele>947</ele>
        <time>2010-08-26T15:25:21Z</time>
      </trkpt>
      <trkpt lat="44.55347" lon="5.7747">
        <ele>946</ele>
        <time>2010-08-26T15:25:31Z</time>
      </trkpt>
      <trkpt lat="44.55348" lon="5.77465">
        <ele>945</ele>
        <time>2010-08-26T15:25:41Z</time>
      </trkpt>
      <trkpt lat="44.55358" lon="5.77452">
        <ele>944</ele>
        <time>2010-08-26T15:25:51Z</time>
      </trkpt>
      <trkpt lat="44.55365" lon="5.77438">
        <ele>942</ele>
        <time>2010-08-26T15:26:01Z</time>
      </trkpt>
      <trkpt lat="44.55371" lon="5.77424">
        <ele>939</ele>
        <time>2010-08-26T15:26:11Z</time>
      </trkpt>
      <trkpt lat="44.55374" lon="5.77408">
        <ele>940</ele>
        <time>2010-08-26T15:26:21Z</time>
      </trkpt>
      <trkpt lat="44.55373" lon="5.77402">
        <ele>940</ele>
        <time>2010-08-26T15:26:31Z</time>
      </trkpt>
      <trkpt lat="44.55373" lon="5.77394">
        <ele>939</ele>
        <time>2010-08-26T15:26:41Z</time>
      </trkpt>
      <trkpt lat="44.55371" lon="5.77378">
        <ele>937</ele>
        <time>2010-08-26T15:26:51Z</time>
      </trkpt>
      <trkpt lat="44.55366" lon="5.77364">
        <ele>937</ele>
        <time>2010-08-26T15:27:01Z</time>
      </trkpt>
      <trkpt lat="44.55366" lon="5.77348">
        <ele>935</ele>
        <time>2010-08-26T15:27:11Z</time>
      </trkpt>
      <trkpt lat="44.5537" lon="5.77331">
        <ele>934</ele>
        <time>2010-08-26T15:27:21Z</time>
      </trkpt>
      <trkpt lat="44.55376" lon="5.77316">
        <ele>931</ele>
        <time>2010-08-26T15:27:31Z</time>
      </trkpt>
      <trkpt lat="44.55387" lon="5.77306">
        <ele>931</ele>
        <time>2010-08-26T15:27:41Z</time>
      </trkpt>
      <trkpt lat="44.55396" lon="5.77296">
        <ele>931</ele>
        <time>2010-08-26T15:27:51Z</time>
      </trkpt>
      <trkpt lat="44.55404" lon="5.77283">
        <ele>929</ele>
        <time>2010-08-26T15:28:01Z</time>
      </trkpt>
      <trkpt lat="44.55409" lon="5.77269">
        <ele>928</ele>
        <time>2010-08-26T15:28:11Z</time>
      </trkpt>
      <trkpt lat="44.55412" lon="5.77253">
        <ele>926</ele>
        <time>2010-08-26T15:28:21Z</time>
      </trkpt>
      <trkpt lat="44.55416" lon="5.77236">
        <ele>925</ele>
        <time>2010-08-26T15:28:31Z</time>
      </trkpt>
      <trkpt lat="44.55419" lon="5.77219">
        <ele>923</ele>
        <time>2010-08-26T15:28:41Z</time>
      </trkpt>
      <trkpt lat="44.55422" lon="5.77203">
        <ele>922</ele>
        <time>2010-08-26T15:28:51Z</time>
      </trkpt>
      <trkpt lat="44.55426" lon="5.77188">
        <ele>921</ele>
        <time>2010-08-26T15:29:01Z</time>
      </trkpt>
      <trkpt lat="44.55432" lon="5.77172">
        <ele>920</ele>
        <time>2010-08-26T15:29:11Z</time>
      </trkpt>
      <trkpt lat="44.55436" lon="5.77157">
        <ele>919</ele>
        <time>2010-08-26T15:29:21Z</time>
      </trkpt>
      <trkpt lat="44.55437" lon="5.77141">
        <ele>917</ele>
        <time>2010-08-26T15:29:31Z</time>
      </trkpt>
      <trkpt lat="44.55439" lon="5.77124">
        <ele>916</ele>
        <time>2010-08-26T15:29:41Z</time>
      </trkpt>
      <trkpt lat="44.55438" lon="5.77107">
        <ele>913</ele>
        <time>2010-08-26T15:29:51Z</time>
      </trkpt>
      <trkpt lat="44.55437" lon="5.7709">
        <ele>912</ele>
        <time>2010-08-26T15:30:01Z</time>
      </trkpt>
      <trkpt lat="44.55436" lon="5.77072">
        <ele>911</ele>
        <time>2010-08-26T15:30:11Z</time>
      </trkpt>
      <trkpt lat="44.55434" lon="5.77056">
        <ele>912</ele>
        <time>2010-08-26T15:30:21Z</time>
      </trkpt>
      <trkpt lat="44.55436" lon="5.77041">
        <ele>910</ele>
        <time>2010-08-26T15:30:31Z</time>
      </trkpt>
      <trkpt lat="44.55436" lon="5.77032">
        <ele>910</ele>
        <time>2010-08-26T15:30:41Z</time>
      </trkpt>
      <trkpt lat="44.55438" lon="5.77015">
        <ele>909</ele>
        <time>2010-08-26T15:30:51Z</time>
      </trkpt>
      <trkpt lat="44.55434" lon="5.77">
        <ele>907</ele>
        <time>2010-08-26T15:31:01Z</time>
      </trkpt>
      <trkpt lat="44.55429" lon="5.76983">
        <ele>906</ele>
        <time>2010-08-26T15:31:11Z</time>
      </trkpt>
      <trkpt lat="44.55428" lon="5.76967">
        <ele>904</ele>
        <time>2010-08-26T15:31:21Z</time>
      </trkpt>
      <trkpt lat="44.55426" lon="5.7695">
        <ele>903</ele>
        <time>2010-08-26T15:31:31Z</time>
      </trkpt>
      <trkpt lat="44.55425" lon="5.76932">
        <ele>902</ele>
        <time>2010-08-26T15:31:41Z</time>
      </trkpt>
      <trkpt lat="44.55422" lon="5.76915">
        <ele>901</ele>
        <time>2010-08-26T15:31:51Z</time>
      </trkpt>
      <trkpt lat="44.55426" lon="5.76901">
        <ele>902</ele>
        <time>2010-08-26T15:32:01Z</time>
      </trkpt>
      <trkpt lat="44.5543" lon="5.76893">
        <ele>900</ele>
        <time>2010-08-26T15:32:11Z</time>
      </trkpt>
      <trkpt lat="44.55431" lon="5.7689">
        <ele>901</ele>
        <time>2010-08-26T15:32:21Z</time>
      </trkpt>
      <trkpt lat="44.55426" lon="5.76886">
        <ele>899</ele>
        <time>2010-08-26T15:32:31Z</time>
      </trkpt>
      <trkpt lat="44.55418" lon="5.76896">
        <ele>899</ele>
        <time>2010-08-26T15:32:41Z</time>
      </trkpt>
      <trkpt lat="44.55417" lon="5.76909">
        <ele>898</ele>
        <time>2010-08-26T15:32:51Z</time>
      </trkpt>
      <trkpt lat="44.55417" lon="5.76924">
        <ele>897</ele>
        <time>2010-08-26T15:33:01Z</time>
      </trkpt>
      <trkpt lat="44.55417" lon="5.76941">
        <ele>895</ele>
        <time>2010-08-26T15:33:11Z</time>
      </trkpt>
      <trkpt lat="44.55413" lon="5.76954">
        <ele>894</ele>
        <time>2010-08-26T15:33:21Z</time>
      </trkpt>
      <trkpt lat="44.5541" lon="5.76971">
        <ele>892</ele>
        <time>2010-08-26T15:33:31Z</time>
      </trkpt>
      <trkpt lat="44.55408" lon="5.76985">
        <ele>890</ele>
        <time>2010-08-26T15:33:41Z</time>
      </trkpt>
      <trkpt lat="44.55409" lon="5.77">
        <ele>890</ele>
        <time>2010-08-26T15:33:51Z</time>
      </trkpt>
      <trkpt lat="44.55407" lon="5.77015">
        <ele>889</ele>
        <time>2010-08-26T15:34:01Z</time>
      </trkpt>
      <trkpt lat="44.55404" lon="5.77031">
        <ele>887</ele>
        <time>2010-08-26T15:34:11Z</time>
      </trkpt>
      <trkpt lat="44.55401" lon="5.7705">
        <ele>886</ele>
        <time>2010-08-26T15:34:21Z</time>
      </trkpt>
      <trkpt lat="44.554" lon="5.77067">
        <ele>884</ele>
        <time>2010-08-26T15:34:31Z</time>
      </trkpt>
      <trkpt lat="44.55399" lon="5.77083">
        <ele>884</ele>
        <time>2010-08-26T15:34:41Z</time>
      </trkpt>
      <trkpt lat="44.55398" lon="5.77101">
        <ele>881</ele>
        <time>2010-08-26T15:34:51Z</time>
      </trkpt>
      <trkpt lat="44.55393" lon="5.77118">
        <ele>880</ele>
        <time>2010-08-26T15:35:01Z</time>
      </trkpt>
      <trkpt lat="44.55386" lon="5.7713">
        <ele>879</ele>
        <time>2010-08-26T15:35:11Z</time>
      </trkpt>
      <trkpt lat="44.55379" lon="5.77144">
        <ele>878</ele>
        <time>2010-08-26T15:35:21Z</time>
      </trkpt>
      <trkpt lat="44.55372" lon="5.77158">
        <ele>877</ele>
        <time>2010-08-26T15:35:31Z</time>
      </trkpt>
      <trkpt lat="44.55366" lon="5.77171">
        <ele>875</ele>
        <time>2010-08-26T15:35:41Z</time>
      </trkpt>
      <trkpt lat="44.55361" lon="5.77185">
        <ele>873</ele>
        <time>2010-08-26T15:35:51Z</time>
      </trkpt>
      <trkpt lat="44.55355" lon="5.772">
        <ele>873</ele>
        <time>2010-08-26T15:36:01Z</time>
      </trkpt>
      <trkpt lat="44.55348" lon="5.77215">
        <ele>873</ele>
        <time>2010-08-26T15:36:11Z</time>
      </trkpt>
      <trkpt lat="44.5534" lon="5.77217">
        <ele>872</ele>
        <time>2010-08-26T15:36:21Z</time>
      </trkpt>
      <trkpt lat="44.55345" lon="5.77201">
        <ele>870</ele>
        <time>2010-08-26T15:36:31Z</time>
      </trkpt>
      <trkpt lat="44.55351" lon="5.77184">
        <ele>869</ele>
        <time>2010-08-26T15:36:41Z</time>
      </trkpt>
      <trkpt lat="44.55354" lon="5.77171">
        <ele>867</ele>
        <time>2010-08-26T15:36:51Z</time>
      </trkpt>
      <trkpt lat="44.55356" lon="5.77155">
        <ele>866</ele>
        <time>2010-08-26T15:37:01Z</time>
      </trkpt>
      <trkpt lat="44.55357" lon="5.7714">
        <ele>865</ele>
        <time>2010-08-26T15:37:11Z</time>
      </trkpt>
      <trkpt lat="44.5536" lon="5.77125">
        <ele>864</ele>
        <time>2010-08-26T15:37:21Z</time>
      </trkpt>
      <trkpt lat="44.55364" lon="5.7711">
        <ele>862</ele>
        <time>2010-08-26T15:37:31Z</time>
      </trkpt>
      <trkpt lat="44.55365" lon="5.77093">
        <ele>861</ele>
        <time>2010-08-26T15:37:41Z</time>
      </trkpt>
      <trkpt lat="44.55366" lon="5.77074">
        <ele>860</ele>
        <time>2010-08-26T15:37:51Z</time>
      </trkpt>
      <trkpt lat="44.5536" lon="5.77077">
        <ele>859</ele>
        <time>2010-08-26T15:38:01Z</time>
      </trkpt>
      <trkpt lat="44.5536" lon="5.77094">
        <ele>858</ele>
        <time>2010-08-26T15:38:11Z</time>
      </trkpt>
      <trkpt lat="44.55357" lon="5.7711">
        <ele>856</ele>
        <time>2010-08-26T15:38:21Z</time>
      </trkpt>
      <trkpt lat="44.5535" lon="5.77123">
        <ele>855</ele>
        <time>2010-08-26T15:38:31Z</time>
      </trkpt>
      <trkpt lat="44.55344" lon="5.77137">
        <ele>853</ele>
        <time>2010-08-26T15:38:41Z</time>
      </trkpt>
      <trkpt lat="44.55339" lon="5.77148">
        <ele>852</ele>
        <time>2010-08-26T15:38:51Z</time>
      </trkpt>
      <trkpt lat="44.55332" lon="5.77163">
        <ele>851</ele>
        <time>2010-08-26T15:39:01Z</time>
      </trkpt>
      <trkpt lat="44.55325" lon="5.77176">
        <ele>850</ele>
        <time>2010-08-26T15:39:11Z</time>
      </trkpt>
      <trkpt lat="44.55317" lon="5.77191">
        <ele>848</ele>
        <time>2010-08-26T15:39:21Z</time>
      </trkpt>
      <trkpt lat="44.55313" lon="5.77207">
        <ele>846</ele>
        <time>2010-08-26T15:39:31Z</time>
      </trkpt>
      <trkpt lat="44.5531" lon="5.77223">
        <ele>845</ele>
        <time>2010-08-26T15:39:41Z</time>
      </trkpt>
      <trkpt lat="44.553" lon="5.77239">
        <ele>844</ele>
        <time>2010-08-26T15:39:51Z</time>
      </trkpt>
      <trkpt lat="44.55292" lon="5.77253">
        <ele>843</ele>
        <time>2010-08-26T15:40:01Z</time>
      </trkpt>
      <trkpt lat="44.55288" lon="5.77272">
        <ele>841</ele>
        <time>2010-08-26T15:40:11Z</time>
      </trkpt>
      <trkpt lat="44.55283" lon="5.77284">
        <ele>840</ele>
        <time>2010-08-26T15:40:21Z</time>
      </trkpt>
      <trkpt lat="44.55278" lon="5.77299">
        <ele>839</ele>
        <time>2010-08-26T15:40:31Z</time>
      </trkpt>
      <trkpt lat="44.55272" lon="5.77315">
        <ele>837</ele>
        <time>2010-08-26T15:40:41Z</time>
      </trkpt>
      <trkpt lat="44.55265" lon="5.77328">
        <ele>836</ele>
        <time>2010-08-26T15:40:51Z</time>
      </trkpt>
      <trkpt lat="44.55257" lon="5.77343">
        <ele>835</ele>
        <time>2010-08-26T15:41:01Z</time>
      </trkpt>
      <trkpt lat="44.55251" lon="5.77357">
        <ele>834</ele>
        <time>2010-08-26T15:41:11Z</time>
      </trkpt>
      <trkpt lat="44.55246" lon="5.77369">
        <ele>831</ele>
        <time>2010-08-26T15:41:21Z</time>
      </trkpt>
      <trkpt lat="44.55241" lon="5.77383">
        <ele>831</ele>
        <time>2010-08-26T15:41:31Z</time>
      </trkpt>
      <trkpt lat="44.55239" lon="5.77403">
        <ele>830</ele>
        <time>2010-08-26T15:41:41Z</time>
      </trkpt>
      <trkpt lat="44.55234" lon="5.77419">
        <ele>829</ele>
        <time>2010-08-26T15:41:51Z</time>
      </trkpt>
      <trkpt lat="44.55229" lon="5.77433">
        <ele>827</ele>
        <time>2010-08-26T15:42:01Z</time>
      </trkpt>
      <trkpt lat="44.55223" lon="5.77448">
        <ele>827</ele>
        <time>2010-08-26T15:42:11Z</time>
      </trkpt>
      <trkpt lat="44.55218" lon="5.77466">
        <ele>825</ele>
        <time>2010-08-26T15:42:21Z</time>
      </trkpt>
      <trkpt lat="44.55214" lon="5.77485">
        <ele>823</ele>
        <time>2010-08-26T15:42:31Z</time>
      </trkpt>
      <trkpt lat="44.55211" lon="5.77498">
        <ele>822</ele>
        <time>2010-08-26T15:42:41Z</time>
      </trkpt>
      <trkpt lat="44.55207" lon="5.7751">
        <ele>822</ele>
        <time>2010-08-26T15:42:51Z</time>
      </trkpt>
      <trkpt lat="44.55204" lon="5.77516">
        <ele>821</ele>
        <time>2010-08-26T15:43:01Z</time>
      </trkpt>
      <trkpt lat="44.55201" lon="5.77526">
        <ele>817</ele>
        <time>2010-08-26T15:43:11Z</time>
      </trkpt>
      <trkpt lat="44.55204" lon="5.77527">
        <ele>820</ele>
        <time>2010-08-26T15:43:21Z</time>
      </trkpt>
      <trkpt lat="44.55204" lon="5.77527">
        <ele>820</ele>
        <time>2010-08-26T15:43:31Z</time>
      </trkpt>
      <trkpt lat="44.55204" lon="5.77528">
        <ele>820</ele>
        <time>2010-08-26T15:43:41Z</time>
      </trkpt>
      <trkpt lat="44.55204" lon="5.77527">
        <ele>818</ele>
        <time>2010-08-26T15:43:51Z</time>
      </trkpt>
      <trkpt lat="44.55203" lon="5.77527">
        <ele>820</ele>
        <time>2010-08-26T15:44:01Z</time>
      </trkpt>
      <trkpt lat="44.55199" lon="5.77535">
        <ele>820</ele>
        <time>2010-08-26T15:44:11Z</time>
      </trkpt>
      <trkpt lat="44.55193" lon="5.77552">
        <ele>816</ele>
        <time>2010-08-26T15:44:21Z</time>
      </trkpt>
      <trkpt lat="44.55187" lon="5.77568">
        <ele>814</ele>
        <time>2010-08-26T15:44:31Z</time>
      </trkpt>
      <trkpt lat="44.55187" lon="5.77582">
        <ele>816</ele>
        <time>2010-08-26T15:44:41Z</time>
      </trkpt>
      <trkpt lat="44.55186" lon="5.77583">
        <ele>815</ele>
        <time>2010-08-26T15:44:51Z</time>
      </trkpt>
      <trkpt lat="44.55186" lon="5.77583">
        <ele>813</ele>
        <time>2010-08-26T15:45:01Z</time>
      </trkpt>
      <trkpt lat="44.55186" lon="5.77583">
        <ele>814</ele>
        <time>2010-08-26T15:45:11Z</time>
      </trkpt>
      <trkpt lat="44.55186" lon="5.77583">
        <ele>815</ele>
        <time>2010-08-26T15:45:21Z</time>
      </trkpt>
      <trkpt lat="44.55185" lon="5.77588">
        <ele>815</ele>
        <time>2010-08-26T15:45:31Z</time>
      </trkpt>
      <trkpt lat="44.55163" lon="5.77594">
        <ele>798.7</ele>
      </trkpt>
      <trkpt lat="44.55117" lon="5.77619">
        <ele>796</ele>
      </trkpt>
      <trkpt lat="44.55142" lon="5.7753">
        <ele>797</ele>
      </trkpt>
      <trkpt lat="44.55145" lon="5.77464">
        <ele>800.2</ele>
      </trkpt>
      <trkpt lat="44.55129" lon="5.77444">
        <ele>806.5</ele>
      </trkpt>
      <trkpt lat="44.55065" lon="5.77566">
        <ele>808.2</ele>
      </trkpt>
      <trkpt lat="44.54912" lon="5.77714">
        <ele>806.3</ele>
      </trkpt>
      <trkpt lat="44.54817" lon="5.77787">
        <ele>800.3</ele>
      </trkpt>
      <trkpt lat="44.54665" lon="5.77821">
        <ele>795.6</ele>
      </trkpt>
      <trkpt lat="44.54569" lon="5.77803">
        <ele>793.5</ele>
      </trkpt>
      <trkpt lat="44.54454" lon="5.77752">
        <ele>798.8</ele>
      </trkpt>
      <trkpt lat="44.54319" lon="5.77728">
        <ele>790.5</ele>
      </trkpt>
      <trkpt lat="44.54249" lon="5.7767">
        <ele>794.2</ele>
      </trkpt>
      <trkpt lat="44.54182" lon="5.7765">
        <ele>791.1</ele>
      </trkpt>
      <trkpt lat="44.5408" lon="5.77553">
        <ele>788.7</ele>
      </trkpt>
      <trkpt lat="44.54029" lon="5.77455">
        <ele>794.2</ele>
      </trkpt>
      <trkpt lat="44.5394" lon="5.77403">
        <ele>790.4</ele>
      </trkpt>
      <trkpt lat="44.53829" lon="5.77355">
        <ele>783.5</ele>
      </trkpt>
      <trkpt lat="44.53647" lon="5.77208">
        <ele>779.8</ele>
      </trkpt>
      <trkpt lat="44.53623" lon="5.77179">
        <ele>779.2</ele>
      </trkpt>
      <trkpt lat="44.53569" lon="5.77125">
        <ele>779</ele>
      </trkpt>
      <trkpt lat="44.53503" lon="5.77001">
        <ele>777.1</ele>
      </trkpt>
      <trkpt lat="44.53433" lon="5.76925">
        <ele>774.6</ele>
      </trkpt>
      <trkpt lat="44.53383" lon="5.76799">
        <ele>775.8</ele>
      </trkpt>
      <trkpt lat="44.53381" lon="5.76789">
        <ele>776</ele>
      </trkpt>
      <trkpt lat="44.53317" lon="5.76663">
        <ele>778.1</ele>
      </trkpt>
      <trkpt lat="44.53196" lon="5.7653">
        <ele>778.1</ele>
      </trkpt>
      <trkpt lat="44.53123" lon="5.76412">
        <ele>778.2</ele>
      </trkpt>
      <trkpt lat="44.5307" lon="5.76383">
        <ele>774.8</ele>
      </trkpt>
      <trkpt lat="44.53032" lon="5.76306">
        <ele>782.8</ele>
      </trkpt>
      <trkpt lat="44.52949" lon="5.76212">
        <ele>779.4</ele>
      </trkpt>
      <trkpt lat="44.52945" lon="5.76203">
        <ele>778.8</ele>
      </trkpt>
      <trkpt lat="44.52773" lon="5.76079">
        <ele>772.9</ele>
      </trkpt>
      <trkpt lat="44.52671" lon="5.76023">
        <ele>768.6</ele>
      </trkpt>
      <trkpt lat="44.52598" lon="5.7598">
        <ele>768.3</ele>
      </trkpt>
      <trkpt lat="44.52495" lon="5.75889">
        <ele>769</ele>
      </trkpt>
      <trkpt lat="44.52413" lon="5.75796">
        <ele>765.8</ele>
      </trkpt>
      <trkpt lat="44.52397" lon="5.75808">
        <ele>762.7</ele>
      </trkpt>
      <trkpt lat="44.52367" lon="5.75759">
        <ele>762.5</ele>
      </trkpt>
      <trkpt lat="44.52345" lon="5.75808">
        <ele>760.4</ele>
      </trkpt>
      <trkpt lat="44.52352" lon="5.75884">
        <ele>759.8</ele>
      </trkpt>
      <trkpt lat="44.52437" lon="5.76162">
        <ele>760</ele>
      </trkpt>
      <trkpt lat="44.52442" lon="5.76364">
        <ele>761.1</ele>
      </trkpt>
      <trkpt lat="44.52467" lon="5.76447">
        <ele>762</ele>
      </trkpt>
      <trkpt lat="44.52584" lon="5.7665">
        <ele>764</ele>
      </trkpt>
      <trkpt lat="44.5267" lon="5.76702">
        <ele>765.1</ele>
      </trkpt>
      <trkpt lat="44.52893" lon="5.76992">
        <ele>767.9</ele>
      </trkpt>
      <trkpt lat="44.5285" lon="5.77084">
        <ele>769.5</ele>
      </trkpt>
      <trkpt lat="44.52836" lon="5.77165">
        <ele>774.8</ele>
      </trkpt>
      <trkpt lat="44.52767" lon="5.77274">
        <ele>782.4</ele>
      </trkpt>
      <trkpt lat="44.52746" lon="5.77301">
        <ele>788.2</ele>
      </trkpt>
      <trkpt lat="44.52739" lon="5.77316">
        <ele>789.9</ele>
      </trkpt>
      <trkpt lat="44.5267" lon="5.77287">
        <ele>787.9</ele>
      </trkpt>
      <trkpt lat="44.52571" lon="5.77228">
        <ele>793.8</ele>
      </trkpt>
      <trkpt lat="44.52569" lon="5.77218">
        <ele>793.2</ele>
      </trkpt>
      <trkpt lat="44.52465" lon="5.773">
        <ele>809.8</ele>
      </trkpt>
      <trkpt lat="44.52462" lon="5.77309">
        <ele>811.1</ele>
      </trkpt>
      <trkpt lat="44.52506" lon="5.77437">
        <ele>817.9</ele>
      </trkpt>
      <trkpt lat="44.52413" lon="5.77435">
        <ele>828.7</ele>
      </trkpt>
      <trkpt lat="44.52397" lon="5.77601">
        <ele>841.2</ele>
      </trkpt>
      <trkpt lat="44.52429" lon="5.77791">
        <ele>855</ele>
      </trkpt>
      <trkpt lat="44.52412" lon="5.77995">
        <ele>889.1</ele>
      </trkpt>
      <trkpt lat="44.52498" lon="5.78116">
        <ele>885.7</ele>
      </trkpt>
      <trkpt lat="44.52498" lon="5.78116">
        <ele>885.7</ele>
      </trkpt>
      <trkpt lat="44.526" lon="5.78387">
        <ele>894.4</ele>
      </trkpt>
      <trkpt lat="44.52874" lon="5.78548">
        <ele>901.5</ele>
      </trkpt>
      <trkpt lat="44.52911" lon="5.78655">
        <ele>902.3</ele>
      </trkpt>
      <trkpt lat="44.52829" lon="5.78807">
        <ele>907.1</ele>
      </trkpt>
      <trkpt lat="44.52827" lon="5.78813">
        <ele>907.2</ele>
      </trkpt>
      <trkpt lat="44.52816" lon="5.78866">
        <ele>903.8</ele>
      </trkpt>
      <trkpt lat="44.52785" lon="5.7916">
        <ele>894.9</ele>
      </trkpt>
      <trkpt lat="44.52784" lon="5.79172">
        <ele>895</ele>
      </trkpt>
      <trkpt lat="44.52875" lon="5.79351">
        <ele>896.1</ele>
      </trkpt>
      <trkpt lat="44.52936" lon="5.79484">
        <ele>898.1</ele>
      </trkpt>
      <trkpt lat="44.52688" lon="5.79358">
        <ele>908.3</ele>
      </trkpt>
      <trkpt lat="44.5268" lon="5.79351">
        <ele>908.7</ele>
      </trkpt>
      <trkpt lat="44.52673" lon="5.79348">
        <ele>909.3</ele>
      </trkpt>
      <trkpt lat="44.52585" lon="5.79147">
        <ele>939</ele>
      </trkpt>
      <trkpt lat="44.52596" lon="5.79003">
        <ele>961.2</ele>
      </trkpt>
      <trkpt lat="44.52492" lon="5.78808">
        <ele>966.4</ele>
      </trkpt>
      <trkpt lat="44.52374" lon="5.78619">
        <ele>964.3</ele>
      </trkpt>
      <trkpt lat="44.52367" lon="5.78615">
        <ele>964.1</ele>
      </trkpt>
      <trkpt lat="44.52271" lon="5.78313">
        <ele>960.7</ele>
      </trkpt>
      <trkpt lat="44.52139" lon="5.78211">
        <ele>963.6</ele>
      </trkpt>
      <trkpt lat="44.52139" lon="5.78211">
        <ele>963.6</ele>
      </trkpt>
      <trkpt lat="44.52074" lon="5.77914">
        <ele>959</ele>
      </trkpt>
      <trkpt lat="44.51861" lon="5.77382">
        <ele>953</ele>
      </trkpt>
      <trkpt lat="44.51621" lon="5.7694">
        <ele>941.8</ele>
      </trkpt>
      <trkpt lat="44.51485" lon="5.76749">
        <ele>931</ele>
      </trkpt>
      <trkpt lat="44.51486" lon="5.76507">
        <ele>907.8</ele>
      </trkpt>
      <trkpt lat="44.51347" lon="5.76344">
        <ele>877.5</ele>
      </trkpt>
      <trkpt lat="44.50942" lon="5.76405">
        <ele>833.8</ele>
      </trkpt>
      <trkpt lat="44.50788" lon="5.76373">
        <ele>823.2</ele>
      </trkpt>
      <trkpt lat="44.50677" lon="5.76332">
        <ele>819.2</ele>
      </trkpt>
      <trkpt lat="44.50522" lon="5.76184">
        <ele>821.6</ele>
      </trkpt>
      <trkpt lat="44.50345" lon="5.76088">
        <ele>818.6</ele>
      </trkpt>
      <trkpt lat="44.5027" lon="5.75967">
        <ele>829.1</ele>
      </trkpt>
      <trkpt lat="44.50263" lon="5.75398">
        <ele>875</ele>
      </trkpt>
      <trkpt lat="44.50266" lon="5.75399">
        <ele>883</ele>
        <time>2010-03-19T21:01:32Z</time>
      </trkpt>
      <trkpt lat="44.50227" lon="5.75433">
        <ele>886</ele>
        <time>2010-03-19T21:01:18Z</time>
      </trkpt>
      <trkpt lat="44.50194" lon="5.75462">
        <ele>889</ele>
        <time>2010-03-19T21:01:04Z</time>
      </trkpt>
      <trkpt lat="44.5018" lon="5.75492">
        <ele>891</ele>
        <time>2010-03-19T21:00:50Z</time>
      </trkpt>
      <trkpt lat="44.50163" lon="5.7553">
        <ele>892</ele>
        <time>2010-03-19T21:00:36Z</time>
      </trkpt>
      <trkpt lat="44.50141" lon="5.75577">
        <ele>896</ele>
        <time>2010-03-19T21:00:22Z</time>
      </trkpt>
      <trkpt lat="44.50121" lon="5.75619">
        <ele>897</ele>
        <time>2010-03-19T21:00:08Z</time>
      </trkpt>
      <trkpt lat="44.50101" lon="5.75668">
        <ele>899</ele>
        <time>2010-03-19T20:59:54Z</time>
      </trkpt>
      <trkpt lat="44.50072" lon="5.75711">
        <ele>900</ele>
        <time>2010-03-19T20:59:40Z</time>
      </trkpt>
      <trkpt lat="44.50031" lon="5.75736">
        <ele>898</ele>
        <time>2010-03-19T20:59:26Z</time>
      </trkpt>
      <trkpt lat="44.49997" lon="5.75756">
        <ele>898</ele>
        <time>2010-03-19T20:59:12Z</time>
      </trkpt>
      <trkpt lat="44.49956" lon="5.75782">
        <ele>898</ele>
        <time>2010-03-19T20:58:58Z</time>
      </trkpt>
      <trkpt lat="44.49924" lon="5.75806">
        <ele>898</ele>
        <time>2010-03-19T20:58:44Z</time>
      </trkpt>
      <trkpt lat="44.49887" lon="5.75831">
        <ele>897</ele>
        <time>2010-03-19T20:58:30Z</time>
      </trkpt>
      <trkpt lat="44.49826" lon="5.75838">
        <ele>895</ele>
        <time>2010-03-19T20:58:16Z</time>
      </trkpt>
      <trkpt lat="44.49767" lon="5.7586">
        <ele>892</ele>
        <time>2010-03-19T20:58:02Z</time>
      </trkpt>
      <trkpt lat="44.49715" lon="5.75859">
        <ele>887</ele>
        <time>2010-03-19T20:57:48Z</time>
      </trkpt>
      <trkpt lat="44.4967" lon="5.75839">
        <ele>883</ele>
        <time>2010-03-19T20:57:34Z</time>
      </trkpt>
      <trkpt lat="44.49644" lon="5.75835">
        <ele>880</ele>
        <time>2010-03-19T20:57:20Z</time>
      </trkpt>
      <trkpt lat="44.49624" lon="5.75839">
        <ele>880</ele>
        <time>2010-03-19T20:57:06Z</time>
      </trkpt>
      <trkpt lat="44.49607" lon="5.75844">
        <ele>879</ele>
        <time>2010-03-19T20:56:52Z</time>
      </trkpt>
      <trkpt lat="44.49589" lon="5.75849">
        <ele>878</ele>
        <time>2010-03-19T20:56:38Z</time>
      </trkpt>
      <trkpt lat="44.49574" lon="5.75851">
        <ele>877</ele>
        <time>2010-03-19T20:56:24Z</time>
      </trkpt>
      <trkpt lat="44.49557" lon="5.75851">
        <ele>875</ele>
        <time>2010-03-19T20:56:10Z</time>
      </trkpt>
      <trkpt lat="44.49539" lon="5.75845">
        <ele>874</ele>
        <time>2010-03-19T20:55:56Z</time>
      </trkpt>
      <trkpt lat="44.49522" lon="5.75837">
        <ele>872</ele>
        <time>2010-03-19T20:55:42Z</time>
      </trkpt>
      <trkpt lat="44.49503" lon="5.75832">
        <ele>870</ele>
        <time>2010-03-19T20:55:28Z</time>
      </trkpt>
      <trkpt lat="44.49483" lon="5.75833">
        <ele>871</ele>
        <time>2010-03-19T20:55:14Z</time>
      </trkpt>
      <trkpt lat="44.49462" lon="5.75833">
        <ele>870</ele>
        <time>2010-03-19T20:55:00Z</time>
      </trkpt>
      <trkpt lat="44.49443" lon="5.75832">
        <ele>870</ele>
        <time>2010-03-19T20:54:46Z</time>
      </trkpt>
      <trkpt lat="44.49418" lon="5.75827">
        <ele>869</ele>
        <time>2010-03-19T20:54:32Z</time>
      </trkpt>
      <trkpt lat="44.49336" lon="5.75781">
        <ele>860</ele>
        <time>2010-03-19T20:54:18Z</time>
      </trkpt>
      <trkpt lat="44.4923" lon="5.75732">
        <ele>852</ele>
        <time>2010-03-19T20:54:04Z</time>
      </trkpt>
      <trkpt lat="44.4912" lon="5.75691">
        <ele>845</ele>
        <time>2010-03-19T20:53:50Z</time>
      </trkpt>
      <trkpt lat="44.49021" lon="5.7566">
        <ele>837</ele>
        <time>2010-03-19T20:53:36Z</time>
      </trkpt>
      <trkpt lat="44.48938" lon="5.75648">
        <ele>837</ele>
        <time>2010-03-19T20:53:22Z</time>
      </trkpt>
      <trkpt lat="44.48895" lon="5.75647">
        <ele>835</ele>
        <time>2010-03-19T20:53:08Z</time>
      </trkpt>
      <trkpt lat="44.48867" lon="5.75646">
        <ele>833</ele>
        <time>2010-03-19T20:52:54Z</time>
      </trkpt>
      <trkpt lat="44.48848" lon="5.75644">
        <ele>831</ele>
        <time>2010-03-19T20:52:40Z</time>
      </trkpt>
      <trkpt lat="44.48831" lon="5.75647">
        <ele>830</ele>
        <time>2010-03-19T20:52:26Z</time>
      </trkpt>
      <trkpt lat="44.48811" lon="5.75645">
        <ele>828</ele>
        <time>2010-03-19T20:52:12Z</time>
      </trkpt>
      <trkpt lat="44.48795" lon="5.75647">
        <ele>825</ele>
        <time>2010-03-19T20:51:58Z</time>
      </trkpt>
      <trkpt lat="44.48775" lon="5.75648">
        <ele>823</ele>
        <time>2010-03-19T20:51:44Z</time>
      </trkpt>
      <trkpt lat="44.48759" lon="5.75645">
        <ele>820</ele>
        <time>2010-03-19T20:51:30Z</time>
      </trkpt>
      <trkpt lat="44.48739" lon="5.75643">
        <ele>818</ele>
        <time>2010-03-19T20:51:16Z</time>
      </trkpt>
      <trkpt lat="44.48723" lon="5.75646">
        <ele>815</ele>
        <time>2010-03-19T20:51:02Z</time>
      </trkpt>
      <trkpt lat="44.48702" lon="5.75646">
        <ele>812</ele>
        <time>2010-03-19T20:50:48Z</time>
      </trkpt>
      <trkpt lat="44.48687" lon="5.75649">
        <ele>811</ele>
        <time>2010-03-19T20:50:34Z</time>
      </trkpt>
      <trkpt lat="44.4867" lon="5.75655">
        <ele>807</ele>
        <time>2010-03-19T20:50:20Z</time>
      </trkpt>
      <trkpt lat="44.48654" lon="5.75654">
        <ele>804</ele>
        <time>2010-03-19T20:50:06Z</time>
      </trkpt>
      <trkpt lat="44.48637" lon="5.7566">
        <ele>801</ele>
        <time>2010-03-19T20:49:52Z</time>
      </trkpt>
      <trkpt lat="44.48622" lon="5.75658">
        <ele>798</ele>
        <time>2010-03-19T20:49:38Z</time>
      </trkpt>
      <trkpt lat="44.48603" lon="5.75657">
        <ele>796</ele>
        <time>2010-03-19T20:49:24Z</time>
      </trkpt>
      <trkpt lat="44.48587" lon="5.75659">
        <ele>794</ele>
        <time>2010-03-19T20:49:10Z</time>
      </trkpt>
      <trkpt lat="44.4857" lon="5.7566">
        <ele>792</ele>
        <time>2010-03-19T20:48:56Z</time>
      </trkpt>
      <trkpt lat="44.48555" lon="5.75658">
        <ele>791</ele>
        <time>2010-03-19T20:48:42Z</time>
      </trkpt>
      <trkpt lat="44.4854" lon="5.75661">
        <ele>789</ele>
        <time>2010-03-19T20:48:28Z</time>
      </trkpt>
      <trkpt lat="44.48523" lon="5.75658">
        <ele>787</ele>
        <time>2010-03-19T20:48:14Z</time>
      </trkpt>
      <trkpt lat="44.48508" lon="5.75664">
        <ele>785</ele>
        <time>2010-03-19T20:48:00Z</time>
      </trkpt>
      <trkpt lat="44.48493" lon="5.75665">
        <ele>783</ele>
        <time>2010-03-19T20:47:46Z</time>
      </trkpt>
      <trkpt lat="44.48477" lon="5.75665">
        <ele>781</ele>
        <time>2010-03-19T20:47:32Z</time>
      </trkpt>
      <trkpt lat="44.48461" lon="5.75663">
        <ele>779</ele>
        <time>2010-03-19T20:47:18Z</time>
      </trkpt>
      <trkpt lat="44.48446" lon="5.75666">
        <ele>776</ele>
        <time>2010-03-19T20:47:04Z</time>
      </trkpt>
      <trkpt lat="44.48433" lon="5.75672">
        <ele>773</ele>
        <time>2010-03-19T20:46:50Z</time>
      </trkpt>
      <trkpt lat="44.48428" lon="5.75661">
        <ele>772</ele>
        <time>2010-03-19T20:46:36Z</time>
      </trkpt>
      <trkpt lat="44.48428" lon="5.7566">
        <ele>770</ele>
        <time>2010-03-19T20:46:22Z</time>
      </trkpt>
      <trkpt lat="44.48428" lon="5.7566">
        <ele>771</ele>
        <time>2010-03-19T20:46:08Z</time>
      </trkpt>
      <trkpt lat="44.48428" lon="5.7566">
        <ele>771</ele>
        <time>2010-03-19T20:45:54Z</time>
      </trkpt>
      <trkpt lat="44.48425" lon="5.75661">
        <ele>771</ele>
        <time>2010-03-19T20:45:40Z</time>
      </trkpt>
      <trkpt lat="44.48426" lon="5.75661">
        <ele>768</ele>
        <time>2010-03-19T20:45:26Z</time>
      </trkpt>
      <trkpt lat="44.48421" lon="5.75663">
        <ele>771</ele>
        <time>2010-03-19T20:45:12Z</time>
      </trkpt>
      <trkpt lat="44.48421" lon="5.75664">
        <ele>770</ele>
        <time>2010-03-19T20:44:58Z</time>
      </trkpt>
      <trkpt lat="44.4842" lon="5.75675">
        <ele>770</ele>
        <time>2010-03-19T20:44:44Z</time>
      </trkpt>
      <trkpt lat="44.48434" lon="5.75671">
        <ele>773</ele>
        <time>2010-03-19T20:44:30Z</time>
      </trkpt>
      <trkpt lat="44.48436" lon="5.75667">
        <ele>772</ele>
        <time>2010-03-19T20:44:16Z</time>
      </trkpt>
      <trkpt lat="44.48431" lon="5.7567">
        <ele>771</ele>
        <time>2010-03-19T20:44:02Z</time>
      </trkpt>
      <trkpt lat="44.48423" lon="5.75661">
        <ele>767</ele>
        <time>2010-03-19T20:43:48Z</time>
      </trkpt>
      <trkpt lat="44.48422" lon="5.75661">
        <ele>769</ele>
        <time>2010-03-19T20:43:34Z</time>
      </trkpt>
      <trkpt lat="44.48422" lon="5.75661">
        <ele>769</ele>
        <time>2010-03-19T20:43:20Z</time>
      </trkpt>
      <trkpt lat="44.48422" lon="5.75662">
        <ele>769</ele>
        <time>2010-03-19T20:43:06Z</time>
      </trkpt>
      <trkpt lat="44.48423" lon="5.75662">
        <ele>769</ele>
        <time>2010-03-19T20:42:52Z</time>
      </trkpt>
      <trkpt lat="44.48422" lon="5.75662">
        <ele>769</ele>
        <time>2010-03-19T20:42:38Z</time>
      </trkpt>
      <trkpt lat="44.48424" lon="5.75662">
        <ele>769</ele>
        <time>2010-03-19T20:42:24Z</time>
      </trkpt>
      <trkpt lat="44.48427" lon="5.7566">
        <ele>768</ele>
        <time>2010-03-19T20:42:10Z</time>
      </trkpt>
      <trkpt lat="44.4843" lon="5.75658">
        <ele>768</ele>
        <time>2010-03-19T20:41:56Z</time>
      </trkpt>
      <trkpt lat="44.48444" lon="5.75618">
        <ele>766</ele>
        <time>2010-03-19T20:41:42Z</time>
      </trkpt>
      <trkpt lat="44.48452" lon="5.75573">
        <ele>761</ele>
        <time>2010-03-19T20:41:28Z</time>
      </trkpt>
      <trkpt lat="44.48452" lon="5.75538">
        <ele>758</ele>
        <time>2010-03-19T20:41:14Z</time>
      </trkpt>
      <trkpt lat="44.48437" lon="5.75516">
        <ele>756</ele>
        <time>2010-03-19T20:41:00Z</time>
      </trkpt>
      <trkpt lat="44.48421" lon="5.75503">
        <ele>754</ele>
        <time>2010-03-19T20:40:46Z</time>
      </trkpt>
      <trkpt lat="44.48405" lon="5.75491">
        <ele>751</ele>
        <time>2010-03-19T20:40:32Z</time>
      </trkpt>
      <trkpt lat="44.4839" lon="5.75476">
        <ele>750</ele>
        <time>2010-03-19T20:40:18Z</time>
      </trkpt>
      <trkpt lat="44.48375" lon="5.75462">
        <ele>752</ele>
        <time>2010-03-19T20:40:04Z</time>
      </trkpt>
      <trkpt lat="44.48358" lon="5.75446">
        <ele>749</ele>
        <time>2010-03-19T20:39:50Z</time>
      </trkpt>
      <trkpt lat="44.48346" lon="5.75463">
        <ele>749</ele>
        <time>2010-03-19T20:39:36Z</time>
      </trkpt>
      <trkpt lat="44.48335" lon="5.75487">
        <ele>749</ele>
        <time>2010-03-19T20:39:22Z</time>
      </trkpt>
      <trkpt lat="44.48321" lon="5.75505">
        <ele>749</ele>
        <time>2010-03-19T20:39:08Z</time>
      </trkpt>
      <trkpt lat="44.483" lon="5.7552">
        <ele>749</ele>
        <time>2010-03-19T20:38:54Z</time>
      </trkpt>
      <trkpt lat="44.48278" lon="5.75533">
        <ele>750</ele>
        <time>2010-03-19T20:38:40Z</time>
      </trkpt>
      <trkpt lat="44.48261" lon="5.75544">
        <ele>749</ele>
        <time>2010-03-19T20:38:26Z</time>
      </trkpt>
      <trkpt lat="44.48243" lon="5.75553">
        <ele>748</ele>
        <time>2010-03-19T20:38:12Z</time>
      </trkpt>
      <trkpt lat="44.48226" lon="5.75564">
        <ele>747</ele>
        <time>2010-03-19T20:37:58Z</time>
      </trkpt>
      <trkpt lat="44.48208" lon="5.75575">
        <ele>746</ele>
        <time>2010-03-19T20:37:44Z</time>
      </trkpt>
      <trkpt lat="44.4819" lon="5.75586">
        <ele>745</ele>
        <time>2010-03-19T20:37:30Z</time>
      </trkpt>
      <trkpt lat="44.48173" lon="5.756">
        <ele>743</ele>
        <time>2010-03-19T20:37:16Z</time>
      </trkpt>
      <trkpt lat="44.48159" lon="5.75617">
        <ele>741</ele>
        <time>2010-03-19T20:37:02Z</time>
      </trkpt>
      <trkpt lat="44.48148" lon="5.75639">
        <ele>741</ele>
        <time>2010-03-19T20:36:48Z</time>
      </trkpt>
      <trkpt lat="44.4814" lon="5.75663">
        <ele>739</ele>
        <time>2010-03-19T20:36:34Z</time>
      </trkpt>
      <trkpt lat="44.48136" lon="5.75688">
        <ele>739</ele>
        <time>2010-03-19T20:36:20Z</time>
      </trkpt>
      <trkpt lat="44.48135" lon="5.75713">
        <ele>736</ele>
        <time>2010-03-19T20:36:06Z</time>
      </trkpt>
      <trkpt lat="44.48135" lon="5.75739">
        <ele>735</ele>
        <time>2010-03-19T20:35:52Z</time>
      </trkpt>
      <trkpt lat="44.48135" lon="5.75765">
        <ele>735</ele>
        <time>2010-03-19T20:35:38Z</time>
      </trkpt>
      <trkpt lat="44.48135" lon="5.75792">
        <ele>734</ele>
        <time>2010-03-19T20:35:24Z</time>
      </trkpt>
      <trkpt lat="44.48134" lon="5.75819">
        <ele>733</ele>
        <time>2010-03-19T20:35:10Z</time>
      </trkpt>
      <trkpt lat="44.48133" lon="5.75845">
        <ele>731</ele>
        <time>2010-03-19T20:34:56Z</time>
      </trkpt>
      <trkpt lat="44.48134" lon="5.75872">
        <ele>729</ele>
        <time>2010-03-19T20:34:42Z</time>
      </trkpt>
      <trkpt lat="44.48134" lon="5.75899">
        <ele>728</ele>
        <time>2010-03-19T20:34:28Z</time>
      </trkpt>
      <trkpt lat="44.48135" lon="5.75925">
        <ele>727</ele>
        <time>2010-03-19T20:34:14Z</time>
      </trkpt>
      <trkpt lat="44.48141" lon="5.75952">
        <ele>724</ele>
        <time>2010-03-19T20:34:00Z</time>
      </trkpt>
      <trkpt lat="44.48154" lon="5.75973">
        <ele>724</ele>
        <time>2010-03-19T20:33:46Z</time>
      </trkpt>
      <trkpt lat="44.48168" lon="5.75987">
        <ele>723</ele>
        <time>2010-03-19T20:33:32Z</time>
      </trkpt>
      <trkpt lat="44.48182" lon="5.75994">
        <ele>721</ele>
        <time>2010-03-19T20:33:18Z</time>
      </trkpt>
      <trkpt lat="44.48184" lon="5.75995">
        <ele>721</ele>
        <time>2010-03-19T20:33:04Z</time>
      </trkpt>
      <trkpt lat="44.48198" lon="5.76009">
        <ele>721</ele>
        <time>2010-03-19T20:32:50Z</time>
      </trkpt>
      <trkpt lat="44.48202" lon="5.76033">
        <ele>719</ele>
        <time>2010-03-19T20:32:36Z</time>
      </trkpt>
      <trkpt lat="44.48193" lon="5.76057">
        <ele>719</ele>
        <time>2010-03-19T20:32:22Z</time>
      </trkpt>
      <trkpt lat="44.48186" lon="5.76082">
        <ele>718</ele>
        <time>2010-03-19T20:32:08Z</time>
      </trkpt>
      <trkpt lat="44.48186" lon="5.76109">
        <ele>716</ele>
        <time>2010-03-19T20:31:54Z</time>
      </trkpt>
      <trkpt lat="44.48187" lon="5.76137">
        <ele>716</ele>
        <time>2010-03-19T20:31:40Z</time>
      </trkpt>
      <trkpt lat="44.48188" lon="5.76163">
        <ele>715</ele>
        <time>2010-03-19T20:31:26Z</time>
      </trkpt>
      <trkpt lat="44.48188" lon="5.76192">
        <ele>715</ele>
        <time>2010-03-19T20:31:12Z</time>
      </trkpt>
      <trkpt lat="44.48189" lon="5.76219">
        <ele>713</ele>
        <time>2010-03-19T20:30:58Z</time>
      </trkpt>
      <trkpt lat="44.48191" lon="5.76246">
        <ele>714</ele>
        <time>2010-03-19T20:30:44Z</time>
      </trkpt>
      <trkpt lat="44.48188" lon="5.76274">
        <ele>712</ele>
        <time>2010-03-19T20:30:30Z</time>
      </trkpt>
      <trkpt lat="44.48171" lon="5.76258">
        <ele>713</ele>
        <time>2010-03-19T20:30:16Z</time>
      </trkpt>
      <trkpt lat="44.48153" lon="5.76253">
        <ele>712</ele>
        <time>2010-03-19T20:30:02Z</time>
      </trkpt>
      <trkpt lat="44.48132" lon="5.76241">
        <ele>712</ele>
        <time>2010-03-19T20:29:48Z</time>
      </trkpt>
      <trkpt lat="44.48104" lon="5.7622">
        <ele>711</ele>
        <time>2010-03-19T20:29:34Z</time>
      </trkpt>
      <trkpt lat="44.48073" lon="5.76197">
        <ele>711</ele>
        <time>2010-03-19T20:29:20Z</time>
      </trkpt>
      <trkpt lat="44.48045" lon="5.76174">
        <ele>711</ele>
        <time>2010-03-19T20:29:06Z</time>
      </trkpt>
      <trkpt lat="44.48028" lon="5.76163">
        <ele>710</ele>
        <time>2010-03-19T20:28:52Z</time>
      </trkpt>
      <trkpt lat="44.47999" lon="5.76139">
        <ele>711</ele>
        <time>2010-03-19T20:28:38Z</time>
      </trkpt>
      <trkpt lat="44.47969" lon="5.76113">
        <ele>714</ele>
        <time>2010-03-19T20:28:24Z</time>
      </trkpt>
      <trkpt lat="44.47948" lon="5.76089">
        <ele>714</ele>
        <time>2010-03-19T20:28:10Z</time>
      </trkpt>
      <trkpt lat="44.47926" lon="5.76052">
        <ele>715</ele>
        <time>2010-03-19T20:27:56Z</time>
      </trkpt>
      <trkpt lat="44.47909" lon="5.76046">
        <ele>715</ele>
        <time>2010-03-19T20:27:42Z</time>
      </trkpt>
      <trkpt lat="44.4789" lon="5.76051">
        <ele>714</ele>
        <time>2010-03-19T20:27:28Z</time>
      </trkpt>
      <trkpt lat="44.47878" lon="5.76046">
        <ele>713</ele>
        <time>2010-03-19T20:27:14Z</time>
      </trkpt>
      <trkpt lat="44.47862" lon="5.76034">
        <ele>711</ele>
        <time>2010-03-19T20:27:00Z</time>
      </trkpt>
      <trkpt lat="44.47854" lon="5.76028">
        <ele>709</ele>
        <time>2010-03-19T20:26:46Z</time>
      </trkpt>
      <trkpt lat="44.47842" lon="5.76019">
        <ele>709</ele>
        <time>2010-03-19T20:26:32Z</time>
      </trkpt>
      <trkpt lat="44.47825" lon="5.76004">
        <ele>707</ele>
        <time>2010-03-19T20:26:18Z</time>
      </trkpt>
      <trkpt lat="44.47807" lon="5.7599">
        <ele>707</ele>
        <time>2010-03-19T20:26:04Z</time>
      </trkpt>
      <trkpt lat="44.47791" lon="5.75979">
        <ele>705</ele>
        <time>2010-03-19T20:25:50Z</time>
      </trkpt>
      <trkpt lat="44.47775" lon="5.7597">
        <ele>706</ele>
        <time>2010-03-19T20:25:36Z</time>
      </trkpt>
      <trkpt lat="44.47757" lon="5.7596">
        <ele>706</ele>
        <time>2010-03-19T20:25:22Z</time>
      </trkpt>
      <trkpt lat="44.47739" lon="5.75946">
        <ele>705</ele>
        <time>2010-03-19T20:25:08Z</time>
      </trkpt>
      <trkpt lat="44.47721" lon="5.75933">
        <ele>704</ele>
        <time>2010-03-19T20:24:54Z</time>
      </trkpt>
      <trkpt lat="44.47703" lon="5.75931">
        <ele>703</ele>
        <time>2010-03-19T20:24:40Z</time>
      </trkpt>
      <trkpt lat="44.47684" lon="5.75932">
        <ele>701</ele>
        <time>2010-03-19T20:24:26Z</time>
      </trkpt>
      <trkpt lat="44.47664" lon="5.75931">
        <ele>701</ele>
        <time>2010-03-19T20:24:12Z</time>
      </trkpt>
      <trkpt lat="44.47644" lon="5.75927">
        <ele>700</ele>
        <time>2010-03-19T20:23:58Z</time>
      </trkpt>
      <trkpt lat="44.47626" lon="5.75922">
        <ele>700</ele>
        <time>2010-03-19T20:23:44Z</time>
      </trkpt>
      <trkpt lat="44.47607" lon="5.7592">
        <ele>699</ele>
        <time>2010-03-19T20:23:30Z</time>
      </trkpt>
      <trkpt lat="44.47588" lon="5.75916">
        <ele>699</ele>
        <time>2010-03-19T20:23:16Z</time>
      </trkpt>
      <trkpt lat="44.47569" lon="5.75913">
        <ele>699</ele>
        <time>2010-03-19T20:23:02Z</time>
      </trkpt>
      <trkpt lat="44.4755" lon="5.7591">
        <ele>699</ele>
        <time>2010-03-19T20:22:48Z</time>
      </trkpt>
      <trkpt lat="44.47531" lon="5.75905">
        <ele>698</ele>
        <time>2010-03-19T20:22:34Z</time>
      </trkpt>
      <trkpt lat="44.47512" lon="5.75901">
        <ele>697</ele>
        <time>2010-03-19T20:22:20Z</time>
      </trkpt>
      <trkpt lat="44.47493" lon="5.75898">
        <ele>697</ele>
        <time>2010-03-19T20:22:06Z</time>
      </trkpt>
      <trkpt lat="44.47474" lon="5.75899">
        <ele>698</ele>
        <time>2010-03-19T20:21:52Z</time>
      </trkpt>
      <trkpt lat="44.47458" lon="5.75902">
        <ele>695</ele>
        <time>2010-03-19T20:21:38Z</time>
      </trkpt>
      <trkpt lat="44.47457" lon="5.75901">
        <ele>695</ele>
        <time>2010-03-19T20:21:24Z</time>
      </trkpt>
      <trkpt lat="44.47457" lon="5.75905">
        <ele>693</ele>
        <time>2010-03-19T20:21:10Z</time>
      </trkpt>
      <trkpt lat="44.47455" lon="5.7591">
        <ele>694</ele>
        <time>2010-03-19T20:20:56Z</time>
      </trkpt>
      <trkpt lat="44.47455" lon="5.75911">
        <ele>693</ele>
        <time>2010-03-19T20:20:42Z</time>
      </trkpt>
      <trkpt lat="44.47455" lon="5.75911">
        <ele>692</ele>
        <time>2010-03-19T20:20:28Z</time>
      </trkpt>
      <trkpt lat="44.47455" lon="5.75911">
        <ele>693</ele>
        <time>2010-03-19T20:20:14Z</time>
      </trkpt>
      <trkpt lat="44.47455" lon="5.75911">
        <ele>692</ele>
        <time>2010-03-19T20:20:00Z</time>
      </trkpt>
      <trkpt lat="44.47455" lon="5.75911">
        <ele>692</ele>
        <time>2010-03-19T20:19:46Z</time>
      </trkpt>
      <trkpt lat="44.47455" lon="5.75911">
        <ele>691</ele>
        <time>2010-03-19T20:19:32Z</time>
      </trkpt>
      <trkpt lat="44.47455" lon="5.7591">
        <ele>691</ele>
        <time>2010-03-19T20:19:18Z</time>
      </trkpt>
      <trkpt lat="44.47456" lon="5.7591">
        <ele>691</ele>
        <time>2010-03-19T20:19:04Z</time>
      </trkpt>
      <trkpt lat="44.47455" lon="5.75911">
        <ele>690</ele>
        <time>2010-03-19T20:18:50Z</time>
      </trkpt>
      <trkpt lat="44.47455" lon="5.75911">
        <ele>691</ele>
        <time>2010-03-19T20:18:36Z</time>
      </trkpt>
      <trkpt lat="44.47455" lon="5.75911">
        <ele>690</ele>
        <time>2010-03-19T20:18:22Z</time>
      </trkpt>
      <trkpt lat="44.47455" lon="5.7591">
        <ele>690</ele>
        <time>2010-03-19T20:18:08Z</time>
      </trkpt>
      <trkpt lat="44.47458" lon="5.7591">
        <ele>690</ele>
        <time>2010-03-19T20:17:54Z</time>
      </trkpt>
      <trkpt lat="44.47457" lon="5.75909">
        <ele>689</ele>
        <time>2010-03-19T20:17:40Z</time>
      </trkpt>
      <trkpt lat="44.47461" lon="5.75909">
        <ele>689</ele>
        <time>2010-03-19T20:17:26Z</time>
      </trkpt>
      <trkpt lat="44.47459" lon="5.75907">
        <ele>689</ele>
        <time>2010-03-19T20:17:12Z</time>
      </trkpt>
      <trkpt lat="44.47458" lon="5.75908">
        <ele>689</ele>
        <time>2010-03-19T20:16:58Z</time>
      </trkpt>
      <trkpt lat="44.47458" lon="5.75907">
        <ele>688</ele>
        <time>2010-03-19T20:16:44Z</time>
      </trkpt>
      <trkpt lat="44.47448" lon="5.75893">
        <ele>689</ele>
        <time>2010-03-19T20:16:30Z</time>
      </trkpt>
      <trkpt lat="44.4743" lon="5.75887">
        <ele>688</ele>
        <time>2010-03-19T20:16:16Z</time>
      </trkpt>
      <trkpt lat="44.47411" lon="5.75884">
        <ele>687</ele>
        <time>2010-03-19T20:16:02Z</time>
      </trkpt>
      <trkpt lat="44.47392" lon="5.75881">
        <ele>687</ele>
        <time>2010-03-19T20:15:48Z</time>
      </trkpt>
      <trkpt lat="44.47374" lon="5.75877">
        <ele>685</ele>
        <time>2010-03-19T20:15:34Z</time>
      </trkpt>
      <trkpt lat="44.47356" lon="5.75871">
        <ele>683</ele>
        <time>2010-03-19T20:15:20Z</time>
      </trkpt>
      <trkpt lat="44.47338" lon="5.75867">
        <ele>683</ele>
        <time>2010-03-19T20:15:06Z</time>
      </trkpt>
      <trkpt lat="44.47319" lon="5.7586">
        <ele>682</ele>
        <time>2010-03-19T20:14:52Z</time>
      </trkpt>
      <trkpt lat="44.473" lon="5.75854">
        <ele>682</ele>
        <time>2010-03-19T20:14:38Z</time>
      </trkpt>
      <trkpt lat="44.47282" lon="5.75845">
        <ele>681</ele>
        <time>2010-03-19T20:14:24Z</time>
      </trkpt>
      <trkpt lat="44.47263" lon="5.75835">
        <ele>681</ele>
        <time>2010-03-19T20:14:10Z</time>
      </trkpt>
      <trkpt lat="44.47244" lon="5.75823">
        <ele>681</ele>
        <time>2010-03-19T20:13:56Z</time>
      </trkpt>
      <trkpt lat="44.47227" lon="5.75813">
        <ele>680</ele>
        <time>2010-03-19T20:13:42Z</time>
      </trkpt>
      <trkpt lat="44.47207" lon="5.75809">
        <ele>680</ele>
        <time>2010-03-19T20:13:28Z</time>
      </trkpt>
      <trkpt lat="44.47183" lon="5.75846">
        <ele>679</ele>
        <time>2010-03-19T20:13:14Z</time>
      </trkpt>
      <trkpt lat="44.47163" lon="5.75888">
        <ele>679</ele>
        <time>2010-03-19T20:13:00Z</time>
      </trkpt>
      <trkpt lat="44.47134" lon="5.75912">
        <ele>678</ele>
        <time>2010-03-19T20:12:46Z</time>
      </trkpt>
      <trkpt lat="44.47102" lon="5.75889">
        <ele>677</ele>
        <time>2010-03-19T20:12:32Z</time>
      </trkpt>
      <trkpt lat="44.47075" lon="5.75854">
        <ele>677</ele>
        <time>2010-03-19T20:12:18Z</time>
      </trkpt>
      <trkpt lat="44.47043" lon="5.75831">
        <ele>676</ele>
        <time>2010-03-19T20:12:04Z</time>
      </trkpt>
      <trkpt lat="44.47007" lon="5.75811">
        <ele>675</ele>
        <time>2010-03-19T20:11:50Z</time>
      </trkpt>
      <trkpt lat="44.46972" lon="5.75794">
        <ele>674</ele>
        <time>2010-03-19T20:11:36Z</time>
      </trkpt>
      <trkpt lat="44.46936" lon="5.75779">
        <ele>674</ele>
        <time>2010-03-19T20:11:22Z</time>
      </trkpt>
      <trkpt lat="44.46901" lon="5.75762">
        <ele>673</ele>
        <time>2010-03-19T20:11:08Z</time>
      </trkpt>
      <trkpt lat="44.46864" lon="5.75743">
        <ele>671</ele>
        <time>2010-03-19T20:10:54Z</time>
      </trkpt>
      <trkpt lat="44.46827" lon="5.75729">
        <ele>672</ele>
        <time>2010-03-19T20:10:40Z</time>
      </trkpt>
      <trkpt lat="44.46794" lon="5.75712">
        <ele>672</ele>
        <time>2010-03-19T20:10:26Z</time>
      </trkpt>
      <trkpt lat="44.46759" lon="5.75691">
        <ele>670</ele>
        <time>2010-03-19T20:10:12Z</time>
      </trkpt>
      <trkpt lat="44.46724" lon="5.75675">
        <ele>669</ele>
        <time>2010-03-19T20:09:58Z</time>
      </trkpt>
      <trkpt lat="44.46688" lon="5.75657">
        <ele>667</ele>
        <time>2010-03-19T20:09:44Z</time>
      </trkpt>
      <trkpt lat="44.46651" lon="5.75636">
        <ele>666</ele>
        <time>2010-03-19T20:09:30Z</time>
      </trkpt>
      <trkpt lat="44.46613" lon="5.75618">
        <ele>667</ele>
        <time>2010-03-19T20:09:16Z</time>
      </trkpt>
      <trkpt lat="44.46579" lon="5.75602">
        <ele>665</ele>
        <time>2010-03-19T20:09:02Z</time>
      </trkpt>
      <trkpt lat="44.46543" lon="5.75589">
        <ele>666</ele>
        <time>2010-03-19T20:08:48Z</time>
      </trkpt>
      <trkpt lat="44.46509" lon="5.75576">
        <ele>666</ele>
        <time>2010-03-19T20:08:34Z</time>
      </trkpt>
      <trkpt lat="44.46483" lon="5.75575">
        <ele>665</ele>
        <time>2010-03-19T20:08:20Z</time>
      </trkpt>
      <trkpt lat="44.46464" lon="5.75579">
        <ele>665</ele>
        <time>2010-03-19T20:08:06Z</time>
      </trkpt>
      <trkpt lat="44.46446" lon="5.7558">
        <ele>667</ele>
        <time>2010-03-19T20:07:52Z</time>
      </trkpt>
      <trkpt lat="44.46431" lon="5.75567">
        <ele>668</ele>
        <time>2010-03-19T20:07:38Z</time>
      </trkpt>
      <trkpt lat="44.46428" lon="5.75544">
        <ele>667</ele>
        <time>2010-03-19T20:07:24Z</time>
      </trkpt>
      <trkpt lat="44.46422" lon="5.75515">
        <ele>665</ele>
        <time>2010-03-19T20:07:10Z</time>
      </trkpt>
      <trkpt lat="44.46404" lon="5.75488">
        <ele>661</ele>
        <time>2010-03-19T20:06:56Z</time>
      </trkpt>
      <trkpt lat="44.4639" lon="5.75474">
        <ele>659</ele>
        <time>2010-03-19T20:06:42Z</time>
      </trkpt>
      <trkpt lat="44.46375" lon="5.75465">
        <ele>658</ele>
        <time>2010-03-19T20:06:28Z</time>
      </trkpt>
      <trkpt lat="44.4636" lon="5.75448">
        <ele>657</ele>
        <time>2010-03-19T20:06:14Z</time>
      </trkpt>
      <trkpt lat="44.46354" lon="5.75422">
        <ele>656</ele>
        <time>2010-03-19T20:06:00Z</time>
      </trkpt>
      <trkpt lat="44.46354" lon="5.75395">
        <ele>655</ele>
        <time>2010-03-19T20:05:46Z</time>
      </trkpt>
      <trkpt lat="44.46359" lon="5.75368">
        <ele>656</ele>
        <time>2010-03-19T20:05:32Z</time>
      </trkpt>
      <trkpt lat="44.46358" lon="5.75346">
        <ele>657</ele>
        <time>2010-03-19T20:05:18Z</time>
      </trkpt>
      <trkpt lat="44.4634" lon="5.75344">
        <ele>657</ele>
        <time>2010-03-19T20:05:04Z</time>
      </trkpt>
      <trkpt lat="44.4632" lon="5.75341">
        <ele>657</ele>
        <time>2010-03-19T20:04:50Z</time>
      </trkpt>
      <trkpt lat="44.46303" lon="5.75332">
        <ele>656</ele>
        <time>2010-03-19T20:04:36Z</time>
      </trkpt>
      <trkpt lat="44.46288" lon="5.75312">
        <ele>655</ele>
        <time>2010-03-19T20:04:22Z</time>
      </trkpt>
      <trkpt lat="44.46274" lon="5.75291">
        <ele>655</ele>
        <time>2010-03-19T20:04:08Z</time>
      </trkpt>
      <trkpt lat="44.46259" lon="5.7527">
        <ele>655</ele>
        <time>2010-03-19T20:03:54Z</time>
      </trkpt>
      <trkpt lat="44.46244" lon="5.75249">
        <ele>656</ele>
        <time>2010-03-19T20:03:40Z</time>
      </trkpt>
      <trkpt lat="44.46228" lon="5.7523">
        <ele>658</ele>
        <time>2010-03-19T20:03:26Z</time>
      </trkpt>
      <trkpt lat="44.46218" lon="5.75224">
        <ele>658</ele>
        <time>2010-03-19T20:03:12Z</time>
      </trkpt>
      <trkpt lat="44.4622" lon="5.75224">
        <ele>657</ele>
        <time>2010-03-19T20:02:58Z</time>
      </trkpt>
      <trkpt lat="44.46221" lon="5.75224">
        <ele>656</ele>
        <time>2010-03-19T20:02:44Z</time>
      </trkpt>
      <trkpt lat="44.46221" lon="5.75224">
        <ele>657</ele>
        <time>2010-03-19T20:02:30Z</time>
      </trkpt>
      <trkpt lat="44.46223" lon="5.75223">
        <ele>655</ele>
        <time>2010-03-19T20:02:16Z</time>
      </trkpt>
      <trkpt lat="44.46215" lon="5.75211">
        <ele>655</ele>
        <time>2010-03-19T20:02:02Z</time>
      </trkpt>
      <trkpt lat="44.46201" lon="5.75197">
        <ele>654</ele>
        <time>2010-03-19T20:01:48Z</time>
      </trkpt>
      <trkpt lat="44.46185" lon="5.75184">
        <ele>653</ele>
        <time>2010-03-19T20:01:34Z</time>
      </trkpt>
      <trkpt lat="44.46172" lon="5.75175">
        <ele>652</ele>
        <time>2010-03-19T20:01:20Z</time>
      </trkpt>
      <trkpt lat="44.46157" lon="5.75167">
        <ele>652</ele>
        <time>2010-03-19T20:01:06Z</time>
      </trkpt>
      <trkpt lat="44.46141" lon="5.75159">
        <ele>652</ele>
        <time>2010-03-19T20:00:52Z</time>
      </trkpt>
      <trkpt lat="44.46127" lon="5.75151">
        <ele>650</ele>
        <time>2010-03-19T20:00:38Z</time>
      </trkpt>
      <trkpt lat="44.46111" lon="5.75142">
        <ele>650</ele>
        <time>2010-03-19T20:00:24Z</time>
      </trkpt>
      <trkpt lat="44.46095" lon="5.75134">
        <ele>649</ele>
        <time>2010-03-19T20:00:10Z</time>
      </trkpt>
      <trkpt lat="44.46079" lon="5.75125">
        <ele>649</ele>
        <time>2010-03-19T19:59:56Z</time>
      </trkpt>
      <trkpt lat="44.46064" lon="5.75117">
        <ele>649</ele>
        <time>2010-03-19T19:59:42Z</time>
      </trkpt>
      <trkpt lat="44.46047" lon="5.75106">
        <ele>649</ele>
        <time>2010-03-19T19:59:28Z</time>
      </trkpt>
      <trkpt lat="44.46032" lon="5.75097">
        <ele>649</ele>
        <time>2010-03-19T19:59:14Z</time>
      </trkpt>
      <trkpt lat="44.46017" lon="5.75087">
        <ele>648</ele>
        <time>2010-03-19T19:59:00Z</time>
      </trkpt>
      <trkpt lat="44.4601" lon="5.75082">
        <ele>648</ele>
        <time>2010-03-19T19:58:46Z</time>
      </trkpt>
      <trkpt lat="44.45995" lon="5.75073">
        <ele>648</ele>
        <time>2010-03-19T19:58:32Z</time>
      </trkpt>
      <trkpt lat="44.4598" lon="5.75062">
        <ele>648</ele>
        <time>2010-03-19T19:58:18Z</time>
      </trkpt>
      <trkpt lat="44.45965" lon="5.75051">
        <ele>648</ele>
        <time>2010-03-19T19:58:04Z</time>
      </trkpt>
      <trkpt lat="44.45952" lon="5.75038">
        <ele>648</ele>
        <time>2010-03-19T19:57:50Z</time>
      </trkpt>
      <trkpt lat="44.4594" lon="5.75022">
        <ele>648</ele>
        <time>2010-03-19T19:57:36Z</time>
      </trkpt>
      <trkpt lat="44.45928" lon="5.75006">
        <ele>648</ele>
        <time>2010-03-19T19:57:22Z</time>
      </trkpt>
      <trkpt lat="44.45916" lon="5.74988">
        <ele>647</ele>
        <time>2010-03-19T19:57:08Z</time>
      </trkpt>
      <trkpt lat="44.45904" lon="5.74972">
        <ele>647</ele>
        <time>2010-03-19T19:56:54Z</time>
      </trkpt>
      <trkpt lat="44.45891" lon="5.7496">
        <ele>647</ele>
        <time>2010-03-19T19:56:40Z</time>
      </trkpt>
      <trkpt lat="44.45876" lon="5.7495">
        <ele>648</ele>
        <time>2010-03-19T19:56:26Z</time>
      </trkpt>
      <trkpt lat="44.45858" lon="5.74939">
        <ele>649</ele>
        <time>2010-03-19T19:56:12Z</time>
      </trkpt>
      <trkpt lat="44.45847" lon="5.74922">
        <ele>649</ele>
        <time>2010-03-19T19:55:58Z</time>
      </trkpt>
      <trkpt lat="44.45838" lon="5.74903">
        <ele>647</ele>
        <time>2010-03-19T19:55:44Z</time>
      </trkpt>
      <trkpt lat="44.45824" lon="5.74908">
        <ele>647</ele>
        <time>2010-03-19T19:55:30Z</time>
      </trkpt>
      <trkpt lat="44.45812" lon="5.74922">
        <ele>645</ele>
        <time>2010-03-19T19:55:16Z</time>
      </trkpt>
      <trkpt lat="44.45809" lon="5.74924">
        <ele>645</ele>
        <time>2010-03-19T19:55:02Z</time>
      </trkpt>
      <trkpt lat="44.45803" lon="5.74919">
        <ele>644</ele>
        <time>2010-03-19T19:54:48Z</time>
      </trkpt>
      <trkpt lat="44.45802" lon="5.74917">
        <ele>644</ele>
        <time>2010-03-19T19:54:34Z</time>
      </trkpt>
      <trkpt lat="44.45802" lon="5.74918">
        <ele>643</ele>
        <time>2010-03-19T19:54:20Z</time>
      </trkpt>
      <trkpt lat="44.45803" lon="5.74913">
        <ele>642</ele>
        <time>2010-03-19T19:54:06Z</time>
      </trkpt>
      <trkpt lat="44.45805" lon="5.74914">
        <ele>641</ele>
        <time>2010-03-19T19:53:52Z</time>
      </trkpt>
      <trkpt lat="44.45806" lon="5.74911">
        <ele>641</ele>
        <time>2010-03-19T19:53:38Z</time>
      </trkpt>
      <trkpt lat="44.45805" lon="5.7491">
        <ele>640</ele>
        <time>2010-03-19T19:53:24Z</time>
      </trkpt>
      <trkpt lat="44.45805" lon="5.74911">
        <ele>640</ele>
        <time>2010-03-19T19:53:10Z</time>
      </trkpt>
      <trkpt lat="44.45805" lon="5.74911">
        <ele>639</ele>
        <time>2010-03-19T19:52:56Z</time>
      </trkpt>
      <trkpt lat="44.45805" lon="5.74911">
        <ele>638</ele>
        <time>2010-03-19T19:52:42Z</time>
      </trkpt>
      <trkpt lat="44.45805" lon="5.74911">
        <ele>638</ele>
        <time>2010-03-19T19:52:28Z</time>
      </trkpt>
      <trkpt lat="44.45806" lon="5.74911">
        <ele>637</ele>
        <time>2010-03-19T19:52:14Z</time>
      </trkpt>
      <trkpt lat="44.45806" lon="5.74911">
        <ele>637</ele>
        <time>2010-03-19T19:52:00Z</time>
      </trkpt>
      <trkpt lat="44.45807" lon="5.74911">
        <ele>636</ele>
        <time>2010-03-19T19:51:46Z</time>
      </trkpt>
      <trkpt lat="44.45807" lon="5.74911">
        <ele>635</ele>
        <time>2010-03-19T19:51:32Z</time>
      </trkpt>
      <trkpt lat="44.45807" lon="5.74911">
        <ele>635</ele>
        <time>2010-03-19T19:51:18Z</time>
      </trkpt>
      <trkpt lat="44.45807" lon="5.74911">
        <ele>634</ele>
        <time>2010-03-19T19:51:04Z</time>
      </trkpt>
      <trkpt lat="44.45807" lon="5.74912">
        <ele>634</ele>
        <time>2010-03-19T19:50:50Z</time>
      </trkpt>
      <trkpt lat="44.45807" lon="5.74911">
        <ele>633</ele>
        <time>2010-03-19T19:50:36Z</time>
      </trkpt>
      <trkpt lat="44.45809" lon="5.7491">
        <ele>631</ele>
        <time>2010-03-19T19:50:22Z</time>
      </trkpt>
      <trkpt lat="44.45805" lon="5.74909">
        <ele>631</ele>
        <time>2010-03-19T19:50:08Z</time>
      </trkpt>
      <trkpt lat="44.45805" lon="5.7491">
        <ele>631</ele>
        <time>2010-03-19T19:49:54Z</time>
      </trkpt>
      <trkpt lat="44.45805" lon="5.74911">
        <ele>630</ele>
        <time>2010-03-19T19:49:40Z</time>
      </trkpt>
      <trkpt lat="44.45805" lon="5.74911">
        <ele>629</ele>
        <time>2010-03-19T19:49:26Z</time>
      </trkpt>
      <trkpt lat="44.45804" lon="5.7491">
        <ele>628</ele>
        <time>2010-03-19T19:49:12Z</time>
      </trkpt>
      <trkpt lat="44.45804" lon="5.7491">
        <ele>627</ele>
        <time>2010-03-19T19:48:58Z</time>
      </trkpt>
      <trkpt lat="44.45804" lon="5.7491">
        <ele>627</ele>
        <time>2010-03-19T19:48:44Z</time>
      </trkpt>
      <trkpt lat="44.45802" lon="5.74911">
        <ele>625</ele>
        <time>2010-03-19T19:48:30Z</time>
      </trkpt>
      <trkpt lat="44.45802" lon="5.74915">
        <ele>625</ele>
        <time>2010-03-19T19:48:16Z</time>
      </trkpt>
      <trkpt lat="44.45812" lon="5.74924">
        <ele>624</ele>
        <time>2010-03-19T19:48:02Z</time>
      </trkpt>
      <trkpt lat="44.45817" lon="5.74923">
        <ele>624</ele>
        <time>2010-03-19T19:47:48Z</time>
      </trkpt>
      <trkpt lat="44.45818" lon="5.74923">
        <ele>623</ele>
        <time>2010-03-19T19:47:34Z</time>
      </trkpt>
      <trkpt lat="44.45817" lon="5.74929">
        <ele>621</ele>
        <time>2010-03-19T19:47:20Z</time>
      </trkpt>
    </trkseg>
  </trk>
</gpx>